<?xml version="1.0" encoding="UTF-8" standalone="no" ?>
<gpx xmlns="http://www.topografix.com/GPX/1/1" xmlns:xsi="http://www.w3.org/2001/XMLSchema-instance" xsi:schemaLocation="http://www.topografix.com/GPX/1/1 http://www.topografix.com/GPX/1/1/gpx.xsd" version="1.1" creator="VisuGPX - https://www.visugpx.com">
  <metadata>
    <name>Les boucles d'Agat 2022</name>
  </metadata>
  <trk>
    <name><![CDATA[Les boucles d'Agat 2022_1]]></name>
    <trkseg>
      <trkpt lat="45.12844" lon="0.63907">
        <ele>161</ele>
        <time>2022-04-03T07:00:12Z</time>
      </trkpt>
      <trkpt lat="45.12844" lon="0.63907">
        <ele>161</ele>
        <time>2022-04-03T07:00:13Z</time>
      </trkpt>
      <trkpt lat="45.12839" lon="0.63903">
        <ele>161.3</ele>
        <time>2022-04-03T07:00:33Z</time>
      </trkpt>
      <trkpt lat="45.12835" lon="0.63905">
        <ele>161.5</ele>
        <time>2022-04-03T07:00:35Z</time>
      </trkpt>
      <trkpt lat="45.12832" lon="0.63912">
        <ele>161.9</ele>
        <time>2022-04-03T07:00:39Z</time>
      </trkpt>
      <trkpt lat="45.12833" lon="0.63915">
        <ele>162</ele>
        <time>2022-04-03T07:00:40Z</time>
      </trkpt>
      <trkpt lat="45.12834" lon="0.63916">
        <ele>162</ele>
        <time>2022-04-03T07:00:41Z</time>
      </trkpt>
      <trkpt lat="45.12837" lon="0.63922">
        <ele>162.3</ele>
        <time>2022-04-03T07:00:44Z</time>
      </trkpt>
      <trkpt lat="45.12842" lon="0.63935">
        <ele>162.9</ele>
        <time>2022-04-03T07:00:50Z</time>
      </trkpt>
      <trkpt lat="45.12841" lon="0.63944">
        <ele>163.3</ele>
        <time>2022-04-03T07:00:54Z</time>
      </trkpt>
      <trkpt lat="45.1284" lon="0.63946">
        <ele>163.4</ele>
        <time>2022-04-03T07:00:55Z</time>
      </trkpt>
      <trkpt lat="45.12837" lon="0.63955">
        <ele>163.3</ele>
        <time>2022-04-03T07:00:58Z</time>
      </trkpt>
      <trkpt lat="45.12838" lon="0.63958">
        <ele>163.1</ele>
        <time>2022-04-03T07:00:59Z</time>
      </trkpt>
      <trkpt lat="45.12845" lon="0.63978">
        <ele>161.3</ele>
        <time>2022-04-03T07:01:06Z</time>
      </trkpt>
      <trkpt lat="45.12844" lon="0.63979">
        <ele>161.3</ele>
        <time>2022-04-03T07:01:07Z</time>
      </trkpt>
      <trkpt lat="45.12844" lon="0.6398">
        <ele>161.4</ele>
        <time>2022-04-03T07:01:10Z</time>
      </trkpt>
      <trkpt lat="45.12843" lon="0.63982">
        <ele>161.5</ele>
        <time>2022-04-03T07:01:12Z</time>
      </trkpt>
      <trkpt lat="45.12843" lon="0.63983">
        <ele>161.6</ele>
        <time>2022-04-03T07:01:14Z</time>
      </trkpt>
      <trkpt lat="45.12842" lon="0.63984">
        <ele>161.6</ele>
        <time>2022-04-03T07:01:15Z</time>
      </trkpt>
      <trkpt lat="45.1283" lon="0.64011">
        <ele>161.7</ele>
        <time>2022-04-03T07:01:20Z</time>
      </trkpt>
      <trkpt lat="45.12821" lon="0.64018">
        <ele>161.6</ele>
        <time>2022-04-03T07:01:24Z</time>
      </trkpt>
      <trkpt lat="45.12816" lon="0.64026">
        <ele>161.8</ele>
        <time>2022-04-03T07:01:28Z</time>
      </trkpt>
      <trkpt lat="45.12813" lon="0.64027">
        <ele>161.8</ele>
        <time>2022-04-03T07:01:29Z</time>
      </trkpt>
      <trkpt lat="45.12809" lon="0.64033">
        <ele>161.4</ele>
        <time>2022-04-03T07:01:32Z</time>
      </trkpt>
      <trkpt lat="45.12805" lon="0.64037">
        <ele>161.5</ele>
        <time>2022-04-03T07:01:34Z</time>
      </trkpt>
      <trkpt lat="45.12799" lon="0.6404">
        <ele>161.7</ele>
        <time>2022-04-03T07:01:36Z</time>
      </trkpt>
      <trkpt lat="45.12794" lon="0.64046">
        <ele>161.8</ele>
        <time>2022-04-03T07:01:38Z</time>
      </trkpt>
      <trkpt lat="45.12786" lon="0.64061">
        <ele>162</ele>
        <time>2022-04-03T07:01:42Z</time>
      </trkpt>
      <trkpt lat="45.12779" lon="0.64071">
        <ele>163.4</ele>
        <time>2022-04-03T07:01:45Z</time>
      </trkpt>
      <trkpt lat="45.12776" lon="0.64074">
        <ele>163.5</ele>
        <time>2022-04-03T07:01:46Z</time>
      </trkpt>
      <trkpt lat="45.12762" lon="0.64094">
        <ele>164.8</ele>
        <time>2022-04-03T07:01:50Z</time>
      </trkpt>
      <trkpt lat="45.12757" lon="0.64098">
        <ele>164.9</ele>
        <time>2022-04-03T07:01:51Z</time>
      </trkpt>
      <trkpt lat="45.12745" lon="0.64112">
        <ele>165.9</ele>
        <time>2022-04-03T07:01:54Z</time>
      </trkpt>
      <trkpt lat="45.12742" lon="0.64118">
        <ele>166.8</ele>
        <time>2022-04-03T07:01:55Z</time>
      </trkpt>
      <trkpt lat="45.12737" lon="0.64129">
        <ele>166.9</ele>
        <time>2022-04-03T07:01:57Z</time>
      </trkpt>
      <trkpt lat="45.12733" lon="0.64134">
        <ele>167.5</ele>
        <time>2022-04-03T07:01:58Z</time>
      </trkpt>
      <trkpt lat="45.12729" lon="0.64139">
        <ele>167.9</ele>
        <time>2022-04-03T07:01:59Z</time>
      </trkpt>
      <trkpt lat="45.12723" lon="0.6415">
        <ele>168.7</ele>
        <time>2022-04-03T07:02:01Z</time>
      </trkpt>
      <trkpt lat="45.12719" lon="0.64156">
        <ele>169.2</ele>
        <time>2022-04-03T07:02:02Z</time>
      </trkpt>
      <trkpt lat="45.12716" lon="0.6416">
        <ele>169.3</ele>
        <time>2022-04-03T07:02:03Z</time>
      </trkpt>
      <trkpt lat="45.12707" lon="0.64173">
        <ele>170.2</ele>
        <time>2022-04-03T07:02:06Z</time>
      </trkpt>
      <trkpt lat="45.12694" lon="0.64199">
        <ele>170.5</ele>
        <time>2022-04-03T07:02:12Z</time>
      </trkpt>
      <trkpt lat="45.12689" lon="0.64218">
        <ele>170.7</ele>
        <time>2022-04-03T07:02:17Z</time>
      </trkpt>
      <trkpt lat="45.12687" lon="0.64231">
        <ele>171</ele>
        <time>2022-04-03T07:02:21Z</time>
      </trkpt>
      <trkpt lat="45.12686" lon="0.64233">
        <ele>171.1</ele>
        <time>2022-04-03T07:02:22Z</time>
      </trkpt>
      <trkpt lat="45.12685" lon="0.64243">
        <ele>172.3</ele>
        <time>2022-04-03T07:02:26Z</time>
      </trkpt>
      <trkpt lat="45.12683" lon="0.64249">
        <ele>171.8</ele>
        <time>2022-04-03T07:02:30Z</time>
      </trkpt>
      <trkpt lat="45.12682" lon="0.64251">
        <ele>171.9</ele>
        <time>2022-04-03T07:02:31Z</time>
      </trkpt>
      <trkpt lat="45.12682" lon="0.64253">
        <ele>173.5</ele>
        <time>2022-04-03T07:02:32Z</time>
      </trkpt>
      <trkpt lat="45.12681" lon="0.64258">
        <ele>173.6</ele>
        <time>2022-04-03T07:02:35Z</time>
      </trkpt>
      <trkpt lat="45.12681" lon="0.64263">
        <ele>173.7</ele>
        <time>2022-04-03T07:02:37Z</time>
      </trkpt>
      <trkpt lat="45.12683" lon="0.64271">
        <ele>175.2</ele>
        <time>2022-04-03T07:02:41Z</time>
      </trkpt>
      <trkpt lat="45.12683" lon="0.64276">
        <ele>175.3</ele>
        <time>2022-04-03T07:02:43Z</time>
      </trkpt>
      <trkpt lat="45.12682" lon="0.64283">
        <ele>175.3</ele>
        <time>2022-04-03T07:02:46Z</time>
      </trkpt>
      <trkpt lat="45.12677" lon="0.64285">
        <ele>175.4</ele>
        <time>2022-04-03T07:02:49Z</time>
      </trkpt>
      <trkpt lat="45.12678" lon="0.6429">
        <ele>176.9</ele>
        <time>2022-04-03T07:02:52Z</time>
      </trkpt>
      <trkpt lat="45.12677" lon="0.64291">
        <ele>176.9</ele>
        <time>2022-04-03T07:02:54Z</time>
      </trkpt>
      <trkpt lat="45.1267" lon="0.643">
        <ele>175.3</ele>
        <time>2022-04-03T07:03:04Z</time>
      </trkpt>
      <trkpt lat="45.12668" lon="0.64301">
        <ele>175.4</ele>
        <time>2022-04-03T07:03:05Z</time>
      </trkpt>
      <trkpt lat="45.12668" lon="0.64303">
        <ele>175.5</ele>
        <time>2022-04-03T07:03:07Z</time>
      </trkpt>
      <trkpt lat="45.12638" lon="0.64417">
        <ele>187.1</ele>
        <time>2022-04-03T07:05:20Z</time>
      </trkpt>
      <trkpt lat="45.12637" lon="0.64418">
        <ele>187.1</ele>
        <time>2022-04-03T07:05:21Z</time>
      </trkpt>
      <trkpt lat="45.12624" lon="0.64415">
        <ele>187.5</ele>
        <time>2022-04-03T07:05:27Z</time>
      </trkpt>
      <trkpt lat="45.12607" lon="0.64412">
        <ele>187.9</ele>
        <time>2022-04-03T07:05:33Z</time>
      </trkpt>
      <trkpt lat="45.12582" lon="0.64409">
        <ele>188.7</ele>
        <time>2022-04-03T07:05:41Z</time>
      </trkpt>
      <trkpt lat="45.12565" lon="0.64407">
        <ele>189.2</ele>
        <time>2022-04-03T07:05:46Z</time>
      </trkpt>
      <trkpt lat="45.12544" lon="0.64411">
        <ele>185</ele>
        <time>2022-04-03T07:05:52Z</time>
      </trkpt>
      <trkpt lat="45.1252" lon="0.64415">
        <ele>182.8</ele>
        <time>2022-04-03T07:05:59Z</time>
      </trkpt>
      <trkpt lat="45.12494" lon="0.64421">
        <ele>185.2</ele>
        <time>2022-04-03T07:06:08Z</time>
      </trkpt>
      <trkpt lat="45.12475" lon="0.64421">
        <ele>186.8</ele>
        <time>2022-04-03T07:06:14Z</time>
      </trkpt>
      <trkpt lat="45.12457" lon="0.64422">
        <ele>188.4</ele>
        <time>2022-04-03T07:06:20Z</time>
      </trkpt>
      <trkpt lat="45.12448" lon="0.64422">
        <ele>189.1</ele>
        <time>2022-04-03T07:06:25Z</time>
      </trkpt>
      <trkpt lat="45.12444" lon="0.64421">
        <ele>189.4</ele>
        <time>2022-04-03T07:06:28Z</time>
      </trkpt>
      <trkpt lat="45.12441" lon="0.6442">
        <ele>190.6</ele>
        <time>2022-04-03T07:06:29Z</time>
      </trkpt>
      <trkpt lat="45.12407" lon="0.64414">
        <ele>194.1</ele>
        <time>2022-04-03T07:06:32Z</time>
      </trkpt>
      <trkpt lat="45.12403" lon="0.64414">
        <ele>195.8</ele>
        <time>2022-04-03T07:06:33Z</time>
      </trkpt>
      <trkpt lat="45.1239" lon="0.64413">
        <ele>197.3</ele>
        <time>2022-04-03T07:06:36Z</time>
      </trkpt>
      <trkpt lat="45.12381" lon="0.64413">
        <ele>198.8</ele>
        <time>2022-04-03T07:06:38Z</time>
      </trkpt>
      <trkpt lat="45.12367" lon="0.64413">
        <ele>200.4</ele>
        <time>2022-04-03T07:06:42Z</time>
      </trkpt>
      <trkpt lat="45.12352" lon="0.64413">
        <ele>202.3</ele>
        <time>2022-04-03T07:06:47Z</time>
      </trkpt>
      <trkpt lat="45.12342" lon="0.64412">
        <ele>203.9</ele>
        <time>2022-04-03T07:06:51Z</time>
      </trkpt>
      <trkpt lat="45.12333" lon="0.64412">
        <ele>203.8</ele>
        <time>2022-04-03T07:06:56Z</time>
      </trkpt>
      <trkpt lat="45.12322" lon="0.64405">
        <ele>203.2</ele>
        <time>2022-04-03T07:07:01Z</time>
      </trkpt>
      <trkpt lat="45.12303" lon="0.64395">
        <ele>206.6</ele>
        <time>2022-04-03T07:07:07Z</time>
      </trkpt>
      <trkpt lat="45.12287" lon="0.64387">
        <ele>206.3</ele>
        <time>2022-04-03T07:07:13Z</time>
      </trkpt>
      <trkpt lat="45.12282" lon="0.64384">
        <ele>208</ele>
        <time>2022-04-03T07:07:15Z</time>
      </trkpt>
      <trkpt lat="45.12277" lon="0.6438">
        <ele>207.9</ele>
        <time>2022-04-03T07:07:17Z</time>
      </trkpt>
      <trkpt lat="45.12269" lon="0.64371">
        <ele>208.2</ele>
        <time>2022-04-03T07:07:20Z</time>
      </trkpt>
      <trkpt lat="45.12266" lon="0.64369">
        <ele>208.1</ele>
        <time>2022-04-03T07:07:21Z</time>
      </trkpt>
      <trkpt lat="45.12252" lon="0.64359">
        <ele>209</ele>
        <time>2022-04-03T07:07:26Z</time>
      </trkpt>
      <trkpt lat="45.12248" lon="0.64356">
        <ele>208.9</ele>
        <time>2022-04-03T07:07:28Z</time>
      </trkpt>
      <trkpt lat="45.12242" lon="0.64351">
        <ele>209.3</ele>
        <time>2022-04-03T07:07:30Z</time>
      </trkpt>
      <trkpt lat="45.12237" lon="0.64344">
        <ele>209.2</ele>
        <time>2022-04-03T07:07:33Z</time>
      </trkpt>
      <trkpt lat="45.12222" lon="0.6433">
        <ele>210.9</ele>
        <time>2022-04-03T07:07:39Z</time>
      </trkpt>
      <trkpt lat="45.12213" lon="0.64329">
        <ele>210.8</ele>
        <time>2022-04-03T07:07:43Z</time>
      </trkpt>
      <trkpt lat="45.12206" lon="0.64336">
        <ele>211.8</ele>
        <time>2022-04-03T07:07:47Z</time>
      </trkpt>
      <trkpt lat="45.12203" lon="0.64341">
        <ele>212.1</ele>
        <time>2022-04-03T07:07:49Z</time>
      </trkpt>
      <trkpt lat="45.12197" lon="0.6435">
        <ele>213</ele>
        <time>2022-04-03T07:07:53Z</time>
      </trkpt>
      <trkpt lat="45.12195" lon="0.64351">
        <ele>212.9</ele>
        <time>2022-04-03T07:07:54Z</time>
      </trkpt>
      <trkpt lat="45.12189" lon="0.64361">
        <ele>212.9</ele>
        <time>2022-04-03T07:07:59Z</time>
      </trkpt>
      <trkpt lat="45.12188" lon="0.64363">
        <ele>212.8</ele>
        <time>2022-04-03T07:08:00Z</time>
      </trkpt>
      <trkpt lat="45.12183" lon="0.64369">
        <ele>213</ele>
        <time>2022-04-03T07:08:03Z</time>
      </trkpt>
      <trkpt lat="45.12181" lon="0.64373">
        <ele>212.9</ele>
        <time>2022-04-03T07:08:05Z</time>
      </trkpt>
      <trkpt lat="45.12176" lon="0.6438">
        <ele>212.4</ele>
        <time>2022-04-03T07:08:08Z</time>
      </trkpt>
      <trkpt lat="45.12173" lon="0.64381">
        <ele>212.6</ele>
        <time>2022-04-03T07:08:09Z</time>
      </trkpt>
      <trkpt lat="45.12171" lon="0.64385">
        <ele>212.5</ele>
        <time>2022-04-03T07:08:11Z</time>
      </trkpt>
      <trkpt lat="45.12164" lon="0.644">
        <ele>211.9</ele>
        <time>2022-04-03T07:08:16Z</time>
      </trkpt>
      <trkpt lat="45.12156" lon="0.64422">
        <ele>211.7</ele>
        <time>2022-04-03T07:08:22Z</time>
      </trkpt>
      <trkpt lat="45.12152" lon="0.64428">
        <ele>211.6</ele>
        <time>2022-04-03T07:08:27Z</time>
      </trkpt>
      <trkpt lat="45.12147" lon="0.64433">
        <ele>211.6</ele>
        <time>2022-04-03T07:08:29Z</time>
      </trkpt>
      <trkpt lat="45.12143" lon="0.64435">
        <ele>211.6</ele>
        <time>2022-04-03T07:08:30Z</time>
      </trkpt>
      <trkpt lat="45.12113" lon="0.64447">
        <ele>211.3</ele>
        <time>2022-04-03T07:08:37Z</time>
      </trkpt>
      <trkpt lat="45.12086" lon="0.64461">
        <ele>211.1</ele>
        <time>2022-04-03T07:08:43Z</time>
      </trkpt>
      <trkpt lat="45.12068" lon="0.64471">
        <ele>210.9</ele>
        <time>2022-04-03T07:08:47Z</time>
      </trkpt>
      <trkpt lat="45.12064" lon="0.64475">
        <ele>210.8</ele>
        <time>2022-04-03T07:08:48Z</time>
      </trkpt>
      <trkpt lat="45.12059" lon="0.64479">
        <ele>210.7</ele>
        <time>2022-04-03T07:08:49Z</time>
      </trkpt>
      <trkpt lat="45.12044" lon="0.64491">
        <ele>210.5</ele>
        <time>2022-04-03T07:08:52Z</time>
      </trkpt>
      <trkpt lat="45.1204" lon="0.64495">
        <ele>210.5</ele>
        <time>2022-04-03T07:08:53Z</time>
      </trkpt>
      <trkpt lat="45.12033" lon="0.64501">
        <ele>210.6</ele>
        <time>2022-04-03T07:08:55Z</time>
      </trkpt>
      <trkpt lat="45.12026" lon="0.64507">
        <ele>210.6</ele>
        <time>2022-04-03T07:08:57Z</time>
      </trkpt>
      <trkpt lat="45.11995" lon="0.64464">
        <ele>211.8</ele>
        <time>2022-04-03T07:09:02Z</time>
      </trkpt>
      <trkpt lat="45.11979" lon="0.64468">
        <ele>212.5</ele>
        <time>2022-04-03T07:09:06Z</time>
      </trkpt>
      <trkpt lat="45.11964" lon="0.64471">
        <ele>213.2</ele>
        <time>2022-04-03T07:09:10Z</time>
      </trkpt>
      <trkpt lat="45.11953" lon="0.64474">
        <ele>213.8</ele>
        <time>2022-04-03T07:09:14Z</time>
      </trkpt>
      <trkpt lat="45.11939" lon="0.64476">
        <ele>214.5</ele>
        <time>2022-04-03T07:09:18Z</time>
      </trkpt>
      <trkpt lat="45.11927" lon="0.64479">
        <ele>215</ele>
        <time>2022-04-03T07:09:23Z</time>
      </trkpt>
      <trkpt lat="45.11912" lon="0.64478">
        <ele>215.4</ele>
        <time>2022-04-03T07:09:28Z</time>
      </trkpt>
      <trkpt lat="45.11898" lon="0.64473">
        <ele>215.5</ele>
        <time>2022-04-03T07:09:33Z</time>
      </trkpt>
      <trkpt lat="45.11887" lon="0.64469">
        <ele>215.5</ele>
        <time>2022-04-03T07:09:37Z</time>
      </trkpt>
      <trkpt lat="45.11861" lon="0.64456">
        <ele>215.8</ele>
        <time>2022-04-03T07:09:44Z</time>
      </trkpt>
      <trkpt lat="45.11838" lon="0.64445">
        <ele>216.3</ele>
        <time>2022-04-03T07:09:50Z</time>
      </trkpt>
      <trkpt lat="45.11815" lon="0.64434">
        <ele>217</ele>
        <time>2022-04-03T07:09:56Z</time>
      </trkpt>
      <trkpt lat="45.11797" lon="0.64427">
        <ele>217.5</ele>
        <time>2022-04-03T07:10:01Z</time>
      </trkpt>
      <trkpt lat="45.11774" lon="0.64412">
        <ele>217.9</ele>
        <time>2022-04-03T07:10:07Z</time>
      </trkpt>
      <trkpt lat="45.11761" lon="0.64395">
        <ele>218</ele>
        <time>2022-04-03T07:10:12Z</time>
      </trkpt>
      <trkpt lat="45.11739" lon="0.64402">
        <ele>217.4</ele>
        <time>2022-04-03T07:10:17Z</time>
      </trkpt>
      <trkpt lat="45.1173" lon="0.64405">
        <ele>217.2</ele>
        <time>2022-04-03T07:10:19Z</time>
      </trkpt>
      <trkpt lat="45.1172" lon="0.64408">
        <ele>217</ele>
        <time>2022-04-03T07:10:21Z</time>
      </trkpt>
      <trkpt lat="45.11692" lon="0.64417">
        <ele>216.2</ele>
        <time>2022-04-03T07:10:27Z</time>
      </trkpt>
      <trkpt lat="45.11677" lon="0.64422">
        <ele>215.8</ele>
        <time>2022-04-03T07:10:30Z</time>
      </trkpt>
      <trkpt lat="45.11667" lon="0.64427">
        <ele>215.4</ele>
        <time>2022-04-03T07:10:32Z</time>
      </trkpt>
      <trkpt lat="45.11657" lon="0.6443">
        <ele>215.1</ele>
        <time>2022-04-03T07:10:34Z</time>
      </trkpt>
      <trkpt lat="45.11646" lon="0.64435">
        <ele>214.7</ele>
        <time>2022-04-03T07:10:36Z</time>
      </trkpt>
      <trkpt lat="45.11617" lon="0.64451">
        <ele>213.4</ele>
        <time>2022-04-03T07:10:41Z</time>
      </trkpt>
      <trkpt lat="45.11611" lon="0.64454">
        <ele>213.1</ele>
        <time>2022-04-03T07:10:42Z</time>
      </trkpt>
      <trkpt lat="45.11598" lon="0.64459">
        <ele>212.4</ele>
        <time>2022-04-03T07:10:44Z</time>
      </trkpt>
      <trkpt lat="45.11591" lon="0.6446">
        <ele>212.1</ele>
        <time>2022-04-03T07:10:45Z</time>
      </trkpt>
      <trkpt lat="45.1156" lon="0.64445">
        <ele>210</ele>
        <time>2022-04-03T07:10:49Z</time>
      </trkpt>
      <trkpt lat="45.11553" lon="0.64439">
        <ele>209.6</ele>
        <time>2022-04-03T07:10:50Z</time>
      </trkpt>
      <trkpt lat="45.11547" lon="0.64431">
        <ele>209.3</ele>
        <time>2022-04-03T07:10:51Z</time>
      </trkpt>
      <trkpt lat="45.11535" lon="0.64414">
        <ele>209</ele>
        <time>2022-04-03T07:10:53Z</time>
      </trkpt>
      <trkpt lat="45.11529" lon="0.64405">
        <ele>209.1</ele>
        <time>2022-04-03T07:10:54Z</time>
      </trkpt>
      <trkpt lat="45.11516" lon="0.64393">
        <ele>209.7</ele>
        <time>2022-04-03T07:10:56Z</time>
      </trkpt>
      <trkpt lat="45.1151" lon="0.64388">
        <ele>210.2</ele>
        <time>2022-04-03T07:10:57Z</time>
      </trkpt>
      <trkpt lat="45.11482" lon="0.64374">
        <ele>211.9</ele>
        <time>2022-04-03T07:11:02Z</time>
      </trkpt>
      <trkpt lat="45.11473" lon="0.64376">
        <ele>211.9</ele>
        <time>2022-04-03T07:11:04Z</time>
      </trkpt>
      <trkpt lat="45.1147" lon="0.64379">
        <ele>211.9</ele>
        <time>2022-04-03T07:11:05Z</time>
      </trkpt>
      <trkpt lat="45.11466" lon="0.64383">
        <ele>211.9</ele>
        <time>2022-04-03T07:11:06Z</time>
      </trkpt>
      <trkpt lat="45.11459" lon="0.64397">
        <ele>211.7</ele>
        <time>2022-04-03T07:11:08Z</time>
      </trkpt>
      <trkpt lat="45.11454" lon="0.64413">
        <ele>211.7</ele>
        <time>2022-04-03T07:11:10Z</time>
      </trkpt>
      <trkpt lat="45.11449" lon="0.6444">
        <ele>211.5</ele>
        <time>2022-04-03T07:11:13Z</time>
      </trkpt>
      <trkpt lat="45.11435" lon="0.64501">
        <ele>211.4</ele>
        <time>2022-04-03T07:11:20Z</time>
      </trkpt>
      <trkpt lat="45.11432" lon="0.64516">
        <ele>211.4</ele>
        <time>2022-04-03T07:11:22Z</time>
      </trkpt>
      <trkpt lat="45.11427" lon="0.64536">
        <ele>211.3</ele>
        <time>2022-04-03T07:11:25Z</time>
      </trkpt>
      <trkpt lat="45.11415" lon="0.6459">
        <ele>210.6</ele>
        <time>2022-04-03T07:11:33Z</time>
      </trkpt>
      <trkpt lat="45.11407" lon="0.64626">
        <ele>209.8</ele>
        <time>2022-04-03T07:11:38Z</time>
      </trkpt>
      <trkpt lat="45.11401" lon="0.64659">
        <ele>208.8</ele>
        <time>2022-04-03T07:11:42Z</time>
      </trkpt>
      <trkpt lat="45.11399" lon="0.64666">
        <ele>208.5</ele>
        <time>2022-04-03T07:11:43Z</time>
      </trkpt>
      <trkpt lat="45.11395" lon="0.64672">
        <ele>208.1</ele>
        <time>2022-04-03T07:11:44Z</time>
      </trkpt>
      <trkpt lat="45.11391" lon="0.64676">
        <ele>208.1</ele>
        <time>2022-04-03T07:11:46Z</time>
      </trkpt>
      <trkpt lat="45.11387" lon="0.64679">
        <ele>208.1</ele>
        <time>2022-04-03T07:11:47Z</time>
      </trkpt>
      <trkpt lat="45.11364" lon="0.64698">
        <ele>207.8</ele>
        <time>2022-04-03T07:11:49Z</time>
      </trkpt>
      <trkpt lat="45.1133" lon="0.6472">
        <ele>205.5</ele>
        <time>2022-04-03T07:11:53Z</time>
      </trkpt>
      <trkpt lat="45.11308" lon="0.64735">
        <ele>202.8</ele>
        <time>2022-04-03T07:11:56Z</time>
      </trkpt>
      <trkpt lat="45.11303" lon="0.64736">
        <ele>202.8</ele>
        <time>2022-04-03T07:11:57Z</time>
      </trkpt>
      <trkpt lat="45.11296" lon="0.64733">
        <ele>202</ele>
        <time>2022-04-03T07:11:58Z</time>
      </trkpt>
      <trkpt lat="45.11291" lon="0.64725">
        <ele>200.8</ele>
        <time>2022-04-03T07:11:59Z</time>
      </trkpt>
      <trkpt lat="45.11285" lon="0.64717">
        <ele>200.8</ele>
        <time>2022-04-03T07:12:00Z</time>
      </trkpt>
      <trkpt lat="45.11279" lon="0.64708">
        <ele>201.3</ele>
        <time>2022-04-03T07:12:01Z</time>
      </trkpt>
      <trkpt lat="45.11261" lon="0.64691">
        <ele>197.4</ele>
        <time>2022-04-03T07:12:03Z</time>
      </trkpt>
      <trkpt lat="45.11244" lon="0.64672">
        <ele>195.3</ele>
        <time>2022-04-03T07:12:05Z</time>
      </trkpt>
      <trkpt lat="45.11232" lon="0.64654">
        <ele>193</ele>
        <time>2022-04-03T07:12:07Z</time>
      </trkpt>
      <trkpt lat="45.11224" lon="0.64646">
        <ele>188.8</ele>
        <time>2022-04-03T07:12:08Z</time>
      </trkpt>
      <trkpt lat="45.11211" lon="0.64635">
        <ele>183.9</ele>
        <time>2022-04-03T07:12:10Z</time>
      </trkpt>
      <trkpt lat="45.11181" lon="0.6462">
        <ele>170.8</ele>
        <time>2022-04-03T07:12:14Z</time>
      </trkpt>
      <trkpt lat="45.11173" lon="0.64601">
        <ele>170.9</ele>
        <time>2022-04-03T07:12:16Z</time>
      </trkpt>
      <trkpt lat="45.11165" lon="0.64576">
        <ele>168.1</ele>
        <time>2022-04-03T07:12:19Z</time>
      </trkpt>
      <trkpt lat="45.11153" lon="0.64571">
        <ele>166.3</ele>
        <time>2022-04-03T07:12:21Z</time>
      </trkpt>
      <trkpt lat="45.11142" lon="0.64579">
        <ele>165</ele>
        <time>2022-04-03T07:12:23Z</time>
      </trkpt>
      <trkpt lat="45.11134" lon="0.64592">
        <ele>163.8</ele>
        <time>2022-04-03T07:12:25Z</time>
      </trkpt>
      <trkpt lat="45.11132" lon="0.64599">
        <ele>161.7</ele>
        <time>2022-04-03T07:12:26Z</time>
      </trkpt>
      <trkpt lat="45.1113" lon="0.64607">
        <ele>161.7</ele>
        <time>2022-04-03T07:12:27Z</time>
      </trkpt>
      <trkpt lat="45.11126" lon="0.64619">
        <ele>161.3</ele>
        <time>2022-04-03T07:12:29Z</time>
      </trkpt>
      <trkpt lat="45.11113" lon="0.64649">
        <ele>157.7</ele>
        <time>2022-04-03T07:12:33Z</time>
      </trkpt>
      <trkpt lat="45.11104" lon="0.64665">
        <ele>155.2</ele>
        <time>2022-04-03T07:12:35Z</time>
      </trkpt>
      <trkpt lat="45.11093" lon="0.64678">
        <ele>153.7</ele>
        <time>2022-04-03T07:12:37Z</time>
      </trkpt>
      <trkpt lat="45.11078" lon="0.64695">
        <ele>151.4</ele>
        <time>2022-04-03T07:12:40Z</time>
      </trkpt>
      <trkpt lat="45.11069" lon="0.64705">
        <ele>150</ele>
        <time>2022-04-03T07:12:42Z</time>
      </trkpt>
      <trkpt lat="45.11062" lon="0.64718">
        <ele>150.1</ele>
        <time>2022-04-03T07:12:44Z</time>
      </trkpt>
      <trkpt lat="45.11054" lon="0.64731">
        <ele>149.7</ele>
        <time>2022-04-03T07:12:46Z</time>
      </trkpt>
      <trkpt lat="45.11051" lon="0.64737">
        <ele>150.2</ele>
        <time>2022-04-03T07:12:47Z</time>
      </trkpt>
      <trkpt lat="45.11044" lon="0.64746">
        <ele>150.5</ele>
        <time>2022-04-03T07:12:49Z</time>
      </trkpt>
      <trkpt lat="45.11038" lon="0.64751">
        <ele>151.3</ele>
        <time>2022-04-03T07:12:51Z</time>
      </trkpt>
      <trkpt lat="45.11033" lon="0.64761">
        <ele>151.6</ele>
        <time>2022-04-03T07:12:53Z</time>
      </trkpt>
      <trkpt lat="45.11034" lon="0.64767">
        <ele>151.6</ele>
        <time>2022-04-03T07:12:54Z</time>
      </trkpt>
      <trkpt lat="45.11036" lon="0.64772">
        <ele>152.2</ele>
        <time>2022-04-03T07:12:55Z</time>
      </trkpt>
      <trkpt lat="45.11041" lon="0.64783">
        <ele>152.1</ele>
        <time>2022-04-03T07:12:57Z</time>
      </trkpt>
      <trkpt lat="45.11046" lon="0.64794">
        <ele>152.9</ele>
        <time>2022-04-03T07:12:59Z</time>
      </trkpt>
      <trkpt lat="45.11049" lon="0.64806">
        <ele>154.4</ele>
        <time>2022-04-03T07:13:01Z</time>
      </trkpt>
      <trkpt lat="45.11052" lon="0.64818">
        <ele>154.4</ele>
        <time>2022-04-03T07:13:03Z</time>
      </trkpt>
      <trkpt lat="45.11068" lon="0.64852">
        <ele>157.6</ele>
        <time>2022-04-03T07:13:10Z</time>
      </trkpt>
      <trkpt lat="45.11078" lon="0.6487">
        <ele>160.8</ele>
        <time>2022-04-03T07:13:15Z</time>
      </trkpt>
      <trkpt lat="45.11088" lon="0.64888">
        <ele>164.5</ele>
        <time>2022-04-03T07:13:21Z</time>
      </trkpt>
      <trkpt lat="45.11095" lon="0.64899">
        <ele>164.5</ele>
        <time>2022-04-03T07:13:24Z</time>
      </trkpt>
      <trkpt lat="45.11102" lon="0.64908">
        <ele>166.1</ele>
        <time>2022-04-03T07:13:27Z</time>
      </trkpt>
      <trkpt lat="45.11111" lon="0.64925">
        <ele>167.7</ele>
        <time>2022-04-03T07:13:32Z</time>
      </trkpt>
      <trkpt lat="45.11119" lon="0.64942">
        <ele>166.7</ele>
        <time>2022-04-03T07:13:36Z</time>
      </trkpt>
      <trkpt lat="45.11131" lon="0.64966">
        <ele>167.7</ele>
        <time>2022-04-03T07:13:41Z</time>
      </trkpt>
      <trkpt lat="45.11149" lon="0.64991">
        <ele>169.2</ele>
        <time>2022-04-03T07:13:48Z</time>
      </trkpt>
      <trkpt lat="45.1116" lon="0.65003">
        <ele>171</ele>
        <time>2022-04-03T07:13:53Z</time>
      </trkpt>
      <trkpt lat="45.11175" lon="0.6502">
        <ele>170.3</ele>
        <time>2022-04-03T07:13:59Z</time>
      </trkpt>
      <trkpt lat="45.1119" lon="0.65034">
        <ele>168.5</ele>
        <time>2022-04-03T07:14:04Z</time>
      </trkpt>
      <trkpt lat="45.11201" lon="0.65042">
        <ele>168.9</ele>
        <time>2022-04-03T07:14:08Z</time>
      </trkpt>
      <trkpt lat="45.11218" lon="0.65054">
        <ele>166.7</ele>
        <time>2022-04-03T07:14:13Z</time>
      </trkpt>
      <trkpt lat="45.11222" lon="0.65057">
        <ele>166.9</ele>
        <time>2022-04-03T07:14:14Z</time>
      </trkpt>
      <trkpt lat="45.11231" lon="0.65063">
        <ele>164.8</ele>
        <time>2022-04-03T07:14:17Z</time>
      </trkpt>
      <trkpt lat="45.11245" lon="0.65078">
        <ele>163.2</ele>
        <time>2022-04-03T07:14:22Z</time>
      </trkpt>
      <trkpt lat="45.11252" lon="0.65096">
        <ele>161.9</ele>
        <time>2022-04-03T07:14:27Z</time>
      </trkpt>
      <trkpt lat="45.11263" lon="0.65117">
        <ele>161.6</ele>
        <time>2022-04-03T07:14:32Z</time>
      </trkpt>
      <trkpt lat="45.11263" lon="0.65121">
        <ele>161.6</ele>
        <time>2022-04-03T07:14:33Z</time>
      </trkpt>
      <trkpt lat="45.11268" lon="0.65132">
        <ele>161.7</ele>
        <time>2022-04-03T07:14:36Z</time>
      </trkpt>
      <trkpt lat="45.11272" lon="0.65147">
        <ele>161.6</ele>
        <time>2022-04-03T07:14:41Z</time>
      </trkpt>
      <trkpt lat="45.11275" lon="0.65156">
        <ele>161.6</ele>
        <time>2022-04-03T07:14:43Z</time>
      </trkpt>
      <trkpt lat="45.11277" lon="0.65163">
        <ele>161.5</ele>
        <time>2022-04-03T07:14:45Z</time>
      </trkpt>
      <trkpt lat="45.11282" lon="0.65181">
        <ele>162.1</ele>
        <time>2022-04-03T07:14:51Z</time>
      </trkpt>
      <trkpt lat="45.11286" lon="0.65195">
        <ele>162.1</ele>
        <time>2022-04-03T07:14:56Z</time>
      </trkpt>
      <trkpt lat="45.1129" lon="0.65204">
        <ele>163</ele>
        <time>2022-04-03T07:15:01Z</time>
      </trkpt>
      <trkpt lat="45.11296" lon="0.6522">
        <ele>165.2</ele>
        <time>2022-04-03T07:15:07Z</time>
      </trkpt>
      <trkpt lat="45.11303" lon="0.65233">
        <ele>167.9</ele>
        <time>2022-04-03T07:15:13Z</time>
      </trkpt>
      <trkpt lat="45.11304" lon="0.65236">
        <ele>167.8</ele>
        <time>2022-04-03T07:15:16Z</time>
      </trkpt>
      <trkpt lat="45.11352" lon="0.65345">
        <ele>184</ele>
        <time>2022-04-03T07:16:18Z</time>
      </trkpt>
      <trkpt lat="45.11353" lon="0.65346">
        <ele>184</ele>
        <time>2022-04-03T07:16:19Z</time>
      </trkpt>
      <trkpt lat="45.11355" lon="0.6535">
        <ele>184</ele>
        <time>2022-04-03T07:16:21Z</time>
      </trkpt>
      <trkpt lat="45.11355" lon="0.65354">
        <ele>184.5</ele>
        <time>2022-04-03T07:16:24Z</time>
      </trkpt>
      <trkpt lat="45.11355" lon="0.65355">
        <ele>184.5</ele>
        <time>2022-04-03T07:16:25Z</time>
      </trkpt>
      <trkpt lat="45.11363" lon="0.65369">
        <ele>184.6</ele>
        <time>2022-04-03T07:16:34Z</time>
      </trkpt>
      <trkpt lat="45.11363" lon="0.65371">
        <ele>184.6</ele>
        <time>2022-04-03T07:16:36Z</time>
      </trkpt>
      <trkpt lat="45.11366" lon="0.6538">
        <ele>187.8</ele>
        <time>2022-04-03T07:16:41Z</time>
      </trkpt>
      <trkpt lat="45.1137" lon="0.65387">
        <ele>187.9</ele>
        <time>2022-04-03T07:16:45Z</time>
      </trkpt>
      <trkpt lat="45.11374" lon="0.65392">
        <ele>187.9</ele>
        <time>2022-04-03T07:16:48Z</time>
      </trkpt>
      <trkpt lat="45.11378" lon="0.65396">
        <ele>190.9</ele>
        <time>2022-04-03T07:16:51Z</time>
      </trkpt>
      <trkpt lat="45.11379" lon="0.65399">
        <ele>190.9</ele>
        <time>2022-04-03T07:16:53Z</time>
      </trkpt>
      <trkpt lat="45.11394" lon="0.65429">
        <ele>191.9</ele>
        <time>2022-04-03T07:17:13Z</time>
      </trkpt>
      <trkpt lat="45.11395" lon="0.65434">
        <ele>191.9</ele>
        <time>2022-04-03T07:17:16Z</time>
      </trkpt>
      <trkpt lat="45.11397" lon="0.65439">
        <ele>190.3</ele>
        <time>2022-04-03T07:17:20Z</time>
      </trkpt>
      <trkpt lat="45.11444" lon="0.65489">
        <ele>193.2</ele>
        <time>2022-04-03T07:18:02Z</time>
      </trkpt>
      <trkpt lat="45.11452" lon="0.65493">
        <ele>195.2</ele>
        <time>2022-04-03T07:18:07Z</time>
      </trkpt>
      <trkpt lat="45.1146" lon="0.65495">
        <ele>196.9</ele>
        <time>2022-04-03T07:18:12Z</time>
      </trkpt>
      <trkpt lat="45.11463" lon="0.65495">
        <ele>196.9</ele>
        <time>2022-04-03T07:18:14Z</time>
      </trkpt>
      <trkpt lat="45.11468" lon="0.65497">
        <ele>196.9</ele>
        <time>2022-04-03T07:18:17Z</time>
      </trkpt>
      <trkpt lat="45.11469" lon="0.65497">
        <ele>196.9</ele>
        <time>2022-04-03T07:18:18Z</time>
      </trkpt>
      <trkpt lat="45.11477" lon="0.65499">
        <ele>198.7</ele>
        <time>2022-04-03T07:18:23Z</time>
      </trkpt>
      <trkpt lat="45.11488" lon="0.65502">
        <ele>200.1</ele>
        <time>2022-04-03T07:18:27Z</time>
      </trkpt>
      <trkpt lat="45.115" lon="0.65507">
        <ele>200.1</ele>
        <time>2022-04-03T07:18:30Z</time>
      </trkpt>
      <trkpt lat="45.11504" lon="0.65508">
        <ele>200.1</ele>
        <time>2022-04-03T07:18:31Z</time>
      </trkpt>
      <trkpt lat="45.11522" lon="0.65518">
        <ele>203.7</ele>
        <time>2022-04-03T07:18:35Z</time>
      </trkpt>
      <trkpt lat="45.1154" lon="0.65526">
        <ele>204.5</ele>
        <time>2022-04-03T07:18:40Z</time>
      </trkpt>
      <trkpt lat="45.11559" lon="0.65537">
        <ele>208.2</ele>
        <time>2022-04-03T07:18:46Z</time>
      </trkpt>
      <trkpt lat="45.11571" lon="0.65545">
        <ele>208.1</ele>
        <time>2022-04-03T07:18:50Z</time>
      </trkpt>
      <trkpt lat="45.11579" lon="0.6555">
        <ele>208.1</ele>
        <time>2022-04-03T07:18:54Z</time>
      </trkpt>
      <trkpt lat="45.11591" lon="0.65558">
        <ele>208.2</ele>
        <time>2022-04-03T07:18:59Z</time>
      </trkpt>
      <trkpt lat="45.11598" lon="0.65561">
        <ele>209.1</ele>
        <time>2022-04-03T07:19:03Z</time>
      </trkpt>
      <trkpt lat="45.11605" lon="0.65564">
        <ele>209.1</ele>
        <time>2022-04-03T07:19:08Z</time>
      </trkpt>
      <trkpt lat="45.11614" lon="0.65569">
        <ele>210.2</ele>
        <time>2022-04-03T07:19:14Z</time>
      </trkpt>
      <trkpt lat="45.11621" lon="0.65576">
        <ele>210.5</ele>
        <time>2022-04-03T07:19:20Z</time>
      </trkpt>
      <trkpt lat="45.11625" lon="0.65579">
        <ele>210.5</ele>
        <time>2022-04-03T07:19:24Z</time>
      </trkpt>
      <trkpt lat="45.11634" lon="0.65584">
        <ele>211.4</ele>
        <time>2022-04-03T07:19:31Z</time>
      </trkpt>
      <trkpt lat="45.1164" lon="0.65589">
        <ele>211.4</ele>
        <time>2022-04-03T07:19:37Z</time>
      </trkpt>
      <trkpt lat="45.11645" lon="0.65593">
        <ele>211.7</ele>
        <time>2022-04-03T07:19:42Z</time>
      </trkpt>
      <trkpt lat="45.11649" lon="0.65594">
        <ele>211.7</ele>
        <time>2022-04-03T07:19:47Z</time>
      </trkpt>
      <trkpt lat="45.11656" lon="0.65599">
        <ele>212.6</ele>
        <time>2022-04-03T07:19:51Z</time>
      </trkpt>
      <trkpt lat="45.11663" lon="0.65603">
        <ele>212.6</ele>
        <time>2022-04-03T07:19:56Z</time>
      </trkpt>
      <trkpt lat="45.11667" lon="0.65607">
        <ele>213.9</ele>
        <time>2022-04-03T07:20:00Z</time>
      </trkpt>
      <trkpt lat="45.11674" lon="0.65615">
        <ele>213.6</ele>
        <time>2022-04-03T07:20:04Z</time>
      </trkpt>
      <trkpt lat="45.11677" lon="0.65616">
        <ele>213.6</ele>
        <time>2022-04-03T07:20:06Z</time>
      </trkpt>
      <trkpt lat="45.11682" lon="0.65618">
        <ele>215</ele>
        <time>2022-04-03T07:20:10Z</time>
      </trkpt>
      <trkpt lat="45.11683" lon="0.65618">
        <ele>215</ele>
        <time>2022-04-03T07:20:11Z</time>
      </trkpt>
      <trkpt lat="45.11689" lon="0.65618">
        <ele>215</ele>
        <time>2022-04-03T07:20:16Z</time>
      </trkpt>
      <trkpt lat="45.11697" lon="0.65617">
        <ele>216.5</ele>
        <time>2022-04-03T07:20:22Z</time>
      </trkpt>
      <trkpt lat="45.11705" lon="0.65622">
        <ele>217.9</ele>
        <time>2022-04-03T07:20:27Z</time>
      </trkpt>
      <trkpt lat="45.11706" lon="0.65623">
        <ele>217.9</ele>
        <time>2022-04-03T07:20:28Z</time>
      </trkpt>
      <trkpt lat="45.11711" lon="0.65625">
        <ele>217.9</ele>
        <time>2022-04-03T07:20:31Z</time>
      </trkpt>
      <trkpt lat="45.11714" lon="0.65626">
        <ele>217.9</ele>
        <time>2022-04-03T07:20:33Z</time>
      </trkpt>
      <trkpt lat="45.11721" lon="0.65625">
        <ele>219.1</ele>
        <time>2022-04-03T07:20:38Z</time>
      </trkpt>
      <trkpt lat="45.11725" lon="0.65631">
        <ele>219.3</ele>
        <time>2022-04-03T07:20:43Z</time>
      </trkpt>
      <trkpt lat="45.11726" lon="0.65637">
        <ele>219.3</ele>
        <time>2022-04-03T07:20:46Z</time>
      </trkpt>
      <trkpt lat="45.11728" lon="0.65642">
        <ele>220.7</ele>
        <time>2022-04-03T07:20:48Z</time>
      </trkpt>
      <trkpt lat="45.11732" lon="0.65657">
        <ele>221.3</ele>
        <time>2022-04-03T07:20:53Z</time>
      </trkpt>
      <trkpt lat="45.1174" lon="0.65675">
        <ele>223.3</ele>
        <time>2022-04-03T07:20:59Z</time>
      </trkpt>
      <trkpt lat="45.11749" lon="0.65698">
        <ele>224.6</ele>
        <time>2022-04-03T07:21:06Z</time>
      </trkpt>
      <trkpt lat="45.11758" lon="0.65717">
        <ele>225.9</ele>
        <time>2022-04-03T07:21:13Z</time>
      </trkpt>
      <trkpt lat="45.11763" lon="0.65727">
        <ele>226.3</ele>
        <time>2022-04-03T07:21:17Z</time>
      </trkpt>
      <trkpt lat="45.11773" lon="0.65741">
        <ele>226.5</ele>
        <time>2022-04-03T07:21:22Z</time>
      </trkpt>
      <trkpt lat="45.11784" lon="0.65758">
        <ele>226.7</ele>
        <time>2022-04-03T07:21:28Z</time>
      </trkpt>
      <trkpt lat="45.11794" lon="0.65777">
        <ele>226.9</ele>
        <time>2022-04-03T07:21:35Z</time>
      </trkpt>
      <trkpt lat="45.11803" lon="0.65795">
        <ele>226.9</ele>
        <time>2022-04-03T07:21:41Z</time>
      </trkpt>
      <trkpt lat="45.11818" lon="0.6582">
        <ele>226.6</ele>
        <time>2022-04-03T07:21:49Z</time>
      </trkpt>
      <trkpt lat="45.11832" lon="0.65845">
        <ele>226.4</ele>
        <time>2022-04-03T07:21:56Z</time>
      </trkpt>
      <trkpt lat="45.11833" lon="0.65848">
        <ele>226.4</ele>
        <time>2022-04-03T07:21:57Z</time>
      </trkpt>
      <trkpt lat="45.11837" lon="0.65856">
        <ele>226.2</ele>
        <time>2022-04-03T07:21:59Z</time>
      </trkpt>
      <trkpt lat="45.11848" lon="0.65881">
        <ele>226.1</ele>
        <time>2022-04-03T07:22:05Z</time>
      </trkpt>
      <trkpt lat="45.11859" lon="0.65899">
        <ele>225.9</ele>
        <time>2022-04-03T07:22:09Z</time>
      </trkpt>
      <trkpt lat="45.11873" lon="0.65923">
        <ele>225.7</ele>
        <time>2022-04-03T07:22:15Z</time>
      </trkpt>
      <trkpt lat="45.11876" lon="0.65936">
        <ele>225.7</ele>
        <time>2022-04-03T07:22:19Z</time>
      </trkpt>
      <trkpt lat="45.11866" lon="0.65946">
        <ele>225.7</ele>
        <time>2022-04-03T07:22:23Z</time>
      </trkpt>
      <trkpt lat="45.1184" lon="0.65968">
        <ele>225.5</ele>
        <time>2022-04-03T07:22:31Z</time>
      </trkpt>
      <trkpt lat="45.1181" lon="0.65994">
        <ele>225</ele>
        <time>2022-04-03T07:22:39Z</time>
      </trkpt>
      <trkpt lat="45.11772" lon="0.66026">
        <ele>224</ele>
        <time>2022-04-03T07:22:48Z</time>
      </trkpt>
      <trkpt lat="45.11739" lon="0.66054">
        <ele>223.2</ele>
        <time>2022-04-03T07:22:56Z</time>
      </trkpt>
      <trkpt lat="45.11704" lon="0.66086">
        <ele>222.2</ele>
        <time>2022-04-03T07:23:04Z</time>
      </trkpt>
      <trkpt lat="45.11662" lon="0.66123">
        <ele>221.2</ele>
        <time>2022-04-03T07:23:13Z</time>
      </trkpt>
      <trkpt lat="45.11616" lon="0.66163">
        <ele>220.4</ele>
        <time>2022-04-03T07:23:23Z</time>
      </trkpt>
      <trkpt lat="45.11612" lon="0.66167">
        <ele>220.4</ele>
        <time>2022-04-03T07:23:24Z</time>
      </trkpt>
      <trkpt lat="45.11568" lon="0.66206">
        <ele>219.9</ele>
        <time>2022-04-03T07:23:34Z</time>
      </trkpt>
      <trkpt lat="45.11524" lon="0.66245">
        <ele>218.8</ele>
        <time>2022-04-03T07:23:44Z</time>
      </trkpt>
      <trkpt lat="45.11484" lon="0.6628">
        <ele>217.1</ele>
        <time>2022-04-03T07:23:52Z</time>
      </trkpt>
      <trkpt lat="45.11446" lon="0.66314">
        <ele>215.5</ele>
        <time>2022-04-03T07:23:59Z</time>
      </trkpt>
      <trkpt lat="45.11408" lon="0.66348">
        <ele>214.1</ele>
        <time>2022-04-03T07:24:06Z</time>
      </trkpt>
      <trkpt lat="45.114" lon="0.66355">
        <ele>214.1</ele>
        <time>2022-04-03T07:24:08Z</time>
      </trkpt>
      <trkpt lat="45.11407" lon="0.66384">
        <ele>213.1</ele>
        <time>2022-04-03T07:24:10Z</time>
      </trkpt>
      <trkpt lat="45.1141" lon="0.66398">
        <ele>213</ele>
        <time>2022-04-03T07:24:12Z</time>
      </trkpt>
      <trkpt lat="45.1141" lon="0.66407">
        <ele>212.5</ele>
        <time>2022-04-03T07:24:13Z</time>
      </trkpt>
      <trkpt lat="45.11409" lon="0.6643">
        <ele>212</ele>
        <time>2022-04-03T07:24:16Z</time>
      </trkpt>
      <trkpt lat="45.11408" lon="0.66453">
        <ele>211</ele>
        <time>2022-04-03T07:24:19Z</time>
      </trkpt>
      <trkpt lat="45.11408" lon="0.66469">
        <ele>210.5</ele>
        <time>2022-04-03T07:24:21Z</time>
      </trkpt>
      <trkpt lat="45.11405" lon="0.66488">
        <ele>210.1</ele>
        <time>2022-04-03T07:24:23Z</time>
      </trkpt>
      <trkpt lat="45.11404" lon="0.66503">
        <ele>209.8</ele>
        <time>2022-04-03T07:24:25Z</time>
      </trkpt>
      <trkpt lat="45.11408" lon="0.6652">
        <ele>209.5</ele>
        <time>2022-04-03T07:24:27Z</time>
      </trkpt>
      <trkpt lat="45.1141" lon="0.6653">
        <ele>209.5</ele>
        <time>2022-04-03T07:24:28Z</time>
      </trkpt>
      <trkpt lat="45.11415" lon="0.66551">
        <ele>209.3</ele>
        <time>2022-04-03T07:24:30Z</time>
      </trkpt>
      <trkpt lat="45.11421" lon="0.66574">
        <ele>208.9</ele>
        <time>2022-04-03T07:24:32Z</time>
      </trkpt>
      <trkpt lat="45.11434" lon="0.66618">
        <ele>208.3</ele>
        <time>2022-04-03T07:24:36Z</time>
      </trkpt>
      <trkpt lat="45.11439" lon="0.66627">
        <ele>207.6</ele>
        <time>2022-04-03T07:24:37Z</time>
      </trkpt>
      <trkpt lat="45.11449" lon="0.66642">
        <ele>206.9</ele>
        <time>2022-04-03T07:24:39Z</time>
      </trkpt>
      <trkpt lat="45.11473" lon="0.6667">
        <ele>206.1</ele>
        <time>2022-04-03T07:24:43Z</time>
      </trkpt>
      <trkpt lat="45.11485" lon="0.66689">
        <ele>205.6</ele>
        <time>2022-04-03T07:24:45Z</time>
      </trkpt>
      <trkpt lat="45.11498" lon="0.66701">
        <ele>204.7</ele>
        <time>2022-04-03T07:24:47Z</time>
      </trkpt>
      <trkpt lat="45.11518" lon="0.66724">
        <ele>203.4</ele>
        <time>2022-04-03T07:24:51Z</time>
      </trkpt>
      <trkpt lat="45.11529" lon="0.66736">
        <ele>201.7</ele>
        <time>2022-04-03T07:24:54Z</time>
      </trkpt>
      <trkpt lat="45.11535" lon="0.66741">
        <ele>201.1</ele>
        <time>2022-04-03T07:24:55Z</time>
      </trkpt>
      <trkpt lat="45.1154" lon="0.66748">
        <ele>200</ele>
        <time>2022-04-03T07:24:56Z</time>
      </trkpt>
      <trkpt lat="45.1155" lon="0.66763">
        <ele>198.6</ele>
        <time>2022-04-03T07:24:58Z</time>
      </trkpt>
      <trkpt lat="45.11565" lon="0.66785">
        <ele>196.8</ele>
        <time>2022-04-03T07:25:01Z</time>
      </trkpt>
      <trkpt lat="45.1157" lon="0.66789">
        <ele>196.3</ele>
        <time>2022-04-03T07:25:02Z</time>
      </trkpt>
      <trkpt lat="45.11576" lon="0.66793">
        <ele>196.2</ele>
        <time>2022-04-03T07:25:03Z</time>
      </trkpt>
      <trkpt lat="45.11588" lon="0.66798">
        <ele>193.8</ele>
        <time>2022-04-03T07:25:05Z</time>
      </trkpt>
      <trkpt lat="45.11596" lon="0.66801">
        <ele>192.3</ele>
        <time>2022-04-03T07:25:06Z</time>
      </trkpt>
      <trkpt lat="45.11625" lon="0.66811">
        <ele>186.3</ele>
        <time>2022-04-03T07:25:10Z</time>
      </trkpt>
      <trkpt lat="45.11631" lon="0.66815">
        <ele>184.1</ele>
        <time>2022-04-03T07:25:11Z</time>
      </trkpt>
      <trkpt lat="45.11637" lon="0.66821">
        <ele>184.1</ele>
        <time>2022-04-03T07:25:12Z</time>
      </trkpt>
      <trkpt lat="45.11652" lon="0.66842">
        <ele>180.2</ele>
        <time>2022-04-03T07:25:15Z</time>
      </trkpt>
      <trkpt lat="45.11679" lon="0.66881">
        <ele>174.5</ele>
        <time>2022-04-03T07:25:20Z</time>
      </trkpt>
      <trkpt lat="45.11687" lon="0.66894">
        <ele>174.5</ele>
        <time>2022-04-03T07:25:22Z</time>
      </trkpt>
      <trkpt lat="45.11695" lon="0.66897">
        <ele>174.5</ele>
        <time>2022-04-03T07:25:24Z</time>
      </trkpt>
      <trkpt lat="45.11708" lon="0.66887">
        <ele>175.8</ele>
        <time>2022-04-03T07:25:27Z</time>
      </trkpt>
      <trkpt lat="45.11718" lon="0.66875">
        <ele>175.8</ele>
        <time>2022-04-03T07:25:29Z</time>
      </trkpt>
      <trkpt lat="45.11731" lon="0.6686">
        <ele>175.2</ele>
        <time>2022-04-03T07:25:32Z</time>
      </trkpt>
      <trkpt lat="45.11739" lon="0.66851">
        <ele>174.9</ele>
        <time>2022-04-03T07:25:34Z</time>
      </trkpt>
      <trkpt lat="45.11747" lon="0.66834">
        <ele>175.2</ele>
        <time>2022-04-03T07:25:37Z</time>
      </trkpt>
      <trkpt lat="45.11753" lon="0.66826">
        <ele>176.2</ele>
        <time>2022-04-03T07:25:39Z</time>
      </trkpt>
      <trkpt lat="45.11757" lon="0.66826">
        <ele>176.1</ele>
        <time>2022-04-03T07:25:40Z</time>
      </trkpt>
      <trkpt lat="45.11766" lon="0.66829">
        <ele>176.7</ele>
        <time>2022-04-03T07:25:42Z</time>
      </trkpt>
      <trkpt lat="45.11775" lon="0.66832">
        <ele>176.7</ele>
        <time>2022-04-03T07:25:45Z</time>
      </trkpt>
      <trkpt lat="45.11781" lon="0.66835">
        <ele>178.4</ele>
        <time>2022-04-03T07:25:50Z</time>
      </trkpt>
      <trkpt lat="45.1179" lon="0.66837">
        <ele>180.4</ele>
        <time>2022-04-03T07:25:55Z</time>
      </trkpt>
      <trkpt lat="45.11795" lon="0.66838">
        <ele>180.3</ele>
        <time>2022-04-03T07:26:00Z</time>
      </trkpt>
      <trkpt lat="45.11867" lon="0.66783">
        <ele>198.2</ele>
        <time>2022-04-03T07:27:48Z</time>
      </trkpt>
      <trkpt lat="45.11873" lon="0.66784">
        <ele>200.1</ele>
        <time>2022-04-03T07:27:52Z</time>
      </trkpt>
      <trkpt lat="45.11874" lon="0.66783">
        <ele>200.1</ele>
        <time>2022-04-03T07:27:53Z</time>
      </trkpt>
      <trkpt lat="45.11876" lon="0.66784">
        <ele>200.1</ele>
        <time>2022-04-03T07:27:54Z</time>
      </trkpt>
      <trkpt lat="45.11879" lon="0.66787">
        <ele>200</ele>
        <time>2022-04-03T07:27:56Z</time>
      </trkpt>
      <trkpt lat="45.1188" lon="0.66789">
        <ele>200</ele>
        <time>2022-04-03T07:27:57Z</time>
      </trkpt>
      <trkpt lat="45.11889" lon="0.668">
        <ele>201.1</ele>
        <time>2022-04-03T07:28:04Z</time>
      </trkpt>
      <trkpt lat="45.11898" lon="0.66811">
        <ele>201.8</ele>
        <time>2022-04-03T07:28:09Z</time>
      </trkpt>
      <trkpt lat="45.11909" lon="0.66823">
        <ele>203.5</ele>
        <time>2022-04-03T07:28:14Z</time>
      </trkpt>
      <trkpt lat="45.11923" lon="0.66836">
        <ele>204.2</ele>
        <time>2022-04-03T07:28:20Z</time>
      </trkpt>
      <trkpt lat="45.11925" lon="0.66835">
        <ele>204.2</ele>
        <time>2022-04-03T07:28:21Z</time>
      </trkpt>
      <trkpt lat="45.11928" lon="0.6683">
        <ele>204.2</ele>
        <time>2022-04-03T07:28:23Z</time>
      </trkpt>
      <trkpt lat="45.11936" lon="0.6681">
        <ele>207.6</ele>
        <time>2022-04-03T07:28:30Z</time>
      </trkpt>
      <trkpt lat="45.11949" lon="0.66793">
        <ele>209.8</ele>
        <time>2022-04-03T07:28:38Z</time>
      </trkpt>
      <trkpt lat="45.11957" lon="0.66778">
        <ele>210.4</ele>
        <time>2022-04-03T07:28:44Z</time>
      </trkpt>
      <trkpt lat="45.11964" lon="0.66766">
        <ele>211.5</ele>
        <time>2022-04-03T07:28:49Z</time>
      </trkpt>
      <trkpt lat="45.11973" lon="0.66749">
        <ele>212.8</ele>
        <time>2022-04-03T07:28:56Z</time>
      </trkpt>
      <trkpt lat="45.1198" lon="0.66734">
        <ele>213.7</ele>
        <time>2022-04-03T07:29:02Z</time>
      </trkpt>
      <trkpt lat="45.11981" lon="0.66728">
        <ele>214.1</ele>
        <time>2022-04-03T07:29:04Z</time>
      </trkpt>
      <trkpt lat="45.11983" lon="0.66722">
        <ele>215.2</ele>
        <time>2022-04-03T07:29:06Z</time>
      </trkpt>
      <trkpt lat="45.1199" lon="0.66703">
        <ele>216.1</ele>
        <time>2022-04-03T07:29:12Z</time>
      </trkpt>
      <trkpt lat="45.11996" lon="0.66688">
        <ele>216.8</ele>
        <time>2022-04-03T07:29:18Z</time>
      </trkpt>
      <trkpt lat="45.12005" lon="0.66675">
        <ele>216.7</ele>
        <time>2022-04-03T07:29:24Z</time>
      </trkpt>
      <trkpt lat="45.12014" lon="0.66661">
        <ele>216.9</ele>
        <time>2022-04-03T07:29:31Z</time>
      </trkpt>
      <trkpt lat="45.12021" lon="0.66647">
        <ele>216.9</ele>
        <time>2022-04-03T07:29:37Z</time>
      </trkpt>
      <trkpt lat="45.12024" lon="0.66637">
        <ele>217.2</ele>
        <time>2022-04-03T07:29:41Z</time>
      </trkpt>
      <trkpt lat="45.12028" lon="0.66624">
        <ele>217.1</ele>
        <time>2022-04-03T07:29:47Z</time>
      </trkpt>
      <trkpt lat="45.1203" lon="0.66609">
        <ele>216.8</ele>
        <time>2022-04-03T07:29:52Z</time>
      </trkpt>
      <trkpt lat="45.12029" lon="0.66598">
        <ele>217.4</ele>
        <time>2022-04-03T07:29:56Z</time>
      </trkpt>
      <trkpt lat="45.12029" lon="0.6658">
        <ele>217.3</ele>
        <time>2022-04-03T07:30:02Z</time>
      </trkpt>
      <trkpt lat="45.12029" lon="0.66575">
        <ele>217.3</ele>
        <time>2022-04-03T07:30:04Z</time>
      </trkpt>
      <trkpt lat="45.12028" lon="0.66564">
        <ele>217.1</ele>
        <time>2022-04-03T07:30:07Z</time>
      </trkpt>
      <trkpt lat="45.12028" lon="0.66558">
        <ele>217.2</ele>
        <time>2022-04-03T07:30:10Z</time>
      </trkpt>
      <trkpt lat="45.12027" lon="0.66551">
        <ele>217.3</ele>
        <time>2022-04-03T07:30:12Z</time>
      </trkpt>
      <trkpt lat="45.12027" lon="0.66542">
        <ele>217.4</ele>
        <time>2022-04-03T07:30:15Z</time>
      </trkpt>
      <trkpt lat="45.12026" lon="0.66535">
        <ele>217.5</ele>
        <time>2022-04-03T07:30:17Z</time>
      </trkpt>
      <trkpt lat="45.12021" lon="0.66518">
        <ele>217.7</ele>
        <time>2022-04-03T07:30:23Z</time>
      </trkpt>
      <trkpt lat="45.12035" lon="0.66503">
        <ele>218</ele>
        <time>2022-04-03T07:30:25Z</time>
      </trkpt>
      <trkpt lat="45.12033" lon="0.66497">
        <ele>218.1</ele>
        <time>2022-04-03T07:30:27Z</time>
      </trkpt>
      <trkpt lat="45.12031" lon="0.66491">
        <ele>218.2</ele>
        <time>2022-04-03T07:30:29Z</time>
      </trkpt>
      <trkpt lat="45.12029" lon="0.66486">
        <ele>218.2</ele>
        <time>2022-04-03T07:30:31Z</time>
      </trkpt>
      <trkpt lat="45.12018" lon="0.66492">
        <ele>218.4</ele>
        <time>2022-04-03T07:30:32Z</time>
      </trkpt>
      <trkpt lat="45.12017" lon="0.66487">
        <ele>218.5</ele>
        <time>2022-04-03T07:30:34Z</time>
      </trkpt>
      <trkpt lat="45.12018" lon="0.66484">
        <ele>218.5</ele>
        <time>2022-04-03T07:30:35Z</time>
      </trkpt>
      <trkpt lat="45.12025" lon="0.66476">
        <ele>218.6</ele>
        <time>2022-04-03T07:30:38Z</time>
      </trkpt>
      <trkpt lat="45.12025" lon="0.66476">
        <ele>218.6</ele>
        <time>2022-04-03T07:30:39Z</time>
      </trkpt>
      <trkpt lat="45.12025" lon="0.66475">
        <ele>218.6</ele>
        <time>2022-04-03T07:34:11Z</time>
      </trkpt>
      <trkpt lat="45.12027" lon="0.66481">
        <ele>218.7</ele>
        <time>2022-04-03T07:34:13Z</time>
      </trkpt>
      <trkpt lat="45.12033" lon="0.66498">
        <ele>218.3</ele>
        <time>2022-04-03T07:34:17Z</time>
      </trkpt>
      <trkpt lat="45.12035" lon="0.66501">
        <ele>218.2</ele>
        <time>2022-04-03T07:34:18Z</time>
      </trkpt>
      <trkpt lat="45.12045" lon="0.66525">
        <ele>217.6</ele>
        <time>2022-04-03T07:34:23Z</time>
      </trkpt>
      <trkpt lat="45.12059" lon="0.66556">
        <ele>216.8</ele>
        <time>2022-04-03T07:34:29Z</time>
      </trkpt>
      <trkpt lat="45.12078" lon="0.66599">
        <ele>215.6</ele>
        <time>2022-04-03T07:34:36Z</time>
      </trkpt>
      <trkpt lat="45.12105" lon="0.66658">
        <ele>214</ele>
        <time>2022-04-03T07:34:46Z</time>
      </trkpt>
      <trkpt lat="45.12121" lon="0.66695">
        <ele>213.1</ele>
        <time>2022-04-03T07:34:52Z</time>
      </trkpt>
      <trkpt lat="45.12139" lon="0.66735">
        <ele>212.1</ele>
        <time>2022-04-03T07:34:58Z</time>
      </trkpt>
      <trkpt lat="45.12142" lon="0.66741">
        <ele>211.9</ele>
        <time>2022-04-03T07:34:59Z</time>
      </trkpt>
      <trkpt lat="45.12167" lon="0.66793">
        <ele>210.6</ele>
        <time>2022-04-03T07:35:07Z</time>
      </trkpt>
      <trkpt lat="45.12171" lon="0.66798">
        <ele>210.4</ele>
        <time>2022-04-03T07:35:08Z</time>
      </trkpt>
      <trkpt lat="45.12188" lon="0.6682">
        <ele>209.8</ele>
        <time>2022-04-03T07:35:12Z</time>
      </trkpt>
      <trkpt lat="45.12217" lon="0.66856">
        <ele>209.6</ele>
        <time>2022-04-03T07:35:18Z</time>
      </trkpt>
      <trkpt lat="45.12238" lon="0.66886">
        <ele>210.1</ele>
        <time>2022-04-03T07:35:23Z</time>
      </trkpt>
      <trkpt lat="45.12261" lon="0.66921">
        <ele>210.4</ele>
        <time>2022-04-03T07:35:29Z</time>
      </trkpt>
      <trkpt lat="45.12296" lon="0.66966">
        <ele>209.2</ele>
        <time>2022-04-03T07:35:37Z</time>
      </trkpt>
      <trkpt lat="45.123" lon="0.66971">
        <ele>208.9</ele>
        <time>2022-04-03T07:35:38Z</time>
      </trkpt>
      <trkpt lat="45.12317" lon="0.66983">
        <ele>208.1</ele>
        <time>2022-04-03T07:35:41Z</time>
      </trkpt>
      <trkpt lat="45.12322" lon="0.66985">
        <ele>207.8</ele>
        <time>2022-04-03T07:35:42Z</time>
      </trkpt>
      <trkpt lat="45.12327" lon="0.66987">
        <ele>207.5</ele>
        <time>2022-04-03T07:35:43Z</time>
      </trkpt>
      <trkpt lat="45.12341" lon="0.66991">
        <ele>206.6</ele>
        <time>2022-04-03T07:35:45Z</time>
      </trkpt>
      <trkpt lat="45.12355" lon="0.66992">
        <ele>205.7</ele>
        <time>2022-04-03T07:35:47Z</time>
      </trkpt>
      <trkpt lat="45.1237" lon="0.66987">
        <ele>205</ele>
        <time>2022-04-03T07:35:49Z</time>
      </trkpt>
      <trkpt lat="45.12413" lon="0.66969">
        <ele>202.4</ele>
        <time>2022-04-03T07:35:55Z</time>
      </trkpt>
      <trkpt lat="45.12444" lon="0.6696">
        <ele>200.4</ele>
        <time>2022-04-03T07:35:59Z</time>
      </trkpt>
      <trkpt lat="45.12452" lon="0.66962">
        <ele>199.9</ele>
        <time>2022-04-03T07:36:00Z</time>
      </trkpt>
      <trkpt lat="45.12459" lon="0.66965">
        <ele>199.5</ele>
        <time>2022-04-03T07:36:01Z</time>
      </trkpt>
      <trkpt lat="45.12471" lon="0.66976">
        <ele>198.5</ele>
        <time>2022-04-03T07:36:03Z</time>
      </trkpt>
      <trkpt lat="45.125" lon="0.67013">
        <ele>196.1</ele>
        <time>2022-04-03T07:36:08Z</time>
      </trkpt>
      <trkpt lat="45.12536" lon="0.6706">
        <ele>192.9</ele>
        <time>2022-04-03T07:36:14Z</time>
      </trkpt>
      <trkpt lat="45.12568" lon="0.67098">
        <ele>190.1</ele>
        <time>2022-04-03T07:36:19Z</time>
      </trkpt>
      <trkpt lat="45.12617" lon="0.67145">
        <ele>186.1</ele>
        <time>2022-04-03T07:36:26Z</time>
      </trkpt>
      <trkpt lat="45.12632" lon="0.67159">
        <ele>185.1</ele>
        <time>2022-04-03T07:36:28Z</time>
      </trkpt>
      <trkpt lat="45.12646" lon="0.67173">
        <ele>184.1</ele>
        <time>2022-04-03T07:36:30Z</time>
      </trkpt>
      <trkpt lat="45.12661" lon="0.67185">
        <ele>182.9</ele>
        <time>2022-04-03T07:36:32Z</time>
      </trkpt>
      <trkpt lat="45.12705" lon="0.672">
        <ele>179.6</ele>
        <time>2022-04-03T07:36:37Z</time>
      </trkpt>
      <trkpt lat="45.12752" lon="0.67217">
        <ele>176.1</ele>
        <time>2022-04-03T07:36:42Z</time>
      </trkpt>
      <trkpt lat="45.12762" lon="0.6722">
        <ele>175.4</ele>
        <time>2022-04-03T07:36:43Z</time>
      </trkpt>
      <trkpt lat="45.1278" lon="0.67226">
        <ele>174.2</ele>
        <time>2022-04-03T07:36:45Z</time>
      </trkpt>
      <trkpt lat="45.12796" lon="0.67246">
        <ele>172.9</ele>
        <time>2022-04-03T07:36:47Z</time>
      </trkpt>
      <trkpt lat="45.12801" lon="0.67257">
        <ele>172.4</ele>
        <time>2022-04-03T07:36:48Z</time>
      </trkpt>
      <trkpt lat="45.12832" lon="0.67327">
        <ele>168.8</ele>
        <time>2022-04-03T07:36:54Z</time>
      </trkpt>
      <trkpt lat="45.12837" lon="0.67339">
        <ele>168.2</ele>
        <time>2022-04-03T07:36:55Z</time>
      </trkpt>
      <trkpt lat="45.12862" lon="0.67391">
        <ele>165</ele>
        <time>2022-04-03T07:37:00Z</time>
      </trkpt>
      <trkpt lat="45.12899" lon="0.67449">
        <ele>161</ele>
        <time>2022-04-03T07:37:06Z</time>
      </trkpt>
      <trkpt lat="45.12908" lon="0.67456">
        <ele>160.3</ele>
        <time>2022-04-03T07:37:07Z</time>
      </trkpt>
      <trkpt lat="45.12955" lon="0.67497">
        <ele>156.8</ele>
        <time>2022-04-03T07:37:13Z</time>
      </trkpt>
      <trkpt lat="45.12994" lon="0.67527">
        <ele>153.9</ele>
        <time>2022-04-03T07:37:18Z</time>
      </trkpt>
      <trkpt lat="45.13029" lon="0.67551">
        <ele>151.1</ele>
        <time>2022-04-03T07:37:23Z</time>
      </trkpt>
      <trkpt lat="45.13077" lon="0.67577">
        <ele>147</ele>
        <time>2022-04-03T07:37:29Z</time>
      </trkpt>
      <trkpt lat="45.13118" lon="0.67596">
        <ele>143.5</ele>
        <time>2022-04-03T07:37:34Z</time>
      </trkpt>
      <trkpt lat="45.13159" lon="0.67619">
        <ele>139.8</ele>
        <time>2022-04-03T07:37:39Z</time>
      </trkpt>
      <trkpt lat="45.13175" lon="0.67628">
        <ele>138.6</ele>
        <time>2022-04-03T07:37:41Z</time>
      </trkpt>
      <trkpt lat="45.13199" lon="0.67641">
        <ele>136.9</ele>
        <time>2022-04-03T07:37:44Z</time>
      </trkpt>
      <trkpt lat="45.13245" lon="0.67664">
        <ele>134.1</ele>
        <time>2022-04-03T07:37:50Z</time>
      </trkpt>
      <trkpt lat="45.13297" lon="0.67688">
        <ele>130.8</ele>
        <time>2022-04-03T07:37:57Z</time>
      </trkpt>
      <trkpt lat="45.13351" lon="0.67711">
        <ele>128.3</ele>
        <time>2022-04-03T07:38:04Z</time>
      </trkpt>
      <trkpt lat="45.13387" lon="0.67726">
        <ele>126.9</ele>
        <time>2022-04-03T07:38:09Z</time>
      </trkpt>
      <trkpt lat="45.13431" lon="0.67737">
        <ele>125.3</ele>
        <time>2022-04-03T07:38:15Z</time>
      </trkpt>
      <trkpt lat="45.13453" lon="0.67742">
        <ele>124.5</ele>
        <time>2022-04-03T07:38:18Z</time>
      </trkpt>
      <trkpt lat="45.13466" lon="0.67749">
        <ele>124.2</ele>
        <time>2022-04-03T07:38:20Z</time>
      </trkpt>
      <trkpt lat="45.13472" lon="0.67753">
        <ele>124.1</ele>
        <time>2022-04-03T07:38:21Z</time>
      </trkpt>
      <trkpt lat="45.13509" lon="0.67772">
        <ele>123.6</ele>
        <time>2022-04-03T07:38:27Z</time>
      </trkpt>
      <trkpt lat="45.13519" lon="0.67777">
        <ele>123.5</ele>
        <time>2022-04-03T07:38:29Z</time>
      </trkpt>
      <trkpt lat="45.13523" lon="0.6778">
        <ele>123.5</ele>
        <time>2022-04-03T07:38:30Z</time>
      </trkpt>
      <trkpt lat="45.1355" lon="0.67788">
        <ele>123.2</ele>
        <time>2022-04-03T07:38:35Z</time>
      </trkpt>
      <trkpt lat="45.13554" lon="0.67788">
        <ele>123.2</ele>
        <time>2022-04-03T07:38:36Z</time>
      </trkpt>
      <trkpt lat="45.13559" lon="0.67796">
        <ele>123.3</ele>
        <time>2022-04-03T07:38:37Z</time>
      </trkpt>
      <trkpt lat="45.13554" lon="0.67803">
        <ele>123.6</ele>
        <time>2022-04-03T07:38:40Z</time>
      </trkpt>
      <trkpt lat="45.13544" lon="0.67819">
        <ele>123.9</ele>
        <time>2022-04-03T07:38:46Z</time>
      </trkpt>
      <trkpt lat="45.13534" lon="0.67833">
        <ele>124.2</ele>
        <time>2022-04-03T07:38:52Z</time>
      </trkpt>
      <trkpt lat="45.13523" lon="0.67851">
        <ele>124.7</ele>
        <time>2022-04-03T07:38:59Z</time>
      </trkpt>
      <trkpt lat="45.13511" lon="0.67871">
        <ele>125.8</ele>
        <time>2022-04-03T07:39:06Z</time>
      </trkpt>
      <trkpt lat="45.13496" lon="0.67901">
        <ele>128</ele>
        <time>2022-04-03T07:39:15Z</time>
      </trkpt>
      <trkpt lat="45.13485" lon="0.67918">
        <ele>129.7</ele>
        <time>2022-04-03T07:39:22Z</time>
      </trkpt>
      <trkpt lat="45.13473" lon="0.67933">
        <ele>131.5</ele>
        <time>2022-04-03T07:39:30Z</time>
      </trkpt>
      <trkpt lat="45.13461" lon="0.67949">
        <ele>133.4</ele>
        <time>2022-04-03T07:39:39Z</time>
      </trkpt>
      <trkpt lat="45.13452" lon="0.67962">
        <ele>135</ele>
        <time>2022-04-03T07:39:47Z</time>
      </trkpt>
      <trkpt lat="45.13446" lon="0.67974">
        <ele>136</ele>
        <time>2022-04-03T07:39:53Z</time>
      </trkpt>
      <trkpt lat="45.1344" lon="0.67987">
        <ele>137</ele>
        <time>2022-04-03T07:40:00Z</time>
      </trkpt>
      <trkpt lat="45.13434" lon="0.68">
        <ele>138.1</ele>
        <time>2022-04-03T07:40:07Z</time>
      </trkpt>
      <trkpt lat="45.13429" lon="0.68012">
        <ele>138.8</ele>
        <time>2022-04-03T07:40:13Z</time>
      </trkpt>
      <trkpt lat="45.13423" lon="0.68029">
        <ele>139.7</ele>
        <time>2022-04-03T07:40:21Z</time>
      </trkpt>
      <trkpt lat="45.1342" lon="0.68054">
        <ele>140.9</ele>
        <time>2022-04-03T07:40:31Z</time>
      </trkpt>
      <trkpt lat="45.13417" lon="0.68074">
        <ele>141.9</ele>
        <time>2022-04-03T07:40:39Z</time>
      </trkpt>
      <trkpt lat="45.13416" lon="0.68095">
        <ele>143</ele>
        <time>2022-04-03T07:40:47Z</time>
      </trkpt>
      <trkpt lat="45.13413" lon="0.6812">
        <ele>144.4</ele>
        <time>2022-04-03T07:40:56Z</time>
      </trkpt>
      <trkpt lat="45.1341" lon="0.68144">
        <ele>145.8</ele>
        <time>2022-04-03T07:41:05Z</time>
      </trkpt>
      <trkpt lat="45.13407" lon="0.6817">
        <ele>147.5</ele>
        <time>2022-04-03T07:41:15Z</time>
      </trkpt>
      <trkpt lat="45.13405" lon="0.68191">
        <ele>149.1</ele>
        <time>2022-04-03T07:41:24Z</time>
      </trkpt>
      <trkpt lat="45.13402" lon="0.68214">
        <ele>151.1</ele>
        <time>2022-04-03T07:41:33Z</time>
      </trkpt>
      <trkpt lat="45.13397" lon="0.68237">
        <ele>153.1</ele>
        <time>2022-04-03T07:41:43Z</time>
      </trkpt>
      <trkpt lat="45.13392" lon="0.68257">
        <ele>154.8</ele>
        <time>2022-04-03T07:41:52Z</time>
      </trkpt>
      <trkpt lat="45.13384" lon="0.68279">
        <ele>157</ele>
        <time>2022-04-03T07:42:02Z</time>
      </trkpt>
      <trkpt lat="45.13379" lon="0.68292">
        <ele>158.2</ele>
        <time>2022-04-03T07:42:09Z</time>
      </trkpt>
      <trkpt lat="45.13374" lon="0.68306">
        <ele>159.6</ele>
        <time>2022-04-03T07:42:17Z</time>
      </trkpt>
      <trkpt lat="45.13369" lon="0.6832">
        <ele>160.8</ele>
        <time>2022-04-03T07:42:24Z</time>
      </trkpt>
      <trkpt lat="45.13361" lon="0.68338">
        <ele>162.5</ele>
        <time>2022-04-03T07:42:34Z</time>
      </trkpt>
      <trkpt lat="45.13355" lon="0.68353">
        <ele>163.9</ele>
        <time>2022-04-03T07:42:42Z</time>
      </trkpt>
      <trkpt lat="45.13346" lon="0.6837">
        <ele>165.5</ele>
        <time>2022-04-03T07:42:52Z</time>
      </trkpt>
      <trkpt lat="45.13339" lon="0.68385">
        <ele>167</ele>
        <time>2022-04-03T07:43:00Z</time>
      </trkpt>
      <trkpt lat="45.13333" lon="0.68396">
        <ele>168.2</ele>
        <time>2022-04-03T07:43:06Z</time>
      </trkpt>
      <trkpt lat="45.13327" lon="0.68409">
        <ele>169.4</ele>
        <time>2022-04-03T07:43:13Z</time>
      </trkpt>
      <trkpt lat="45.13321" lon="0.68421">
        <ele>170.6</ele>
        <time>2022-04-03T07:43:20Z</time>
      </trkpt>
      <trkpt lat="45.13315" lon="0.68433">
        <ele>171.8</ele>
        <time>2022-04-03T07:43:27Z</time>
      </trkpt>
      <trkpt lat="45.1331" lon="0.68443">
        <ele>172.8</ele>
        <time>2022-04-03T07:43:33Z</time>
      </trkpt>
      <trkpt lat="45.13303" lon="0.68459">
        <ele>174.3</ele>
        <time>2022-04-03T07:43:42Z</time>
      </trkpt>
      <trkpt lat="45.13297" lon="0.68471">
        <ele>175.2</ele>
        <time>2022-04-03T07:43:48Z</time>
      </trkpt>
      <trkpt lat="45.13297" lon="0.68484">
        <ele>176</ele>
        <time>2022-04-03T07:43:54Z</time>
      </trkpt>
      <trkpt lat="45.13298" lon="0.68487">
        <ele>176.1</ele>
        <time>2022-04-03T07:43:56Z</time>
      </trkpt>
      <trkpt lat="45.13299" lon="0.68491">
        <ele>176.4</ele>
        <time>2022-04-03T07:43:58Z</time>
      </trkpt>
      <trkpt lat="45.13303" lon="0.68504">
        <ele>177.1</ele>
        <time>2022-04-03T07:44:04Z</time>
      </trkpt>
      <trkpt lat="45.13308" lon="0.68517">
        <ele>177.8</ele>
        <time>2022-04-03T07:44:10Z</time>
      </trkpt>
      <trkpt lat="45.13313" lon="0.68527">
        <ele>178.1</ele>
        <time>2022-04-03T07:44:15Z</time>
      </trkpt>
      <trkpt lat="45.13318" lon="0.68537">
        <ele>178.2</ele>
        <time>2022-04-03T07:44:20Z</time>
      </trkpt>
      <trkpt lat="45.13319" lon="0.68539">
        <ele>178.2</ele>
        <time>2022-04-03T07:44:21Z</time>
      </trkpt>
      <trkpt lat="45.13322" lon="0.68545">
        <ele>178.3</ele>
        <time>2022-04-03T07:44:24Z</time>
      </trkpt>
      <trkpt lat="45.13324" lon="0.68549">
        <ele>178.3</ele>
        <time>2022-04-03T07:44:26Z</time>
      </trkpt>
      <trkpt lat="45.13326" lon="0.68553">
        <ele>178.4</ele>
        <time>2022-04-03T07:44:28Z</time>
      </trkpt>
      <trkpt lat="45.13327" lon="0.68555">
        <ele>178.4</ele>
        <time>2022-04-03T07:44:29Z</time>
      </trkpt>
      <trkpt lat="45.13331" lon="0.68565">
        <ele>178.5</ele>
        <time>2022-04-03T07:44:33Z</time>
      </trkpt>
      <trkpt lat="45.13331" lon="0.68565">
        <ele>178.5</ele>
        <time>2022-04-03T07:44:34Z</time>
      </trkpt>
      <trkpt lat="45.13337" lon="0.68574">
        <ele>178.6</ele>
        <time>2022-04-03T07:44:38Z</time>
      </trkpt>
      <trkpt lat="45.13338" lon="0.68575">
        <ele>178.6</ele>
        <time>2022-04-03T07:44:39Z</time>
      </trkpt>
      <trkpt lat="45.13338" lon="0.68575">
        <ele>178.6</ele>
        <time>2022-04-03T07:44:41Z</time>
      </trkpt>
      <trkpt lat="45.13365" lon="0.686">
        <ele>179.1</ele>
        <time>2022-04-03T07:44:56Z</time>
      </trkpt>
      <trkpt lat="45.13371" lon="0.68603">
        <ele>179.2</ele>
        <time>2022-04-03T07:44:59Z</time>
      </trkpt>
      <trkpt lat="45.13374" lon="0.68605">
        <ele>179.2</ele>
        <time>2022-04-03T07:45:01Z</time>
      </trkpt>
      <trkpt lat="45.13377" lon="0.68607">
        <ele>179.2</ele>
        <time>2022-04-03T07:45:03Z</time>
      </trkpt>
      <trkpt lat="45.13377" lon="0.68607">
        <ele>179.2</ele>
        <time>2022-04-03T07:45:05Z</time>
      </trkpt>
      <trkpt lat="45.13383" lon="0.68605">
        <ele>179.3</ele>
        <time>2022-04-03T07:45:07Z</time>
      </trkpt>
      <trkpt lat="45.1338" lon="0.68602">
        <ele>179.3</ele>
        <time>2022-04-03T07:45:09Z</time>
      </trkpt>
      <trkpt lat="45.13375" lon="0.68606">
        <ele>179.2</ele>
        <time>2022-04-03T07:45:13Z</time>
      </trkpt>
      <trkpt lat="45.13374" lon="0.68605">
        <ele>179.2</ele>
        <time>2022-04-03T07:45:14Z</time>
      </trkpt>
      <trkpt lat="45.13369" lon="0.68603">
        <ele>179.1</ele>
        <time>2022-04-03T07:45:18Z</time>
      </trkpt>
      <trkpt lat="45.13368" lon="0.68602">
        <ele>179.1</ele>
        <time>2022-04-03T07:45:20Z</time>
      </trkpt>
      <trkpt lat="45.13361" lon="0.68598">
        <ele>179</ele>
        <time>2022-04-03T07:45:26Z</time>
      </trkpt>
      <trkpt lat="45.13349" lon="0.68619">
        <ele>182.8</ele>
        <time>2022-04-03T07:45:31Z</time>
      </trkpt>
      <trkpt lat="45.13348" lon="0.68618">
        <ele>183.1</ele>
        <time>2022-04-03T07:45:32Z</time>
      </trkpt>
      <trkpt lat="45.13337" lon="0.68624">
        <ele>184.2</ele>
        <time>2022-04-03T07:45:39Z</time>
      </trkpt>
      <trkpt lat="45.13335" lon="0.68624">
        <ele>184.5</ele>
        <time>2022-04-03T07:45:40Z</time>
      </trkpt>
      <trkpt lat="45.13333" lon="0.68625">
        <ele>184.7</ele>
        <time>2022-04-03T07:45:42Z</time>
      </trkpt>
      <trkpt lat="45.13332" lon="0.68626">
        <ele>185</ele>
        <time>2022-04-03T07:45:44Z</time>
      </trkpt>
      <trkpt lat="45.1333" lon="0.68628">
        <ele>185.2</ele>
        <time>2022-04-03T07:45:45Z</time>
      </trkpt>
      <trkpt lat="45.13327" lon="0.68629">
        <ele>185.5</ele>
        <time>2022-04-03T07:45:48Z</time>
      </trkpt>
      <trkpt lat="45.13327" lon="0.68629">
        <ele>185.7</ele>
        <time>2022-04-03T07:45:49Z</time>
      </trkpt>
      <trkpt lat="45.13323" lon="0.68632">
        <ele>189.3</ele>
        <time>2022-04-03T07:45:53Z</time>
      </trkpt>
      <trkpt lat="45.13321" lon="0.68633">
        <ele>189.5</ele>
        <time>2022-04-03T07:45:54Z</time>
      </trkpt>
      <trkpt lat="45.13314" lon="0.68643">
        <ele>189.8</ele>
        <time>2022-04-03T07:45:59Z</time>
      </trkpt>
      <trkpt lat="45.13308" lon="0.68646">
        <ele>191.1</ele>
        <time>2022-04-03T07:46:04Z</time>
      </trkpt>
      <trkpt lat="45.13307" lon="0.68647">
        <ele>191.3</ele>
        <time>2022-04-03T07:46:05Z</time>
      </trkpt>
      <trkpt lat="45.13306" lon="0.68647">
        <ele>191.6</ele>
        <time>2022-04-03T07:46:06Z</time>
      </trkpt>
      <trkpt lat="45.13304" lon="0.68649">
        <ele>193.7</ele>
        <time>2022-04-03T07:46:08Z</time>
      </trkpt>
      <trkpt lat="45.13303" lon="0.68648">
        <ele>194</ele>
        <time>2022-04-03T07:46:10Z</time>
      </trkpt>
      <trkpt lat="45.13301" lon="0.68652">
        <ele>195.2</ele>
        <time>2022-04-03T07:46:12Z</time>
      </trkpt>
      <trkpt lat="45.13298" lon="0.68657">
        <ele>195.5</ele>
        <time>2022-04-03T07:46:14Z</time>
      </trkpt>
      <trkpt lat="45.13296" lon="0.68661">
        <ele>195.7</ele>
        <time>2022-04-03T07:46:17Z</time>
      </trkpt>
      <trkpt lat="45.13293" lon="0.68662">
        <ele>196</ele>
        <time>2022-04-03T07:46:20Z</time>
      </trkpt>
      <trkpt lat="45.13287" lon="0.6867">
        <ele>198.6</ele>
        <time>2022-04-03T07:46:27Z</time>
      </trkpt>
      <trkpt lat="45.1328" lon="0.68679">
        <ele>198.8</ele>
        <time>2022-04-03T07:46:34Z</time>
      </trkpt>
      <trkpt lat="45.13277" lon="0.68685">
        <ele>200.5</ele>
        <time>2022-04-03T07:46:38Z</time>
      </trkpt>
      <trkpt lat="45.13274" lon="0.68691">
        <ele>201.3</ele>
        <time>2022-04-03T07:46:43Z</time>
      </trkpt>
      <trkpt lat="45.13271" lon="0.68697">
        <ele>201.6</ele>
        <time>2022-04-03T07:46:47Z</time>
      </trkpt>
      <trkpt lat="45.13271" lon="0.687">
        <ele>203.7</ele>
        <time>2022-04-03T07:46:49Z</time>
      </trkpt>
      <trkpt lat="45.13268" lon="0.68711">
        <ele>204</ele>
        <time>2022-04-03T07:46:55Z</time>
      </trkpt>
      <trkpt lat="45.13265" lon="0.68723">
        <ele>206.7</ele>
        <time>2022-04-03T07:47:02Z</time>
      </trkpt>
      <trkpt lat="45.13263" lon="0.68726">
        <ele>207</ele>
        <time>2022-04-03T07:47:04Z</time>
      </trkpt>
      <trkpt lat="45.13263" lon="0.6873">
        <ele>207.2</ele>
        <time>2022-04-03T07:47:06Z</time>
      </trkpt>
      <trkpt lat="45.13263" lon="0.68739">
        <ele>209.2</ele>
        <time>2022-04-03T07:47:12Z</time>
      </trkpt>
      <trkpt lat="45.13263" lon="0.68743">
        <ele>209.5</ele>
        <time>2022-04-03T07:47:14Z</time>
      </trkpt>
      <trkpt lat="45.13263" lon="0.6875">
        <ele>209.7</ele>
        <time>2022-04-03T07:47:17Z</time>
      </trkpt>
      <trkpt lat="45.13263" lon="0.68759">
        <ele>211.7</ele>
        <time>2022-04-03T07:47:22Z</time>
      </trkpt>
      <trkpt lat="45.13264" lon="0.68761">
        <ele>211.9</ele>
        <time>2022-04-03T07:47:25Z</time>
      </trkpt>
      <trkpt lat="45.1328" lon="0.68844">
        <ele>217.7</ele>
        <time>2022-04-03T07:48:08Z</time>
      </trkpt>
      <trkpt lat="45.13281" lon="0.6885">
        <ele>217.9</ele>
        <time>2022-04-03T07:48:11Z</time>
      </trkpt>
      <trkpt lat="45.13282" lon="0.68854">
        <ele>218.5</ele>
        <time>2022-04-03T07:48:13Z</time>
      </trkpt>
      <trkpt lat="45.13284" lon="0.6887">
        <ele>218.8</ele>
        <time>2022-04-03T07:48:19Z</time>
      </trkpt>
      <trkpt lat="45.13285" lon="0.68874">
        <ele>219</ele>
        <time>2022-04-03T07:48:21Z</time>
      </trkpt>
      <trkpt lat="45.13286" lon="0.68879">
        <ele>219.2</ele>
        <time>2022-04-03T07:48:23Z</time>
      </trkpt>
      <trkpt lat="45.13288" lon="0.6889">
        <ele>219.3</ele>
        <time>2022-04-03T07:48:27Z</time>
      </trkpt>
      <trkpt lat="45.13292" lon="0.68902">
        <ele>219.3</ele>
        <time>2022-04-03T07:48:32Z</time>
      </trkpt>
      <trkpt lat="45.13297" lon="0.68921">
        <ele>219.4</ele>
        <time>2022-04-03T07:48:36Z</time>
      </trkpt>
      <trkpt lat="45.13299" lon="0.68934">
        <ele>219.7</ele>
        <time>2022-04-03T07:48:45Z</time>
      </trkpt>
      <trkpt lat="45.13301" lon="0.68948">
        <ele>219.8</ele>
        <time>2022-04-03T07:48:46Z</time>
      </trkpt>
      <trkpt lat="45.133" lon="0.68948">
        <ele>219.8</ele>
        <time>2022-04-03T07:48:47Z</time>
      </trkpt>
      <trkpt lat="45.13298" lon="0.68949">
        <ele>219.8</ele>
        <time>2022-04-03T07:48:48Z</time>
      </trkpt>
      <trkpt lat="45.13291" lon="0.68952">
        <ele>219.8</ele>
        <time>2022-04-03T07:48:51Z</time>
      </trkpt>
      <trkpt lat="45.13279" lon="0.68958">
        <ele>219.7</ele>
        <time>2022-04-03T07:48:56Z</time>
      </trkpt>
      <trkpt lat="45.13262" lon="0.68968">
        <ele>219.5</ele>
        <time>2022-04-03T07:49:02Z</time>
      </trkpt>
      <trkpt lat="45.13249" lon="0.68981">
        <ele>219.5</ele>
        <time>2022-04-03T07:49:07Z</time>
      </trkpt>
      <trkpt lat="45.13239" lon="0.6899">
        <ele>219.4</ele>
        <time>2022-04-03T07:49:11Z</time>
      </trkpt>
      <trkpt lat="45.13228" lon="0.69001">
        <ele>219.3</ele>
        <time>2022-04-03T07:49:15Z</time>
      </trkpt>
      <trkpt lat="45.1321" lon="0.69018">
        <ele>219.1</ele>
        <time>2022-04-03T07:49:21Z</time>
      </trkpt>
      <trkpt lat="45.13193" lon="0.69039">
        <ele>218.8</ele>
        <time>2022-04-03T07:49:27Z</time>
      </trkpt>
      <trkpt lat="45.13184" lon="0.69054">
        <ele>218.5</ele>
        <time>2022-04-03T07:49:31Z</time>
      </trkpt>
      <trkpt lat="45.13172" lon="0.69071">
        <ele>218.1</ele>
        <time>2022-04-03T07:49:35Z</time>
      </trkpt>
      <trkpt lat="45.13167" lon="0.6908">
        <ele>217.8</ele>
        <time>2022-04-03T07:49:37Z</time>
      </trkpt>
      <trkpt lat="45.13162" lon="0.69089">
        <ele>217.5</ele>
        <time>2022-04-03T07:49:39Z</time>
      </trkpt>
      <trkpt lat="45.13158" lon="0.69099">
        <ele>217.2</ele>
        <time>2022-04-03T07:49:41Z</time>
      </trkpt>
      <trkpt lat="45.13154" lon="0.69109">
        <ele>216.8</ele>
        <time>2022-04-03T07:49:43Z</time>
      </trkpt>
      <trkpt lat="45.13142" lon="0.69121">
        <ele>215.7</ele>
        <time>2022-04-03T07:49:44Z</time>
      </trkpt>
      <trkpt lat="45.13131" lon="0.69132">
        <ele>214</ele>
        <time>2022-04-03T07:49:46Z</time>
      </trkpt>
      <trkpt lat="45.13126" lon="0.69147">
        <ele>212.2</ele>
        <time>2022-04-03T07:49:48Z</time>
      </trkpt>
      <trkpt lat="45.13121" lon="0.69152">
        <ele>211.1</ele>
        <time>2022-04-03T07:49:49Z</time>
      </trkpt>
      <trkpt lat="45.13112" lon="0.69161">
        <ele>208.9</ele>
        <time>2022-04-03T07:49:51Z</time>
      </trkpt>
      <trkpt lat="45.13106" lon="0.69175">
        <ele>207</ele>
        <time>2022-04-03T07:49:53Z</time>
      </trkpt>
      <trkpt lat="45.13104" lon="0.69182">
        <ele>206.2</ele>
        <time>2022-04-03T07:49:54Z</time>
      </trkpt>
      <trkpt lat="45.13098" lon="0.69209">
        <ele>203.4</ele>
        <time>2022-04-03T07:49:57Z</time>
      </trkpt>
      <trkpt lat="45.13096" lon="0.69214">
        <ele>202.8</ele>
        <time>2022-04-03T07:49:58Z</time>
      </trkpt>
      <trkpt lat="45.13083" lon="0.69226">
        <ele>201</ele>
        <time>2022-04-03T07:49:59Z</time>
      </trkpt>
      <trkpt lat="45.1308" lon="0.69223">
        <ele>201</ele>
        <time>2022-04-03T07:50:00Z</time>
      </trkpt>
      <trkpt lat="45.13073" lon="0.69216">
        <ele>201</ele>
        <time>2022-04-03T07:50:02Z</time>
      </trkpt>
      <trkpt lat="45.13063" lon="0.69203">
        <ele>200.9</ele>
        <time>2022-04-03T07:50:05Z</time>
      </trkpt>
      <trkpt lat="45.13058" lon="0.69189">
        <ele>200.5</ele>
        <time>2022-04-03T07:50:07Z</time>
      </trkpt>
      <trkpt lat="45.13055" lon="0.69182">
        <ele>200.1</ele>
        <time>2022-04-03T07:50:08Z</time>
      </trkpt>
      <trkpt lat="45.1305" lon="0.69175">
        <ele>199.3</ele>
        <time>2022-04-03T07:50:09Z</time>
      </trkpt>
      <trkpt lat="45.13044" lon="0.69174">
        <ele>198.5</ele>
        <time>2022-04-03T07:50:10Z</time>
      </trkpt>
      <trkpt lat="45.13016" lon="0.69169">
        <ele>194.3</ele>
        <time>2022-04-03T07:50:14Z</time>
      </trkpt>
      <trkpt lat="45.13008" lon="0.69167">
        <ele>193.1</ele>
        <time>2022-04-03T07:50:15Z</time>
      </trkpt>
      <trkpt lat="45.12995" lon="0.69165">
        <ele>191.1</ele>
        <time>2022-04-03T07:50:17Z</time>
      </trkpt>
      <trkpt lat="45.12986" lon="0.69152">
        <ele>189.3</ele>
        <time>2022-04-03T07:50:19Z</time>
      </trkpt>
      <trkpt lat="45.12978" lon="0.69134">
        <ele>187.1</ele>
        <time>2022-04-03T07:50:22Z</time>
      </trkpt>
      <trkpt lat="45.12978" lon="0.69119">
        <ele>185.6</ele>
        <time>2022-04-03T07:50:24Z</time>
      </trkpt>
      <trkpt lat="45.12991" lon="0.69106">
        <ele>184.1</ele>
        <time>2022-04-03T07:50:26Z</time>
      </trkpt>
      <trkpt lat="45.12997" lon="0.69104">
        <ele>183.7</ele>
        <time>2022-04-03T07:50:27Z</time>
      </trkpt>
      <trkpt lat="45.13003" lon="0.69101">
        <ele>183.4</ele>
        <time>2022-04-03T07:50:28Z</time>
      </trkpt>
      <trkpt lat="45.13007" lon="0.69098">
        <ele>183.1</ele>
        <time>2022-04-03T07:50:29Z</time>
      </trkpt>
      <trkpt lat="45.13006" lon="0.69072">
        <ele>181.6</ele>
        <time>2022-04-03T07:50:32Z</time>
      </trkpt>
      <trkpt lat="45.12994" lon="0.69018">
        <ele>176.9</ele>
        <time>2022-04-03T07:50:37Z</time>
      </trkpt>
      <trkpt lat="45.12987" lon="0.68985">
        <ele>174.4</ele>
        <time>2022-04-03T07:50:40Z</time>
      </trkpt>
      <trkpt lat="45.12986" lon="0.68982">
        <ele>171.7</ele>
        <time>2022-04-03T07:50:41Z</time>
      </trkpt>
      <trkpt lat="45.12989" lon="0.68912">
        <ele>169.2</ele>
        <time>2022-04-03T07:50:45Z</time>
      </trkpt>
      <trkpt lat="45.12982" lon="0.68873">
        <ele>163.4</ele>
        <time>2022-04-03T07:50:48Z</time>
      </trkpt>
      <trkpt lat="45.12971" lon="0.68833">
        <ele>155.5</ele>
        <time>2022-04-03T07:50:51Z</time>
      </trkpt>
      <trkpt lat="45.12965" lon="0.68821">
        <ele>155.5</ele>
        <time>2022-04-03T07:50:52Z</time>
      </trkpt>
      <trkpt lat="45.12959" lon="0.6881">
        <ele>151</ele>
        <time>2022-04-03T07:50:53Z</time>
      </trkpt>
      <trkpt lat="45.12945" lon="0.68794">
        <ele>146.5</ele>
        <time>2022-04-03T07:50:55Z</time>
      </trkpt>
      <trkpt lat="45.12938" lon="0.68783">
        <ele>142.7</ele>
        <time>2022-04-03T07:50:56Z</time>
      </trkpt>
      <trkpt lat="45.12928" lon="0.68764">
        <ele>141.3</ele>
        <time>2022-04-03T07:50:58Z</time>
      </trkpt>
      <trkpt lat="45.1292" lon="0.68743">
        <ele>138</ele>
        <time>2022-04-03T07:51:01Z</time>
      </trkpt>
      <trkpt lat="45.12913" lon="0.68743">
        <ele>136.7</ele>
        <time>2022-04-03T07:51:03Z</time>
      </trkpt>
      <trkpt lat="45.1291" lon="0.68746">
        <ele>136.7</ele>
        <time>2022-04-03T07:51:04Z</time>
      </trkpt>
      <trkpt lat="45.12898" lon="0.68761">
        <ele>137.1</ele>
        <time>2022-04-03T07:51:08Z</time>
      </trkpt>
      <trkpt lat="45.12895" lon="0.68746">
        <ele>136.4</ele>
        <time>2022-04-03T07:51:11Z</time>
      </trkpt>
      <trkpt lat="45.12884" lon="0.68719">
        <ele>135.5</ele>
        <time>2022-04-03T07:51:16Z</time>
      </trkpt>
      <trkpt lat="45.12867" lon="0.68679">
        <ele>136.1</ele>
        <time>2022-04-03T07:51:23Z</time>
      </trkpt>
      <trkpt lat="45.12859" lon="0.68662">
        <ele>137.1</ele>
        <time>2022-04-03T07:51:28Z</time>
      </trkpt>
      <trkpt lat="45.12849" lon="0.6864">
        <ele>138.8</ele>
        <time>2022-04-03T07:51:35Z</time>
      </trkpt>
      <trkpt lat="45.12835" lon="0.68616">
        <ele>140.7</ele>
        <time>2022-04-03T07:51:45Z</time>
      </trkpt>
      <trkpt lat="45.12825" lon="0.68598">
        <ele>142</ele>
        <time>2022-04-03T07:51:53Z</time>
      </trkpt>
      <trkpt lat="45.12816" lon="0.68585">
        <ele>142.8</ele>
        <time>2022-04-03T07:51:59Z</time>
      </trkpt>
      <trkpt lat="45.12807" lon="0.6857">
        <ele>143.7</ele>
        <time>2022-04-03T07:52:05Z</time>
      </trkpt>
      <trkpt lat="45.12796" lon="0.68555">
        <ele>144.5</ele>
        <time>2022-04-03T07:52:12Z</time>
      </trkpt>
      <trkpt lat="45.12781" lon="0.68539">
        <ele>145.4</ele>
        <time>2022-04-03T07:52:21Z</time>
      </trkpt>
      <trkpt lat="45.12771" lon="0.68529">
        <ele>146</ele>
        <time>2022-04-03T07:52:27Z</time>
      </trkpt>
      <trkpt lat="45.12757" lon="0.68516">
        <ele>146.8</ele>
        <time>2022-04-03T07:52:35Z</time>
      </trkpt>
      <trkpt lat="45.12742" lon="0.68505">
        <ele>147.8</ele>
        <time>2022-04-03T07:52:43Z</time>
      </trkpt>
      <trkpt lat="45.1273" lon="0.68495">
        <ele>148.9</ele>
        <time>2022-04-03T07:52:50Z</time>
      </trkpt>
      <trkpt lat="45.12714" lon="0.68484">
        <ele>150.3</ele>
        <time>2022-04-03T07:52:58Z</time>
      </trkpt>
      <trkpt lat="45.12704" lon="0.68477">
        <ele>151.3</ele>
        <time>2022-04-03T07:53:04Z</time>
      </trkpt>
      <trkpt lat="45.12691" lon="0.68467">
        <ele>152.7</ele>
        <time>2022-04-03T07:53:12Z</time>
      </trkpt>
      <trkpt lat="45.12678" lon="0.68457">
        <ele>154.1</ele>
        <time>2022-04-03T07:53:20Z</time>
      </trkpt>
      <trkpt lat="45.12665" lon="0.68446">
        <ele>155.6</ele>
        <time>2022-04-03T07:53:29Z</time>
      </trkpt>
      <trkpt lat="45.12656" lon="0.68438">
        <ele>156.5</ele>
        <time>2022-04-03T07:53:35Z</time>
      </trkpt>
      <trkpt lat="45.12647" lon="0.68429">
        <ele>157.5</ele>
        <time>2022-04-03T07:53:42Z</time>
      </trkpt>
      <trkpt lat="45.12644" lon="0.68426">
        <ele>157.7</ele>
        <time>2022-04-03T07:53:44Z</time>
      </trkpt>
      <trkpt lat="45.12639" lon="0.68422">
        <ele>158.1</ele>
        <time>2022-04-03T07:53:47Z</time>
      </trkpt>
      <trkpt lat="45.12632" lon="0.68415">
        <ele>158.7</ele>
        <time>2022-04-03T07:53:52Z</time>
      </trkpt>
      <trkpt lat="45.12624" lon="0.68408">
        <ele>159.2</ele>
        <time>2022-04-03T07:53:57Z</time>
      </trkpt>
      <trkpt lat="45.12623" lon="0.68406">
        <ele>159.3</ele>
        <time>2022-04-03T07:53:58Z</time>
      </trkpt>
      <trkpt lat="45.12617" lon="0.68401">
        <ele>159.7</ele>
        <time>2022-04-03T07:54:01Z</time>
      </trkpt>
      <trkpt lat="45.12614" lon="0.68398">
        <ele>159.8</ele>
        <time>2022-04-03T07:54:03Z</time>
      </trkpt>
      <trkpt lat="45.12608" lon="0.68392">
        <ele>160.2</ele>
        <time>2022-04-03T07:54:07Z</time>
      </trkpt>
      <trkpt lat="45.12599" lon="0.68383">
        <ele>160.7</ele>
        <time>2022-04-03T07:54:12Z</time>
      </trkpt>
      <trkpt lat="45.12587" lon="0.68373">
        <ele>161.2</ele>
        <time>2022-04-03T07:54:18Z</time>
      </trkpt>
      <trkpt lat="45.12578" lon="0.68365">
        <ele>161.7</ele>
        <time>2022-04-03T07:54:23Z</time>
      </trkpt>
      <trkpt lat="45.12565" lon="0.68354">
        <ele>162.4</ele>
        <time>2022-04-03T07:54:29Z</time>
      </trkpt>
      <trkpt lat="45.12554" lon="0.68345">
        <ele>163.2</ele>
        <time>2022-04-03T07:54:35Z</time>
      </trkpt>
      <trkpt lat="45.12551" lon="0.68343">
        <ele>163.5</ele>
        <time>2022-04-03T07:54:37Z</time>
      </trkpt>
      <trkpt lat="45.12547" lon="0.6834">
        <ele>163.8</ele>
        <time>2022-04-03T07:54:39Z</time>
      </trkpt>
      <trkpt lat="45.12539" lon="0.68333">
        <ele>164.5</ele>
        <time>2022-04-03T07:54:44Z</time>
      </trkpt>
      <trkpt lat="45.12527" lon="0.68324">
        <ele>165.5</ele>
        <time>2022-04-03T07:54:50Z</time>
      </trkpt>
      <trkpt lat="45.1252" lon="0.68318">
        <ele>166.2</ele>
        <time>2022-04-03T07:54:54Z</time>
      </trkpt>
      <trkpt lat="45.12509" lon="0.6831">
        <ele>166.9</ele>
        <time>2022-04-03T07:55:00Z</time>
      </trkpt>
      <trkpt lat="45.12508" lon="0.68309">
        <ele>167</ele>
        <time>2022-04-03T07:55:01Z</time>
      </trkpt>
      <trkpt lat="45.12502" lon="0.68304">
        <ele>167.4</ele>
        <time>2022-04-03T07:55:04Z</time>
      </trkpt>
      <trkpt lat="45.12496" lon="0.683">
        <ele>167.6</ele>
        <time>2022-04-03T07:55:07Z</time>
      </trkpt>
      <trkpt lat="45.12483" lon="0.68287">
        <ele>168</ele>
        <time>2022-04-03T07:55:13Z</time>
      </trkpt>
      <trkpt lat="45.12467" lon="0.6827">
        <ele>168.2</ele>
        <time>2022-04-03T07:55:21Z</time>
      </trkpt>
      <trkpt lat="45.12451" lon="0.68255">
        <ele>168.6</ele>
        <time>2022-04-03T07:55:28Z</time>
      </trkpt>
      <trkpt lat="45.12434" lon="0.68242">
        <ele>169.2</ele>
        <time>2022-04-03T07:55:36Z</time>
      </trkpt>
      <trkpt lat="45.12418" lon="0.68232">
        <ele>169.7</ele>
        <time>2022-04-03T07:55:44Z</time>
      </trkpt>
      <trkpt lat="45.12402" lon="0.68223">
        <ele>170.3</ele>
        <time>2022-04-03T07:55:52Z</time>
      </trkpt>
      <trkpt lat="45.12391" lon="0.68218">
        <ele>170.6</ele>
        <time>2022-04-03T07:55:57Z</time>
      </trkpt>
      <trkpt lat="45.12378" lon="0.6821">
        <ele>171.2</ele>
        <time>2022-04-03T07:56:03Z</time>
      </trkpt>
      <trkpt lat="45.12367" lon="0.68201">
        <ele>171.9</ele>
        <time>2022-04-03T07:56:09Z</time>
      </trkpt>
      <trkpt lat="45.12362" lon="0.68196">
        <ele>172.2</ele>
        <time>2022-04-03T07:56:14Z</time>
      </trkpt>
      <trkpt lat="45.12358" lon="0.68193">
        <ele>172.5</ele>
        <time>2022-04-03T07:56:31Z</time>
      </trkpt>
      <trkpt lat="45.12354" lon="0.6819">
        <ele>172.8</ele>
        <time>2022-04-03T07:56:33Z</time>
      </trkpt>
      <trkpt lat="45.12344" lon="0.68181">
        <ele>173.8</ele>
        <time>2022-04-03T07:56:39Z</time>
      </trkpt>
      <trkpt lat="45.12335" lon="0.68176">
        <ele>174.7</ele>
        <time>2022-04-03T07:56:44Z</time>
      </trkpt>
      <trkpt lat="45.12326" lon="0.68171">
        <ele>175.7</ele>
        <time>2022-04-03T07:56:49Z</time>
      </trkpt>
      <trkpt lat="45.12324" lon="0.68171">
        <ele>175.8</ele>
        <time>2022-04-03T07:56:50Z</time>
      </trkpt>
      <trkpt lat="45.12321" lon="0.68169">
        <ele>176.2</ele>
        <time>2022-04-03T07:56:52Z</time>
      </trkpt>
      <trkpt lat="45.1231" lon="0.68163">
        <ele>177.4</ele>
        <time>2022-04-03T07:56:58Z</time>
      </trkpt>
      <trkpt lat="45.12303" lon="0.68159">
        <ele>178.2</ele>
        <time>2022-04-03T07:57:02Z</time>
      </trkpt>
      <trkpt lat="45.12301" lon="0.68157">
        <ele>178.6</ele>
        <time>2022-04-03T07:57:04Z</time>
      </trkpt>
      <trkpt lat="45.12295" lon="0.68154">
        <ele>179.4</ele>
        <time>2022-04-03T07:57:09Z</time>
      </trkpt>
      <trkpt lat="45.12295" lon="0.68153">
        <ele>179.5</ele>
        <time>2022-04-03T07:57:10Z</time>
      </trkpt>
      <trkpt lat="45.12292" lon="0.68143">
        <ele>180.6</ele>
        <time>2022-04-03T07:57:16Z</time>
      </trkpt>
      <trkpt lat="45.12294" lon="0.68142">
        <ele>181</ele>
        <time>2022-04-03T07:57:18Z</time>
      </trkpt>
      <trkpt lat="45.12294" lon="0.68137">
        <ele>181.5</ele>
        <time>2022-04-03T07:57:22Z</time>
      </trkpt>
      <trkpt lat="45.12299" lon="0.68129">
        <ele>182.5</ele>
        <time>2022-04-03T07:57:26Z</time>
      </trkpt>
      <trkpt lat="45.12302" lon="0.68125">
        <ele>183</ele>
        <time>2022-04-03T07:57:30Z</time>
      </trkpt>
      <trkpt lat="45.12307" lon="0.68117">
        <ele>183.7</ele>
        <time>2022-04-03T07:57:34Z</time>
      </trkpt>
      <trkpt lat="45.12313" lon="0.68104">
        <ele>184.5</ele>
        <time>2022-04-03T07:57:39Z</time>
      </trkpt>
      <trkpt lat="45.12314" lon="0.68103">
        <ele>184.6</ele>
        <time>2022-04-03T07:57:40Z</time>
      </trkpt>
      <trkpt lat="45.12315" lon="0.6809">
        <ele>185.1</ele>
        <time>2022-04-03T07:57:45Z</time>
      </trkpt>
      <trkpt lat="45.12315" lon="0.68084">
        <ele>185.4</ele>
        <time>2022-04-03T07:57:47Z</time>
      </trkpt>
      <trkpt lat="45.12311" lon="0.68077">
        <ele>185.7</ele>
        <time>2022-04-03T07:57:50Z</time>
      </trkpt>
      <trkpt lat="45.12309" lon="0.68074">
        <ele>185.9</ele>
        <time>2022-04-03T07:57:52Z</time>
      </trkpt>
      <trkpt lat="45.12304" lon="0.68069">
        <ele>186.4</ele>
        <time>2022-04-03T07:57:55Z</time>
      </trkpt>
      <trkpt lat="45.12297" lon="0.68063">
        <ele>187.1</ele>
        <time>2022-04-03T07:57:59Z</time>
      </trkpt>
      <trkpt lat="45.12295" lon="0.68061">
        <ele>187.4</ele>
        <time>2022-04-03T07:58:00Z</time>
      </trkpt>
      <trkpt lat="45.12283" lon="0.68052">
        <ele>188.9</ele>
        <time>2022-04-03T07:58:07Z</time>
      </trkpt>
      <trkpt lat="45.1228" lon="0.6805">
        <ele>189.3</ele>
        <time>2022-04-03T07:58:09Z</time>
      </trkpt>
      <trkpt lat="45.12276" lon="0.68047">
        <ele>189.7</ele>
        <time>2022-04-03T07:58:11Z</time>
      </trkpt>
      <trkpt lat="45.12273" lon="0.68045">
        <ele>190.1</ele>
        <time>2022-04-03T07:58:13Z</time>
      </trkpt>
      <trkpt lat="45.12266" lon="0.68039">
        <ele>191</ele>
        <time>2022-04-03T07:58:17Z</time>
      </trkpt>
      <trkpt lat="45.12258" lon="0.68032">
        <ele>191.6</ele>
        <time>2022-04-03T07:58:21Z</time>
      </trkpt>
      <trkpt lat="45.12246" lon="0.68022">
        <ele>192.5</ele>
        <time>2022-04-03T07:58:27Z</time>
      </trkpt>
      <trkpt lat="45.12231" lon="0.68006">
        <ele>193.6</ele>
        <time>2022-04-03T07:58:35Z</time>
      </trkpt>
      <trkpt lat="45.12219" lon="0.67992">
        <ele>194.6</ele>
        <time>2022-04-03T07:58:42Z</time>
      </trkpt>
      <trkpt lat="45.12205" lon="0.67978">
        <ele>195.6</ele>
        <time>2022-04-03T07:58:49Z</time>
      </trkpt>
      <trkpt lat="45.12192" lon="0.67969">
        <ele>196.4</ele>
        <time>2022-04-03T07:58:56Z</time>
      </trkpt>
      <trkpt lat="45.1218" lon="0.67961">
        <ele>197.1</ele>
        <time>2022-04-03T07:59:02Z</time>
      </trkpt>
      <trkpt lat="45.12165" lon="0.6795">
        <ele>197.9</ele>
        <time>2022-04-03T07:59:09Z</time>
      </trkpt>
      <trkpt lat="45.12148" lon="0.67939">
        <ele>198.6</ele>
        <time>2022-04-03T07:59:17Z</time>
      </trkpt>
      <trkpt lat="45.12132" lon="0.67933">
        <ele>199</ele>
        <time>2022-04-03T07:59:23Z</time>
      </trkpt>
      <trkpt lat="45.12113" lon="0.67932">
        <ele>199.3</ele>
        <time>2022-04-03T07:59:30Z</time>
      </trkpt>
      <trkpt lat="45.12091" lon="0.67931">
        <ele>199.3</ele>
        <time>2022-04-03T07:59:37Z</time>
      </trkpt>
      <trkpt lat="45.12067" lon="0.67931">
        <ele>199.4</ele>
        <time>2022-04-03T07:59:44Z</time>
      </trkpt>
      <trkpt lat="45.12044" lon="0.67931">
        <ele>199.5</ele>
        <time>2022-04-03T07:59:51Z</time>
      </trkpt>
      <trkpt lat="45.12026" lon="0.67931">
        <ele>199.5</ele>
        <time>2022-04-03T07:59:56Z</time>
      </trkpt>
      <trkpt lat="45.12001" lon="0.67931">
        <ele>199.5</ele>
        <time>2022-04-03T08:00:03Z</time>
      </trkpt>
      <trkpt lat="45.11978" lon="0.67931">
        <ele>199.2</ele>
        <time>2022-04-03T08:00:09Z</time>
      </trkpt>
      <trkpt lat="45.1197" lon="0.67931">
        <ele>199.2</ele>
        <time>2022-04-03T08:00:11Z</time>
      </trkpt>
      <trkpt lat="45.11958" lon="0.67937">
        <ele>199.2</ele>
        <time>2022-04-03T08:00:14Z</time>
      </trkpt>
      <trkpt lat="45.11951" lon="0.67943">
        <ele>199.2</ele>
        <time>2022-04-03T08:00:16Z</time>
      </trkpt>
      <trkpt lat="45.11933" lon="0.6797">
        <ele>199.1</ele>
        <time>2022-04-03T08:00:22Z</time>
      </trkpt>
      <trkpt lat="45.11913" lon="0.68002">
        <ele>199.2</ele>
        <time>2022-04-03T08:00:29Z</time>
      </trkpt>
      <trkpt lat="45.1189" lon="0.68039">
        <ele>199.4</ele>
        <time>2022-04-03T08:00:37Z</time>
      </trkpt>
      <trkpt lat="45.11875" lon="0.68061">
        <ele>199.5</ele>
        <time>2022-04-03T08:00:42Z</time>
      </trkpt>
      <trkpt lat="45.11857" lon="0.68079">
        <ele>199.6</ele>
        <time>2022-04-03T08:00:47Z</time>
      </trkpt>
      <trkpt lat="45.11839" lon="0.68091">
        <ele>199.4</ele>
        <time>2022-04-03T08:00:51Z</time>
      </trkpt>
      <trkpt lat="45.11835" lon="0.68093">
        <ele>199.3</ele>
        <time>2022-04-03T08:00:52Z</time>
      </trkpt>
      <trkpt lat="45.1182" lon="0.68102">
        <ele>199.2</ele>
        <time>2022-04-03T08:00:55Z</time>
      </trkpt>
      <trkpt lat="45.11806" lon="0.68111">
        <ele>199.2</ele>
        <time>2022-04-03T08:00:58Z</time>
      </trkpt>
      <trkpt lat="45.11802" lon="0.68113">
        <ele>199.3</ele>
        <time>2022-04-03T08:00:59Z</time>
      </trkpt>
      <trkpt lat="45.11795" lon="0.68117">
        <ele>199.5</ele>
        <time>2022-04-03T08:01:01Z</time>
      </trkpt>
      <trkpt lat="45.11777" lon="0.68126">
        <ele>199.8</ele>
        <time>2022-04-03T08:01:06Z</time>
      </trkpt>
      <trkpt lat="45.11757" lon="0.68134">
        <ele>200.1</ele>
        <time>2022-04-03T08:01:11Z</time>
      </trkpt>
      <trkpt lat="45.11738" lon="0.68139">
        <ele>200.4</ele>
        <time>2022-04-03T08:01:16Z</time>
      </trkpt>
      <trkpt lat="45.11732" lon="0.68139">
        <ele>200.5</ele>
        <time>2022-04-03T08:01:18Z</time>
      </trkpt>
      <trkpt lat="45.11726" lon="0.68136">
        <ele>200.6</ele>
        <time>2022-04-03T08:01:20Z</time>
      </trkpt>
      <trkpt lat="45.11724" lon="0.68134">
        <ele>200.5</ele>
        <time>2022-04-03T08:01:22Z</time>
      </trkpt>
      <trkpt lat="45.11722" lon="0.68132">
        <ele>200.7</ele>
        <time>2022-04-03T08:01:23Z</time>
      </trkpt>
      <trkpt lat="45.11712" lon="0.68103">
        <ele>201</ele>
        <time>2022-04-03T08:01:27Z</time>
      </trkpt>
      <trkpt lat="45.11701" lon="0.68092">
        <ele>201.2</ele>
        <time>2022-04-03T08:01:32Z</time>
      </trkpt>
      <trkpt lat="45.11692" lon="0.68078">
        <ele>201</ele>
        <time>2022-04-03T08:01:36Z</time>
      </trkpt>
      <trkpt lat="45.11678" lon="0.68054">
        <ele>201</ele>
        <time>2022-04-03T08:01:41Z</time>
      </trkpt>
      <trkpt lat="45.11671" lon="0.68035">
        <ele>200.8</ele>
        <time>2022-04-03T08:01:44Z</time>
      </trkpt>
      <trkpt lat="45.11666" lon="0.68025">
        <ele>200.5</ele>
        <time>2022-04-03T08:01:46Z</time>
      </trkpt>
      <trkpt lat="45.11654" lon="0.67996">
        <ele>200.3</ele>
        <time>2022-04-03T08:01:50Z</time>
      </trkpt>
      <trkpt lat="45.11644" lon="0.67968">
        <ele>199.6</ele>
        <time>2022-04-03T08:01:53Z</time>
      </trkpt>
      <trkpt lat="45.11642" lon="0.67959">
        <ele>199.1</ele>
        <time>2022-04-03T08:01:54Z</time>
      </trkpt>
      <trkpt lat="45.11636" lon="0.67933">
        <ele>198.5</ele>
        <time>2022-04-03T08:01:57Z</time>
      </trkpt>
      <trkpt lat="45.11633" lon="0.67923">
        <ele>197.9</ele>
        <time>2022-04-03T08:01:58Z</time>
      </trkpt>
      <trkpt lat="45.11631" lon="0.67917">
        <ele>197.9</ele>
        <time>2022-04-03T08:01:59Z</time>
      </trkpt>
      <trkpt lat="45.11625" lon="0.67902">
        <ele>197.4</ele>
        <time>2022-04-03T08:02:01Z</time>
      </trkpt>
      <trkpt lat="45.11618" lon="0.67888">
        <ele>196.9</ele>
        <time>2022-04-03T08:02:03Z</time>
      </trkpt>
      <trkpt lat="45.11612" lon="0.67871">
        <ele>196.5</ele>
        <time>2022-04-03T08:02:05Z</time>
      </trkpt>
      <trkpt lat="45.11608" lon="0.67865">
        <ele>196.5</ele>
        <time>2022-04-03T08:02:06Z</time>
      </trkpt>
      <trkpt lat="45.11596" lon="0.67842">
        <ele>195.9</ele>
        <time>2022-04-03T08:02:09Z</time>
      </trkpt>
      <trkpt lat="45.11591" lon="0.67835">
        <ele>195</ele>
        <time>2022-04-03T08:02:10Z</time>
      </trkpt>
      <trkpt lat="45.1157" lon="0.67801">
        <ele>192.5</ele>
        <time>2022-04-03T08:02:15Z</time>
      </trkpt>
      <trkpt lat="45.11556" lon="0.67776">
        <ele>190.9</ele>
        <time>2022-04-03T08:02:18Z</time>
      </trkpt>
      <trkpt lat="45.1155" lon="0.67765">
        <ele>189.5</ele>
        <time>2022-04-03T08:02:20Z</time>
      </trkpt>
      <trkpt lat="45.11547" lon="0.6776">
        <ele>189.5</ele>
        <time>2022-04-03T08:02:22Z</time>
      </trkpt>
      <trkpt lat="45.11542" lon="0.67751">
        <ele>187.9</ele>
        <time>2022-04-03T08:02:23Z</time>
      </trkpt>
      <trkpt lat="45.11547" lon="0.6776">
        <ele>189.4</ele>
        <time>2022-04-03T08:02:26Z</time>
      </trkpt>
      <trkpt lat="45.11548" lon="0.67762">
        <ele>189.4</ele>
        <time>2022-04-03T08:02:27Z</time>
      </trkpt>
      <trkpt lat="45.11538" lon="0.67795">
        <ele>191.7</ele>
        <time>2022-04-03T08:02:35Z</time>
      </trkpt>
      <trkpt lat="45.11539" lon="0.67811">
        <ele>192.9</ele>
        <time>2022-04-03T08:02:40Z</time>
      </trkpt>
      <trkpt lat="45.11544" lon="0.67837">
        <ele>193.8</ele>
        <time>2022-04-03T08:02:48Z</time>
      </trkpt>
      <trkpt lat="45.11546" lon="0.67847">
        <ele>194.8</ele>
        <time>2022-04-03T08:02:52Z</time>
      </trkpt>
      <trkpt lat="45.11549" lon="0.67862">
        <ele>195.4</ele>
        <time>2022-04-03T08:02:57Z</time>
      </trkpt>
      <trkpt lat="45.11549" lon="0.67866">
        <ele>195.4</ele>
        <time>2022-04-03T08:02:58Z</time>
      </trkpt>
      <trkpt lat="45.11549" lon="0.67876">
        <ele>195.8</ele>
        <time>2022-04-03T08:03:01Z</time>
      </trkpt>
      <trkpt lat="45.11547" lon="0.67893">
        <ele>196.3</ele>
        <time>2022-04-03T08:03:06Z</time>
      </trkpt>
      <trkpt lat="45.11543" lon="0.67912">
        <ele>196.6</ele>
        <time>2022-04-03T08:03:12Z</time>
      </trkpt>
      <trkpt lat="45.11537" lon="0.67931">
        <ele>196.9</ele>
        <time>2022-04-03T08:03:18Z</time>
      </trkpt>
      <trkpt lat="45.11526" lon="0.67946">
        <ele>197</ele>
        <time>2022-04-03T08:03:22Z</time>
      </trkpt>
      <trkpt lat="45.11523" lon="0.67944">
        <ele>197</ele>
        <time>2022-04-03T08:03:24Z</time>
      </trkpt>
      <trkpt lat="45.11518" lon="0.67941">
        <ele>197</ele>
        <time>2022-04-03T08:03:26Z</time>
      </trkpt>
      <trkpt lat="45.11504" lon="0.67933">
        <ele>197.3</ele>
        <time>2022-04-03T08:03:31Z</time>
      </trkpt>
      <trkpt lat="45.11489" lon="0.67927">
        <ele>197.7</ele>
        <time>2022-04-03T08:03:36Z</time>
      </trkpt>
      <trkpt lat="45.11472" lon="0.6792">
        <ele>198.4</ele>
        <time>2022-04-03T08:03:41Z</time>
      </trkpt>
      <trkpt lat="45.11459" lon="0.67916">
        <ele>198.9</ele>
        <time>2022-04-03T08:03:45Z</time>
      </trkpt>
      <trkpt lat="45.11447" lon="0.67914">
        <ele>199.4</ele>
        <time>2022-04-03T08:03:49Z</time>
      </trkpt>
      <trkpt lat="45.11427" lon="0.6791">
        <ele>199.9</ele>
        <time>2022-04-03T08:03:55Z</time>
      </trkpt>
      <trkpt lat="45.11413" lon="0.67908">
        <ele>200.2</ele>
        <time>2022-04-03T08:03:59Z</time>
      </trkpt>
      <trkpt lat="45.11398" lon="0.67904">
        <ele>200.5</ele>
        <time>2022-04-03T08:04:03Z</time>
      </trkpt>
      <trkpt lat="45.11384" lon="0.67899">
        <ele>200.7</ele>
        <time>2022-04-03T08:04:07Z</time>
      </trkpt>
      <trkpt lat="45.11364" lon="0.67885">
        <ele>201.3</ele>
        <time>2022-04-03T08:04:13Z</time>
      </trkpt>
      <trkpt lat="45.11347" lon="0.67867">
        <ele>201.9</ele>
        <time>2022-04-03T08:04:19Z</time>
      </trkpt>
      <trkpt lat="45.11331" lon="0.6785">
        <ele>202.7</ele>
        <time>2022-04-03T08:04:25Z</time>
      </trkpt>
      <trkpt lat="45.11325" lon="0.67846">
        <ele>203</ele>
        <time>2022-04-03T08:04:27Z</time>
      </trkpt>
      <trkpt lat="45.11319" lon="0.67843">
        <ele>203.3</ele>
        <time>2022-04-03T08:04:29Z</time>
      </trkpt>
      <trkpt lat="45.11304" lon="0.67834">
        <ele>204.2</ele>
        <time>2022-04-03T08:04:34Z</time>
      </trkpt>
      <trkpt lat="45.11295" lon="0.6783">
        <ele>204.8</ele>
        <time>2022-04-03T08:04:37Z</time>
      </trkpt>
      <trkpt lat="45.11286" lon="0.67825">
        <ele>205.3</ele>
        <time>2022-04-03T08:04:40Z</time>
      </trkpt>
      <trkpt lat="45.11271" lon="0.67816">
        <ele>206.1</ele>
        <time>2022-04-03T08:04:45Z</time>
      </trkpt>
      <trkpt lat="45.11257" lon="0.67806">
        <ele>206.7</ele>
        <time>2022-04-03T08:04:50Z</time>
      </trkpt>
      <trkpt lat="45.11241" lon="0.67801">
        <ele>207.2</ele>
        <time>2022-04-03T08:04:55Z</time>
      </trkpt>
      <trkpt lat="45.11232" lon="0.678">
        <ele>207.3</ele>
        <time>2022-04-03T08:04:58Z</time>
      </trkpt>
      <trkpt lat="45.11226" lon="0.678">
        <ele>207.4</ele>
        <time>2022-04-03T08:05:00Z</time>
      </trkpt>
      <trkpt lat="45.11208" lon="0.67801">
        <ele>207.5</ele>
        <time>2022-04-03T08:05:05Z</time>
      </trkpt>
      <trkpt lat="45.11193" lon="0.67802">
        <ele>207.4</ele>
        <time>2022-04-03T08:05:09Z</time>
      </trkpt>
      <trkpt lat="45.11174" lon="0.67803">
        <ele>207.3</ele>
        <time>2022-04-03T08:05:14Z</time>
      </trkpt>
      <trkpt lat="45.11155" lon="0.67808">
        <ele>207.2</ele>
        <time>2022-04-03T08:05:19Z</time>
      </trkpt>
      <trkpt lat="45.11137" lon="0.67822">
        <ele>207.5</ele>
        <time>2022-04-03T08:05:24Z</time>
      </trkpt>
      <trkpt lat="45.11124" lon="0.67841">
        <ele>208.2</ele>
        <time>2022-04-03T08:05:29Z</time>
      </trkpt>
      <trkpt lat="45.11118" lon="0.67843">
        <ele>208.4</ele>
        <time>2022-04-03T08:05:31Z</time>
      </trkpt>
      <trkpt lat="45.11115" lon="0.67845">
        <ele>208.5</ele>
        <time>2022-04-03T08:05:32Z</time>
      </trkpt>
      <trkpt lat="45.11102" lon="0.67847">
        <ele>209.1</ele>
        <time>2022-04-03T08:05:36Z</time>
      </trkpt>
      <trkpt lat="45.11082" lon="0.67845">
        <ele>209.8</ele>
        <time>2022-04-03T08:05:41Z</time>
      </trkpt>
      <trkpt lat="45.11064" lon="0.67847">
        <ele>210.4</ele>
        <time>2022-04-03T08:05:46Z</time>
      </trkpt>
      <trkpt lat="45.11049" lon="0.67845">
        <ele>210.8</ele>
        <time>2022-04-03T08:05:50Z</time>
      </trkpt>
      <trkpt lat="45.11036" lon="0.6784">
        <ele>211.1</ele>
        <time>2022-04-03T08:05:54Z</time>
      </trkpt>
      <trkpt lat="45.11025" lon="0.67825">
        <ele>211.5</ele>
        <time>2022-04-03T08:05:58Z</time>
      </trkpt>
      <trkpt lat="45.11018" lon="0.67802">
        <ele>212.3</ele>
        <time>2022-04-03T08:06:03Z</time>
      </trkpt>
      <trkpt lat="45.11016" lon="0.67798">
        <ele>212.4</ele>
        <time>2022-04-03T08:06:04Z</time>
      </trkpt>
      <trkpt lat="45.1101" lon="0.67788">
        <ele>212.8</ele>
        <time>2022-04-03T08:06:07Z</time>
      </trkpt>
      <trkpt lat="45.11001" lon="0.67778">
        <ele>213.1</ele>
        <time>2022-04-03T08:06:10Z</time>
      </trkpt>
      <trkpt lat="45.10997" lon="0.67776">
        <ele>213.1</ele>
        <time>2022-04-03T08:06:11Z</time>
      </trkpt>
      <trkpt lat="45.10985" lon="0.67772">
        <ele>213.2</ele>
        <time>2022-04-03T08:06:14Z</time>
      </trkpt>
      <trkpt lat="45.10967" lon="0.67767">
        <ele>213.1</ele>
        <time>2022-04-03T08:06:18Z</time>
      </trkpt>
      <trkpt lat="45.10953" lon="0.67764">
        <ele>212.9</ele>
        <time>2022-04-03T08:06:21Z</time>
      </trkpt>
      <trkpt lat="45.10945" lon="0.67765">
        <ele>212.8</ele>
        <time>2022-04-03T08:06:23Z</time>
      </trkpt>
      <trkpt lat="45.10937" lon="0.67769">
        <ele>212.6</ele>
        <time>2022-04-03T08:06:25Z</time>
      </trkpt>
      <trkpt lat="45.10932" lon="0.67772">
        <ele>212.5</ele>
        <time>2022-04-03T08:06:26Z</time>
      </trkpt>
      <trkpt lat="45.10907" lon="0.67794">
        <ele>212.3</ele>
        <time>2022-04-03T08:06:32Z</time>
      </trkpt>
      <trkpt lat="45.10888" lon="0.6781">
        <ele>212.5</ele>
        <time>2022-04-03T08:06:38Z</time>
      </trkpt>
      <trkpt lat="45.10885" lon="0.67812">
        <ele>212.5</ele>
        <time>2022-04-03T08:06:39Z</time>
      </trkpt>
      <trkpt lat="45.10895" lon="0.67828">
        <ele>211.6</ele>
        <time>2022-04-03T08:06:41Z</time>
      </trkpt>
      <trkpt lat="45.10901" lon="0.6784">
        <ele>211.6</ele>
        <time>2022-04-03T08:06:44Z</time>
      </trkpt>
      <trkpt lat="45.10902" lon="0.67851">
        <ele>211.1</ele>
        <time>2022-04-03T08:06:46Z</time>
      </trkpt>
      <trkpt lat="45.10904" lon="0.67861">
        <ele>210.4</ele>
        <time>2022-04-03T08:06:48Z</time>
      </trkpt>
      <trkpt lat="45.10907" lon="0.67895">
        <ele>209.8</ele>
        <time>2022-04-03T08:06:53Z</time>
      </trkpt>
      <trkpt lat="45.10909" lon="0.67938">
        <ele>209.2</ele>
        <time>2022-04-03T08:06:59Z</time>
      </trkpt>
      <trkpt lat="45.10908" lon="0.67944">
        <ele>209</ele>
        <time>2022-04-03T08:07:00Z</time>
      </trkpt>
      <trkpt lat="45.10909" lon="0.67959">
        <ele>209</ele>
        <time>2022-04-03T08:07:02Z</time>
      </trkpt>
      <trkpt lat="45.1091" lon="0.67971">
        <ele>208.7</ele>
        <time>2022-04-03T08:07:04Z</time>
      </trkpt>
      <trkpt lat="45.1091" lon="0.67983">
        <ele>208.6</ele>
        <time>2022-04-03T08:07:06Z</time>
      </trkpt>
      <trkpt lat="45.10915" lon="0.68006">
        <ele>207.7</ele>
        <time>2022-04-03T08:07:10Z</time>
      </trkpt>
      <trkpt lat="45.1092" lon="0.68023">
        <ele>207.6</ele>
        <time>2022-04-03T08:07:13Z</time>
      </trkpt>
      <trkpt lat="45.10924" lon="0.68036">
        <ele>207.4</ele>
        <time>2022-04-03T08:07:15Z</time>
      </trkpt>
      <trkpt lat="45.10931" lon="0.68057">
        <ele>206.7</ele>
        <time>2022-04-03T08:07:18Z</time>
      </trkpt>
      <trkpt lat="45.10932" lon="0.68071">
        <ele>206.6</ele>
        <time>2022-04-03T08:07:20Z</time>
      </trkpt>
      <trkpt lat="45.10933" lon="0.68087">
        <ele>206.2</ele>
        <time>2022-04-03T08:07:22Z</time>
      </trkpt>
      <trkpt lat="45.10935" lon="0.68094">
        <ele>206.1</ele>
        <time>2022-04-03T08:07:23Z</time>
      </trkpt>
      <trkpt lat="45.10939" lon="0.68122">
        <ele>204.9</ele>
        <time>2022-04-03T08:07:27Z</time>
      </trkpt>
      <trkpt lat="45.10942" lon="0.68132">
        <ele>204.4</ele>
        <time>2022-04-03T08:07:29Z</time>
      </trkpt>
      <trkpt lat="45.10942" lon="0.68138">
        <ele>203.6</ele>
        <time>2022-04-03T08:07:30Z</time>
      </trkpt>
      <trkpt lat="45.10945" lon="0.6815">
        <ele>202.8</ele>
        <time>2022-04-03T08:07:32Z</time>
      </trkpt>
      <trkpt lat="45.10947" lon="0.68156">
        <ele>202.8</ele>
        <time>2022-04-03T08:07:33Z</time>
      </trkpt>
      <trkpt lat="45.1095" lon="0.68169">
        <ele>202</ele>
        <time>2022-04-03T08:07:35Z</time>
      </trkpt>
      <trkpt lat="45.10953" lon="0.68181">
        <ele>201.6</ele>
        <time>2022-04-03T08:07:37Z</time>
      </trkpt>
      <trkpt lat="45.10954" lon="0.68188">
        <ele>200.9</ele>
        <time>2022-04-03T08:07:38Z</time>
      </trkpt>
      <trkpt lat="45.10958" lon="0.68201">
        <ele>200.9</ele>
        <time>2022-04-03T08:07:40Z</time>
      </trkpt>
      <trkpt lat="45.10959" lon="0.68208">
        <ele>200.3</ele>
        <time>2022-04-03T08:07:41Z</time>
      </trkpt>
      <trkpt lat="45.10962" lon="0.68214">
        <ele>200.3</ele>
        <time>2022-04-03T08:07:42Z</time>
      </trkpt>
      <trkpt lat="45.10972" lon="0.68236">
        <ele>197.6</ele>
        <time>2022-04-03T08:07:45Z</time>
      </trkpt>
      <trkpt lat="45.10973" lon="0.68245">
        <ele>197.6</ele>
        <time>2022-04-03T08:07:46Z</time>
      </trkpt>
      <trkpt lat="45.10977" lon="0.68269">
        <ele>194.7</ele>
        <time>2022-04-03T08:07:49Z</time>
      </trkpt>
      <trkpt lat="45.10983" lon="0.68285">
        <ele>192.7</ele>
        <time>2022-04-03T08:07:51Z</time>
      </trkpt>
      <trkpt lat="45.10987" lon="0.68301">
        <ele>191.5</ele>
        <time>2022-04-03T08:07:53Z</time>
      </trkpt>
      <trkpt lat="45.10993" lon="0.68329">
        <ele>191.3</ele>
        <time>2022-04-03T08:07:56Z</time>
      </trkpt>
      <trkpt lat="45.10995" lon="0.68347">
        <ele>191.4</ele>
        <time>2022-04-03T08:07:58Z</time>
      </trkpt>
      <trkpt lat="45.10994" lon="0.68364">
        <ele>191.8</ele>
        <time>2022-04-03T08:08:00Z</time>
      </trkpt>
      <trkpt lat="45.10996" lon="0.68369">
        <ele>191.8</ele>
        <time>2022-04-03T08:08:01Z</time>
      </trkpt>
      <trkpt lat="45.11" lon="0.68384">
        <ele>191.9</ele>
        <time>2022-04-03T08:08:03Z</time>
      </trkpt>
      <trkpt lat="45.11004" lon="0.68403">
        <ele>192.2</ele>
        <time>2022-04-03T08:08:05Z</time>
      </trkpt>
      <trkpt lat="45.11008" lon="0.68412">
        <ele>192.4</ele>
        <time>2022-04-03T08:08:06Z</time>
      </trkpt>
      <trkpt lat="45.1101" lon="0.68421">
        <ele>192.4</ele>
        <time>2022-04-03T08:08:07Z</time>
      </trkpt>
      <trkpt lat="45.11021" lon="0.68445">
        <ele>193.2</ele>
        <time>2022-04-03T08:08:10Z</time>
      </trkpt>
      <trkpt lat="45.11025" lon="0.6846">
        <ele>194.4</ele>
        <time>2022-04-03T08:08:13Z</time>
      </trkpt>
      <trkpt lat="45.11029" lon="0.68474">
        <ele>194.4</ele>
        <time>2022-04-03T08:08:18Z</time>
      </trkpt>
      <trkpt lat="45.11031" lon="0.6849">
        <ele>195.9</ele>
        <time>2022-04-03T08:08:24Z</time>
      </trkpt>
      <trkpt lat="45.11036" lon="0.68506">
        <ele>197.4</ele>
        <time>2022-04-03T08:08:31Z</time>
      </trkpt>
      <trkpt lat="45.1104" lon="0.68519">
        <ele>199.3</ele>
        <time>2022-04-03T08:08:38Z</time>
      </trkpt>
      <trkpt lat="45.11044" lon="0.68532">
        <ele>200.6</ele>
        <time>2022-04-03T08:08:44Z</time>
      </trkpt>
      <trkpt lat="45.11048" lon="0.68547">
        <ele>201.4</ele>
        <time>2022-04-03T08:08:52Z</time>
      </trkpt>
      <trkpt lat="45.11049" lon="0.68554">
        <ele>201.7</ele>
        <time>2022-04-03T08:08:55Z</time>
      </trkpt>
      <trkpt lat="45.11049" lon="0.68554">
        <ele>201.7</ele>
        <time>2022-04-03T08:08:56Z</time>
      </trkpt>
      <trkpt lat="45.1105" lon="0.68556">
        <ele>201.7</ele>
        <time>2022-04-03T08:08:57Z</time>
      </trkpt>
      <trkpt lat="45.11052" lon="0.68567">
        <ele>202.4</ele>
        <time>2022-04-03T08:09:02Z</time>
      </trkpt>
      <trkpt lat="45.11054" lon="0.68576">
        <ele>202.4</ele>
        <time>2022-04-03T08:09:06Z</time>
      </trkpt>
      <trkpt lat="45.11054" lon="0.68578">
        <ele>202.4</ele>
        <time>2022-04-03T08:09:07Z</time>
      </trkpt>
      <trkpt lat="45.11057" lon="0.68594">
        <ele>203</ele>
        <time>2022-04-03T08:09:13Z</time>
      </trkpt>
      <trkpt lat="45.11061" lon="0.68608">
        <ele>203.6</ele>
        <time>2022-04-03T08:09:19Z</time>
      </trkpt>
      <trkpt lat="45.11063" lon="0.68611">
        <ele>203.6</ele>
        <time>2022-04-03T08:09:20Z</time>
      </trkpt>
      <trkpt lat="45.11063" lon="0.68618">
        <ele>203.7</ele>
        <time>2022-04-03T08:09:23Z</time>
      </trkpt>
      <trkpt lat="45.11063" lon="0.68639">
        <ele>203.7</ele>
        <time>2022-04-03T08:09:31Z</time>
      </trkpt>
      <trkpt lat="45.11064" lon="0.68652">
        <ele>203.6</ele>
        <time>2022-04-03T08:09:36Z</time>
      </trkpt>
      <trkpt lat="45.11061" lon="0.6868">
        <ele>203.3</ele>
        <time>2022-04-03T08:09:42Z</time>
      </trkpt>
      <trkpt lat="45.11063" lon="0.68691">
        <ele>203.2</ele>
        <time>2022-04-03T08:09:48Z</time>
      </trkpt>
      <trkpt lat="45.11065" lon="0.6871">
        <ele>203</ele>
        <time>2022-04-03T08:09:53Z</time>
      </trkpt>
      <trkpt lat="45.11067" lon="0.6873">
        <ele>202.4</ele>
        <time>2022-04-03T08:09:58Z</time>
      </trkpt>
      <trkpt lat="45.11065" lon="0.68745">
        <ele>201.7</ele>
        <time>2022-04-03T08:10:01Z</time>
      </trkpt>
      <trkpt lat="45.11063" lon="0.68751">
        <ele>201.3</ele>
        <time>2022-04-03T08:10:02Z</time>
      </trkpt>
      <trkpt lat="45.11062" lon="0.68757">
        <ele>200.9</ele>
        <time>2022-04-03T08:10:03Z</time>
      </trkpt>
      <trkpt lat="45.11058" lon="0.68769">
        <ele>200.1</ele>
        <time>2022-04-03T08:10:05Z</time>
      </trkpt>
      <trkpt lat="45.11056" lon="0.68776">
        <ele>199.6</ele>
        <time>2022-04-03T08:10:06Z</time>
      </trkpt>
      <trkpt lat="45.11052" lon="0.6879">
        <ele>198.8</ele>
        <time>2022-04-03T08:10:08Z</time>
      </trkpt>
      <trkpt lat="45.11051" lon="0.68795">
        <ele>198.5</ele>
        <time>2022-04-03T08:10:09Z</time>
      </trkpt>
      <trkpt lat="45.11053" lon="0.68826">
        <ele>198</ele>
        <time>2022-04-03T08:10:15Z</time>
      </trkpt>
      <trkpt lat="45.11057" lon="0.68861">
        <ele>199.1</ele>
        <time>2022-04-03T08:10:23Z</time>
      </trkpt>
      <trkpt lat="45.11059" lon="0.68883">
        <ele>200</ele>
        <time>2022-04-03T08:10:29Z</time>
      </trkpt>
      <trkpt lat="45.11062" lon="0.68915">
        <ele>200.8</ele>
        <time>2022-04-03T08:10:37Z</time>
      </trkpt>
      <trkpt lat="45.11064" lon="0.6895">
        <ele>201.1</ele>
        <time>2022-04-03T08:10:45Z</time>
      </trkpt>
      <trkpt lat="45.11065" lon="0.68979">
        <ele>201.2</ele>
        <time>2022-04-03T08:10:52Z</time>
      </trkpt>
      <trkpt lat="45.11066" lon="0.68999">
        <ele>201</ele>
        <time>2022-04-03T08:10:57Z</time>
      </trkpt>
      <trkpt lat="45.11066" lon="0.69004">
        <ele>201</ele>
        <time>2022-04-03T08:10:58Z</time>
      </trkpt>
      <trkpt lat="45.11072" lon="0.69012">
        <ele>200.7</ele>
        <time>2022-04-03T08:11:00Z</time>
      </trkpt>
      <trkpt lat="45.11082" lon="0.6903">
        <ele>200.3</ele>
        <time>2022-04-03T08:11:04Z</time>
      </trkpt>
      <trkpt lat="45.11089" lon="0.69041">
        <ele>199.8</ele>
        <time>2022-04-03T08:11:07Z</time>
      </trkpt>
      <trkpt lat="45.11091" lon="0.69045">
        <ele>199.6</ele>
        <time>2022-04-03T08:11:08Z</time>
      </trkpt>
      <trkpt lat="45.11098" lon="0.69056">
        <ele>198.9</ele>
        <time>2022-04-03T08:11:10Z</time>
      </trkpt>
      <trkpt lat="45.11106" lon="0.69071">
        <ele>197.9</ele>
        <time>2022-04-03T08:11:12Z</time>
      </trkpt>
      <trkpt lat="45.11115" lon="0.69086">
        <ele>197.3</ele>
        <time>2022-04-03T08:11:14Z</time>
      </trkpt>
      <trkpt lat="45.11122" lon="0.691">
        <ele>197</ele>
        <time>2022-04-03T08:11:16Z</time>
      </trkpt>
      <trkpt lat="45.11129" lon="0.69112">
        <ele>197.1</ele>
        <time>2022-04-03T08:11:18Z</time>
      </trkpt>
      <trkpt lat="45.11143" lon="0.69124">
        <ele>197.4</ele>
        <time>2022-04-03T08:11:21Z</time>
      </trkpt>
      <trkpt lat="45.1115" lon="0.69127">
        <ele>197.6</ele>
        <time>2022-04-03T08:11:22Z</time>
      </trkpt>
      <trkpt lat="45.1116" lon="0.69128">
        <ele>197.9</ele>
        <time>2022-04-03T08:11:24Z</time>
      </trkpt>
      <trkpt lat="45.11169" lon="0.69129">
        <ele>198.2</ele>
        <time>2022-04-03T08:11:26Z</time>
      </trkpt>
      <trkpt lat="45.11178" lon="0.69131">
        <ele>198.5</ele>
        <time>2022-04-03T08:11:28Z</time>
      </trkpt>
      <trkpt lat="45.11182" lon="0.69132">
        <ele>198.7</ele>
        <time>2022-04-03T08:11:29Z</time>
      </trkpt>
      <trkpt lat="45.11195" lon="0.69134">
        <ele>199.2</ele>
        <time>2022-04-03T08:11:32Z</time>
      </trkpt>
      <trkpt lat="45.1122" lon="0.69145">
        <ele>200.5</ele>
        <time>2022-04-03T08:11:38Z</time>
      </trkpt>
      <trkpt lat="45.11235" lon="0.69153">
        <ele>201.3</ele>
        <time>2022-04-03T08:11:43Z</time>
      </trkpt>
      <trkpt lat="45.1125" lon="0.69162">
        <ele>202</ele>
        <time>2022-04-03T08:11:47Z</time>
      </trkpt>
      <trkpt lat="45.11265" lon="0.6918">
        <ele>203.2</ele>
        <time>2022-04-03T08:11:53Z</time>
      </trkpt>
      <trkpt lat="45.11269" lon="0.69204">
        <ele>204.9</ele>
        <time>2022-04-03T08:11:57Z</time>
      </trkpt>
      <trkpt lat="45.1127" lon="0.6923">
        <ele>206.3</ele>
        <time>2022-04-03T08:12:03Z</time>
      </trkpt>
      <trkpt lat="45.1127" lon="0.69235">
        <ele>206.6</ele>
        <time>2022-04-03T08:12:06Z</time>
      </trkpt>
      <trkpt lat="45.11269" lon="0.69239">
        <ele>206.8</ele>
        <time>2022-04-03T08:12:08Z</time>
      </trkpt>
      <trkpt lat="45.11269" lon="0.69251">
        <ele>207.3</ele>
        <time>2022-04-03T08:12:13Z</time>
      </trkpt>
      <trkpt lat="45.11268" lon="0.69277">
        <ele>208.4</ele>
        <time>2022-04-03T08:12:23Z</time>
      </trkpt>
      <trkpt lat="45.11268" lon="0.69276">
        <ele>208.4</ele>
        <time>2022-04-03T08:12:26Z</time>
      </trkpt>
      <trkpt lat="45.11268" lon="0.69274">
        <ele>208.5</ele>
        <time>2022-04-03T08:12:27Z</time>
      </trkpt>
      <trkpt lat="45.11269" lon="0.69262">
        <ele>207.9</ele>
        <time>2022-04-03T08:12:30Z</time>
      </trkpt>
      <trkpt lat="45.1127" lon="0.69237">
        <ele>206.6</ele>
        <time>2022-04-03T08:12:35Z</time>
      </trkpt>
      <trkpt lat="45.1127" lon="0.69231">
        <ele>206.4</ele>
        <time>2022-04-03T08:12:36Z</time>
      </trkpt>
      <trkpt lat="45.1127" lon="0.69219">
        <ele>205.7</ele>
        <time>2022-04-03T08:12:38Z</time>
      </trkpt>
      <trkpt lat="45.1127" lon="0.69212">
        <ele>205.3</ele>
        <time>2022-04-03T08:12:39Z</time>
      </trkpt>
      <trkpt lat="45.11265" lon="0.6918">
        <ele>203.2</ele>
        <time>2022-04-03T08:12:44Z</time>
      </trkpt>
      <trkpt lat="45.11251" lon="0.69164">
        <ele>202.1</ele>
        <time>2022-04-03T08:12:49Z</time>
      </trkpt>
      <trkpt lat="45.11248" lon="0.6916">
        <ele>201.9</ele>
        <time>2022-04-03T08:12:50Z</time>
      </trkpt>
      <trkpt lat="45.11241" lon="0.69156">
        <ele>201.6</ele>
        <time>2022-04-03T08:12:52Z</time>
      </trkpt>
      <trkpt lat="45.11227" lon="0.69149">
        <ele>200.9</ele>
        <time>2022-04-03T08:12:56Z</time>
      </trkpt>
      <trkpt lat="45.11205" lon="0.69138">
        <ele>199.7</ele>
        <time>2022-04-03T08:13:01Z</time>
      </trkpt>
      <trkpt lat="45.11187" lon="0.69132">
        <ele>198.8</ele>
        <time>2022-04-03T08:13:04Z</time>
      </trkpt>
      <trkpt lat="45.11182" lon="0.69131">
        <ele>198.6</ele>
        <time>2022-04-03T08:13:05Z</time>
      </trkpt>
      <trkpt lat="45.11153" lon="0.69127">
        <ele>197.7</ele>
        <time>2022-04-03T08:13:11Z</time>
      </trkpt>
      <trkpt lat="45.11142" lon="0.69123">
        <ele>197.4</ele>
        <time>2022-04-03T08:13:13Z</time>
      </trkpt>
      <trkpt lat="45.11138" lon="0.6912">
        <ele>197.3</ele>
        <time>2022-04-03T08:13:14Z</time>
      </trkpt>
      <trkpt lat="45.11134" lon="0.69116">
        <ele>197.2</ele>
        <time>2022-04-03T08:13:15Z</time>
      </trkpt>
      <trkpt lat="45.11126" lon="0.69105">
        <ele>197</ele>
        <time>2022-04-03T08:13:17Z</time>
      </trkpt>
      <trkpt lat="45.11123" lon="0.691">
        <ele>197</ele>
        <time>2022-04-03T08:13:18Z</time>
      </trkpt>
      <trkpt lat="45.11116" lon="0.69089">
        <ele>197.2</ele>
        <time>2022-04-03T08:13:20Z</time>
      </trkpt>
      <trkpt lat="45.1111" lon="0.69078">
        <ele>197.6</ele>
        <time>2022-04-03T08:13:22Z</time>
      </trkpt>
      <trkpt lat="45.11108" lon="0.69073">
        <ele>197.8</ele>
        <time>2022-04-03T08:13:23Z</time>
      </trkpt>
      <trkpt lat="45.11105" lon="0.69069">
        <ele>198.1</ele>
        <time>2022-04-03T08:13:24Z</time>
      </trkpt>
      <trkpt lat="45.11097" lon="0.69056">
        <ele>199</ele>
        <time>2022-04-03T08:13:27Z</time>
      </trkpt>
      <trkpt lat="45.11086" lon="0.69036">
        <ele>200.1</ele>
        <time>2022-04-03T08:13:32Z</time>
      </trkpt>
      <trkpt lat="45.11072" lon="0.69011">
        <ele>200.8</ele>
        <time>2022-04-03T08:13:39Z</time>
      </trkpt>
      <trkpt lat="45.11067" lon="0.69005">
        <ele>201</ele>
        <time>2022-04-03T08:13:44Z</time>
      </trkpt>
      <trkpt lat="45.11067" lon="0.69005">
        <ele>201</ele>
        <time>2022-04-03T08:13:46Z</time>
      </trkpt>
      <trkpt lat="45.11066" lon="0.68999">
        <ele>201</ele>
        <time>2022-04-03T08:14:22Z</time>
      </trkpt>
      <trkpt lat="45.11066" lon="0.68996">
        <ele>201</ele>
        <time>2022-04-03T08:14:23Z</time>
      </trkpt>
      <trkpt lat="45.11065" lon="0.68972">
        <ele>201.2</ele>
        <time>2022-04-03T08:14:28Z</time>
      </trkpt>
      <trkpt lat="45.11064" lon="0.68946">
        <ele>201.1</ele>
        <time>2022-04-03T08:14:33Z</time>
      </trkpt>
      <trkpt lat="45.11062" lon="0.68914">
        <ele>200.7</ele>
        <time>2022-04-03T08:14:39Z</time>
      </trkpt>
      <trkpt lat="45.11061" lon="0.68902">
        <ele>200.5</ele>
        <time>2022-04-03T08:14:41Z</time>
      </trkpt>
      <trkpt lat="45.11058" lon="0.68879">
        <ele>199.8</ele>
        <time>2022-04-03T08:14:45Z</time>
      </trkpt>
      <trkpt lat="45.11056" lon="0.68851">
        <ele>198.7</ele>
        <time>2022-04-03T08:14:49Z</time>
      </trkpt>
      <trkpt lat="45.11052" lon="0.68807">
        <ele>198.1</ele>
        <time>2022-04-03T08:14:54Z</time>
      </trkpt>
      <trkpt lat="45.11052" lon="0.68792">
        <ele>198.7</ele>
        <time>2022-04-03T08:14:56Z</time>
      </trkpt>
      <trkpt lat="45.11055" lon="0.68781">
        <ele>199.3</ele>
        <time>2022-04-03T08:14:58Z</time>
      </trkpt>
      <trkpt lat="45.11065" lon="0.68747">
        <ele>201.6</ele>
        <time>2022-04-03T08:15:04Z</time>
      </trkpt>
      <trkpt lat="45.11066" lon="0.68741">
        <ele>201.9</ele>
        <time>2022-04-03T08:15:05Z</time>
      </trkpt>
      <trkpt lat="45.11067" lon="0.68724">
        <ele>202.7</ele>
        <time>2022-04-03T08:15:08Z</time>
      </trkpt>
      <trkpt lat="45.11065" lon="0.68707">
        <ele>203.1</ele>
        <time>2022-04-03T08:15:11Z</time>
      </trkpt>
      <trkpt lat="45.11062" lon="0.68681">
        <ele>203.3</ele>
        <time>2022-04-03T08:15:16Z</time>
      </trkpt>
      <trkpt lat="45.11061" lon="0.68671">
        <ele>203.3</ele>
        <time>2022-04-03T08:15:18Z</time>
      </trkpt>
      <trkpt lat="45.11062" lon="0.68662">
        <ele>203.6</ele>
        <time>2022-04-03T08:15:20Z</time>
      </trkpt>
      <trkpt lat="45.11062" lon="0.68653">
        <ele>203.7</ele>
        <time>2022-04-03T08:15:22Z</time>
      </trkpt>
      <trkpt lat="45.11062" lon="0.68644">
        <ele>203.8</ele>
        <time>2022-04-03T08:15:24Z</time>
      </trkpt>
      <trkpt lat="45.11062" lon="0.68609">
        <ele>203.7</ele>
        <time>2022-04-03T08:15:26Z</time>
      </trkpt>
      <trkpt lat="45.11059" lon="0.68592">
        <ele>203.2</ele>
        <time>2022-04-03T08:15:29Z</time>
      </trkpt>
      <trkpt lat="45.11055" lon="0.68568">
        <ele>202.5</ele>
        <time>2022-04-03T08:15:33Z</time>
      </trkpt>
      <trkpt lat="45.11052" lon="0.68559">
        <ele>201.9</ele>
        <time>2022-04-03T08:15:34Z</time>
      </trkpt>
      <trkpt lat="45.1104" lon="0.68521">
        <ele>199.5</ele>
        <time>2022-04-03T08:15:39Z</time>
      </trkpt>
      <trkpt lat="45.11026" lon="0.68476">
        <ele>194.7</ele>
        <time>2022-04-03T08:15:44Z</time>
      </trkpt>
      <trkpt lat="45.11022" lon="0.68454">
        <ele>193.4</ele>
        <time>2022-04-03T08:15:46Z</time>
      </trkpt>
      <trkpt lat="45.11017" lon="0.68436">
        <ele>192.8</ele>
        <time>2022-04-03T08:15:48Z</time>
      </trkpt>
      <trkpt lat="45.11011" lon="0.68421">
        <ele>192.6</ele>
        <time>2022-04-03T08:15:50Z</time>
      </trkpt>
      <trkpt lat="45.11011" lon="0.68416">
        <ele>192.7</ele>
        <time>2022-04-03T08:15:51Z</time>
      </trkpt>
      <trkpt lat="45.11006" lon="0.68396">
        <ele>192.5</ele>
        <time>2022-04-03T08:15:55Z</time>
      </trkpt>
      <trkpt lat="45.11006" lon="0.68392">
        <ele>192.5</ele>
        <time>2022-04-03T08:15:57Z</time>
      </trkpt>
      <trkpt lat="45.11005" lon="0.68388">
        <ele>192.3</ele>
        <time>2022-04-03T08:15:58Z</time>
      </trkpt>
      <trkpt lat="45.11002" lon="0.68373">
        <ele>192.3</ele>
        <time>2022-04-03T08:16:03Z</time>
      </trkpt>
      <trkpt lat="45.10997" lon="0.68364">
        <ele>192.2</ele>
        <time>2022-04-03T08:16:08Z</time>
      </trkpt>
      <trkpt lat="45.10997" lon="0.68345">
        <ele>191.9</ele>
        <time>2022-04-03T08:16:16Z</time>
      </trkpt>
      <trkpt lat="45.10994" lon="0.68331">
        <ele>191.8</ele>
        <time>2022-04-03T08:16:23Z</time>
      </trkpt>
      <trkpt lat="45.10993" lon="0.68323">
        <ele>191.8</ele>
        <time>2022-04-03T08:16:27Z</time>
      </trkpt>
      <trkpt lat="45.10991" lon="0.68312">
        <ele>191.8</ele>
        <time>2022-04-03T08:16:32Z</time>
      </trkpt>
      <trkpt lat="45.10988" lon="0.683">
        <ele>192.2</ele>
        <time>2022-04-03T08:16:38Z</time>
      </trkpt>
      <trkpt lat="45.10983" lon="0.68288">
        <ele>192</ele>
        <time>2022-04-03T08:16:46Z</time>
      </trkpt>
      <trkpt lat="45.10972" lon="0.68288">
        <ele>192.6</ele>
        <time>2022-04-03T08:16:51Z</time>
      </trkpt>
      <trkpt lat="45.10956" lon="0.68292">
        <ele>193.7</ele>
        <time>2022-04-03T08:16:57Z</time>
      </trkpt>
      <trkpt lat="45.1094" lon="0.68295">
        <ele>194.9</ele>
        <time>2022-04-03T08:17:02Z</time>
      </trkpt>
      <trkpt lat="45.10923" lon="0.68293">
        <ele>197.8</ele>
        <time>2022-04-03T08:17:07Z</time>
      </trkpt>
      <trkpt lat="45.10897" lon="0.68294">
        <ele>200.5</ele>
        <time>2022-04-03T08:17:14Z</time>
      </trkpt>
      <trkpt lat="45.10873" lon="0.68293">
        <ele>202.4</ele>
        <time>2022-04-03T08:17:20Z</time>
      </trkpt>
      <trkpt lat="45.1085" lon="0.68293">
        <ele>203.4</ele>
        <time>2022-04-03T08:17:26Z</time>
      </trkpt>
      <trkpt lat="45.10828" lon="0.68289">
        <ele>204</ele>
        <time>2022-04-03T08:17:32Z</time>
      </trkpt>
      <trkpt lat="45.10793" lon="0.68281">
        <ele>205</ele>
        <time>2022-04-03T08:17:42Z</time>
      </trkpt>
      <trkpt lat="45.10768" lon="0.68277">
        <ele>206.2</ele>
        <time>2022-04-03T08:17:51Z</time>
      </trkpt>
      <trkpt lat="45.10745" lon="0.68274">
        <ele>207.1</ele>
        <time>2022-04-03T08:17:59Z</time>
      </trkpt>
      <trkpt lat="45.10726" lon="0.68272">
        <ele>207.5</ele>
        <time>2022-04-03T08:18:06Z</time>
      </trkpt>
      <trkpt lat="45.10703" lon="0.6827">
        <ele>208.1</ele>
        <time>2022-04-03T08:18:14Z</time>
      </trkpt>
      <trkpt lat="45.10695" lon="0.68261">
        <ele>208.8</ele>
        <time>2022-04-03T08:18:19Z</time>
      </trkpt>
      <trkpt lat="45.10694" lon="0.6826">
        <ele>208.8</ele>
        <time>2022-04-03T08:18:20Z</time>
      </trkpt>
      <trkpt lat="45.10689" lon="0.68251">
        <ele>209.5</ele>
        <time>2022-04-03T08:18:24Z</time>
      </trkpt>
      <trkpt lat="45.10682" lon="0.68239">
        <ele>209.7</ele>
        <time>2022-04-03T08:18:30Z</time>
      </trkpt>
      <trkpt lat="45.10681" lon="0.68236">
        <ele>209.7</ele>
        <time>2022-04-03T08:18:32Z</time>
      </trkpt>
      <trkpt lat="45.1068" lon="0.6823">
        <ele>210.5</ele>
        <time>2022-04-03T08:18:35Z</time>
      </trkpt>
      <trkpt lat="45.10678" lon="0.68229">
        <ele>210.5</ele>
        <time>2022-04-03T08:18:36Z</time>
      </trkpt>
      <trkpt lat="45.10673" lon="0.68222">
        <ele>210.5</ele>
        <time>2022-04-03T08:18:40Z</time>
      </trkpt>
      <trkpt lat="45.10671" lon="0.68216">
        <ele>211.2</ele>
        <time>2022-04-03T08:18:43Z</time>
      </trkpt>
      <trkpt lat="45.10667" lon="0.68213">
        <ele>211.2</ele>
        <time>2022-04-03T08:18:46Z</time>
      </trkpt>
      <trkpt lat="45.10662" lon="0.68203">
        <ele>211.2</ele>
        <time>2022-04-03T08:18:52Z</time>
      </trkpt>
      <trkpt lat="45.10658" lon="0.68208">
        <ele>211.1</ele>
        <time>2022-04-03T08:18:57Z</time>
      </trkpt>
      <trkpt lat="45.10646" lon="0.68207">
        <ele>211.5</ele>
        <time>2022-04-03T08:19:03Z</time>
      </trkpt>
      <trkpt lat="45.10645" lon="0.68205">
        <ele>211.5</ele>
        <time>2022-04-03T08:19:04Z</time>
      </trkpt>
      <trkpt lat="45.10644" lon="0.68198">
        <ele>211.9</ele>
        <time>2022-04-03T08:19:06Z</time>
      </trkpt>
      <trkpt lat="45.10608" lon="0.68184">
        <ele>211.6</ele>
        <time>2022-04-03T08:19:10Z</time>
      </trkpt>
      <trkpt lat="45.10601" lon="0.68177">
        <ele>211.7</ele>
        <time>2022-04-03T08:19:11Z</time>
      </trkpt>
      <trkpt lat="45.10582" lon="0.68149">
        <ele>207.7</ele>
        <time>2022-04-03T08:19:15Z</time>
      </trkpt>
      <trkpt lat="45.1058" lon="0.68139">
        <ele>207.8</ele>
        <time>2022-04-03T08:19:16Z</time>
      </trkpt>
      <trkpt lat="45.10578" lon="0.68117">
        <ele>207</ele>
        <time>2022-04-03T08:19:18Z</time>
      </trkpt>
      <trkpt lat="45.10578" lon="0.68099">
        <ele>206.3</ele>
        <time>2022-04-03T08:19:20Z</time>
      </trkpt>
      <trkpt lat="45.10574" lon="0.6808">
        <ele>202.2</ele>
        <time>2022-04-03T08:19:22Z</time>
      </trkpt>
      <trkpt lat="45.10568" lon="0.68061">
        <ele>201.6</ele>
        <time>2022-04-03T08:19:24Z</time>
      </trkpt>
      <trkpt lat="45.1055" lon="0.68015">
        <ele>194.9</ele>
        <time>2022-04-03T08:19:29Z</time>
      </trkpt>
      <trkpt lat="45.10538" lon="0.67989">
        <ele>190.6</ele>
        <time>2022-04-03T08:19:32Z</time>
      </trkpt>
      <trkpt lat="45.10531" lon="0.67971">
        <ele>189.5</ele>
        <time>2022-04-03T08:19:34Z</time>
      </trkpt>
      <trkpt lat="45.10529" lon="0.67962">
        <ele>189.6</ele>
        <time>2022-04-03T08:19:35Z</time>
      </trkpt>
      <trkpt lat="45.10527" lon="0.67949">
        <ele>185.8</ele>
        <time>2022-04-03T08:19:37Z</time>
      </trkpt>
      <trkpt lat="45.10526" lon="0.67945">
        <ele>185.8</ele>
        <time>2022-04-03T08:19:38Z</time>
      </trkpt>
      <trkpt lat="45.10525" lon="0.67943">
        <ele>185.2</ele>
        <time>2022-04-03T08:19:39Z</time>
      </trkpt>
      <trkpt lat="45.10521" lon="0.67947">
        <ele>185.9</ele>
        <time>2022-04-03T08:19:41Z</time>
      </trkpt>
      <trkpt lat="45.10521" lon="0.67949">
        <ele>185.9</ele>
        <time>2022-04-03T08:19:42Z</time>
      </trkpt>
      <trkpt lat="45.10523" lon="0.67955">
        <ele>185.9</ele>
        <time>2022-04-03T08:19:44Z</time>
      </trkpt>
      <trkpt lat="45.10527" lon="0.67976">
        <ele>186.8</ele>
        <time>2022-04-03T08:19:49Z</time>
      </trkpt>
      <trkpt lat="45.10522" lon="0.67987">
        <ele>187.8</ele>
        <time>2022-04-03T08:19:51Z</time>
      </trkpt>
      <trkpt lat="45.10517" lon="0.67992">
        <ele>187.9</ele>
        <time>2022-04-03T08:19:52Z</time>
      </trkpt>
      <trkpt lat="45.10498" lon="0.68017">
        <ele>185.1</ele>
        <time>2022-04-03T08:19:58Z</time>
      </trkpt>
      <trkpt lat="45.10482" lon="0.68039">
        <ele>184.5</ele>
        <time>2022-04-03T08:20:05Z</time>
      </trkpt>
      <trkpt lat="45.1047" lon="0.68049">
        <ele>183.6</ele>
        <time>2022-04-03T08:20:10Z</time>
      </trkpt>
      <trkpt lat="45.10457" lon="0.68061">
        <ele>182.5</ele>
        <time>2022-04-03T08:20:17Z</time>
      </trkpt>
      <trkpt lat="45.10444" lon="0.68074">
        <ele>182.6</ele>
        <time>2022-04-03T08:20:25Z</time>
      </trkpt>
      <trkpt lat="45.10435" lon="0.68083">
        <ele>183.6</ele>
        <time>2022-04-03T08:20:31Z</time>
      </trkpt>
      <trkpt lat="45.10434" lon="0.68084">
        <ele>183.7</ele>
        <time>2022-04-03T08:20:32Z</time>
      </trkpt>
      <trkpt lat="45.10428" lon="0.6809">
        <ele>185</ele>
        <time>2022-04-03T08:20:37Z</time>
      </trkpt>
      <trkpt lat="45.10419" lon="0.68097">
        <ele>185</ele>
        <time>2022-04-03T08:20:43Z</time>
      </trkpt>
      <trkpt lat="45.10417" lon="0.68097">
        <ele>186.1</ele>
        <time>2022-04-03T08:20:44Z</time>
      </trkpt>
      <trkpt lat="45.10411" lon="0.68099">
        <ele>186.2</ele>
        <time>2022-04-03T08:20:49Z</time>
      </trkpt>
      <trkpt lat="45.1041" lon="0.68099">
        <ele>186.2</ele>
        <time>2022-04-03T08:20:51Z</time>
      </trkpt>
      <trkpt lat="45.10397" lon="0.68105">
        <ele>187</ele>
        <time>2022-04-03T08:20:58Z</time>
      </trkpt>
      <trkpt lat="45.10394" lon="0.68107">
        <ele>187.6</ele>
        <time>2022-04-03T08:21:00Z</time>
      </trkpt>
      <trkpt lat="45.1038" lon="0.68115">
        <ele>188.1</ele>
        <time>2022-04-03T08:21:09Z</time>
      </trkpt>
      <trkpt lat="45.10368" lon="0.6812">
        <ele>188.5</ele>
        <time>2022-04-03T08:21:16Z</time>
      </trkpt>
      <trkpt lat="45.10357" lon="0.68126">
        <ele>189.5</ele>
        <time>2022-04-03T08:21:24Z</time>
      </trkpt>
      <trkpt lat="45.10347" lon="0.68129">
        <ele>189.5</ele>
        <time>2022-04-03T08:21:31Z</time>
      </trkpt>
      <trkpt lat="45.10341" lon="0.68135">
        <ele>190</ele>
        <time>2022-04-03T08:21:36Z</time>
      </trkpt>
      <trkpt lat="45.10332" lon="0.68141">
        <ele>191.5</ele>
        <time>2022-04-03T08:21:42Z</time>
      </trkpt>
      <trkpt lat="45.10325" lon="0.68146">
        <ele>191.6</ele>
        <time>2022-04-03T08:21:46Z</time>
      </trkpt>
      <trkpt lat="45.10324" lon="0.68147">
        <ele>191.6</ele>
        <time>2022-04-03T08:21:47Z</time>
      </trkpt>
      <trkpt lat="45.10314" lon="0.68157">
        <ele>192.3</ele>
        <time>2022-04-03T08:21:53Z</time>
      </trkpt>
      <trkpt lat="45.10304" lon="0.68166">
        <ele>194.1</ele>
        <time>2022-04-03T08:21:59Z</time>
      </trkpt>
      <trkpt lat="45.10294" lon="0.68174">
        <ele>194.8</ele>
        <time>2022-04-03T08:22:05Z</time>
      </trkpt>
      <trkpt lat="45.10286" lon="0.68182">
        <ele>194.9</ele>
        <time>2022-04-03T08:22:10Z</time>
      </trkpt>
      <trkpt lat="45.10279" lon="0.68187">
        <ele>195.5</ele>
        <time>2022-04-03T08:22:14Z</time>
      </trkpt>
      <trkpt lat="45.10264" lon="0.68194">
        <ele>197.1</ele>
        <time>2022-04-03T08:22:21Z</time>
      </trkpt>
      <trkpt lat="45.1025" lon="0.68199">
        <ele>198.4</ele>
        <time>2022-04-03T08:22:27Z</time>
      </trkpt>
      <trkpt lat="45.10234" lon="0.68206">
        <ele>200.4</ele>
        <time>2022-04-03T08:22:34Z</time>
      </trkpt>
      <trkpt lat="45.10231" lon="0.68209">
        <ele>200.4</ele>
        <time>2022-04-03T08:22:36Z</time>
      </trkpt>
      <trkpt lat="45.10226" lon="0.6821">
        <ele>200.4</ele>
        <time>2022-04-03T08:22:38Z</time>
      </trkpt>
      <trkpt lat="45.10214" lon="0.68214">
        <ele>202</ele>
        <time>2022-04-03T08:22:42Z</time>
      </trkpt>
      <trkpt lat="45.10204" lon="0.6822">
        <ele>202.8</ele>
        <time>2022-04-03T08:22:47Z</time>
      </trkpt>
      <trkpt lat="45.1019" lon="0.68229">
        <ele>204.3</ele>
        <time>2022-04-03T08:22:52Z</time>
      </trkpt>
      <trkpt lat="45.10179" lon="0.68245">
        <ele>205.3</ele>
        <time>2022-04-03T08:22:58Z</time>
      </trkpt>
      <trkpt lat="45.10169" lon="0.68263">
        <ele>205.7</ele>
        <time>2022-04-03T08:23:05Z</time>
      </trkpt>
      <trkpt lat="45.10159" lon="0.68273">
        <ele>206.4</ele>
        <time>2022-04-03T08:23:12Z</time>
      </trkpt>
      <trkpt lat="45.1015" lon="0.68284">
        <ele>207.5</ele>
        <time>2022-04-03T08:23:18Z</time>
      </trkpt>
      <trkpt lat="45.10138" lon="0.68287">
        <ele>208.5</ele>
        <time>2022-04-03T08:23:27Z</time>
      </trkpt>
      <trkpt lat="45.10126" lon="0.68293">
        <ele>209.3</ele>
        <time>2022-04-03T08:23:35Z</time>
      </trkpt>
      <trkpt lat="45.10116" lon="0.68295">
        <ele>209.8</ele>
        <time>2022-04-03T08:23:42Z</time>
      </trkpt>
      <trkpt lat="45.10108" lon="0.683">
        <ele>210.1</ele>
        <time>2022-04-03T08:23:47Z</time>
      </trkpt>
      <trkpt lat="45.10104" lon="0.68304">
        <ele>210.3</ele>
        <time>2022-04-03T08:23:50Z</time>
      </trkpt>
      <trkpt lat="45.1009" lon="0.6831">
        <ele>210.7</ele>
        <time>2022-04-03T08:23:58Z</time>
      </trkpt>
      <trkpt lat="45.10087" lon="0.68311">
        <ele>210.9</ele>
        <time>2022-04-03T08:24:00Z</time>
      </trkpt>
      <trkpt lat="45.10081" lon="0.68313">
        <ele>211.1</ele>
        <time>2022-04-03T08:24:03Z</time>
      </trkpt>
      <trkpt lat="45.10066" lon="0.68315">
        <ele>211.8</ele>
        <time>2022-04-03T08:24:10Z</time>
      </trkpt>
      <trkpt lat="45.10048" lon="0.68313">
        <ele>212.7</ele>
        <time>2022-04-03T08:24:18Z</time>
      </trkpt>
      <trkpt lat="45.1002" lon="0.68311">
        <ele>213.8</ele>
        <time>2022-04-03T08:24:29Z</time>
      </trkpt>
      <trkpt lat="45.1" lon="0.68313">
        <ele>214.6</ele>
        <time>2022-04-03T08:24:37Z</time>
      </trkpt>
      <trkpt lat="45.09984" lon="0.68313">
        <ele>215.1</ele>
        <time>2022-04-03T08:24:43Z</time>
      </trkpt>
      <trkpt lat="45.09975" lon="0.683">
        <ele>215.4</ele>
        <time>2022-04-03T08:24:48Z</time>
      </trkpt>
      <trkpt lat="45.09966" lon="0.68278">
        <ele>215.5</ele>
        <time>2022-04-03T08:24:55Z</time>
      </trkpt>
      <trkpt lat="45.09954" lon="0.68269">
        <ele>215.7</ele>
        <time>2022-04-03T08:25:00Z</time>
      </trkpt>
      <trkpt lat="45.0994" lon="0.68273">
        <ele>215.7</ele>
        <time>2022-04-03T08:25:04Z</time>
      </trkpt>
      <trkpt lat="45.09921" lon="0.68278">
        <ele>215.8</ele>
        <time>2022-04-03T08:25:10Z</time>
      </trkpt>
      <trkpt lat="45.09895" lon="0.6829">
        <ele>216</ele>
        <time>2022-04-03T08:25:18Z</time>
      </trkpt>
      <trkpt lat="45.09874" lon="0.68304">
        <ele>216.2</ele>
        <time>2022-04-03T08:25:25Z</time>
      </trkpt>
      <trkpt lat="45.09857" lon="0.68316">
        <ele>216.6</ele>
        <time>2022-04-03T08:25:31Z</time>
      </trkpt>
      <trkpt lat="45.09833" lon="0.68332">
        <ele>217.8</ele>
        <time>2022-04-03T08:25:39Z</time>
      </trkpt>
      <trkpt lat="45.09813" lon="0.68343">
        <ele>218.5</ele>
        <time>2022-04-03T08:25:47Z</time>
      </trkpt>
      <trkpt lat="45.09781" lon="0.68357">
        <ele>219.6</ele>
        <time>2022-04-03T08:25:54Z</time>
      </trkpt>
      <trkpt lat="45.09759" lon="0.68373">
        <ele>219.8</ele>
        <time>2022-04-03T08:26:00Z</time>
      </trkpt>
      <trkpt lat="45.09746" lon="0.68383">
        <ele>220.1</ele>
        <time>2022-04-03T08:26:04Z</time>
      </trkpt>
      <trkpt lat="45.09726" lon="0.68396">
        <ele>219.9</ele>
        <time>2022-04-03T08:26:10Z</time>
      </trkpt>
      <trkpt lat="45.097" lon="0.68409">
        <ele>220</ele>
        <time>2022-04-03T08:26:17Z</time>
      </trkpt>
      <trkpt lat="45.0968" lon="0.68414">
        <ele>220.4</ele>
        <time>2022-04-03T08:26:22Z</time>
      </trkpt>
      <trkpt lat="45.09661" lon="0.68419">
        <ele>221.3</ele>
        <time>2022-04-03T08:26:27Z</time>
      </trkpt>
      <trkpt lat="45.09639" lon="0.68422">
        <ele>221.8</ele>
        <time>2022-04-03T08:26:33Z</time>
      </trkpt>
      <trkpt lat="45.09615" lon="0.68429">
        <ele>222.5</ele>
        <time>2022-04-03T08:26:39Z</time>
      </trkpt>
      <trkpt lat="45.09598" lon="0.68436">
        <ele>223</ele>
        <time>2022-04-03T08:26:43Z</time>
      </trkpt>
      <trkpt lat="45.09583" lon="0.68442">
        <ele>224.1</ele>
        <time>2022-04-03T08:26:47Z</time>
      </trkpt>
      <trkpt lat="45.09558" lon="0.68451">
        <ele>225.1</ele>
        <time>2022-04-03T08:26:53Z</time>
      </trkpt>
      <trkpt lat="45.09536" lon="0.68462">
        <ele>225.8</ele>
        <time>2022-04-03T08:26:59Z</time>
      </trkpt>
      <trkpt lat="45.0951" lon="0.68468">
        <ele>225.9</ele>
        <time>2022-04-03T08:27:05Z</time>
      </trkpt>
      <trkpt lat="45.09493" lon="0.6847">
        <ele>225.9</ele>
        <time>2022-04-03T08:27:10Z</time>
      </trkpt>
      <trkpt lat="45.0948" lon="0.68485">
        <ele>225.8</ele>
        <time>2022-04-03T08:27:15Z</time>
      </trkpt>
      <trkpt lat="45.09464" lon="0.68483">
        <ele>225.7</ele>
        <time>2022-04-03T08:27:21Z</time>
      </trkpt>
      <trkpt lat="45.09443" lon="0.68483">
        <ele>225.5</ele>
        <time>2022-04-03T08:27:27Z</time>
      </trkpt>
      <trkpt lat="45.09427" lon="0.68485">
        <ele>225.5</ele>
        <time>2022-04-03T08:27:31Z</time>
      </trkpt>
      <trkpt lat="45.09411" lon="0.68486">
        <ele>225.4</ele>
        <time>2022-04-03T08:27:35Z</time>
      </trkpt>
      <trkpt lat="45.09391" lon="0.68482">
        <ele>225.4</ele>
        <time>2022-04-03T08:27:41Z</time>
      </trkpt>
      <trkpt lat="45.09373" lon="0.68484">
        <ele>225.5</ele>
        <time>2022-04-03T08:27:43Z</time>
      </trkpt>
      <trkpt lat="45.0938" lon="0.68475">
        <ele>225.7</ele>
        <time>2022-04-03T08:27:44Z</time>
      </trkpt>
      <trkpt lat="45.09381" lon="0.68474">
        <ele>225.7</ele>
        <time>2022-04-03T08:27:45Z</time>
      </trkpt>
      <trkpt lat="45.09386" lon="0.68468">
        <ele>225.7</ele>
        <time>2022-04-03T08:27:48Z</time>
      </trkpt>
      <trkpt lat="45.09399" lon="0.68451">
        <ele>225.9</ele>
        <time>2022-04-03T08:27:54Z</time>
      </trkpt>
      <trkpt lat="45.09411" lon="0.68421">
        <ele>225.8</ele>
        <time>2022-04-03T08:28:01Z</time>
      </trkpt>
      <trkpt lat="45.09423" lon="0.68375">
        <ele>225.6</ele>
        <time>2022-04-03T08:28:09Z</time>
      </trkpt>
      <trkpt lat="45.09432" lon="0.68339">
        <ele>225.5</ele>
        <time>2022-04-03T08:28:15Z</time>
      </trkpt>
      <trkpt lat="45.0944" lon="0.68302">
        <ele>225.2</ele>
        <time>2022-04-03T08:28:21Z</time>
      </trkpt>
      <trkpt lat="45.09442" lon="0.68289">
        <ele>225.2</ele>
        <time>2022-04-03T08:28:23Z</time>
      </trkpt>
      <trkpt lat="45.09449" lon="0.68238">
        <ele>224.9</ele>
        <time>2022-04-03T08:28:30Z</time>
      </trkpt>
      <trkpt lat="45.09449" lon="0.68232">
        <ele>224.8</ele>
        <time>2022-04-03T08:28:31Z</time>
      </trkpt>
      <trkpt lat="45.09451" lon="0.68196">
        <ele>224.3</ele>
        <time>2022-04-03T08:28:36Z</time>
      </trkpt>
      <trkpt lat="45.09453" lon="0.6814">
        <ele>223.8</ele>
        <time>2022-04-03T08:28:44Z</time>
      </trkpt>
      <trkpt lat="45.09456" lon="0.68093">
        <ele>223.3</ele>
        <time>2022-04-03T08:28:51Z</time>
      </trkpt>
      <trkpt lat="45.09456" lon="0.68065">
        <ele>223</ele>
        <time>2022-04-03T08:28:55Z</time>
      </trkpt>
      <trkpt lat="45.09456" lon="0.68058">
        <ele>222.9</ele>
        <time>2022-04-03T08:28:56Z</time>
      </trkpt>
      <trkpt lat="45.09456" lon="0.68017">
        <ele>222.7</ele>
        <time>2022-04-03T08:29:02Z</time>
      </trkpt>
      <trkpt lat="45.09455" lon="0.67984">
        <ele>222.7</ele>
        <time>2022-04-03T08:29:08Z</time>
      </trkpt>
      <trkpt lat="45.09455" lon="0.67979">
        <ele>222.7</ele>
        <time>2022-04-03T08:29:09Z</time>
      </trkpt>
      <trkpt lat="45.09448" lon="0.67966">
        <ele>222.5</ele>
        <time>2022-04-03T08:29:11Z</time>
      </trkpt>
      <trkpt lat="45.09444" lon="0.67962">
        <ele>222.4</ele>
        <time>2022-04-03T08:29:12Z</time>
      </trkpt>
      <trkpt lat="45.09439" lon="0.67958">
        <ele>222.2</ele>
        <time>2022-04-03T08:29:13Z</time>
      </trkpt>
      <trkpt lat="45.09417" lon="0.67938">
        <ele>222</ele>
        <time>2022-04-03T08:29:18Z</time>
      </trkpt>
      <trkpt lat="45.09378" lon="0.67901">
        <ele>222.3</ele>
        <time>2022-04-03T08:29:27Z</time>
      </trkpt>
      <trkpt lat="45.0935" lon="0.67872">
        <ele>223.3</ele>
        <time>2022-04-03T08:29:34Z</time>
      </trkpt>
      <trkpt lat="45.09346" lon="0.67868">
        <ele>223.4</ele>
        <time>2022-04-03T08:29:35Z</time>
      </trkpt>
      <trkpt lat="45.09332" lon="0.67853">
        <ele>223.9</ele>
        <time>2022-04-03T08:29:39Z</time>
      </trkpt>
      <trkpt lat="45.09303" lon="0.67823">
        <ele>223.4</ele>
        <time>2022-04-03T08:29:46Z</time>
      </trkpt>
      <trkpt lat="45.0927" lon="0.67789">
        <ele>220.8</ele>
        <time>2022-04-03T08:29:53Z</time>
      </trkpt>
      <trkpt lat="45.09239" lon="0.67756">
        <ele>218.2</ele>
        <time>2022-04-03T08:29:59Z</time>
      </trkpt>
      <trkpt lat="45.09235" lon="0.67752">
        <ele>217.9</ele>
        <time>2022-04-03T08:30:00Z</time>
      </trkpt>
      <trkpt lat="45.09227" lon="0.67744">
        <ele>217.5</ele>
        <time>2022-04-03T08:30:03Z</time>
      </trkpt>
      <trkpt lat="45.09222" lon="0.6774">
        <ele>217.4</ele>
        <time>2022-04-03T08:30:08Z</time>
      </trkpt>
      <trkpt lat="45.09219" lon="0.67738">
        <ele>217.3</ele>
        <time>2022-04-03T08:35:21Z</time>
      </trkpt>
      <trkpt lat="45.09216" lon="0.67735">
        <ele>217.2</ele>
        <time>2022-04-03T08:35:23Z</time>
      </trkpt>
      <trkpt lat="45.09204" lon="0.67719">
        <ele>216</ele>
        <time>2022-04-03T08:35:30Z</time>
      </trkpt>
      <trkpt lat="45.09199" lon="0.67697">
        <ele>213</ele>
        <time>2022-04-03T08:35:35Z</time>
      </trkpt>
      <trkpt lat="45.09194" lon="0.67676">
        <ele>210</ele>
        <time>2022-04-03T08:35:39Z</time>
      </trkpt>
      <trkpt lat="45.09178" lon="0.67676">
        <ele>213.8</ele>
        <time>2022-04-03T08:35:42Z</time>
      </trkpt>
      <trkpt lat="45.0916" lon="0.67686">
        <ele>211.1</ele>
        <time>2022-04-03T08:35:46Z</time>
      </trkpt>
      <trkpt lat="45.09156" lon="0.67688">
        <ele>210</ele>
        <time>2022-04-03T08:35:47Z</time>
      </trkpt>
      <trkpt lat="45.09152" lon="0.67677">
        <ele>209.4</ele>
        <time>2022-04-03T08:35:49Z</time>
      </trkpt>
      <trkpt lat="45.09152" lon="0.67672">
        <ele>209.3</ele>
        <time>2022-04-03T08:35:50Z</time>
      </trkpt>
      <trkpt lat="45.09152" lon="0.67626">
        <ele>208</ele>
        <time>2022-04-03T08:35:57Z</time>
      </trkpt>
      <trkpt lat="45.09158" lon="0.67576">
        <ele>204.2</ele>
        <time>2022-04-03T08:36:02Z</time>
      </trkpt>
      <trkpt lat="45.09159" lon="0.67566">
        <ele>203.1</ele>
        <time>2022-04-03T08:36:03Z</time>
      </trkpt>
      <trkpt lat="45.09167" lon="0.67538">
        <ele>198.9</ele>
        <time>2022-04-03T08:36:06Z</time>
      </trkpt>
      <trkpt lat="45.09179" lon="0.67502">
        <ele>192.3</ele>
        <time>2022-04-03T08:36:10Z</time>
      </trkpt>
      <trkpt lat="45.09178" lon="0.67491">
        <ele>191.1</ele>
        <time>2022-04-03T08:36:11Z</time>
      </trkpt>
      <trkpt lat="45.09177" lon="0.67481">
        <ele>189.8</ele>
        <time>2022-04-03T08:36:12Z</time>
      </trkpt>
      <trkpt lat="45.09173" lon="0.67459">
        <ele>186.7</ele>
        <time>2022-04-03T08:36:14Z</time>
      </trkpt>
      <trkpt lat="45.09156" lon="0.6741">
        <ele>178.6</ele>
        <time>2022-04-03T08:36:19Z</time>
      </trkpt>
      <trkpt lat="45.09142" lon="0.67387">
        <ele>174.2</ele>
        <time>2022-04-03T08:36:22Z</time>
      </trkpt>
      <trkpt lat="45.09137" lon="0.67384">
        <ele>173</ele>
        <time>2022-04-03T08:36:23Z</time>
      </trkpt>
      <trkpt lat="45.09133" lon="0.67384">
        <ele>172</ele>
        <time>2022-04-03T08:36:24Z</time>
      </trkpt>
      <trkpt lat="45.09122" lon="0.67384">
        <ele>170.2</ele>
        <time>2022-04-03T08:36:26Z</time>
      </trkpt>
      <trkpt lat="45.09093" lon="0.67394">
        <ele>166.5</ele>
        <time>2022-04-03T08:36:30Z</time>
      </trkpt>
      <trkpt lat="45.09086" lon="0.67394">
        <ele>166.1</ele>
        <time>2022-04-03T08:36:31Z</time>
      </trkpt>
      <trkpt lat="45.09079" lon="0.67391">
        <ele>165.6</ele>
        <time>2022-04-03T08:36:32Z</time>
      </trkpt>
      <trkpt lat="45.09076" lon="0.67386">
        <ele>165.4</ele>
        <time>2022-04-03T08:36:33Z</time>
      </trkpt>
      <trkpt lat="45.09073" lon="0.67379">
        <ele>165.2</ele>
        <time>2022-04-03T08:36:34Z</time>
      </trkpt>
      <trkpt lat="45.09063" lon="0.67345">
        <ele>164.8</ele>
        <time>2022-04-03T08:36:39Z</time>
      </trkpt>
      <trkpt lat="45.09059" lon="0.67325">
        <ele>164.6</ele>
        <time>2022-04-03T08:36:42Z</time>
      </trkpt>
      <trkpt lat="45.09055" lon="0.6729">
        <ele>164.2</ele>
        <time>2022-04-03T08:36:46Z</time>
      </trkpt>
      <trkpt lat="45.09053" lon="0.67283">
        <ele>164.1</ele>
        <time>2022-04-03T08:36:47Z</time>
      </trkpt>
      <trkpt lat="45.09037" lon="0.6724">
        <ele>163.8</ele>
        <time>2022-04-03T08:36:53Z</time>
      </trkpt>
      <trkpt lat="45.09011" lon="0.67195">
        <ele>163.3</ele>
        <time>2022-04-03T08:37:00Z</time>
      </trkpt>
      <trkpt lat="45.09003" lon="0.67183">
        <ele>163.3</ele>
        <time>2022-04-03T08:37:02Z</time>
      </trkpt>
      <trkpt lat="45.08998" lon="0.67169">
        <ele>163.2</ele>
        <time>2022-04-03T08:37:04Z</time>
      </trkpt>
      <trkpt lat="45.08996" lon="0.67163">
        <ele>163.1</ele>
        <time>2022-04-03T08:37:05Z</time>
      </trkpt>
      <trkpt lat="45.08994" lon="0.67156">
        <ele>163</ele>
        <time>2022-04-03T08:37:06Z</time>
      </trkpt>
      <trkpt lat="45.08991" lon="0.67143">
        <ele>162.7</ele>
        <time>2022-04-03T08:37:08Z</time>
      </trkpt>
      <trkpt lat="45.0899" lon="0.67135">
        <ele>162.7</ele>
        <time>2022-04-03T08:37:09Z</time>
      </trkpt>
      <trkpt lat="45.08987" lon="0.67114">
        <ele>162.4</ele>
        <time>2022-04-03T08:37:12Z</time>
      </trkpt>
      <trkpt lat="45.08986" lon="0.67107">
        <ele>162.2</ele>
        <time>2022-04-03T08:37:13Z</time>
      </trkpt>
      <trkpt lat="45.08985" lon="0.67099">
        <ele>162.1</ele>
        <time>2022-04-03T08:37:14Z</time>
      </trkpt>
      <trkpt lat="45.08983" lon="0.67074">
        <ele>161.4</ele>
        <time>2022-04-03T08:37:17Z</time>
      </trkpt>
      <trkpt lat="45.0898" lon="0.67011">
        <ele>160.3</ele>
        <time>2022-04-03T08:37:24Z</time>
      </trkpt>
      <trkpt lat="45.08981" lon="0.6698">
        <ele>159.9</ele>
        <time>2022-04-03T08:37:28Z</time>
      </trkpt>
      <trkpt lat="45.08981" lon="0.66972">
        <ele>159.7</ele>
        <time>2022-04-03T08:37:29Z</time>
      </trkpt>
      <trkpt lat="45.08984" lon="0.66943">
        <ele>159.3</ele>
        <time>2022-04-03T08:37:32Z</time>
      </trkpt>
      <trkpt lat="45.08989" lon="0.669">
        <ele>159.3</ele>
        <time>2022-04-03T08:37:37Z</time>
      </trkpt>
      <trkpt lat="45.08993" lon="0.66858">
        <ele>159.1</ele>
        <time>2022-04-03T08:37:42Z</time>
      </trkpt>
      <trkpt lat="45.08993" lon="0.6685">
        <ele>159.1</ele>
        <time>2022-04-03T08:37:43Z</time>
      </trkpt>
      <trkpt lat="45.08993" lon="0.66833">
        <ele>159.1</ele>
        <time>2022-04-03T08:37:45Z</time>
      </trkpt>
      <trkpt lat="45.08993" lon="0.66825">
        <ele>159.2</ele>
        <time>2022-04-03T08:37:46Z</time>
      </trkpt>
      <trkpt lat="45.08992" lon="0.66817">
        <ele>159.3</ele>
        <time>2022-04-03T08:37:47Z</time>
      </trkpt>
      <trkpt lat="45.08987" lon="0.66786">
        <ele>160.1</ele>
        <time>2022-04-03T08:37:51Z</time>
      </trkpt>
      <trkpt lat="45.08975" lon="0.6675">
        <ele>160</ele>
        <time>2022-04-03T08:37:56Z</time>
      </trkpt>
      <trkpt lat="45.0896" lon="0.66715">
        <ele>158.5</ele>
        <time>2022-04-03T08:38:00Z</time>
      </trkpt>
      <trkpt lat="45.08932" lon="0.66653">
        <ele>156.6</ele>
        <time>2022-04-03T08:38:07Z</time>
      </trkpt>
      <trkpt lat="45.08911" lon="0.666">
        <ele>155</ele>
        <time>2022-04-03T08:38:13Z</time>
      </trkpt>
      <trkpt lat="45.08898" lon="0.66573">
        <ele>153.6</ele>
        <time>2022-04-03T08:38:16Z</time>
      </trkpt>
      <trkpt lat="45.08889" lon="0.66557">
        <ele>152.6</ele>
        <time>2022-04-03T08:38:18Z</time>
      </trkpt>
      <trkpt lat="45.0887" lon="0.66526">
        <ele>147.8</ele>
        <time>2022-04-03T08:38:22Z</time>
      </trkpt>
      <trkpt lat="45.08867" lon="0.66519">
        <ele>146.3</ele>
        <time>2022-04-03T08:38:23Z</time>
      </trkpt>
      <trkpt lat="45.08867" lon="0.66506">
        <ele>143.9</ele>
        <time>2022-04-03T08:38:25Z</time>
      </trkpt>
      <trkpt lat="45.0887" lon="0.66504">
        <ele>143.8</ele>
        <time>2022-04-03T08:38:26Z</time>
      </trkpt>
      <trkpt lat="45.08872" lon="0.66502">
        <ele>143.8</ele>
        <time>2022-04-03T08:38:27Z</time>
      </trkpt>
      <trkpt lat="45.08877" lon="0.66498">
        <ele>143.7</ele>
        <time>2022-04-03T08:38:29Z</time>
      </trkpt>
      <trkpt lat="45.08888" lon="0.66489">
        <ele>143.7</ele>
        <time>2022-04-03T08:38:33Z</time>
      </trkpt>
      <trkpt lat="45.08906" lon="0.66475">
        <ele>144.1</ele>
        <time>2022-04-03T08:38:38Z</time>
      </trkpt>
      <trkpt lat="45.08918" lon="0.6647">
        <ele>144.8</ele>
        <time>2022-04-03T08:38:42Z</time>
      </trkpt>
      <trkpt lat="45.08931" lon="0.66464">
        <ele>145.8</ele>
        <time>2022-04-03T08:38:48Z</time>
      </trkpt>
      <trkpt lat="45.08943" lon="0.66457">
        <ele>146.9</ele>
        <time>2022-04-03T08:38:53Z</time>
      </trkpt>
      <trkpt lat="45.08955" lon="0.66444">
        <ele>148.3</ele>
        <time>2022-04-03T08:38:59Z</time>
      </trkpt>
      <trkpt lat="45.08959" lon="0.66425">
        <ele>149.3</ele>
        <time>2022-04-03T08:39:05Z</time>
      </trkpt>
      <trkpt lat="45.08969" lon="0.66408">
        <ele>150.1</ele>
        <time>2022-04-03T08:39:12Z</time>
      </trkpt>
      <trkpt lat="45.08982" lon="0.66397">
        <ele>150.7</ele>
        <time>2022-04-03T08:39:18Z</time>
      </trkpt>
      <trkpt lat="45.08993" lon="0.66387">
        <ele>150.8</ele>
        <time>2022-04-03T08:39:23Z</time>
      </trkpt>
      <trkpt lat="45.08994" lon="0.66372">
        <ele>150.9</ele>
        <time>2022-04-03T08:39:27Z</time>
      </trkpt>
      <trkpt lat="45.08987" lon="0.66347">
        <ele>150.7</ele>
        <time>2022-04-03T08:39:33Z</time>
      </trkpt>
      <trkpt lat="45.08975" lon="0.66319">
        <ele>151</ele>
        <time>2022-04-03T08:39:40Z</time>
      </trkpt>
      <trkpt lat="45.08967" lon="0.66305">
        <ele>151.9</ele>
        <time>2022-04-03T08:39:45Z</time>
      </trkpt>
      <trkpt lat="45.08964" lon="0.663">
        <ele>153</ele>
        <time>2022-04-03T08:39:50Z</time>
      </trkpt>
      <trkpt lat="45.0928" lon="0.66073">
        <ele>208.5</ele>
        <time>2022-04-03T08:44:52Z</time>
      </trkpt>
      <trkpt lat="45.09285" lon="0.66071">
        <ele>208.8</ele>
        <time>2022-04-03T08:44:55Z</time>
      </trkpt>
      <trkpt lat="45.0929" lon="0.66069">
        <ele>209.1</ele>
        <time>2022-04-03T08:44:58Z</time>
      </trkpt>
      <trkpt lat="45.09293" lon="0.66068">
        <ele>209.2</ele>
        <time>2022-04-03T08:45:00Z</time>
      </trkpt>
      <trkpt lat="45.09299" lon="0.66065">
        <ele>209.6</ele>
        <time>2022-04-03T08:45:04Z</time>
      </trkpt>
      <trkpt lat="45.09302" lon="0.66064">
        <ele>209.8</ele>
        <time>2022-04-03T08:45:06Z</time>
      </trkpt>
      <trkpt lat="45.09311" lon="0.6606">
        <ele>210.3</ele>
        <time>2022-04-03T08:45:11Z</time>
      </trkpt>
      <trkpt lat="45.09322" lon="0.66056">
        <ele>211</ele>
        <time>2022-04-03T08:45:17Z</time>
      </trkpt>
      <trkpt lat="45.09338" lon="0.66049">
        <ele>211.6</ele>
        <time>2022-04-03T08:45:24Z</time>
      </trkpt>
      <trkpt lat="45.0935" lon="0.66046">
        <ele>212</ele>
        <time>2022-04-03T08:45:30Z</time>
      </trkpt>
      <trkpt lat="45.0937" lon="0.66042">
        <ele>212.2</ele>
        <time>2022-04-03T08:45:38Z</time>
      </trkpt>
      <trkpt lat="45.09394" lon="0.6604">
        <ele>212.3</ele>
        <time>2022-04-03T08:45:46Z</time>
      </trkpt>
      <trkpt lat="45.09417" lon="0.66041">
        <ele>212.3</ele>
        <time>2022-04-03T08:45:54Z</time>
      </trkpt>
      <trkpt lat="45.09441" lon="0.66052">
        <ele>212.1</ele>
        <time>2022-04-03T08:46:02Z</time>
      </trkpt>
      <trkpt lat="45.09458" lon="0.66056">
        <ele>211.8</ele>
        <time>2022-04-03T08:46:08Z</time>
      </trkpt>
      <trkpt lat="45.09465" lon="0.66064">
        <ele>211.8</ele>
        <time>2022-04-03T08:46:11Z</time>
      </trkpt>
      <trkpt lat="45.09469" lon="0.6607">
        <ele>211.8</ele>
        <time>2022-04-03T08:46:13Z</time>
      </trkpt>
      <trkpt lat="45.09484" lon="0.66091">
        <ele>211.7</ele>
        <time>2022-04-03T08:46:20Z</time>
      </trkpt>
      <trkpt lat="45.09499" lon="0.66113">
        <ele>211.7</ele>
        <time>2022-04-03T08:46:27Z</time>
      </trkpt>
      <trkpt lat="45.0951" lon="0.6613">
        <ele>211.6</ele>
        <time>2022-04-03T08:46:33Z</time>
      </trkpt>
      <trkpt lat="45.09523" lon="0.66116">
        <ele>211.6</ele>
        <time>2022-04-03T08:46:37Z</time>
      </trkpt>
      <trkpt lat="45.09537" lon="0.66084">
        <ele>211.2</ele>
        <time>2022-04-03T08:46:44Z</time>
      </trkpt>
      <trkpt lat="45.09538" lon="0.66086">
        <ele>211.2</ele>
        <time>2022-04-03T08:46:45Z</time>
      </trkpt>
      <trkpt lat="45.09541" lon="0.66082">
        <ele>211.2</ele>
        <time>2022-04-03T08:46:46Z</time>
      </trkpt>
      <trkpt lat="45.09553" lon="0.66068">
        <ele>210.6</ele>
        <time>2022-04-03T08:46:50Z</time>
      </trkpt>
      <trkpt lat="45.09564" lon="0.66052">
        <ele>209.6</ele>
        <time>2022-04-03T08:46:53Z</time>
      </trkpt>
      <trkpt lat="45.09566" lon="0.66044">
        <ele>209.6</ele>
        <time>2022-04-03T08:46:54Z</time>
      </trkpt>
      <trkpt lat="45.09568" lon="0.66034">
        <ele>208.8</ele>
        <time>2022-04-03T08:46:55Z</time>
      </trkpt>
      <trkpt lat="45.09571" lon="0.66012">
        <ele>208</ele>
        <time>2022-04-03T08:46:57Z</time>
      </trkpt>
      <trkpt lat="45.09573" lon="0.65977">
        <ele>206.3</ele>
        <time>2022-04-03T08:47:00Z</time>
      </trkpt>
      <trkpt lat="45.09576" lon="0.65966">
        <ele>205.3</ele>
        <time>2022-04-03T08:47:01Z</time>
      </trkpt>
      <trkpt lat="45.0958" lon="0.65956">
        <ele>205.3</ele>
        <time>2022-04-03T08:47:02Z</time>
      </trkpt>
      <trkpt lat="45.09591" lon="0.65937">
        <ele>204.2</ele>
        <time>2022-04-03T08:47:04Z</time>
      </trkpt>
      <trkpt lat="45.09601" lon="0.65916">
        <ele>203</ele>
        <time>2022-04-03T08:47:06Z</time>
      </trkpt>
      <trkpt lat="45.09615" lon="0.65888">
        <ele>202.5</ele>
        <time>2022-04-03T08:47:09Z</time>
      </trkpt>
      <trkpt lat="45.09622" lon="0.65873">
        <ele>201.8</ele>
        <time>2022-04-03T08:47:11Z</time>
      </trkpt>
      <trkpt lat="45.09624" lon="0.65864">
        <ele>201.1</ele>
        <time>2022-04-03T08:47:12Z</time>
      </trkpt>
      <trkpt lat="45.09623" lon="0.65857">
        <ele>201.1</ele>
        <time>2022-04-03T08:47:13Z</time>
      </trkpt>
      <trkpt lat="45.09626" lon="0.6584">
        <ele>200.4</ele>
        <time>2022-04-03T08:47:15Z</time>
      </trkpt>
      <trkpt lat="45.09627" lon="0.65824">
        <ele>199.9</ele>
        <time>2022-04-03T08:47:17Z</time>
      </trkpt>
      <trkpt lat="45.09628" lon="0.65807">
        <ele>199.6</ele>
        <time>2022-04-03T08:47:19Z</time>
      </trkpt>
      <trkpt lat="45.09628" lon="0.65764">
        <ele>200</ele>
        <time>2022-04-03T08:47:24Z</time>
      </trkpt>
      <trkpt lat="45.09627" lon="0.65755">
        <ele>200.3</ele>
        <time>2022-04-03T08:47:25Z</time>
      </trkpt>
      <trkpt lat="45.09623" lon="0.65711">
        <ele>201.4</ele>
        <time>2022-04-03T08:47:30Z</time>
      </trkpt>
      <trkpt lat="45.09621" lon="0.65669">
        <ele>200.9</ele>
        <time>2022-04-03T08:47:35Z</time>
      </trkpt>
      <trkpt lat="45.09619" lon="0.65644">
        <ele>200.7</ele>
        <time>2022-04-03T08:47:38Z</time>
      </trkpt>
      <trkpt lat="45.09619" lon="0.65636">
        <ele>200.9</ele>
        <time>2022-04-03T08:47:39Z</time>
      </trkpt>
      <trkpt lat="45.09617" lon="0.65628">
        <ele>202</ele>
        <time>2022-04-03T08:47:40Z</time>
      </trkpt>
      <trkpt lat="45.09618" lon="0.65606">
        <ele>202.6</ele>
        <time>2022-04-03T08:47:43Z</time>
      </trkpt>
      <trkpt lat="45.09615" lon="0.65585">
        <ele>202.8</ele>
        <time>2022-04-03T08:47:46Z</time>
      </trkpt>
      <trkpt lat="45.09614" lon="0.65578">
        <ele>202.9</ele>
        <time>2022-04-03T08:47:47Z</time>
      </trkpt>
      <trkpt lat="45.09614" lon="0.65571">
        <ele>203</ele>
        <time>2022-04-03T08:47:48Z</time>
      </trkpt>
      <trkpt lat="45.09611" lon="0.65562">
        <ele>203.1</ele>
        <time>2022-04-03T08:47:50Z</time>
      </trkpt>
      <trkpt lat="45.09611" lon="0.65551">
        <ele>203.1</ele>
        <time>2022-04-03T08:47:52Z</time>
      </trkpt>
      <trkpt lat="45.09613" lon="0.6554">
        <ele>202.9</ele>
        <time>2022-04-03T08:47:54Z</time>
      </trkpt>
      <trkpt lat="45.09612" lon="0.65533">
        <ele>203</ele>
        <time>2022-04-03T08:47:55Z</time>
      </trkpt>
      <trkpt lat="45.09611" lon="0.65518">
        <ele>202.6</ele>
        <time>2022-04-03T08:47:57Z</time>
      </trkpt>
      <trkpt lat="45.09608" lon="0.65486">
        <ele>201.3</ele>
        <time>2022-04-03T08:48:01Z</time>
      </trkpt>
      <trkpt lat="45.096" lon="0.65439">
        <ele>199.8</ele>
        <time>2022-04-03T08:48:06Z</time>
      </trkpt>
      <trkpt lat="45.09591" lon="0.65391">
        <ele>198.5</ele>
        <time>2022-04-03T08:48:11Z</time>
      </trkpt>
      <trkpt lat="45.09588" lon="0.65365">
        <ele>197.7</ele>
        <time>2022-04-03T08:48:13Z</time>
      </trkpt>
      <trkpt lat="45.0959" lon="0.65351">
        <ele>197.6</ele>
        <time>2022-04-03T08:48:14Z</time>
      </trkpt>
      <trkpt lat="45.09594" lon="0.65313">
        <ele>198</ele>
        <time>2022-04-03T08:48:17Z</time>
      </trkpt>
      <trkpt lat="45.09595" lon="0.65302">
        <ele>197.8</ele>
        <time>2022-04-03T08:48:18Z</time>
      </trkpt>
      <trkpt lat="45.09598" lon="0.6527">
        <ele>198.9</ele>
        <time>2022-04-03T08:48:23Z</time>
      </trkpt>
      <trkpt lat="45.09598" lon="0.65258">
        <ele>199.5</ele>
        <time>2022-04-03T08:48:26Z</time>
      </trkpt>
      <trkpt lat="45.09596" lon="0.65244">
        <ele>200.3</ele>
        <time>2022-04-03T08:48:32Z</time>
      </trkpt>
      <trkpt lat="45.09594" lon="0.65229">
        <ele>201.5</ele>
        <time>2022-04-03T08:48:38Z</time>
      </trkpt>
      <trkpt lat="45.09593" lon="0.65214">
        <ele>202.3</ele>
        <time>2022-04-03T08:48:44Z</time>
      </trkpt>
      <trkpt lat="45.0959" lon="0.65195">
        <ele>203.2</ele>
        <time>2022-04-03T08:48:51Z</time>
      </trkpt>
      <trkpt lat="45.09589" lon="0.6518">
        <ele>203.2</ele>
        <time>2022-04-03T08:48:57Z</time>
      </trkpt>
      <trkpt lat="45.09585" lon="0.65166">
        <ele>203.9</ele>
        <time>2022-04-03T08:49:04Z</time>
      </trkpt>
      <trkpt lat="45.09579" lon="0.65154">
        <ele>205</ele>
        <time>2022-04-03T08:49:09Z</time>
      </trkpt>
      <trkpt lat="45.09575" lon="0.65154">
        <ele>205</ele>
        <time>2022-04-03T08:49:11Z</time>
      </trkpt>
      <trkpt lat="45.09572" lon="0.65154">
        <ele>205</ele>
        <time>2022-04-03T08:49:12Z</time>
      </trkpt>
      <trkpt lat="45.09568" lon="0.65154">
        <ele>205.1</ele>
        <time>2022-04-03T08:49:14Z</time>
      </trkpt>
      <trkpt lat="45.09563" lon="0.65153">
        <ele>205.2</ele>
        <time>2022-04-03T08:49:16Z</time>
      </trkpt>
      <trkpt lat="45.09561" lon="0.65153">
        <ele>205.2</ele>
        <time>2022-04-03T08:49:17Z</time>
      </trkpt>
      <trkpt lat="45.09559" lon="0.65153">
        <ele>205.2</ele>
        <time>2022-04-03T08:49:18Z</time>
      </trkpt>
      <trkpt lat="45.0955" lon="0.65152">
        <ele>205.4</ele>
        <time>2022-04-03T08:49:21Z</time>
      </trkpt>
      <trkpt lat="45.09548" lon="0.65152">
        <ele>205.4</ele>
        <time>2022-04-03T08:49:22Z</time>
      </trkpt>
      <trkpt lat="45.09541" lon="0.65152">
        <ele>205.5</ele>
        <time>2022-04-03T08:49:24Z</time>
      </trkpt>
      <trkpt lat="45.09523" lon="0.65154">
        <ele>206.2</ele>
        <time>2022-04-03T08:49:29Z</time>
      </trkpt>
      <trkpt lat="45.09507" lon="0.65152">
        <ele>207.4</ele>
        <time>2022-04-03T08:49:35Z</time>
      </trkpt>
      <trkpt lat="45.09501" lon="0.65153">
        <ele>207.9</ele>
        <time>2022-04-03T08:49:37Z</time>
      </trkpt>
      <trkpt lat="45.09495" lon="0.65154">
        <ele>208.3</ele>
        <time>2022-04-03T08:49:38Z</time>
      </trkpt>
      <trkpt lat="45.09488" lon="0.65135">
        <ele>207.9</ele>
        <time>2022-04-03T08:49:43Z</time>
      </trkpt>
      <trkpt lat="45.09477" lon="0.65109">
        <ele>206.8</ele>
        <time>2022-04-03T08:49:49Z</time>
      </trkpt>
      <trkpt lat="45.09473" lon="0.651">
        <ele>206.3</ele>
        <time>2022-04-03T08:49:51Z</time>
      </trkpt>
      <trkpt lat="45.09467" lon="0.65089">
        <ele>205.6</ele>
        <time>2022-04-03T08:49:53Z</time>
      </trkpt>
      <trkpt lat="45.09452" lon="0.65062">
        <ele>203.7</ele>
        <time>2022-04-03T08:49:57Z</time>
      </trkpt>
      <trkpt lat="45.09432" lon="0.65037">
        <ele>202.3</ele>
        <time>2022-04-03T08:50:01Z</time>
      </trkpt>
      <trkpt lat="45.09421" lon="0.65018">
        <ele>202.4</ele>
        <time>2022-04-03T08:50:04Z</time>
      </trkpt>
      <trkpt lat="45.09419" lon="0.65013">
        <ele>202.4</ele>
        <time>2022-04-03T08:50:05Z</time>
      </trkpt>
      <trkpt lat="45.09408" lon="0.6499">
        <ele>202.7</ele>
        <time>2022-04-03T08:50:09Z</time>
      </trkpt>
      <trkpt lat="45.09404" lon="0.64977">
        <ele>203</ele>
        <time>2022-04-03T08:50:11Z</time>
      </trkpt>
      <trkpt lat="45.09402" lon="0.64971">
        <ele>203.2</ele>
        <time>2022-04-03T08:50:12Z</time>
      </trkpt>
      <trkpt lat="45.09396" lon="0.64953">
        <ele>204</ele>
        <time>2022-04-03T08:50:15Z</time>
      </trkpt>
      <trkpt lat="45.09394" lon="0.64943">
        <ele>204.5</ele>
        <time>2022-04-03T08:50:17Z</time>
      </trkpt>
      <trkpt lat="45.09391" lon="0.64932">
        <ele>205.1</ele>
        <time>2022-04-03T08:50:19Z</time>
      </trkpt>
      <trkpt lat="45.09385" lon="0.64902">
        <ele>206.2</ele>
        <time>2022-04-03T08:50:25Z</time>
      </trkpt>
      <trkpt lat="45.09383" lon="0.64891">
        <ele>206.5</ele>
        <time>2022-04-03T08:50:27Z</time>
      </trkpt>
      <trkpt lat="45.09383" lon="0.64888">
        <ele>206.6</ele>
        <time>2022-04-03T08:50:28Z</time>
      </trkpt>
      <trkpt lat="45.09382" lon="0.64886">
        <ele>206.7</ele>
        <time>2022-04-03T08:50:29Z</time>
      </trkpt>
      <trkpt lat="45.09381" lon="0.64881">
        <ele>206.8</ele>
        <time>2022-04-03T08:50:30Z</time>
      </trkpt>
      <trkpt lat="45.09381" lon="0.64855">
        <ele>207.2</ele>
        <time>2022-04-03T08:50:34Z</time>
      </trkpt>
      <trkpt lat="45.0938" lon="0.64838">
        <ele>207.3</ele>
        <time>2022-04-03T08:50:37Z</time>
      </trkpt>
      <trkpt lat="45.0938" lon="0.64825">
        <ele>207.3</ele>
        <time>2022-04-03T08:50:39Z</time>
      </trkpt>
      <trkpt lat="45.09383" lon="0.64789">
        <ele>206.5</ele>
        <time>2022-04-03T08:50:44Z</time>
      </trkpt>
      <trkpt lat="45.09385" lon="0.64781">
        <ele>206.3</ele>
        <time>2022-04-03T08:50:45Z</time>
      </trkpt>
      <trkpt lat="45.09387" lon="0.64767">
        <ele>206</ele>
        <time>2022-04-03T08:50:47Z</time>
      </trkpt>
      <trkpt lat="45.09391" lon="0.64743">
        <ele>205.5</ele>
        <time>2022-04-03T08:50:50Z</time>
      </trkpt>
      <trkpt lat="45.09395" lon="0.6472">
        <ele>205.3</ele>
        <time>2022-04-03T08:50:53Z</time>
      </trkpt>
      <trkpt lat="45.09396" lon="0.64708">
        <ele>205.2</ele>
        <time>2022-04-03T08:50:55Z</time>
      </trkpt>
      <trkpt lat="45.09399" lon="0.64697">
        <ele>205.1</ele>
        <time>2022-04-03T08:50:56Z</time>
      </trkpt>
      <trkpt lat="45.09402" lon="0.64687">
        <ele>204.4</ele>
        <time>2022-04-03T08:50:58Z</time>
      </trkpt>
      <trkpt lat="45.09406" lon="0.64682">
        <ele>204.1</ele>
        <time>2022-04-03T08:50:59Z</time>
      </trkpt>
      <trkpt lat="45.09419" lon="0.64665">
        <ele>203.1</ele>
        <time>2022-04-03T08:51:02Z</time>
      </trkpt>
      <trkpt lat="45.09423" lon="0.6466">
        <ele>202.8</ele>
        <time>2022-04-03T08:51:03Z</time>
      </trkpt>
      <trkpt lat="45.09424" lon="0.64658">
        <ele>202.7</ele>
        <time>2022-04-03T08:51:04Z</time>
      </trkpt>
      <trkpt lat="45.09423" lon="0.64658">
        <ele>202.7</ele>
        <time>2022-04-03T08:51:05Z</time>
      </trkpt>
      <trkpt lat="45.09404" lon="0.64636">
        <ele>203.1</ele>
        <time>2022-04-03T08:51:10Z</time>
      </trkpt>
      <trkpt lat="45.09404" lon="0.64632">
        <ele>203.3</ele>
        <time>2022-04-03T08:51:11Z</time>
      </trkpt>
      <trkpt lat="45.09403" lon="0.64623">
        <ele>203.7</ele>
        <time>2022-04-03T08:51:13Z</time>
      </trkpt>
      <trkpt lat="45.09404" lon="0.64599">
        <ele>204.9</ele>
        <time>2022-04-03T08:51:18Z</time>
      </trkpt>
      <trkpt lat="45.09406" lon="0.64571">
        <ele>206.6</ele>
        <time>2022-04-03T08:51:25Z</time>
      </trkpt>
      <trkpt lat="45.09406" lon="0.64557">
        <ele>207.5</ele>
        <time>2022-04-03T08:51:29Z</time>
      </trkpt>
      <trkpt lat="45.09407" lon="0.64543">
        <ele>208.4</ele>
        <time>2022-04-03T08:51:32Z</time>
      </trkpt>
      <trkpt lat="45.09407" lon="0.64543">
        <ele>208.4</ele>
        <time>2022-04-03T08:51:33Z</time>
      </trkpt>
      <trkpt lat="45.09412" lon="0.64543">
        <ele>208.6</ele>
        <time>2022-04-03T08:51:35Z</time>
      </trkpt>
      <trkpt lat="45.09429" lon="0.64546">
        <ele>208.9</ele>
        <time>2022-04-03T08:51:41Z</time>
      </trkpt>
      <trkpt lat="45.09444" lon="0.6455">
        <ele>209.1</ele>
        <time>2022-04-03T08:51:46Z</time>
      </trkpt>
      <trkpt lat="45.09454" lon="0.64552">
        <ele>209.2</ele>
        <time>2022-04-03T08:51:49Z</time>
      </trkpt>
      <trkpt lat="45.09458" lon="0.64553">
        <ele>209.3</ele>
        <time>2022-04-03T08:51:50Z</time>
      </trkpt>
      <trkpt lat="45.0947" lon="0.64551">
        <ele>209.7</ele>
        <time>2022-04-03T08:51:54Z</time>
      </trkpt>
      <trkpt lat="45.09486" lon="0.64545">
        <ele>210.1</ele>
        <time>2022-04-03T08:51:59Z</time>
      </trkpt>
      <trkpt lat="45.09488" lon="0.64543">
        <ele>210.2</ele>
        <time>2022-04-03T08:52:00Z</time>
      </trkpt>
      <trkpt lat="45.09502" lon="0.64534">
        <ele>210.5</ele>
        <time>2022-04-03T08:52:05Z</time>
      </trkpt>
      <trkpt lat="45.09517" lon="0.64523">
        <ele>210.7</ele>
        <time>2022-04-03T08:52:09Z</time>
      </trkpt>
      <trkpt lat="45.09522" lon="0.64519">
        <ele>210.8</ele>
        <time>2022-04-03T08:52:11Z</time>
      </trkpt>
      <trkpt lat="45.09528" lon="0.64515">
        <ele>210.8</ele>
        <time>2022-04-03T08:52:13Z</time>
      </trkpt>
      <trkpt lat="45.09542" lon="0.64508">
        <ele>210.8</ele>
        <time>2022-04-03T08:52:16Z</time>
      </trkpt>
      <trkpt lat="45.09546" lon="0.64506">
        <ele>210.8</ele>
        <time>2022-04-03T08:52:17Z</time>
      </trkpt>
      <trkpt lat="45.09563" lon="0.64494">
        <ele>210.5</ele>
        <time>2022-04-03T08:52:21Z</time>
      </trkpt>
      <trkpt lat="45.09583" lon="0.64474">
        <ele>210.2</ele>
        <time>2022-04-03T08:52:26Z</time>
      </trkpt>
      <trkpt lat="45.09591" lon="0.64466">
        <ele>210</ele>
        <time>2022-04-03T08:52:28Z</time>
      </trkpt>
      <trkpt lat="45.09605" lon="0.6446">
        <ele>209.7</ele>
        <time>2022-04-03T08:52:31Z</time>
      </trkpt>
      <trkpt lat="45.09615" lon="0.64456">
        <ele>209.4</ele>
        <time>2022-04-03T08:52:33Z</time>
      </trkpt>
      <trkpt lat="45.0962" lon="0.64455">
        <ele>209.1</ele>
        <time>2022-04-03T08:52:34Z</time>
      </trkpt>
      <trkpt lat="45.09624" lon="0.64453">
        <ele>208.7</ele>
        <time>2022-04-03T08:52:35Z</time>
      </trkpt>
      <trkpt lat="45.09628" lon="0.64436">
        <ele>209</ele>
        <time>2022-04-03T08:52:37Z</time>
      </trkpt>
      <trkpt lat="45.09628" lon="0.6443">
        <ele>209</ele>
        <time>2022-04-03T08:52:38Z</time>
      </trkpt>
      <trkpt lat="45.0963" lon="0.64416">
        <ele>208.9</ele>
        <time>2022-04-03T08:52:40Z</time>
      </trkpt>
      <trkpt lat="45.09632" lon="0.64402">
        <ele>208.6</ele>
        <time>2022-04-03T08:52:42Z</time>
      </trkpt>
      <trkpt lat="45.09637" lon="0.64386">
        <ele>208.1</ele>
        <time>2022-04-03T08:52:44Z</time>
      </trkpt>
      <trkpt lat="45.09639" lon="0.64361">
        <ele>207.2</ele>
        <time>2022-04-03T08:52:47Z</time>
      </trkpt>
      <trkpt lat="45.09641" lon="0.64343">
        <ele>206.6</ele>
        <time>2022-04-03T08:52:49Z</time>
      </trkpt>
      <trkpt lat="45.09646" lon="0.64328">
        <ele>205.8</ele>
        <time>2022-04-03T08:52:51Z</time>
      </trkpt>
      <trkpt lat="45.09649" lon="0.64319">
        <ele>205.4</ele>
        <time>2022-04-03T08:52:52Z</time>
      </trkpt>
      <trkpt lat="45.09645" lon="0.64299">
        <ele>204.3</ele>
        <time>2022-04-03T08:52:54Z</time>
      </trkpt>
      <trkpt lat="45.09643" lon="0.6429">
        <ele>203.7</ele>
        <time>2022-04-03T08:52:55Z</time>
      </trkpt>
      <trkpt lat="45.09641" lon="0.64281">
        <ele>203.2</ele>
        <time>2022-04-03T08:52:56Z</time>
      </trkpt>
      <trkpt lat="45.0963" lon="0.64252">
        <ele>201.4</ele>
        <time>2022-04-03T08:52:59Z</time>
      </trkpt>
      <trkpt lat="45.09625" lon="0.64242">
        <ele>200.8</ele>
        <time>2022-04-03T08:53:00Z</time>
      </trkpt>
      <trkpt lat="45.09611" lon="0.64213">
        <ele>199.7</ele>
        <time>2022-04-03T08:53:03Z</time>
      </trkpt>
      <trkpt lat="45.09602" lon="0.64185">
        <ele>199.5</ele>
        <time>2022-04-03T08:53:06Z</time>
      </trkpt>
      <trkpt lat="45.09598" lon="0.64169">
        <ele>199.5</ele>
        <time>2022-04-03T08:53:08Z</time>
      </trkpt>
      <trkpt lat="45.09596" lon="0.64158">
        <ele>199.5</ele>
        <time>2022-04-03T08:53:10Z</time>
      </trkpt>
      <trkpt lat="45.09593" lon="0.64155">
        <ele>199.4</ele>
        <time>2022-04-03T08:53:11Z</time>
      </trkpt>
      <trkpt lat="45.09599" lon="0.64149">
        <ele>199.1</ele>
        <time>2022-04-03T08:53:13Z</time>
      </trkpt>
      <trkpt lat="45.09603" lon="0.64146">
        <ele>198.8</ele>
        <time>2022-04-03T08:53:14Z</time>
      </trkpt>
      <trkpt lat="45.09614" lon="0.64146">
        <ele>197.9</ele>
        <time>2022-04-03T08:53:16Z</time>
      </trkpt>
      <trkpt lat="45.09627" lon="0.64147">
        <ele>196.3</ele>
        <time>2022-04-03T08:53:18Z</time>
      </trkpt>
      <trkpt lat="45.09643" lon="0.64151">
        <ele>194</ele>
        <time>2022-04-03T08:53:20Z</time>
      </trkpt>
      <trkpt lat="45.0965" lon="0.64154">
        <ele>193.1</ele>
        <time>2022-04-03T08:53:21Z</time>
      </trkpt>
      <trkpt lat="45.09657" lon="0.64155">
        <ele>192.4</ele>
        <time>2022-04-03T08:53:22Z</time>
      </trkpt>
      <trkpt lat="45.0966" lon="0.64156">
        <ele>192.2</ele>
        <time>2022-04-03T08:53:23Z</time>
      </trkpt>
      <trkpt lat="45.09668" lon="0.64155">
        <ele>191.7</ele>
        <time>2022-04-03T08:53:24Z</time>
      </trkpt>
      <trkpt lat="45.09679" lon="0.64159">
        <ele>191</ele>
        <time>2022-04-03T08:53:26Z</time>
      </trkpt>
      <trkpt lat="45.09683" lon="0.64155">
        <ele>190.6</ele>
        <time>2022-04-03T08:53:27Z</time>
      </trkpt>
      <trkpt lat="45.09685" lon="0.64144">
        <ele>189.8</ele>
        <time>2022-04-03T08:53:29Z</time>
      </trkpt>
      <trkpt lat="45.09699" lon="0.64133">
        <ele>188.1</ele>
        <time>2022-04-03T08:53:32Z</time>
      </trkpt>
      <trkpt lat="45.09705" lon="0.6413">
        <ele>187.6</ele>
        <time>2022-04-03T08:53:33Z</time>
      </trkpt>
      <trkpt lat="45.0971" lon="0.64127">
        <ele>187.2</ele>
        <time>2022-04-03T08:53:34Z</time>
      </trkpt>
      <trkpt lat="45.09722" lon="0.64128">
        <ele>186.7</ele>
        <time>2022-04-03T08:53:36Z</time>
      </trkpt>
      <trkpt lat="45.09732" lon="0.64126">
        <ele>186.2</ele>
        <time>2022-04-03T08:53:38Z</time>
      </trkpt>
      <trkpt lat="45.09738" lon="0.64122">
        <ele>185.7</ele>
        <time>2022-04-03T08:53:39Z</time>
      </trkpt>
      <trkpt lat="45.09757" lon="0.64093">
        <ele>181.4</ele>
        <time>2022-04-03T08:53:43Z</time>
      </trkpt>
      <trkpt lat="45.09761" lon="0.64076">
        <ele>178.3</ele>
        <time>2022-04-03T08:53:45Z</time>
      </trkpt>
      <trkpt lat="45.09763" lon="0.64062">
        <ele>175.6</ele>
        <time>2022-04-03T08:53:47Z</time>
      </trkpt>
      <trkpt lat="45.09776" lon="0.64046">
        <ele>171</ele>
        <time>2022-04-03T08:53:50Z</time>
      </trkpt>
      <trkpt lat="45.09781" lon="0.64042">
        <ele>169.4</ele>
        <time>2022-04-03T08:53:51Z</time>
      </trkpt>
      <trkpt lat="45.09793" lon="0.64036">
        <ele>166.3</ele>
        <time>2022-04-03T08:53:53Z</time>
      </trkpt>
      <trkpt lat="45.09798" lon="0.64034">
        <ele>164.9</ele>
        <time>2022-04-03T08:53:54Z</time>
      </trkpt>
      <trkpt lat="45.09812" lon="0.64027">
        <ele>161.4</ele>
        <time>2022-04-03T08:53:57Z</time>
      </trkpt>
      <trkpt lat="45.09816" lon="0.64025">
        <ele>160.5</ele>
        <time>2022-04-03T08:53:58Z</time>
      </trkpt>
      <trkpt lat="45.09821" lon="0.64023">
        <ele>159.3</ele>
        <time>2022-04-03T08:54:00Z</time>
      </trkpt>
      <trkpt lat="45.09825" lon="0.64022">
        <ele>158.4</ele>
        <time>2022-04-03T08:54:02Z</time>
      </trkpt>
      <trkpt lat="45.09827" lon="0.64021">
        <ele>157.9</ele>
        <time>2022-04-03T08:54:03Z</time>
      </trkpt>
      <trkpt lat="45.09843" lon="0.64018">
        <ele>154.7</ele>
        <time>2022-04-03T08:54:06Z</time>
      </trkpt>
      <trkpt lat="45.09851" lon="0.64016">
        <ele>153</ele>
        <time>2022-04-03T08:54:07Z</time>
      </trkpt>
      <trkpt lat="45.09897" lon="0.64006">
        <ele>146.5</ele>
        <time>2022-04-03T08:54:11Z</time>
      </trkpt>
      <trkpt lat="45.09906" lon="0.64002">
        <ele>145.4</ele>
        <time>2022-04-03T08:54:12Z</time>
      </trkpt>
      <trkpt lat="45.09911" lon="0.64">
        <ele>144.9</ele>
        <time>2022-04-03T08:54:13Z</time>
      </trkpt>
      <trkpt lat="45.09925" lon="0.63994">
        <ele>144</ele>
        <time>2022-04-03T08:54:16Z</time>
      </trkpt>
      <trkpt lat="45.0994" lon="0.63979">
        <ele>144.3</ele>
        <time>2022-04-03T08:54:22Z</time>
      </trkpt>
      <trkpt lat="45.09947" lon="0.63965">
        <ele>145.6</ele>
        <time>2022-04-03T08:54:29Z</time>
      </trkpt>
      <trkpt lat="45.09951" lon="0.63954">
        <ele>146.8</ele>
        <time>2022-04-03T08:54:34Z</time>
      </trkpt>
      <trkpt lat="45.09953" lon="0.63943">
        <ele>148.1</ele>
        <time>2022-04-03T08:54:39Z</time>
      </trkpt>
      <trkpt lat="45.09954" lon="0.63935">
        <ele>149</ele>
        <time>2022-04-03T08:54:43Z</time>
      </trkpt>
      <trkpt lat="45.09954" lon="0.63927">
        <ele>149.9</ele>
        <time>2022-04-03T08:54:48Z</time>
      </trkpt>
      <trkpt lat="45.09953" lon="0.63923">
        <ele>150.3</ele>
        <time>2022-04-03T08:54:50Z</time>
      </trkpt>
      <trkpt lat="45.09953" lon="0.63919">
        <ele>150.7</ele>
        <time>2022-04-03T08:54:52Z</time>
      </trkpt>
      <trkpt lat="45.09952" lon="0.63914">
        <ele>151.3</ele>
        <time>2022-04-03T08:54:55Z</time>
      </trkpt>
      <trkpt lat="45.09945" lon="0.639">
        <ele>153.3</ele>
        <time>2022-04-03T08:55:00Z</time>
      </trkpt>
      <trkpt lat="45.09945" lon="0.63899">
        <ele>153.3</ele>
        <time>2022-04-03T08:55:02Z</time>
      </trkpt>
      <trkpt lat="45.09835" lon="0.63899">
        <ele>177.9</ele>
        <time>2022-04-03T08:57:22Z</time>
      </trkpt>
      <trkpt lat="45.09833" lon="0.63898">
        <ele>178.1</ele>
        <time>2022-04-03T08:57:23Z</time>
      </trkpt>
      <trkpt lat="45.09833" lon="0.63898">
        <ele>178.1</ele>
        <time>2022-04-03T08:57:24Z</time>
      </trkpt>
      <trkpt lat="45.09787" lon="0.63893">
        <ele>181.5</ele>
        <time>2022-04-03T08:57:54Z</time>
      </trkpt>
      <trkpt lat="45.09783" lon="0.63893">
        <ele>181.7</ele>
        <time>2022-04-03T08:57:56Z</time>
      </trkpt>
      <trkpt lat="45.09782" lon="0.63893">
        <ele>181.7</ele>
        <time>2022-04-03T08:57:57Z</time>
      </trkpt>
      <trkpt lat="45.09777" lon="0.63892">
        <ele>181.9</ele>
        <time>2022-04-03T08:57:59Z</time>
      </trkpt>
      <trkpt lat="45.09771" lon="0.63892">
        <ele>182</ele>
        <time>2022-04-03T08:58:02Z</time>
      </trkpt>
      <trkpt lat="45.09755" lon="0.63892">
        <ele>181.9</ele>
        <time>2022-04-03T08:58:06Z</time>
      </trkpt>
      <trkpt lat="45.0974" lon="0.63891">
        <ele>181.6</ele>
        <time>2022-04-03T08:58:10Z</time>
      </trkpt>
      <trkpt lat="45.09732" lon="0.63891">
        <ele>181.3</ele>
        <time>2022-04-03T08:58:12Z</time>
      </trkpt>
      <trkpt lat="45.09728" lon="0.63891">
        <ele>181.2</ele>
        <time>2022-04-03T08:58:13Z</time>
      </trkpt>
      <trkpt lat="45.09716" lon="0.63891">
        <ele>180.7</ele>
        <time>2022-04-03T08:58:16Z</time>
      </trkpt>
      <trkpt lat="45.09708" lon="0.63891">
        <ele>180.3</ele>
        <time>2022-04-03T08:58:18Z</time>
      </trkpt>
      <trkpt lat="45.09703" lon="0.6389">
        <ele>180.2</ele>
        <time>2022-04-03T08:58:19Z</time>
      </trkpt>
      <trkpt lat="45.09696" lon="0.6389">
        <ele>180</ele>
        <time>2022-04-03T08:58:20Z</time>
      </trkpt>
      <trkpt lat="45.09681" lon="0.63892">
        <ele>179.7</ele>
        <time>2022-04-03T08:58:23Z</time>
      </trkpt>
      <trkpt lat="45.09673" lon="0.63893">
        <ele>179.8</ele>
        <time>2022-04-03T08:58:26Z</time>
      </trkpt>
      <trkpt lat="45.09662" lon="0.63896">
        <ele>179.9</ele>
        <time>2022-04-03T08:58:31Z</time>
      </trkpt>
      <trkpt lat="45.0965" lon="0.63894">
        <ele>179.9</ele>
        <time>2022-04-03T08:58:33Z</time>
      </trkpt>
      <trkpt lat="45.09649" lon="0.63886">
        <ele>178.8</ele>
        <time>2022-04-03T08:58:35Z</time>
      </trkpt>
      <trkpt lat="45.09647" lon="0.63878">
        <ele>178</ele>
        <time>2022-04-03T08:58:36Z</time>
      </trkpt>
      <trkpt lat="45.09641" lon="0.63862">
        <ele>176.1</ele>
        <time>2022-04-03T08:58:38Z</time>
      </trkpt>
      <trkpt lat="45.09635" lon="0.63847">
        <ele>174.5</ele>
        <time>2022-04-03T08:58:40Z</time>
      </trkpt>
      <trkpt lat="45.09633" lon="0.6384">
        <ele>173.8</ele>
        <time>2022-04-03T08:58:41Z</time>
      </trkpt>
      <trkpt lat="45.09631" lon="0.63834">
        <ele>173.2</ele>
        <time>2022-04-03T08:58:42Z</time>
      </trkpt>
      <trkpt lat="45.09635" lon="0.63817">
        <ele>171.8</ele>
        <time>2022-04-03T08:58:44Z</time>
      </trkpt>
      <trkpt lat="45.09641" lon="0.63809">
        <ele>170.9</ele>
        <time>2022-04-03T08:58:45Z</time>
      </trkpt>
      <trkpt lat="45.09655" lon="0.63792">
        <ele>168.6</ele>
        <time>2022-04-03T08:58:48Z</time>
      </trkpt>
      <trkpt lat="45.09674" lon="0.63767">
        <ele>164.9</ele>
        <time>2022-04-03T08:58:51Z</time>
      </trkpt>
      <trkpt lat="45.09706" lon="0.63711">
        <ele>158.4</ele>
        <time>2022-04-03T08:58:56Z</time>
      </trkpt>
      <trkpt lat="45.09726" lon="0.63669">
        <ele>156.3</ele>
        <time>2022-04-03T08:59:00Z</time>
      </trkpt>
      <trkpt lat="45.09732" lon="0.63651">
        <ele>155.9</ele>
        <time>2022-04-03T08:59:02Z</time>
      </trkpt>
      <trkpt lat="45.09735" lon="0.63642">
        <ele>155.7</ele>
        <time>2022-04-03T08:59:03Z</time>
      </trkpt>
      <trkpt lat="45.0976" lon="0.63598">
        <ele>151.1</ele>
        <time>2022-04-03T08:59:07Z</time>
      </trkpt>
      <trkpt lat="45.09798" lon="0.63552">
        <ele>144.7</ele>
        <time>2022-04-03T08:59:12Z</time>
      </trkpt>
      <trkpt lat="45.09812" lon="0.63534">
        <ele>142.3</ele>
        <time>2022-04-03T08:59:14Z</time>
      </trkpt>
      <trkpt lat="45.09826" lon="0.63517">
        <ele>139.3</ele>
        <time>2022-04-03T08:59:16Z</time>
      </trkpt>
      <trkpt lat="45.09845" lon="0.63494">
        <ele>135</ele>
        <time>2022-04-03T08:59:19Z</time>
      </trkpt>
      <trkpt lat="45.0985" lon="0.63487">
        <ele>133.7</ele>
        <time>2022-04-03T08:59:20Z</time>
      </trkpt>
      <trkpt lat="45.09884" lon="0.63446">
        <ele>126.2</ele>
        <time>2022-04-03T08:59:25Z</time>
      </trkpt>
      <trkpt lat="45.09911" lon="0.63419">
        <ele>123.1</ele>
        <time>2022-04-03T08:59:28Z</time>
      </trkpt>
      <trkpt lat="45.09925" lon="0.63398">
        <ele>122</ele>
        <time>2022-04-03T08:59:30Z</time>
      </trkpt>
      <trkpt lat="45.09958" lon="0.6336">
        <ele>121.5</ele>
        <time>2022-04-03T08:59:35Z</time>
      </trkpt>
      <trkpt lat="45.09969" lon="0.6335">
        <ele>121.8</ele>
        <time>2022-04-03T08:59:37Z</time>
      </trkpt>
      <trkpt lat="45.09976" lon="0.6334">
        <ele>122.1</ele>
        <time>2022-04-03T08:59:39Z</time>
      </trkpt>
      <trkpt lat="45.09983" lon="0.63324">
        <ele>122.8</ele>
        <time>2022-04-03T08:59:44Z</time>
      </trkpt>
      <trkpt lat="45.09988" lon="0.63306">
        <ele>124</ele>
        <time>2022-04-03T08:59:51Z</time>
      </trkpt>
      <trkpt lat="45.09992" lon="0.6329">
        <ele>125.3</ele>
        <time>2022-04-03T08:59:58Z</time>
      </trkpt>
      <trkpt lat="45.09997" lon="0.63274">
        <ele>126.4</ele>
        <time>2022-04-03T09:00:05Z</time>
      </trkpt>
      <trkpt lat="45.09999" lon="0.63267">
        <ele>126.8</ele>
        <time>2022-04-03T09:00:09Z</time>
      </trkpt>
      <trkpt lat="45.09999" lon="0.63264">
        <ele>127</ele>
        <time>2022-04-03T09:00:10Z</time>
      </trkpt>
      <trkpt lat="45.09998" lon="0.63256">
        <ele>127</ele>
        <time>2022-04-03T09:00:12Z</time>
      </trkpt>
      <trkpt lat="45.09996" lon="0.63252">
        <ele>126.7</ele>
        <time>2022-04-03T09:00:13Z</time>
      </trkpt>
      <trkpt lat="45.09986" lon="0.63233">
        <ele>125.3</ele>
        <time>2022-04-03T09:00:16Z</time>
      </trkpt>
      <trkpt lat="45.09977" lon="0.6322">
        <ele>124.5</ele>
        <time>2022-04-03T09:00:18Z</time>
      </trkpt>
      <trkpt lat="45.09968" lon="0.63211">
        <ele>124.2</ele>
        <time>2022-04-03T09:00:20Z</time>
      </trkpt>
      <trkpt lat="45.09952" lon="0.63195">
        <ele>124.3</ele>
        <time>2022-04-03T09:00:25Z</time>
      </trkpt>
      <trkpt lat="45.09952" lon="0.63195">
        <ele>124.3</ele>
        <time>2022-04-03T09:00:26Z</time>
      </trkpt>
      <trkpt lat="45.09942" lon="0.63191">
        <ele>124.4</ele>
        <time>2022-04-03T09:00:29Z</time>
      </trkpt>
      <trkpt lat="45.09927" lon="0.63191">
        <ele>124.3</ele>
        <time>2022-04-03T09:00:34Z</time>
      </trkpt>
      <trkpt lat="45.09918" lon="0.63188">
        <ele>124.2</ele>
        <time>2022-04-03T09:00:37Z</time>
      </trkpt>
      <trkpt lat="45.09912" lon="0.63185">
        <ele>124.1</ele>
        <time>2022-04-03T09:00:39Z</time>
      </trkpt>
      <trkpt lat="45.09896" lon="0.63174">
        <ele>123.5</ele>
        <time>2022-04-03T09:00:43Z</time>
      </trkpt>
      <trkpt lat="45.09873" lon="0.63154">
        <ele>122.4</ele>
        <time>2022-04-03T09:00:48Z</time>
      </trkpt>
      <trkpt lat="45.09849" lon="0.63126">
        <ele>120.9</ele>
        <time>2022-04-03T09:00:53Z</time>
      </trkpt>
      <trkpt lat="45.09815" lon="0.63085">
        <ele>119.5</ele>
        <time>2022-04-03T09:00:59Z</time>
      </trkpt>
      <trkpt lat="45.09805" lon="0.63069">
        <ele>119.1</ele>
        <time>2022-04-03T09:01:01Z</time>
      </trkpt>
      <trkpt lat="45.09794" lon="0.63054">
        <ele>118.8</ele>
        <time>2022-04-03T09:01:03Z</time>
      </trkpt>
      <trkpt lat="45.09772" lon="0.63027">
        <ele>118.5</ele>
        <time>2022-04-03T09:01:07Z</time>
      </trkpt>
      <trkpt lat="45.09766" lon="0.6302">
        <ele>118.5</ele>
        <time>2022-04-03T09:01:08Z</time>
      </trkpt>
      <trkpt lat="45.09736" lon="0.6298">
        <ele>118.3</ele>
        <time>2022-04-03T09:01:14Z</time>
      </trkpt>
      <trkpt lat="45.09708" lon="0.62939">
        <ele>118.3</ele>
        <time>2022-04-03T09:01:20Z</time>
      </trkpt>
      <trkpt lat="45.09695" lon="0.62921">
        <ele>118.5</ele>
        <time>2022-04-03T09:01:23Z</time>
      </trkpt>
      <trkpt lat="45.09688" lon="0.62908">
        <ele>118.4</ele>
        <time>2022-04-03T09:01:25Z</time>
      </trkpt>
      <trkpt lat="45.09679" lon="0.62895">
        <ele>118</ele>
        <time>2022-04-03T09:01:27Z</time>
      </trkpt>
      <trkpt lat="45.09669" lon="0.62883">
        <ele>117.3</ele>
        <time>2022-04-03T09:01:29Z</time>
      </trkpt>
      <trkpt lat="45.09654" lon="0.6288">
        <ele>116.4</ele>
        <time>2022-04-03T09:01:31Z</time>
      </trkpt>
      <trkpt lat="45.09647" lon="0.62875">
        <ele>116.1</ele>
        <time>2022-04-03T09:01:32Z</time>
      </trkpt>
      <trkpt lat="45.09642" lon="0.62868">
        <ele>116</ele>
        <time>2022-04-03T09:01:33Z</time>
      </trkpt>
      <trkpt lat="45.09628" lon="0.62848">
        <ele>115.8</ele>
        <time>2022-04-03T09:01:36Z</time>
      </trkpt>
      <trkpt lat="45.09591" lon="0.62796">
        <ele>116.2</ele>
        <time>2022-04-03T09:01:44Z</time>
      </trkpt>
      <trkpt lat="45.09566" lon="0.62762">
        <ele>116.9</ele>
        <time>2022-04-03T09:01:50Z</time>
      </trkpt>
      <trkpt lat="45.09551" lon="0.62737">
        <ele>117.3</ele>
        <time>2022-04-03T09:01:54Z</time>
      </trkpt>
      <trkpt lat="45.09544" lon="0.62726">
        <ele>117.6</ele>
        <time>2022-04-03T09:01:56Z</time>
      </trkpt>
      <trkpt lat="45.09535" lon="0.6271">
        <ele>118.1</ele>
        <time>2022-04-03T09:01:59Z</time>
      </trkpt>
      <trkpt lat="45.09526" lon="0.62696">
        <ele>118.6</ele>
        <time>2022-04-03T09:02:02Z</time>
      </trkpt>
      <trkpt lat="45.09517" lon="0.62682">
        <ele>119</ele>
        <time>2022-04-03T09:02:05Z</time>
      </trkpt>
      <trkpt lat="45.09509" lon="0.62674">
        <ele>119.2</ele>
        <time>2022-04-03T09:02:07Z</time>
      </trkpt>
      <trkpt lat="45.09491" lon="0.62661">
        <ele>119.2</ele>
        <time>2022-04-03T09:02:11Z</time>
      </trkpt>
      <trkpt lat="45.09471" lon="0.62637">
        <ele>119.1</ele>
        <time>2022-04-03T09:02:16Z</time>
      </trkpt>
      <trkpt lat="45.09462" lon="0.62624">
        <ele>119.2</ele>
        <time>2022-04-03T09:02:19Z</time>
      </trkpt>
      <trkpt lat="45.09459" lon="0.6262">
        <ele>119.3</ele>
        <time>2022-04-03T09:02:20Z</time>
      </trkpt>
      <trkpt lat="45.09456" lon="0.62615">
        <ele>119.3</ele>
        <time>2022-04-03T09:02:21Z</time>
      </trkpt>
      <trkpt lat="45.09443" lon="0.62592">
        <ele>119.4</ele>
        <time>2022-04-03T09:02:25Z</time>
      </trkpt>
      <trkpt lat="45.09431" lon="0.6257">
        <ele>119.5</ele>
        <time>2022-04-03T09:02:29Z</time>
      </trkpt>
      <trkpt lat="45.09422" lon="0.62554">
        <ele>119.5</ele>
        <time>2022-04-03T09:02:32Z</time>
      </trkpt>
      <trkpt lat="45.09418" lon="0.62548">
        <ele>119.5</ele>
        <time>2022-04-03T09:02:33Z</time>
      </trkpt>
      <trkpt lat="45.09411" lon="0.6253">
        <ele>119.5</ele>
        <time>2022-04-03T09:02:36Z</time>
      </trkpt>
      <trkpt lat="45.09405" lon="0.62518">
        <ele>119.6</ele>
        <time>2022-04-03T09:02:38Z</time>
      </trkpt>
      <trkpt lat="45.09398" lon="0.62506">
        <ele>119.6</ele>
        <time>2022-04-03T09:02:40Z</time>
      </trkpt>
      <trkpt lat="45.0939" lon="0.62495">
        <ele>119.5</ele>
        <time>2022-04-03T09:02:42Z</time>
      </trkpt>
      <trkpt lat="45.09375" lon="0.62483">
        <ele>118.8</ele>
        <time>2022-04-03T09:02:44Z</time>
      </trkpt>
      <trkpt lat="45.09354" lon="0.62482">
        <ele>117.4</ele>
        <time>2022-04-03T09:02:46Z</time>
      </trkpt>
      <trkpt lat="45.09346" lon="0.62482">
        <ele>117</ele>
        <time>2022-04-03T09:02:47Z</time>
      </trkpt>
      <trkpt lat="45.09328" lon="0.62488">
        <ele>116.3</ele>
        <time>2022-04-03T09:02:49Z</time>
      </trkpt>
      <trkpt lat="45.09301" lon="0.62501">
        <ele>116.3</ele>
        <time>2022-04-03T09:02:53Z</time>
      </trkpt>
      <trkpt lat="45.09295" lon="0.62504">
        <ele>116.5</ele>
        <time>2022-04-03T09:02:54Z</time>
      </trkpt>
      <trkpt lat="45.09285" lon="0.6251">
        <ele>116.8</ele>
        <time>2022-04-03T09:02:56Z</time>
      </trkpt>
      <trkpt lat="45.09264" lon="0.62526">
        <ele>117.9</ele>
        <time>2022-04-03T09:03:00Z</time>
      </trkpt>
      <trkpt lat="45.0926" lon="0.62529">
        <ele>118.2</ele>
        <time>2022-04-03T09:03:01Z</time>
      </trkpt>
      <trkpt lat="45.09259" lon="0.6253">
        <ele>118.3</ele>
        <time>2022-04-03T09:03:03Z</time>
      </trkpt>
      <trkpt lat="45.09259" lon="0.62542">
        <ele>119.2</ele>
        <time>2022-04-03T09:03:07Z</time>
      </trkpt>
      <trkpt lat="45.09259" lon="0.62545">
        <ele>119.4</ele>
        <time>2022-04-03T09:03:09Z</time>
      </trkpt>
      <trkpt lat="45.09259" lon="0.6253">
        <ele>120.8</ele>
        <time>2022-04-03T09:03:10Z</time>
      </trkpt>
      <trkpt lat="45.09259" lon="0.62554">
        <ele>123.5</ele>
        <time>2022-04-03T09:03:14Z</time>
      </trkpt>
      <trkpt lat="45.09259" lon="0.62557">
        <ele>123.8</ele>
        <time>2022-04-03T09:03:15Z</time>
      </trkpt>
      <trkpt lat="45.09259" lon="0.62566">
        <ele>124.8</ele>
        <time>2022-04-03T09:03:18Z</time>
      </trkpt>
      <trkpt lat="45.09257" lon="0.62573">
        <ele>125.6</ele>
        <time>2022-04-03T09:03:19Z</time>
      </trkpt>
      <trkpt lat="45.09249" lon="0.62587">
        <ele>127.5</ele>
        <time>2022-04-03T09:03:23Z</time>
      </trkpt>
      <trkpt lat="45.09249" lon="0.62587">
        <ele>127.6</ele>
        <time>2022-04-03T09:03:27Z</time>
      </trkpt>
      <trkpt lat="45.09249" lon="0.62588">
        <ele>127.6</ele>
        <time>2022-04-03T09:03:31Z</time>
      </trkpt>
      <trkpt lat="45.09025" lon="0.62597">
        <ele>167.4</ele>
        <time>2022-04-03T09:08:16Z</time>
      </trkpt>
      <trkpt lat="45.09019" lon="0.62599">
        <ele>168</ele>
        <time>2022-04-03T09:08:19Z</time>
      </trkpt>
      <trkpt lat="45.09009" lon="0.62601">
        <ele>169</ele>
        <time>2022-04-03T09:08:25Z</time>
      </trkpt>
      <trkpt lat="45.09002" lon="0.62605">
        <ele>169.6</ele>
        <time>2022-04-03T09:08:30Z</time>
      </trkpt>
      <trkpt lat="45.08992" lon="0.62611">
        <ele>170.2</ele>
        <time>2022-04-03T09:08:38Z</time>
      </trkpt>
      <trkpt lat="45.0899" lon="0.62612">
        <ele>170.3</ele>
        <time>2022-04-03T09:08:40Z</time>
      </trkpt>
      <trkpt lat="45.08983" lon="0.62613">
        <ele>170.3</ele>
        <time>2022-04-03T09:08:43Z</time>
      </trkpt>
      <trkpt lat="45.08975" lon="0.62603">
        <ele>169.5</ele>
        <time>2022-04-03T09:08:48Z</time>
      </trkpt>
      <trkpt lat="45.08966" lon="0.62603">
        <ele>168.9</ele>
        <time>2022-04-03T09:08:54Z</time>
      </trkpt>
      <trkpt lat="45.0896" lon="0.62603">
        <ele>168.5</ele>
        <time>2022-04-03T09:08:57Z</time>
      </trkpt>
      <trkpt lat="45.08956" lon="0.62596">
        <ele>168.1</ele>
        <time>2022-04-03T09:08:58Z</time>
      </trkpt>
      <trkpt lat="45.08952" lon="0.62595">
        <ele>167.4</ele>
        <time>2022-04-03T09:08:59Z</time>
      </trkpt>
      <trkpt lat="45.08942" lon="0.62594">
        <ele>165.2</ele>
        <time>2022-04-03T09:09:01Z</time>
      </trkpt>
      <trkpt lat="45.08924" lon="0.62614">
        <ele>160</ele>
        <time>2022-04-03T09:09:04Z</time>
      </trkpt>
      <trkpt lat="45.08915" lon="0.62643">
        <ele>155.3</ele>
        <time>2022-04-03T09:09:07Z</time>
      </trkpt>
      <trkpt lat="45.08908" lon="0.62664">
        <ele>151.8</ele>
        <time>2022-04-03T09:09:09Z</time>
      </trkpt>
      <trkpt lat="45.08902" lon="0.62685">
        <ele>148.6</ele>
        <time>2022-04-03T09:09:11Z</time>
      </trkpt>
      <trkpt lat="45.0889" lon="0.62739">
        <ele>142.7</ele>
        <time>2022-04-03T09:09:16Z</time>
      </trkpt>
      <trkpt lat="45.08886" lon="0.62757">
        <ele>141.3</ele>
        <time>2022-04-03T09:09:18Z</time>
      </trkpt>
      <trkpt lat="45.08886" lon="0.62778">
        <ele>139.8</ele>
        <time>2022-04-03T09:09:20Z</time>
      </trkpt>
      <trkpt lat="45.08887" lon="0.62835">
        <ele>135.6</ele>
        <time>2022-04-03T09:09:24Z</time>
      </trkpt>
      <trkpt lat="45.0889" lon="0.62881">
        <ele>131.7</ele>
        <time>2022-04-03T09:09:27Z</time>
      </trkpt>
      <trkpt lat="45.0889" lon="0.62895">
        <ele>130.5</ele>
        <time>2022-04-03T09:09:28Z</time>
      </trkpt>
      <trkpt lat="45.08885" lon="0.62943">
        <ele>125.7</ele>
        <time>2022-04-03T09:09:32Z</time>
      </trkpt>
      <trkpt lat="45.08883" lon="0.62961">
        <ele>123.8</ele>
        <time>2022-04-03T09:09:34Z</time>
      </trkpt>
      <trkpt lat="45.08881" lon="0.62974">
        <ele>122.6</ele>
        <time>2022-04-03T09:09:36Z</time>
      </trkpt>
      <trkpt lat="45.08878" lon="0.62991">
        <ele>121.6</ele>
        <time>2022-04-03T09:09:38Z</time>
      </trkpt>
      <trkpt lat="45.0888" lon="0.63006">
        <ele>121.3</ele>
        <time>2022-04-03T09:09:40Z</time>
      </trkpt>
      <trkpt lat="45.08883" lon="0.63037">
        <ele>120.7</ele>
        <time>2022-04-03T09:09:44Z</time>
      </trkpt>
      <trkpt lat="45.08886" lon="0.6306">
        <ele>120.1</ele>
        <time>2022-04-03T09:09:47Z</time>
      </trkpt>
      <trkpt lat="45.08888" lon="0.63075">
        <ele>119.8</ele>
        <time>2022-04-03T09:09:49Z</time>
      </trkpt>
      <trkpt lat="45.0889" lon="0.63104">
        <ele>119.1</ele>
        <time>2022-04-03T09:09:53Z</time>
      </trkpt>
      <trkpt lat="45.0889" lon="0.63161">
        <ele>117.8</ele>
        <time>2022-04-03T09:10:00Z</time>
      </trkpt>
      <trkpt lat="45.08888" lon="0.63224">
        <ele>116.9</ele>
        <time>2022-04-03T09:10:08Z</time>
      </trkpt>
      <trkpt lat="45.08886" lon="0.63254">
        <ele>117</ele>
        <time>2022-04-03T09:10:12Z</time>
      </trkpt>
      <trkpt lat="45.08885" lon="0.6327">
        <ele>117.2</ele>
        <time>2022-04-03T09:10:14Z</time>
      </trkpt>
      <trkpt lat="45.08884" lon="0.63277">
        <ele>117.3</ele>
        <time>2022-04-03T09:10:15Z</time>
      </trkpt>
      <trkpt lat="45.08882" lon="0.63312">
        <ele>118.1</ele>
        <time>2022-04-03T09:10:20Z</time>
      </trkpt>
      <trkpt lat="45.08879" lon="0.63339">
        <ele>118.7</ele>
        <time>2022-04-03T09:10:25Z</time>
      </trkpt>
      <trkpt lat="45.08876" lon="0.63385">
        <ele>119.8</ele>
        <time>2022-04-03T09:10:33Z</time>
      </trkpt>
      <trkpt lat="45.08874" lon="0.63412">
        <ele>120.2</ele>
        <time>2022-04-03T09:10:38Z</time>
      </trkpt>
      <trkpt lat="45.08871" lon="0.63455">
        <ele>120.9</ele>
        <time>2022-04-03T09:10:46Z</time>
      </trkpt>
      <trkpt lat="45.08869" lon="0.63482">
        <ele>121.3</ele>
        <time>2022-04-03T09:10:51Z</time>
      </trkpt>
      <trkpt lat="45.08867" lon="0.63509">
        <ele>121.6</ele>
        <time>2022-04-03T09:10:56Z</time>
      </trkpt>
      <trkpt lat="45.08865" lon="0.63533">
        <ele>121.8</ele>
        <time>2022-04-03T09:11:00Z</time>
      </trkpt>
      <trkpt lat="45.08864" lon="0.63545">
        <ele>121.8</ele>
        <time>2022-04-03T09:11:02Z</time>
      </trkpt>
      <trkpt lat="45.08862" lon="0.63562">
        <ele>122</ele>
        <time>2022-04-03T09:11:05Z</time>
      </trkpt>
      <trkpt lat="45.08859" lon="0.63588">
        <ele>122.2</ele>
        <time>2022-04-03T09:11:10Z</time>
      </trkpt>
      <trkpt lat="45.08855" lon="0.63631">
        <ele>122.6</ele>
        <time>2022-04-03T09:11:18Z</time>
      </trkpt>
      <trkpt lat="45.08853" lon="0.63657">
        <ele>122.9</ele>
        <time>2022-04-03T09:11:23Z</time>
      </trkpt>
      <trkpt lat="45.08853" lon="0.63663">
        <ele>123</ele>
        <time>2022-04-03T09:11:24Z</time>
      </trkpt>
      <trkpt lat="45.08858" lon="0.63692">
        <ele>123.4</ele>
        <time>2022-04-03T09:11:29Z</time>
      </trkpt>
      <trkpt lat="45.08865" lon="0.63741">
        <ele>124.3</ele>
        <time>2022-04-03T09:11:38Z</time>
      </trkpt>
      <trkpt lat="45.08865" lon="0.63772">
        <ele>125.1</ele>
        <time>2022-04-03T09:11:44Z</time>
      </trkpt>
      <trkpt lat="45.08862" lon="0.63799">
        <ele>125.5</ele>
        <time>2022-04-03T09:11:50Z</time>
      </trkpt>
      <trkpt lat="45.08858" lon="0.63807">
        <ele>125.7</ele>
        <time>2022-04-03T09:11:52Z</time>
      </trkpt>
      <trkpt lat="45.08851" lon="0.63822">
        <ele>125.8</ele>
        <time>2022-04-03T09:11:55Z</time>
      </trkpt>
      <trkpt lat="45.08836" lon="0.63853">
        <ele>126.1</ele>
        <time>2022-04-03T09:12:00Z</time>
      </trkpt>
      <trkpt lat="45.08832" lon="0.6386">
        <ele>126.6</ele>
        <time>2022-04-03T09:12:02Z</time>
      </trkpt>
      <trkpt lat="45.08832" lon="0.6386">
        <ele>126.5</ele>
        <time>2022-04-03T09:12:03Z</time>
      </trkpt>
      <trkpt lat="45.08778" lon="0.63875">
        <ele>123.8</ele>
        <time>2022-04-03T09:12:09Z</time>
      </trkpt>
      <trkpt lat="45.08772" lon="0.63877">
        <ele>123.7</ele>
        <time>2022-04-03T09:12:10Z</time>
      </trkpt>
      <trkpt lat="45.08742" lon="0.63885">
        <ele>122.9</ele>
        <time>2022-04-03T09:12:15Z</time>
      </trkpt>
      <trkpt lat="45.08736" lon="0.63886">
        <ele>122.8</ele>
        <time>2022-04-03T09:12:16Z</time>
      </trkpt>
      <trkpt lat="45.08726" lon="0.63888">
        <ele>123</ele>
        <time>2022-04-03T09:12:18Z</time>
      </trkpt>
      <trkpt lat="45.08714" lon="0.63896">
        <ele>124.6</ele>
        <time>2022-04-03T09:12:21Z</time>
      </trkpt>
      <trkpt lat="45.0871" lon="0.63898">
        <ele>124.5</ele>
        <time>2022-04-03T09:12:22Z</time>
      </trkpt>
      <trkpt lat="45.08701" lon="0.63905">
        <ele>125.6</ele>
        <time>2022-04-03T09:12:26Z</time>
      </trkpt>
      <trkpt lat="45.08692" lon="0.63915">
        <ele>127.5</ele>
        <time>2022-04-03T09:12:32Z</time>
      </trkpt>
      <trkpt lat="45.0869" lon="0.63916">
        <ele>127.4</ele>
        <time>2022-04-03T09:12:33Z</time>
      </trkpt>
      <trkpt lat="45.08689" lon="0.63918">
        <ele>127.3</ele>
        <time>2022-04-03T09:12:34Z</time>
      </trkpt>
      <trkpt lat="45.08685" lon="0.63922">
        <ele>128.6</ele>
        <time>2022-04-03T09:12:37Z</time>
      </trkpt>
      <trkpt lat="45.08682" lon="0.63927">
        <ele>128.8</ele>
        <time>2022-04-03T09:12:41Z</time>
      </trkpt>
      <trkpt lat="45.08679" lon="0.63932">
        <ele>128.7</ele>
        <time>2022-04-03T09:12:43Z</time>
      </trkpt>
      <trkpt lat="45.08678" lon="0.63933">
        <ele>128.5</ele>
        <time>2022-04-03T09:12:45Z</time>
      </trkpt>
      <trkpt lat="45.08677" lon="0.63936">
        <ele>128.4</ele>
        <time>2022-04-03T09:12:47Z</time>
      </trkpt>
      <trkpt lat="45.08446" lon="0.6402">
        <ele>172.1</ele>
        <time>2022-04-03T09:17:01Z</time>
      </trkpt>
      <trkpt lat="45.08443" lon="0.6402">
        <ele>173.4</ele>
        <time>2022-04-03T09:17:03Z</time>
      </trkpt>
      <trkpt lat="45.08441" lon="0.64022">
        <ele>173.3</ele>
        <time>2022-04-03T09:17:05Z</time>
      </trkpt>
      <trkpt lat="45.08439" lon="0.64021">
        <ele>173.1</ele>
        <time>2022-04-03T09:17:07Z</time>
      </trkpt>
      <trkpt lat="45.084" lon="0.64015">
        <ele>176.6</ele>
        <time>2022-04-03T09:17:56Z</time>
      </trkpt>
      <trkpt lat="45.08403" lon="0.64012">
        <ele>176.6</ele>
        <time>2022-04-03T09:17:58Z</time>
      </trkpt>
      <trkpt lat="45.08409" lon="0.64004">
        <ele>176.6</ele>
        <time>2022-04-03T09:18:03Z</time>
      </trkpt>
      <trkpt lat="45.08418" lon="0.63991">
        <ele>176.6</ele>
        <time>2022-04-03T09:18:09Z</time>
      </trkpt>
      <trkpt lat="45.08427" lon="0.63979">
        <ele>176.3</ele>
        <time>2022-04-03T09:18:15Z</time>
      </trkpt>
      <trkpt lat="45.08435" lon="0.63969">
        <ele>176</ele>
        <time>2022-04-03T09:18:19Z</time>
      </trkpt>
      <trkpt lat="45.0844" lon="0.63963">
        <ele>175.7</ele>
        <time>2022-04-03T09:18:21Z</time>
      </trkpt>
      <trkpt lat="45.0844" lon="0.63962">
        <ele>175.7</ele>
        <time>2022-04-03T09:18:22Z</time>
      </trkpt>
      <trkpt lat="45.08451" lon="0.63945">
        <ele>174.6</ele>
        <time>2022-04-03T09:18:26Z</time>
      </trkpt>
      <trkpt lat="45.08461" lon="0.63927">
        <ele>173.3</ele>
        <time>2022-04-03T09:18:29Z</time>
      </trkpt>
      <trkpt lat="45.08468" lon="0.63913">
        <ele>172.2</ele>
        <time>2022-04-03T09:18:31Z</time>
      </trkpt>
      <trkpt lat="45.08472" lon="0.63906">
        <ele>171.8</ele>
        <time>2022-04-03T09:18:32Z</time>
      </trkpt>
      <trkpt lat="45.08477" lon="0.63894">
        <ele>171.1</ele>
        <time>2022-04-03T09:18:34Z</time>
      </trkpt>
      <trkpt lat="45.08486" lon="0.63869">
        <ele>170.1</ele>
        <time>2022-04-03T09:18:38Z</time>
      </trkpt>
      <trkpt lat="45.08493" lon="0.6385">
        <ele>169.2</ele>
        <time>2022-04-03T09:18:41Z</time>
      </trkpt>
      <trkpt lat="45.08497" lon="0.63838">
        <ele>168.7</ele>
        <time>2022-04-03T09:18:43Z</time>
      </trkpt>
      <trkpt lat="45.08501" lon="0.63817">
        <ele>167.9</ele>
        <time>2022-04-03T09:18:46Z</time>
      </trkpt>
      <trkpt lat="45.08503" lon="0.63811">
        <ele>167.7</ele>
        <time>2022-04-03T09:18:47Z</time>
      </trkpt>
      <trkpt lat="45.08504" lon="0.63804">
        <ele>167.5</ele>
        <time>2022-04-03T09:18:48Z</time>
      </trkpt>
      <trkpt lat="45.08506" lon="0.6379">
        <ele>167</ele>
        <time>2022-04-03T09:18:50Z</time>
      </trkpt>
      <trkpt lat="45.08508" lon="0.63765">
        <ele>165.8</ele>
        <time>2022-04-03T09:18:54Z</time>
      </trkpt>
      <trkpt lat="45.08508" lon="0.63758">
        <ele>165.4</ele>
        <time>2022-04-03T09:18:55Z</time>
      </trkpt>
      <trkpt lat="45.08513" lon="0.63734">
        <ele>163.2</ele>
        <time>2022-04-03T09:18:58Z</time>
      </trkpt>
      <trkpt lat="45.08514" lon="0.63725">
        <ele>162.3</ele>
        <time>2022-04-03T09:18:59Z</time>
      </trkpt>
      <trkpt lat="45.08516" lon="0.63718">
        <ele>161.4</ele>
        <time>2022-04-03T09:19:00Z</time>
      </trkpt>
      <trkpt lat="45.0852" lon="0.637">
        <ele>159</ele>
        <time>2022-04-03T09:19:02Z</time>
      </trkpt>
      <trkpt lat="45.08524" lon="0.63692">
        <ele>157.6</ele>
        <time>2022-04-03T09:19:03Z</time>
      </trkpt>
      <trkpt lat="45.08537" lon="0.63666">
        <ele>153.1</ele>
        <time>2022-04-03T09:19:06Z</time>
      </trkpt>
      <trkpt lat="45.08543" lon="0.6366">
        <ele>151.7</ele>
        <time>2022-04-03T09:19:07Z</time>
      </trkpt>
      <trkpt lat="45.08558" lon="0.63639">
        <ele>147.7</ele>
        <time>2022-04-03T09:19:10Z</time>
      </trkpt>
      <trkpt lat="45.08567" lon="0.63619">
        <ele>145.6</ele>
        <time>2022-04-03T09:19:12Z</time>
      </trkpt>
      <trkpt lat="45.0857" lon="0.636">
        <ele>144.7</ele>
        <time>2022-04-03T09:19:14Z</time>
      </trkpt>
      <trkpt lat="45.08571" lon="0.63593">
        <ele>144.4</ele>
        <time>2022-04-03T09:19:15Z</time>
      </trkpt>
      <trkpt lat="45.0858" lon="0.63578">
        <ele>142.4</ele>
        <time>2022-04-03T09:19:18Z</time>
      </trkpt>
      <trkpt lat="45.08602" lon="0.63564">
        <ele>138.9</ele>
        <time>2022-04-03T09:19:21Z</time>
      </trkpt>
      <trkpt lat="45.08613" lon="0.63545">
        <ele>137.4</ele>
        <time>2022-04-03T09:19:23Z</time>
      </trkpt>
      <trkpt lat="45.08623" lon="0.63524">
        <ele>136.3</ele>
        <time>2022-04-03T09:19:25Z</time>
      </trkpt>
      <trkpt lat="45.08633" lon="0.63503">
        <ele>135.2</ele>
        <time>2022-04-03T09:19:27Z</time>
      </trkpt>
      <trkpt lat="45.08641" lon="0.63481">
        <ele>133.6</ele>
        <time>2022-04-03T09:19:29Z</time>
      </trkpt>
      <trkpt lat="45.0865" lon="0.63458">
        <ele>130.8</ele>
        <time>2022-04-03T09:19:31Z</time>
      </trkpt>
      <trkpt lat="45.08658" lon="0.63449">
        <ele>128.9</ele>
        <time>2022-04-03T09:19:32Z</time>
      </trkpt>
      <trkpt lat="45.08666" lon="0.63441">
        <ele>126.9</ele>
        <time>2022-04-03T09:19:33Z</time>
      </trkpt>
      <trkpt lat="45.08683" lon="0.63425">
        <ele>123.1</ele>
        <time>2022-04-03T09:19:35Z</time>
      </trkpt>
      <trkpt lat="45.08698" lon="0.63411">
        <ele>120.2</ele>
        <time>2022-04-03T09:19:37Z</time>
      </trkpt>
      <trkpt lat="45.08706" lon="0.63405">
        <ele>119.5</ele>
        <time>2022-04-03T09:19:38Z</time>
      </trkpt>
      <trkpt lat="45.08712" lon="0.63402">
        <ele>118.9</ele>
        <time>2022-04-03T09:19:39Z</time>
      </trkpt>
      <trkpt lat="45.08723" lon="0.63392">
        <ele>118.4</ele>
        <time>2022-04-03T09:19:41Z</time>
      </trkpt>
      <trkpt lat="45.08731" lon="0.63358">
        <ele>118.2</ele>
        <time>2022-04-03T09:19:45Z</time>
      </trkpt>
      <trkpt lat="45.08734" lon="0.63337">
        <ele>118.4</ele>
        <time>2022-04-03T09:19:48Z</time>
      </trkpt>
      <trkpt lat="45.08735" lon="0.63328">
        <ele>118.6</ele>
        <time>2022-04-03T09:19:52Z</time>
      </trkpt>
      <trkpt lat="45.08731" lon="0.63303">
        <ele>118.9</ele>
        <time>2022-04-03T09:19:57Z</time>
      </trkpt>
      <trkpt lat="45.0873" lon="0.63285">
        <ele>119</ele>
        <time>2022-04-03T09:20:01Z</time>
      </trkpt>
      <trkpt lat="45.0873" lon="0.6328">
        <ele>119</ele>
        <time>2022-04-03T09:20:02Z</time>
      </trkpt>
      <trkpt lat="45.08729" lon="0.63272">
        <ele>119</ele>
        <time>2022-04-03T09:20:04Z</time>
      </trkpt>
      <trkpt lat="45.08727" lon="0.63244">
        <ele>119.1</ele>
        <time>2022-04-03T09:20:10Z</time>
      </trkpt>
      <trkpt lat="45.08727" lon="0.63236">
        <ele>119.1</ele>
        <time>2022-04-03T09:20:12Z</time>
      </trkpt>
      <trkpt lat="45.08726" lon="0.63232">
        <ele>119.1</ele>
        <time>2022-04-03T09:20:13Z</time>
      </trkpt>
      <trkpt lat="45.08726" lon="0.63224">
        <ele>119.2</ele>
        <time>2022-04-03T09:20:15Z</time>
      </trkpt>
      <trkpt lat="45.08725" lon="0.63216">
        <ele>119.2</ele>
        <time>2022-04-03T09:20:17Z</time>
      </trkpt>
      <trkpt lat="45.08721" lon="0.63192">
        <ele>119.5</ele>
        <time>2022-04-03T09:20:22Z</time>
      </trkpt>
      <trkpt lat="45.08714" lon="0.63157">
        <ele>120.4</ele>
        <time>2022-04-03T09:20:28Z</time>
      </trkpt>
      <trkpt lat="45.08709" lon="0.6313">
        <ele>121.5</ele>
        <time>2022-04-03T09:20:33Z</time>
      </trkpt>
      <trkpt lat="45.08703" lon="0.63098">
        <ele>122.3</ele>
        <time>2022-04-03T09:20:40Z</time>
      </trkpt>
      <trkpt lat="45.087" lon="0.63082">
        <ele>122.7</ele>
        <time>2022-04-03T09:20:44Z</time>
      </trkpt>
      <trkpt lat="45.08699" lon="0.63077">
        <ele>122.7</ele>
        <time>2022-04-03T09:20:45Z</time>
      </trkpt>
      <trkpt lat="45.08697" lon="0.63068">
        <ele>122.9</ele>
        <time>2022-04-03T09:20:47Z</time>
      </trkpt>
      <trkpt lat="45.08693" lon="0.63047">
        <ele>123.2</ele>
        <time>2022-04-03T09:20:51Z</time>
      </trkpt>
      <trkpt lat="45.08692" lon="0.63043">
        <ele>123.2</ele>
        <time>2022-04-03T09:20:52Z</time>
      </trkpt>
      <trkpt lat="45.08688" lon="0.63024">
        <ele>123.6</ele>
        <time>2022-04-03T09:20:56Z</time>
      </trkpt>
      <trkpt lat="45.08681" lon="0.63003">
        <ele>123.9</ele>
        <time>2022-04-03T09:21:00Z</time>
      </trkpt>
      <trkpt lat="45.08674" lon="0.62978">
        <ele>124</ele>
        <time>2022-04-03T09:21:06Z</time>
      </trkpt>
      <trkpt lat="45.08669" lon="0.6296">
        <ele>123.2</ele>
        <time>2022-04-03T09:21:10Z</time>
      </trkpt>
      <trkpt lat="45.08668" lon="0.62953">
        <ele>122.9</ele>
        <time>2022-04-03T09:21:11Z</time>
      </trkpt>
      <trkpt lat="45.08666" lon="0.62939">
        <ele>122.3</ele>
        <time>2022-04-03T09:21:13Z</time>
      </trkpt>
      <trkpt lat="45.08664" lon="0.62932">
        <ele>121.9</ele>
        <time>2022-04-03T09:21:14Z</time>
      </trkpt>
      <trkpt lat="45.08663" lon="0.62925">
        <ele>121.5</ele>
        <time>2022-04-03T09:21:15Z</time>
      </trkpt>
      <trkpt lat="45.0866" lon="0.629">
        <ele>120.6</ele>
        <time>2022-04-03T09:21:18Z</time>
      </trkpt>
      <trkpt lat="45.08657" lon="0.62885">
        <ele>120.4</ele>
        <time>2022-04-03T09:21:20Z</time>
      </trkpt>
      <trkpt lat="45.08656" lon="0.62879">
        <ele>120.3</ele>
        <time>2022-04-03T09:21:21Z</time>
      </trkpt>
      <trkpt lat="45.08655" lon="0.62871">
        <ele>120.2</ele>
        <time>2022-04-03T09:21:22Z</time>
      </trkpt>
      <trkpt lat="45.08651" lon="0.62857">
        <ele>120.2</ele>
        <time>2022-04-03T09:21:24Z</time>
      </trkpt>
      <trkpt lat="45.0865" lon="0.62851">
        <ele>120.2</ele>
        <time>2022-04-03T09:21:25Z</time>
      </trkpt>
      <trkpt lat="45.08635" lon="0.6281">
        <ele>120.6</ele>
        <time>2022-04-03T09:21:32Z</time>
      </trkpt>
      <trkpt lat="45.08621" lon="0.62781">
        <ele>121.3</ele>
        <time>2022-04-03T09:21:38Z</time>
      </trkpt>
      <trkpt lat="45.08606" lon="0.62749">
        <ele>122</ele>
        <time>2022-04-03T09:21:45Z</time>
      </trkpt>
      <trkpt lat="45.08594" lon="0.62726">
        <ele>122.3</ele>
        <time>2022-04-03T09:21:50Z</time>
      </trkpt>
      <trkpt lat="45.08581" lon="0.62699">
        <ele>122.3</ele>
        <time>2022-04-03T09:21:56Z</time>
      </trkpt>
      <trkpt lat="45.08557" lon="0.62673">
        <ele>121.7</ele>
        <time>2022-04-03T09:22:03Z</time>
      </trkpt>
      <trkpt lat="45.08539" lon="0.62654">
        <ele>122.6</ele>
        <time>2022-04-03T09:22:09Z</time>
      </trkpt>
      <trkpt lat="45.08526" lon="0.62635">
        <ele>124.3</ele>
        <time>2022-04-03T09:22:15Z</time>
      </trkpt>
      <trkpt lat="45.0852" lon="0.62623">
        <ele>125.4</ele>
        <time>2022-04-03T09:22:22Z</time>
      </trkpt>
      <trkpt lat="45.0851" lon="0.62604">
        <ele>127.2</ele>
        <time>2022-04-03T09:22:31Z</time>
      </trkpt>
      <trkpt lat="45.08499" lon="0.6259">
        <ele>128.7</ele>
        <time>2022-04-03T09:22:39Z</time>
      </trkpt>
      <trkpt lat="45.08488" lon="0.62582">
        <ele>130.1</ele>
        <time>2022-04-03T09:22:47Z</time>
      </trkpt>
      <trkpt lat="45.08479" lon="0.62577">
        <ele>131.5</ele>
        <time>2022-04-03T09:22:54Z</time>
      </trkpt>
      <trkpt lat="45.08473" lon="0.62574">
        <ele>132.5</ele>
        <time>2022-04-03T09:22:59Z</time>
      </trkpt>
      <trkpt lat="45.08471" lon="0.62574">
        <ele>132.7</ele>
        <time>2022-04-03T09:23:00Z</time>
      </trkpt>
      <trkpt lat="45.08467" lon="0.62571">
        <ele>133.4</ele>
        <time>2022-04-03T09:23:05Z</time>
      </trkpt>
      <trkpt lat="45.08465" lon="0.62568">
        <ele>133.8</ele>
        <time>2022-04-03T09:23:07Z</time>
      </trkpt>
      <trkpt lat="45.08461" lon="0.62564">
        <ele>134.5</ele>
        <time>2022-04-03T09:23:10Z</time>
      </trkpt>
      <trkpt lat="45.08459" lon="0.62562">
        <ele>134.9</ele>
        <time>2022-04-03T09:23:12Z</time>
      </trkpt>
      <trkpt lat="45.08456" lon="0.62556">
        <ele>135.6</ele>
        <time>2022-04-03T09:23:16Z</time>
      </trkpt>
      <trkpt lat="45.08454" lon="0.62553">
        <ele>135.8</ele>
        <time>2022-04-03T09:23:18Z</time>
      </trkpt>
      <trkpt lat="45.08453" lon="0.6255">
        <ele>136.1</ele>
        <time>2022-04-03T09:23:20Z</time>
      </trkpt>
      <trkpt lat="45.08452" lon="0.62546">
        <ele>136.4</ele>
        <time>2022-04-03T09:23:22Z</time>
      </trkpt>
      <trkpt lat="45.08452" lon="0.62543">
        <ele>136.7</ele>
        <time>2022-04-03T09:23:24Z</time>
      </trkpt>
      <trkpt lat="45.08452" lon="0.62541">
        <ele>136.9</ele>
        <time>2022-04-03T09:23:25Z</time>
      </trkpt>
      <trkpt lat="45.08452" lon="0.62541">
        <ele>136.9</ele>
        <time>2022-04-03T09:23:26Z</time>
      </trkpt>
      <trkpt lat="45.08452" lon="0.62533">
        <ele>137.4</ele>
        <time>2022-04-03T09:23:29Z</time>
      </trkpt>
      <trkpt lat="45.08452" lon="0.62522">
        <ele>138.2</ele>
        <time>2022-04-03T09:23:35Z</time>
      </trkpt>
      <trkpt lat="45.08452" lon="0.62515">
        <ele>138.6</ele>
        <time>2022-04-03T09:23:39Z</time>
      </trkpt>
      <trkpt lat="45.08452" lon="0.62511">
        <ele>138.9</ele>
        <time>2022-04-03T09:23:41Z</time>
      </trkpt>
      <trkpt lat="45.08452" lon="0.62503">
        <ele>139.4</ele>
        <time>2022-04-03T09:23:44Z</time>
      </trkpt>
      <trkpt lat="45.08451" lon="0.6249">
        <ele>140.2</ele>
        <time>2022-04-03T09:23:50Z</time>
      </trkpt>
      <trkpt lat="45.0845" lon="0.62478">
        <ele>140.8</ele>
        <time>2022-04-03T09:23:55Z</time>
      </trkpt>
      <trkpt lat="45.0845" lon="0.62476">
        <ele>140.9</ele>
        <time>2022-04-03T09:23:56Z</time>
      </trkpt>
      <trkpt lat="45.08449" lon="0.62467">
        <ele>141.3</ele>
        <time>2022-04-03T09:24:00Z</time>
      </trkpt>
      <trkpt lat="45.08448" lon="0.62461">
        <ele>141.6</ele>
        <time>2022-04-03T09:24:03Z</time>
      </trkpt>
      <trkpt lat="45.08447" lon="0.62458">
        <ele>141.7</ele>
        <time>2022-04-03T09:24:04Z</time>
      </trkpt>
      <trkpt lat="45.08445" lon="0.62445">
        <ele>142.2</ele>
        <time>2022-04-03T09:24:09Z</time>
      </trkpt>
      <trkpt lat="45.08443" lon="0.62439">
        <ele>142.5</ele>
        <time>2022-04-03T09:24:11Z</time>
      </trkpt>
      <trkpt lat="45.08443" lon="0.62433">
        <ele>142.8</ele>
        <time>2022-04-03T09:24:13Z</time>
      </trkpt>
      <trkpt lat="45.0844" lon="0.6242">
        <ele>143.7</ele>
        <time>2022-04-03T09:24:18Z</time>
      </trkpt>
      <trkpt lat="45.08437" lon="0.62412">
        <ele>144.3</ele>
        <time>2022-04-03T09:24:22Z</time>
      </trkpt>
      <trkpt lat="45.08429" lon="0.62398">
        <ele>145.6</ele>
        <time>2022-04-03T09:24:29Z</time>
      </trkpt>
      <trkpt lat="45.08425" lon="0.62387">
        <ele>146.6</ele>
        <time>2022-04-03T09:24:34Z</time>
      </trkpt>
      <trkpt lat="45.0842" lon="0.62372">
        <ele>147.6</ele>
        <time>2022-04-03T09:24:41Z</time>
      </trkpt>
      <trkpt lat="45.08415" lon="0.62359">
        <ele>148.6</ele>
        <time>2022-04-03T09:24:47Z</time>
      </trkpt>
      <trkpt lat="45.08411" lon="0.62346">
        <ele>149.5</ele>
        <time>2022-04-03T09:24:53Z</time>
      </trkpt>
      <trkpt lat="45.08408" lon="0.62338">
        <ele>150.1</ele>
        <time>2022-04-03T09:24:58Z</time>
      </trkpt>
      <trkpt lat="45.08405" lon="0.62332">
        <ele>150.4</ele>
        <time>2022-04-03T09:25:01Z</time>
      </trkpt>
      <trkpt lat="45.08405" lon="0.62331">
        <ele>150.5</ele>
        <time>2022-04-03T09:25:02Z</time>
      </trkpt>
      <trkpt lat="45.08404" lon="0.62329">
        <ele>150.7</ele>
        <time>2022-04-03T09:25:03Z</time>
      </trkpt>
      <trkpt lat="45.08402" lon="0.62324">
        <ele>151.1</ele>
        <time>2022-04-03T09:25:07Z</time>
      </trkpt>
      <trkpt lat="45.08398" lon="0.62317">
        <ele>151.6</ele>
        <time>2022-04-03T09:25:13Z</time>
      </trkpt>
      <trkpt lat="45.08397" lon="0.62314">
        <ele>151.8</ele>
        <time>2022-04-03T09:25:15Z</time>
      </trkpt>
      <trkpt lat="45.08394" lon="0.62306">
        <ele>152.4</ele>
        <time>2022-04-03T09:25:19Z</time>
      </trkpt>
      <trkpt lat="45.08387" lon="0.62292">
        <ele>153.5</ele>
        <time>2022-04-03T09:25:25Z</time>
      </trkpt>
      <trkpt lat="45.08384" lon="0.62287">
        <ele>153.8</ele>
        <time>2022-04-03T09:25:27Z</time>
      </trkpt>
      <trkpt lat="45.08377" lon="0.62276">
        <ele>154.7</ele>
        <time>2022-04-03T09:25:32Z</time>
      </trkpt>
      <trkpt lat="45.08368" lon="0.62272">
        <ele>155.5</ele>
        <time>2022-04-03T09:25:38Z</time>
      </trkpt>
      <trkpt lat="45.08364" lon="0.6227">
        <ele>156</ele>
        <time>2022-04-03T09:25:41Z</time>
      </trkpt>
      <trkpt lat="45.0836" lon="0.62269">
        <ele>156.3</ele>
        <time>2022-04-03T09:25:43Z</time>
      </trkpt>
      <trkpt lat="45.08358" lon="0.62268">
        <ele>156.5</ele>
        <time>2022-04-03T09:25:44Z</time>
      </trkpt>
      <trkpt lat="45.08355" lon="0.62267">
        <ele>156.8</ele>
        <time>2022-04-03T09:25:46Z</time>
      </trkpt>
      <trkpt lat="45.08354" lon="0.62266">
        <ele>156.9</ele>
        <time>2022-04-03T09:25:47Z</time>
      </trkpt>
      <trkpt lat="45.08349" lon="0.62263">
        <ele>157.5</ele>
        <time>2022-04-03T09:25:52Z</time>
      </trkpt>
      <trkpt lat="45.08348" lon="0.62262">
        <ele>157.6</ele>
        <time>2022-04-03T09:25:53Z</time>
      </trkpt>
      <trkpt lat="45.08343" lon="0.62259">
        <ele>158.1</ele>
        <time>2022-04-03T09:25:56Z</time>
      </trkpt>
      <trkpt lat="45.08342" lon="0.62259">
        <ele>158.2</ele>
        <time>2022-04-03T09:25:57Z</time>
      </trkpt>
      <trkpt lat="45.08336" lon="0.62255">
        <ele>158.8</ele>
        <time>2022-04-03T09:26:02Z</time>
      </trkpt>
      <trkpt lat="45.0833" lon="0.62245">
        <ele>159.6</ele>
        <time>2022-04-03T09:26:08Z</time>
      </trkpt>
      <trkpt lat="45.08326" lon="0.62237">
        <ele>160</ele>
        <time>2022-04-03T09:26:12Z</time>
      </trkpt>
      <trkpt lat="45.08324" lon="0.62231">
        <ele>160.1</ele>
        <time>2022-04-03T09:26:14Z</time>
      </trkpt>
      <trkpt lat="45.08322" lon="0.62226">
        <ele>160.2</ele>
        <time>2022-04-03T09:26:16Z</time>
      </trkpt>
      <trkpt lat="45.08317" lon="0.62211">
        <ele>160.5</ele>
        <time>2022-04-03T09:26:22Z</time>
      </trkpt>
      <trkpt lat="45.08313" lon="0.62198">
        <ele>160.5</ele>
        <time>2022-04-03T09:26:26Z</time>
      </trkpt>
      <trkpt lat="45.08307" lon="0.62181">
        <ele>160.4</ele>
        <time>2022-04-03T09:26:31Z</time>
      </trkpt>
      <trkpt lat="45.08302" lon="0.62169">
        <ele>160.3</ele>
        <time>2022-04-03T09:26:34Z</time>
      </trkpt>
      <trkpt lat="45.08301" lon="0.62167">
        <ele>160.3</ele>
        <time>2022-04-03T09:26:35Z</time>
      </trkpt>
      <trkpt lat="45.083" lon="0.62165">
        <ele>160.3</ele>
        <time>2022-04-03T09:26:36Z</time>
      </trkpt>
      <trkpt lat="45.08298" lon="0.62159">
        <ele>160.3</ele>
        <time>2022-04-03T09:26:38Z</time>
      </trkpt>
      <trkpt lat="45.08292" lon="0.62146">
        <ele>160.4</ele>
        <time>2022-04-03T09:26:42Z</time>
      </trkpt>
      <trkpt lat="45.08291" lon="0.62143">
        <ele>160.5</ele>
        <time>2022-04-03T09:26:43Z</time>
      </trkpt>
      <trkpt lat="45.08288" lon="0.62137">
        <ele>160.6</ele>
        <time>2022-04-03T09:26:45Z</time>
      </trkpt>
      <trkpt lat="45.08288" lon="0.62135">
        <ele>160.6</ele>
        <time>2022-04-03T09:26:46Z</time>
      </trkpt>
      <trkpt lat="45.08282" lon="0.62124">
        <ele>160.9</ele>
        <time>2022-04-03T09:26:50Z</time>
      </trkpt>
      <trkpt lat="45.0828" lon="0.62121">
        <ele>161</ele>
        <time>2022-04-03T09:26:51Z</time>
      </trkpt>
      <trkpt lat="45.08274" lon="0.62111">
        <ele>161.3</ele>
        <time>2022-04-03T09:26:54Z</time>
      </trkpt>
      <trkpt lat="45.08269" lon="0.62102">
        <ele>161.5</ele>
        <time>2022-04-03T09:26:57Z</time>
      </trkpt>
      <trkpt lat="45.08263" lon="0.62088">
        <ele>161.9</ele>
        <time>2022-04-03T09:27:01Z</time>
      </trkpt>
      <trkpt lat="45.08255" lon="0.62071">
        <ele>162.5</ele>
        <time>2022-04-03T09:27:05Z</time>
      </trkpt>
      <trkpt lat="45.08251" lon="0.62064">
        <ele>162.9</ele>
        <time>2022-04-03T09:27:08Z</time>
      </trkpt>
      <trkpt lat="45.0825" lon="0.62063">
        <ele>163</ele>
        <time>2022-04-03T09:27:09Z</time>
      </trkpt>
      <trkpt lat="45.08245" lon="0.62054">
        <ele>163.7</ele>
        <time>2022-04-03T09:27:13Z</time>
      </trkpt>
      <trkpt lat="45.08238" lon="0.62042">
        <ele>164.7</ele>
        <time>2022-04-03T09:27:18Z</time>
      </trkpt>
      <trkpt lat="45.08233" lon="0.62034">
        <ele>165.5</ele>
        <time>2022-04-03T09:27:22Z</time>
      </trkpt>
      <trkpt lat="45.08242" lon="0.62003">
        <ele>167</ele>
        <time>2022-04-03T09:27:25Z</time>
      </trkpt>
      <trkpt lat="45.08283" lon="0.61991">
        <ele>164</ele>
        <time>2022-04-03T09:27:32Z</time>
      </trkpt>
      <trkpt lat="45.08318" lon="0.61977">
        <ele>161.4</ele>
        <time>2022-04-03T09:27:37Z</time>
      </trkpt>
      <trkpt lat="45.08357" lon="0.61958">
        <ele>158.5</ele>
        <time>2022-04-03T09:27:42Z</time>
      </trkpt>
      <trkpt lat="45.08413" lon="0.61939">
        <ele>154.3</ele>
        <time>2022-04-03T09:27:48Z</time>
      </trkpt>
      <trkpt lat="45.08459" lon="0.61931">
        <ele>151</ele>
        <time>2022-04-03T09:27:52Z</time>
      </trkpt>
      <trkpt lat="45.08519" lon="0.61921">
        <ele>146.7</ele>
        <time>2022-04-03T09:27:57Z</time>
      </trkpt>
      <trkpt lat="45.08528" lon="0.61919">
        <ele>146</ele>
        <time>2022-04-03T09:27:58Z</time>
      </trkpt>
      <trkpt lat="45.08541" lon="0.61911">
        <ele>145.1</ele>
        <time>2022-04-03T09:28:00Z</time>
      </trkpt>
      <trkpt lat="45.08542" lon="0.61895">
        <ele>144.3</ele>
        <time>2022-04-03T09:28:02Z</time>
      </trkpt>
      <trkpt lat="45.08541" lon="0.61888">
        <ele>143.9</ele>
        <time>2022-04-03T09:28:03Z</time>
      </trkpt>
      <trkpt lat="45.08537" lon="0.61838">
        <ele>141.4</ele>
        <time>2022-04-03T09:28:10Z</time>
      </trkpt>
      <trkpt lat="45.08531" lon="0.61783">
        <ele>138.5</ele>
        <time>2022-04-03T09:28:18Z</time>
      </trkpt>
      <trkpt lat="45.08526" lon="0.61734">
        <ele>136</ele>
        <time>2022-04-03T09:28:25Z</time>
      </trkpt>
      <trkpt lat="45.08522" lon="0.61707">
        <ele>134.6</ele>
        <time>2022-04-03T09:28:29Z</time>
      </trkpt>
      <trkpt lat="45.08518" lon="0.61694">
        <ele>133.9</ele>
        <time>2022-04-03T09:28:31Z</time>
      </trkpt>
      <trkpt lat="45.0851" lon="0.61657">
        <ele>132</ele>
        <time>2022-04-03T09:28:37Z</time>
      </trkpt>
      <trkpt lat="45.08505" lon="0.61627">
        <ele>130.4</ele>
        <time>2022-04-03T09:28:43Z</time>
      </trkpt>
      <trkpt lat="45.08503" lon="0.61598">
        <ele>128.9</ele>
        <time>2022-04-03T09:28:49Z</time>
      </trkpt>
      <trkpt lat="45.08502" lon="0.61573">
        <ele>127.7</ele>
        <time>2022-04-03T09:28:54Z</time>
      </trkpt>
      <trkpt lat="45.08505" lon="0.61572">
        <ele>127.4</ele>
        <time>2022-04-03T09:28:56Z</time>
      </trkpt>
      <trkpt lat="45.08509" lon="0.61571">
        <ele>127.1</ele>
        <time>2022-04-03T09:28:57Z</time>
      </trkpt>
      <trkpt lat="45.08537" lon="0.61565">
        <ele>125.1</ele>
        <time>2022-04-03T09:29:02Z</time>
      </trkpt>
      <trkpt lat="45.08578" lon="0.61561">
        <ele>122.2</ele>
        <time>2022-04-03T09:29:08Z</time>
      </trkpt>
      <trkpt lat="45.08593" lon="0.61561">
        <ele>121.1</ele>
        <time>2022-04-03T09:29:10Z</time>
      </trkpt>
      <trkpt lat="45.08608" lon="0.6156">
        <ele>120</ele>
        <time>2022-04-03T09:29:12Z</time>
      </trkpt>
      <trkpt lat="45.08626" lon="0.61577">
        <ele>118.5</ele>
        <time>2022-04-03T09:29:15Z</time>
      </trkpt>
      <trkpt lat="45.08635" lon="0.61582">
        <ele>117.8</ele>
        <time>2022-04-03T09:29:17Z</time>
      </trkpt>
      <trkpt lat="45.0864" lon="0.61583">
        <ele>117.5</ele>
        <time>2022-04-03T09:29:18Z</time>
      </trkpt>
      <trkpt lat="45.08655" lon="0.61582">
        <ele>116.3</ele>
        <time>2022-04-03T09:29:21Z</time>
      </trkpt>
      <trkpt lat="45.08664" lon="0.61581">
        <ele>115.7</ele>
        <time>2022-04-03T09:29:23Z</time>
      </trkpt>
      <trkpt lat="45.08668" lon="0.6158">
        <ele>115.4</ele>
        <time>2022-04-03T09:29:24Z</time>
      </trkpt>
      <trkpt lat="45.08676" lon="0.61575">
        <ele>114.7</ele>
        <time>2022-04-03T09:29:27Z</time>
      </trkpt>
      <trkpt lat="45.0868" lon="0.61573">
        <ele>113.1</ele>
        <time>2022-04-03T09:29:31Z</time>
      </trkpt>
      <trkpt lat="45.0868" lon="0.61573">
        <ele>111.5</ele>
        <time>2022-04-03T09:29:36Z</time>
      </trkpt>
      <trkpt lat="45.08721" lon="0.61575">
        <ele>113.1</ele>
        <time>2022-04-03T09:29:43Z</time>
      </trkpt>
      <trkpt lat="45.08734" lon="0.61573">
        <ele>114</ele>
        <time>2022-04-03T09:29:50Z</time>
      </trkpt>
      <trkpt lat="45.08735" lon="0.61573">
        <ele>112.3</ele>
        <time>2022-04-03T09:29:53Z</time>
      </trkpt>
      <trkpt lat="45.08744" lon="0.61566">
        <ele>110.7</ele>
        <time>2022-04-03T09:34:10Z</time>
      </trkpt>
      <trkpt lat="45.08741" lon="0.61546">
        <ele>110.7</ele>
        <time>2022-04-03T09:34:16Z</time>
      </trkpt>
      <trkpt lat="45.08737" lon="0.61504">
        <ele>110.5</ele>
        <time>2022-04-03T09:34:24Z</time>
      </trkpt>
      <trkpt lat="45.08733" lon="0.6145">
        <ele>110.2</ele>
        <time>2022-04-03T09:34:33Z</time>
      </trkpt>
      <trkpt lat="45.08735" lon="0.61394">
        <ele>109.5</ele>
        <time>2022-04-03T09:34:41Z</time>
      </trkpt>
      <trkpt lat="45.08741" lon="0.61343">
        <ele>108.6</ele>
        <time>2022-04-03T09:34:48Z</time>
      </trkpt>
      <trkpt lat="45.08749" lon="0.61275">
        <ele>107.5</ele>
        <time>2022-04-03T09:34:57Z</time>
      </trkpt>
      <trkpt lat="45.08752" lon="0.61246">
        <ele>107</ele>
        <time>2022-04-03T09:35:01Z</time>
      </trkpt>
      <trkpt lat="45.08756" lon="0.61232">
        <ele>106.9</ele>
        <time>2022-04-03T09:35:03Z</time>
      </trkpt>
      <trkpt lat="45.0877" lon="0.61182">
        <ele>105.5</ele>
        <time>2022-04-03T09:35:10Z</time>
      </trkpt>
      <trkpt lat="45.0879" lon="0.61129">
        <ele>103.7</ele>
        <time>2022-04-03T09:35:17Z</time>
      </trkpt>
      <trkpt lat="45.08793" lon="0.61121">
        <ele>103.5</ele>
        <time>2022-04-03T09:35:18Z</time>
      </trkpt>
      <trkpt lat="45.08801" lon="0.6109">
        <ele>103.2</ele>
        <time>2022-04-03T09:35:22Z</time>
      </trkpt>
      <trkpt lat="45.08802" lon="0.61082">
        <ele>103.1</ele>
        <time>2022-04-03T09:35:23Z</time>
      </trkpt>
      <trkpt lat="45.08804" lon="0.61069">
        <ele>103</ele>
        <time>2022-04-03T09:35:25Z</time>
      </trkpt>
      <trkpt lat="45.08832" lon="0.61042">
        <ele>105.1</ele>
        <time>2022-04-03T09:35:32Z</time>
      </trkpt>
      <trkpt lat="45.08846" lon="0.61025">
        <ele>106.8</ele>
        <time>2022-04-03T09:35:38Z</time>
      </trkpt>
      <trkpt lat="45.08852" lon="0.61019">
        <ele>107.5</ele>
        <time>2022-04-03T09:35:43Z</time>
      </trkpt>
      <trkpt lat="45.08852" lon="0.61019">
        <ele>107.5</ele>
        <time>2022-04-03T09:35:44Z</time>
      </trkpt>
      <trkpt lat="45.08858" lon="0.61013">
        <ele>108</ele>
        <time>2022-04-03T09:40:27Z</time>
      </trkpt>
      <trkpt lat="45.08861" lon="0.6101">
        <ele>108.2</ele>
        <time>2022-04-03T09:40:29Z</time>
      </trkpt>
      <trkpt lat="45.08875" lon="0.60997">
        <ele>109.3</ele>
        <time>2022-04-03T09:40:36Z</time>
      </trkpt>
      <trkpt lat="45.08898" lon="0.60977">
        <ele>111</ele>
        <time>2022-04-03T09:40:46Z</time>
      </trkpt>
      <trkpt lat="45.08911" lon="0.60966">
        <ele>112.3</ele>
        <time>2022-04-03T09:40:52Z</time>
      </trkpt>
      <trkpt lat="45.08916" lon="0.60961">
        <ele>112.9</ele>
        <time>2022-04-03T09:40:55Z</time>
      </trkpt>
      <trkpt lat="45.08918" lon="0.60959">
        <ele>113.1</ele>
        <time>2022-04-03T09:40:56Z</time>
      </trkpt>
      <trkpt lat="45.08926" lon="0.60952">
        <ele>114.2</ele>
        <time>2022-04-03T09:41:01Z</time>
      </trkpt>
      <trkpt lat="45.08931" lon="0.60947">
        <ele>114.8</ele>
        <time>2022-04-03T09:41:04Z</time>
      </trkpt>
      <trkpt lat="45.08936" lon="0.60943">
        <ele>115.3</ele>
        <time>2022-04-03T09:41:06Z</time>
      </trkpt>
      <trkpt lat="45.08939" lon="0.6094">
        <ele>115.6</ele>
        <time>2022-04-03T09:41:08Z</time>
      </trkpt>
      <trkpt lat="45.08945" lon="0.60935">
        <ele>116.1</ele>
        <time>2022-04-03T09:41:12Z</time>
      </trkpt>
      <trkpt lat="45.08949" lon="0.60931">
        <ele>116.5</ele>
        <time>2022-04-03T09:41:14Z</time>
      </trkpt>
      <trkpt lat="45.08955" lon="0.60926">
        <ele>117.2</ele>
        <time>2022-04-03T09:41:17Z</time>
      </trkpt>
      <trkpt lat="45.08961" lon="0.60921">
        <ele>117.9</ele>
        <time>2022-04-03T09:41:21Z</time>
      </trkpt>
      <trkpt lat="45.08964" lon="0.60918">
        <ele>118.3</ele>
        <time>2022-04-03T09:41:23Z</time>
      </trkpt>
      <trkpt lat="45.08968" lon="0.60916">
        <ele>118.7</ele>
        <time>2022-04-03T09:41:25Z</time>
      </trkpt>
      <trkpt lat="45.08974" lon="0.60912">
        <ele>119.3</ele>
        <time>2022-04-03T09:41:28Z</time>
      </trkpt>
      <trkpt lat="45.08977" lon="0.60909">
        <ele>119.7</ele>
        <time>2022-04-03T09:41:30Z</time>
      </trkpt>
      <trkpt lat="45.08986" lon="0.60902">
        <ele>120.6</ele>
        <time>2022-04-03T09:41:36Z</time>
      </trkpt>
      <trkpt lat="45.0899" lon="0.60899">
        <ele>120.9</ele>
        <time>2022-04-03T09:41:38Z</time>
      </trkpt>
      <trkpt lat="45.08991" lon="0.60898">
        <ele>121</ele>
        <time>2022-04-03T09:41:40Z</time>
      </trkpt>
      <trkpt lat="45.08995" lon="0.60895">
        <ele>121.4</ele>
        <time>2022-04-03T09:41:43Z</time>
      </trkpt>
      <trkpt lat="45.08999" lon="0.60892">
        <ele>121.8</ele>
        <time>2022-04-03T09:41:45Z</time>
      </trkpt>
      <trkpt lat="45.09002" lon="0.6089">
        <ele>122</ele>
        <time>2022-04-03T09:41:50Z</time>
      </trkpt>
      <trkpt lat="45.09002" lon="0.6089">
        <ele>122</ele>
        <time>2022-04-03T09:41:51Z</time>
      </trkpt>
      <trkpt lat="45.09002" lon="0.6089">
        <ele>122</ele>
        <time>2022-04-03T09:41:55Z</time>
      </trkpt>
      <trkpt lat="45.09002" lon="0.6089">
        <ele>122</ele>
        <time>2022-04-03T09:41:59Z</time>
      </trkpt>
      <trkpt lat="45.09024" lon="0.60857">
        <ele>124.4</ele>
        <time>2022-04-03T09:42:05Z</time>
      </trkpt>
      <trkpt lat="45.09023" lon="0.60855">
        <ele>124.5</ele>
        <time>2022-04-03T09:42:07Z</time>
      </trkpt>
      <trkpt lat="45.09023" lon="0.60854">
        <ele>124.5</ele>
        <time>2022-04-03T09:42:08Z</time>
      </trkpt>
      <trkpt lat="45.09024" lon="0.60849">
        <ele>124.8</ele>
        <time>2022-04-03T09:42:12Z</time>
      </trkpt>
      <trkpt lat="45.09027" lon="0.60846">
        <ele>125</ele>
        <time>2022-04-03T09:42:15Z</time>
      </trkpt>
      <trkpt lat="45.09033" lon="0.60837">
        <ele>125.6</ele>
        <time>2022-04-03T09:42:45Z</time>
      </trkpt>
      <trkpt lat="45.09035" lon="0.60835">
        <ele>125.7</ele>
        <time>2022-04-03T09:42:46Z</time>
      </trkpt>
      <trkpt lat="45.09052" lon="0.60823">
        <ele>127.5</ele>
        <time>2022-04-03T09:42:51Z</time>
      </trkpt>
      <trkpt lat="45.09062" lon="0.60816">
        <ele>128.2</ele>
        <time>2022-04-03T09:42:55Z</time>
      </trkpt>
      <trkpt lat="45.09066" lon="0.60819">
        <ele>128.4</ele>
        <time>2022-04-03T09:42:57Z</time>
      </trkpt>
      <trkpt lat="45.09069" lon="0.60815">
        <ele>128.5</ele>
        <time>2022-04-03T09:42:59Z</time>
      </trkpt>
      <trkpt lat="45.09075" lon="0.60809">
        <ele>128.8</ele>
        <time>2022-04-03T09:43:01Z</time>
      </trkpt>
      <trkpt lat="45.09078" lon="0.60806">
        <ele>128.9</ele>
        <time>2022-04-03T09:43:02Z</time>
      </trkpt>
      <trkpt lat="45.09091" lon="0.60791">
        <ele>129.9</ele>
        <time>2022-04-03T09:43:06Z</time>
      </trkpt>
      <trkpt lat="45.09094" lon="0.60788">
        <ele>130.2</ele>
        <time>2022-04-03T09:43:07Z</time>
      </trkpt>
      <trkpt lat="45.09102" lon="0.60779">
        <ele>130.8</ele>
        <time>2022-04-03T09:43:09Z</time>
      </trkpt>
      <trkpt lat="45.09112" lon="0.60767">
        <ele>131.3</ele>
        <time>2022-04-03T09:43:13Z</time>
      </trkpt>
      <trkpt lat="45.09119" lon="0.6076">
        <ele>131.6</ele>
        <time>2022-04-03T09:43:15Z</time>
      </trkpt>
      <trkpt lat="45.09125" lon="0.60753">
        <ele>131.9</ele>
        <time>2022-04-03T09:43:17Z</time>
      </trkpt>
      <trkpt lat="45.09132" lon="0.60745">
        <ele>132.2</ele>
        <time>2022-04-03T09:43:20Z</time>
      </trkpt>
      <trkpt lat="45.09145" lon="0.6073">
        <ele>133</ele>
        <time>2022-04-03T09:43:24Z</time>
      </trkpt>
      <trkpt lat="45.09148" lon="0.60727">
        <ele>133.1</ele>
        <time>2022-04-03T09:43:25Z</time>
      </trkpt>
      <trkpt lat="45.09151" lon="0.60723">
        <ele>133.3</ele>
        <time>2022-04-03T09:43:27Z</time>
      </trkpt>
      <trkpt lat="45.09152" lon="0.60722">
        <ele>133.3</ele>
        <time>2022-04-03T09:43:28Z</time>
      </trkpt>
      <trkpt lat="45.09161" lon="0.60712">
        <ele>133.8</ele>
        <time>2022-04-03T09:43:31Z</time>
      </trkpt>
      <trkpt lat="45.09165" lon="0.60708">
        <ele>134</ele>
        <time>2022-04-03T09:43:32Z</time>
      </trkpt>
      <trkpt lat="45.09168" lon="0.60704">
        <ele>134.2</ele>
        <time>2022-04-03T09:43:33Z</time>
      </trkpt>
      <trkpt lat="45.09171" lon="0.60701">
        <ele>134.4</ele>
        <time>2022-04-03T09:43:34Z</time>
      </trkpt>
      <trkpt lat="45.09175" lon="0.60697">
        <ele>134.6</ele>
        <time>2022-04-03T09:43:36Z</time>
      </trkpt>
      <trkpt lat="45.09176" lon="0.60695">
        <ele>134.7</ele>
        <time>2022-04-03T09:43:37Z</time>
      </trkpt>
      <trkpt lat="45.09181" lon="0.6069">
        <ele>135</ele>
        <time>2022-04-03T09:43:39Z</time>
      </trkpt>
      <trkpt lat="45.0919" lon="0.60677">
        <ele>135.8</ele>
        <time>2022-04-03T09:43:43Z</time>
      </trkpt>
      <trkpt lat="45.092" lon="0.60663">
        <ele>136.7</ele>
        <time>2022-04-03T09:43:47Z</time>
      </trkpt>
      <trkpt lat="45.09203" lon="0.60658">
        <ele>137</ele>
        <time>2022-04-03T09:43:48Z</time>
      </trkpt>
      <trkpt lat="45.09217" lon="0.60639">
        <ele>138.4</ele>
        <time>2022-04-03T09:43:52Z</time>
      </trkpt>
      <trkpt lat="45.09219" lon="0.60635">
        <ele>138.5</ele>
        <time>2022-04-03T09:43:53Z</time>
      </trkpt>
      <trkpt lat="45.09225" lon="0.60627">
        <ele>138.9</ele>
        <time>2022-04-03T09:43:56Z</time>
      </trkpt>
      <trkpt lat="45.09227" lon="0.60625">
        <ele>139</ele>
        <time>2022-04-03T09:43:57Z</time>
      </trkpt>
      <trkpt lat="45.09232" lon="0.60617">
        <ele>139.4</ele>
        <time>2022-04-03T09:43:59Z</time>
      </trkpt>
      <trkpt lat="45.0924" lon="0.60603">
        <ele>140.3</ele>
        <time>2022-04-03T09:44:03Z</time>
      </trkpt>
      <trkpt lat="45.09242" lon="0.60595">
        <ele>140.8</ele>
        <time>2022-04-03T09:44:05Z</time>
      </trkpt>
      <trkpt lat="45.09245" lon="0.60586">
        <ele>141.2</ele>
        <time>2022-04-03T09:44:07Z</time>
      </trkpt>
      <trkpt lat="45.09248" lon="0.60578">
        <ele>141.7</ele>
        <time>2022-04-03T09:44:09Z</time>
      </trkpt>
      <trkpt lat="45.0925" lon="0.6057">
        <ele>142.1</ele>
        <time>2022-04-03T09:44:11Z</time>
      </trkpt>
      <trkpt lat="45.09258" lon="0.60546">
        <ele>143.5</ele>
        <time>2022-04-03T09:44:16Z</time>
      </trkpt>
      <trkpt lat="45.09261" lon="0.60537">
        <ele>144.2</ele>
        <time>2022-04-03T09:44:18Z</time>
      </trkpt>
      <trkpt lat="45.09263" lon="0.60529">
        <ele>144.7</ele>
        <time>2022-04-03T09:44:20Z</time>
      </trkpt>
      <trkpt lat="45.09266" lon="0.6052">
        <ele>145.3</ele>
        <time>2022-04-03T09:44:23Z</time>
      </trkpt>
      <trkpt lat="45.09267" lon="0.60517">
        <ele>145.5</ele>
        <time>2022-04-03T09:44:24Z</time>
      </trkpt>
      <trkpt lat="45.09272" lon="0.60502">
        <ele>146.7</ele>
        <time>2022-04-03T09:44:29Z</time>
      </trkpt>
      <trkpt lat="45.09276" lon="0.60489">
        <ele>147.8</ele>
        <time>2022-04-03T09:44:34Z</time>
      </trkpt>
      <trkpt lat="45.09278" lon="0.60483">
        <ele>148.3</ele>
        <time>2022-04-03T09:44:36Z</time>
      </trkpt>
      <trkpt lat="45.09279" lon="0.60479">
        <ele>148.8</ele>
        <time>2022-04-03T09:44:38Z</time>
      </trkpt>
      <trkpt lat="45.09281" lon="0.60473">
        <ele>149.3</ele>
        <time>2022-04-03T09:44:40Z</time>
      </trkpt>
      <trkpt lat="45.09285" lon="0.60461">
        <ele>150.6</ele>
        <time>2022-04-03T09:44:43Z</time>
      </trkpt>
      <trkpt lat="45.09285" lon="0.60457">
        <ele>151.1</ele>
        <time>2022-04-03T09:44:47Z</time>
      </trkpt>
      <trkpt lat="45.09284" lon="0.60461">
        <ele>151.5</ele>
        <time>2022-04-03T09:44:48Z</time>
      </trkpt>
      <trkpt lat="45.09283" lon="0.60461">
        <ele>151.7</ele>
        <time>2022-04-03T09:44:49Z</time>
      </trkpt>
      <trkpt lat="45.09285" lon="0.60445">
        <ele>153</ele>
        <time>2022-04-03T09:44:52Z</time>
      </trkpt>
      <trkpt lat="45.09285" lon="0.60441">
        <ele>153.3</ele>
        <time>2022-04-03T09:44:54Z</time>
      </trkpt>
      <trkpt lat="45.09286" lon="0.60437">
        <ele>153.7</ele>
        <time>2022-04-03T09:44:56Z</time>
      </trkpt>
      <trkpt lat="45.09286" lon="0.60434">
        <ele>154</ele>
        <time>2022-04-03T09:44:58Z</time>
      </trkpt>
      <trkpt lat="45.09286" lon="0.6043">
        <ele>154.3</ele>
        <time>2022-04-03T09:45:00Z</time>
      </trkpt>
      <trkpt lat="45.09286" lon="0.60428">
        <ele>154.4</ele>
        <time>2022-04-03T09:45:01Z</time>
      </trkpt>
      <trkpt lat="45.09286" lon="0.60425">
        <ele>154.7</ele>
        <time>2022-04-03T09:45:02Z</time>
      </trkpt>
      <trkpt lat="45.09286" lon="0.6042">
        <ele>155.2</ele>
        <time>2022-04-03T09:45:05Z</time>
      </trkpt>
      <trkpt lat="45.09286" lon="0.60416">
        <ele>155.7</ele>
        <time>2022-04-03T09:45:07Z</time>
      </trkpt>
      <trkpt lat="45.09286" lon="0.6041">
        <ele>156.2</ele>
        <time>2022-04-03T09:45:09Z</time>
      </trkpt>
      <trkpt lat="45.09287" lon="0.60401">
        <ele>157.2</ele>
        <time>2022-04-03T09:45:13Z</time>
      </trkpt>
      <trkpt lat="45.09287" lon="0.60392">
        <ele>158.1</ele>
        <time>2022-04-03T09:45:17Z</time>
      </trkpt>
      <trkpt lat="45.09288" lon="0.60384">
        <ele>158.8</ele>
        <time>2022-04-03T09:45:21Z</time>
      </trkpt>
      <trkpt lat="45.09289" lon="0.60382">
        <ele>159</ele>
        <time>2022-04-03T09:45:22Z</time>
      </trkpt>
      <trkpt lat="45.0929" lon="0.60376">
        <ele>159.6</ele>
        <time>2022-04-03T09:45:26Z</time>
      </trkpt>
      <trkpt lat="45.0929" lon="0.60372">
        <ele>159.9</ele>
        <time>2022-04-03T09:45:28Z</time>
      </trkpt>
      <trkpt lat="45.09291" lon="0.60364">
        <ele>160.5</ele>
        <time>2022-04-03T09:45:31Z</time>
      </trkpt>
      <trkpt lat="45.09293" lon="0.60356">
        <ele>161.1</ele>
        <time>2022-04-03T09:45:35Z</time>
      </trkpt>
      <trkpt lat="45.09293" lon="0.60346">
        <ele>161.9</ele>
        <time>2022-04-03T09:45:40Z</time>
      </trkpt>
      <trkpt lat="45.09293" lon="0.60345">
        <ele>162</ele>
        <time>2022-04-03T09:45:41Z</time>
      </trkpt>
      <trkpt lat="45.09293" lon="0.60343">
        <ele>162.1</ele>
        <time>2022-04-03T09:45:42Z</time>
      </trkpt>
      <trkpt lat="45.09293" lon="0.60336">
        <ele>162.6</ele>
        <time>2022-04-03T09:45:46Z</time>
      </trkpt>
      <trkpt lat="45.09293" lon="0.60328">
        <ele>163.2</ele>
        <time>2022-04-03T09:45:50Z</time>
      </trkpt>
      <trkpt lat="45.09293" lon="0.60326">
        <ele>163.4</ele>
        <time>2022-04-03T09:45:51Z</time>
      </trkpt>
      <trkpt lat="45.09293" lon="0.60322">
        <ele>163.7</ele>
        <time>2022-04-03T09:45:53Z</time>
      </trkpt>
      <trkpt lat="45.09294" lon="0.60313">
        <ele>164.4</ele>
        <time>2022-04-03T09:45:57Z</time>
      </trkpt>
      <trkpt lat="45.09294" lon="0.60307">
        <ele>165</ele>
        <time>2022-04-03T09:46:01Z</time>
      </trkpt>
      <trkpt lat="45.09294" lon="0.60305">
        <ele>165.1</ele>
        <time>2022-04-03T09:46:02Z</time>
      </trkpt>
      <trkpt lat="45.09295" lon="0.60296">
        <ele>166.1</ele>
        <time>2022-04-03T09:46:07Z</time>
      </trkpt>
      <trkpt lat="45.09295" lon="0.60295">
        <ele>166.2</ele>
        <time>2022-04-03T09:46:08Z</time>
      </trkpt>
      <trkpt lat="45.09295" lon="0.60293">
        <ele>166.4</ele>
        <time>2022-04-03T09:46:09Z</time>
      </trkpt>
      <trkpt lat="45.09296" lon="0.6029">
        <ele>166.7</ele>
        <time>2022-04-03T09:46:11Z</time>
      </trkpt>
      <trkpt lat="45.09295" lon="0.60286">
        <ele>167.1</ele>
        <time>2022-04-03T09:46:13Z</time>
      </trkpt>
      <trkpt lat="45.09295" lon="0.60281">
        <ele>167.6</ele>
        <time>2022-04-03T09:46:16Z</time>
      </trkpt>
      <trkpt lat="45.09295" lon="0.60276">
        <ele>168</ele>
        <time>2022-04-03T09:46:19Z</time>
      </trkpt>
      <trkpt lat="45.09294" lon="0.60264">
        <ele>168.9</ele>
        <time>2022-04-03T09:46:25Z</time>
      </trkpt>
      <trkpt lat="45.09294" lon="0.6026">
        <ele>169.2</ele>
        <time>2022-04-03T09:46:28Z</time>
      </trkpt>
      <trkpt lat="45.09294" lon="0.60258">
        <ele>169.3</ele>
        <time>2022-04-03T09:46:29Z</time>
      </trkpt>
      <trkpt lat="45.09293" lon="0.60254">
        <ele>169.6</ele>
        <time>2022-04-03T09:46:31Z</time>
      </trkpt>
      <trkpt lat="45.09294" lon="0.60247">
        <ele>170</ele>
        <time>2022-04-03T09:46:34Z</time>
      </trkpt>
      <trkpt lat="45.09295" lon="0.60241">
        <ele>170.3</ele>
        <time>2022-04-03T09:46:37Z</time>
      </trkpt>
      <trkpt lat="45.09296" lon="0.60237">
        <ele>170.5</ele>
        <time>2022-04-03T09:46:39Z</time>
      </trkpt>
      <trkpt lat="45.09296" lon="0.60234">
        <ele>170.6</ele>
        <time>2022-04-03T09:46:40Z</time>
      </trkpt>
      <trkpt lat="45.09299" lon="0.60218">
        <ele>171.3</ele>
        <time>2022-04-03T09:46:47Z</time>
      </trkpt>
      <trkpt lat="45.093" lon="0.60211">
        <ele>171.6</ele>
        <time>2022-04-03T09:46:50Z</time>
      </trkpt>
      <trkpt lat="45.09301" lon="0.60207">
        <ele>171.8</ele>
        <time>2022-04-03T09:46:52Z</time>
      </trkpt>
      <trkpt lat="45.09302" lon="0.60204">
        <ele>171.9</ele>
        <time>2022-04-03T09:46:54Z</time>
      </trkpt>
      <trkpt lat="45.09303" lon="0.60202">
        <ele>172</ele>
        <time>2022-04-03T09:46:55Z</time>
      </trkpt>
      <trkpt lat="45.09303" lon="0.602">
        <ele>172.1</ele>
        <time>2022-04-03T09:46:56Z</time>
      </trkpt>
      <trkpt lat="45.09305" lon="0.60194">
        <ele>172.3</ele>
        <time>2022-04-03T09:46:59Z</time>
      </trkpt>
      <trkpt lat="45.09306" lon="0.6019">
        <ele>172.5</ele>
        <time>2022-04-03T09:47:01Z</time>
      </trkpt>
      <trkpt lat="45.09307" lon="0.60186">
        <ele>172.6</ele>
        <time>2022-04-03T09:47:03Z</time>
      </trkpt>
      <trkpt lat="45.09309" lon="0.60181">
        <ele>172.7</ele>
        <time>2022-04-03T09:47:05Z</time>
      </trkpt>
      <trkpt lat="45.0931" lon="0.60178">
        <ele>172.7</ele>
        <time>2022-04-03T09:47:06Z</time>
      </trkpt>
      <trkpt lat="45.09311" lon="0.60175">
        <ele>172.7</ele>
        <time>2022-04-03T09:47:07Z</time>
      </trkpt>
      <trkpt lat="45.09314" lon="0.60164">
        <ele>172.7</ele>
        <time>2022-04-03T09:47:11Z</time>
      </trkpt>
      <trkpt lat="45.09314" lon="0.60162">
        <ele>172.7</ele>
        <time>2022-04-03T09:47:12Z</time>
      </trkpt>
      <trkpt lat="45.09317" lon="0.60153">
        <ele>172.6</ele>
        <time>2022-04-03T09:47:15Z</time>
      </trkpt>
      <trkpt lat="45.09319" lon="0.60147">
        <ele>172.4</ele>
        <time>2022-04-03T09:47:17Z</time>
      </trkpt>
      <trkpt lat="45.09322" lon="0.60136">
        <ele>172.2</ele>
        <time>2022-04-03T09:47:20Z</time>
      </trkpt>
      <trkpt lat="45.09327" lon="0.60119">
        <ele>171.9</ele>
        <time>2022-04-03T09:47:25Z</time>
      </trkpt>
      <trkpt lat="45.09329" lon="0.6011">
        <ele>171.8</ele>
        <time>2022-04-03T09:47:28Z</time>
      </trkpt>
      <trkpt lat="45.0933" lon="0.60107">
        <ele>171.7</ele>
        <time>2022-04-03T09:47:29Z</time>
      </trkpt>
      <trkpt lat="45.09331" lon="0.60104">
        <ele>171.7</ele>
        <time>2022-04-03T09:47:30Z</time>
      </trkpt>
      <trkpt lat="45.09334" lon="0.60096">
        <ele>171.7</ele>
        <time>2022-04-03T09:47:33Z</time>
      </trkpt>
      <trkpt lat="45.09338" lon="0.6008">
        <ele>171.8</ele>
        <time>2022-04-03T09:47:38Z</time>
      </trkpt>
      <trkpt lat="45.09339" lon="0.60076">
        <ele>171.9</ele>
        <time>2022-04-03T09:47:39Z</time>
      </trkpt>
      <trkpt lat="45.09342" lon="0.60066">
        <ele>172.1</ele>
        <time>2022-04-03T09:47:43Z</time>
      </trkpt>
      <trkpt lat="45.09345" lon="0.60057">
        <ele>172.4</ele>
        <time>2022-04-03T09:47:47Z</time>
      </trkpt>
      <trkpt lat="45.09345" lon="0.60054">
        <ele>172.6</ele>
        <time>2022-04-03T09:47:48Z</time>
      </trkpt>
      <trkpt lat="45.09347" lon="0.6005">
        <ele>172.8</ele>
        <time>2022-04-03T09:47:50Z</time>
      </trkpt>
      <trkpt lat="45.09348" lon="0.60045">
        <ele>173</ele>
        <time>2022-04-03T09:47:52Z</time>
      </trkpt>
      <trkpt lat="45.0935" lon="0.60037">
        <ele>173.4</ele>
        <time>2022-04-03T09:47:55Z</time>
      </trkpt>
      <trkpt lat="45.09353" lon="0.60028">
        <ele>174</ele>
        <time>2022-04-03T09:47:57Z</time>
      </trkpt>
      <trkpt lat="45.09355" lon="0.60024">
        <ele>174.3</ele>
        <time>2022-04-03T09:47:58Z</time>
      </trkpt>
      <trkpt lat="45.09356" lon="0.6002">
        <ele>174.8</ele>
        <time>2022-04-03T09:48:01Z</time>
      </trkpt>
      <trkpt lat="45.09358" lon="0.60015">
        <ele>175.2</ele>
        <time>2022-04-03T09:48:02Z</time>
      </trkpt>
      <trkpt lat="45.09359" lon="0.60011">
        <ele>175.7</ele>
        <time>2022-04-03T09:48:03Z</time>
      </trkpt>
      <trkpt lat="45.09361" lon="0.60007">
        <ele>176.1</ele>
        <time>2022-04-03T09:48:06Z</time>
      </trkpt>
      <trkpt lat="45.09362" lon="0.60002">
        <ele>176.5</ele>
        <time>2022-04-03T09:48:10Z</time>
      </trkpt>
      <trkpt lat="45.09364" lon="0.59998">
        <ele>176.9</ele>
        <time>2022-04-03T09:48:12Z</time>
      </trkpt>
      <trkpt lat="45.09365" lon="0.59994">
        <ele>177.3</ele>
        <time>2022-04-03T09:48:16Z</time>
      </trkpt>
      <trkpt lat="45.09367" lon="0.59989">
        <ele>177.6</ele>
        <time>2022-04-03T09:48:17Z</time>
      </trkpt>
      <trkpt lat="45.09368" lon="0.59985">
        <ele>178</ele>
        <time>2022-04-03T09:48:24Z</time>
      </trkpt>
      <trkpt lat="45.0937" lon="0.5998">
        <ele>178.4</ele>
        <time>2022-04-03T09:48:26Z</time>
      </trkpt>
      <trkpt lat="45.09371" lon="0.59976">
        <ele>178.7</ele>
        <time>2022-04-03T09:48:29Z</time>
      </trkpt>
      <trkpt lat="45.09372" lon="0.59972">
        <ele>179</ele>
        <time>2022-04-03T09:48:30Z</time>
      </trkpt>
      <trkpt lat="45.09382" lon="0.59978">
        <ele>177.8</ele>
        <time>2022-04-03T09:48:34Z</time>
      </trkpt>
      <trkpt lat="45.09399" lon="0.5999">
        <ele>177.1</ele>
        <time>2022-04-03T09:48:39Z</time>
      </trkpt>
      <trkpt lat="45.09415" lon="0.6001">
        <ele>176.8</ele>
        <time>2022-04-03T09:48:45Z</time>
      </trkpt>
      <trkpt lat="45.09425" lon="0.60023">
        <ele>176.8</ele>
        <time>2022-04-03T09:48:50Z</time>
      </trkpt>
      <trkpt lat="45.09436" lon="0.60038">
        <ele>177</ele>
        <time>2022-04-03T09:48:56Z</time>
      </trkpt>
      <trkpt lat="45.09451" lon="0.60063">
        <ele>177.7</ele>
        <time>2022-04-03T09:49:05Z</time>
      </trkpt>
      <trkpt lat="45.09463" lon="0.60084">
        <ele>178.6</ele>
        <time>2022-04-03T09:49:12Z</time>
      </trkpt>
      <trkpt lat="45.09474" lon="0.60102">
        <ele>179.6</ele>
        <time>2022-04-03T09:49:19Z</time>
      </trkpt>
      <trkpt lat="45.09487" lon="0.60121">
        <ele>180.9</ele>
        <time>2022-04-03T09:49:27Z</time>
      </trkpt>
      <trkpt lat="45.09495" lon="0.60135">
        <ele>181.8</ele>
        <time>2022-04-03T09:49:33Z</time>
      </trkpt>
      <trkpt lat="45.09503" lon="0.60146">
        <ele>182.7</ele>
        <time>2022-04-03T09:49:39Z</time>
      </trkpt>
      <trkpt lat="45.09513" lon="0.60162">
        <ele>184</ele>
        <time>2022-04-03T09:49:47Z</time>
      </trkpt>
      <trkpt lat="45.09521" lon="0.60173">
        <ele>185</ele>
        <time>2022-04-03T09:49:53Z</time>
      </trkpt>
      <trkpt lat="45.09531" lon="0.60183">
        <ele>186.1</ele>
        <time>2022-04-03T09:49:59Z</time>
      </trkpt>
      <trkpt lat="45.09541" lon="0.60193">
        <ele>187.2</ele>
        <time>2022-04-03T09:50:05Z</time>
      </trkpt>
      <trkpt lat="45.09547" lon="0.60201">
        <ele>188</ele>
        <time>2022-04-03T09:50:10Z</time>
      </trkpt>
      <trkpt lat="45.09552" lon="0.60208">
        <ele>188.8</ele>
        <time>2022-04-03T09:50:15Z</time>
      </trkpt>
      <trkpt lat="45.09557" lon="0.60216">
        <ele>189.6</ele>
        <time>2022-04-03T09:50:20Z</time>
      </trkpt>
      <trkpt lat="45.09563" lon="0.60226">
        <ele>190.6</ele>
        <time>2022-04-03T09:50:25Z</time>
      </trkpt>
      <trkpt lat="45.09572" lon="0.60241">
        <ele>191.8</ele>
        <time>2022-04-03T09:50:32Z</time>
      </trkpt>
      <trkpt lat="45.0958" lon="0.60255">
        <ele>192.6</ele>
        <time>2022-04-03T09:50:38Z</time>
      </trkpt>
      <trkpt lat="45.09586" lon="0.60269">
        <ele>193.3</ele>
        <time>2022-04-03T09:50:44Z</time>
      </trkpt>
      <trkpt lat="45.09589" lon="0.60286">
        <ele>193.9</ele>
        <time>2022-04-03T09:50:50Z</time>
      </trkpt>
      <trkpt lat="45.09594" lon="0.60307">
        <ele>194.7</ele>
        <time>2022-04-03T09:50:57Z</time>
      </trkpt>
      <trkpt lat="45.09597" lon="0.60325">
        <ele>195.3</ele>
        <time>2022-04-03T09:51:03Z</time>
      </trkpt>
      <trkpt lat="45.096" lon="0.60336">
        <ele>195.8</ele>
        <time>2022-04-03T09:51:07Z</time>
      </trkpt>
      <trkpt lat="45.09601" lon="0.60338">
        <ele>195.9</ele>
        <time>2022-04-03T09:51:08Z</time>
      </trkpt>
      <trkpt lat="45.09607" lon="0.6035">
        <ele>196.4</ele>
        <time>2022-04-03T09:51:12Z</time>
      </trkpt>
      <trkpt lat="45.09609" lon="0.60352">
        <ele>196.5</ele>
        <time>2022-04-03T09:51:13Z</time>
      </trkpt>
      <trkpt lat="45.09617" lon="0.60361">
        <ele>196.9</ele>
        <time>2022-04-03T09:51:17Z</time>
      </trkpt>
      <trkpt lat="45.09624" lon="0.6037">
        <ele>197.2</ele>
        <time>2022-04-03T09:51:21Z</time>
      </trkpt>
      <trkpt lat="45.09635" lon="0.60385">
        <ele>197.3</ele>
        <time>2022-04-03T09:51:26Z</time>
      </trkpt>
      <trkpt lat="45.09643" lon="0.604">
        <ele>197.4</ele>
        <time>2022-04-03T09:51:30Z</time>
      </trkpt>
      <trkpt lat="45.09645" lon="0.60404">
        <ele>197.5</ele>
        <time>2022-04-03T09:51:31Z</time>
      </trkpt>
      <trkpt lat="45.09651" lon="0.60418">
        <ele>197.6</ele>
        <time>2022-04-03T09:51:34Z</time>
      </trkpt>
      <trkpt lat="45.09659" lon="0.6044">
        <ele>197.7</ele>
        <time>2022-04-03T09:51:39Z</time>
      </trkpt>
      <trkpt lat="45.09669" lon="0.60464">
        <ele>198</ele>
        <time>2022-04-03T09:51:44Z</time>
      </trkpt>
      <trkpt lat="45.09678" lon="0.60494">
        <ele>198.2</ele>
        <time>2022-04-03T09:51:50Z</time>
      </trkpt>
      <trkpt lat="45.0968" lon="0.6052">
        <ele>198.3</ele>
        <time>2022-04-03T09:51:55Z</time>
      </trkpt>
      <trkpt lat="45.09681" lon="0.60526">
        <ele>198.4</ele>
        <time>2022-04-03T09:51:56Z</time>
      </trkpt>
      <trkpt lat="45.09682" lon="0.60552">
        <ele>198.6</ele>
        <time>2022-04-03T09:52:01Z</time>
      </trkpt>
      <trkpt lat="45.09684" lon="0.6059">
        <ele>198.8</ele>
        <time>2022-04-03T09:52:08Z</time>
      </trkpt>
      <trkpt lat="45.09686" lon="0.60631">
        <ele>199.1</ele>
        <time>2022-04-03T09:52:15Z</time>
      </trkpt>
      <trkpt lat="45.09687" lon="0.60653">
        <ele>199.4</ele>
        <time>2022-04-03T09:52:19Z</time>
      </trkpt>
      <trkpt lat="45.09688" lon="0.60665">
        <ele>199.6</ele>
        <time>2022-04-03T09:52:21Z</time>
      </trkpt>
      <trkpt lat="45.09689" lon="0.60683">
        <ele>199.8</ele>
        <time>2022-04-03T09:52:24Z</time>
      </trkpt>
      <trkpt lat="45.0969" lon="0.60701">
        <ele>200</ele>
        <time>2022-04-03T09:52:27Z</time>
      </trkpt>
      <trkpt lat="45.0969" lon="0.60713">
        <ele>200.2</ele>
        <time>2022-04-03T09:52:29Z</time>
      </trkpt>
      <trkpt lat="45.09691" lon="0.60725">
        <ele>200.4</ele>
        <time>2022-04-03T09:52:31Z</time>
      </trkpt>
      <trkpt lat="45.09694" lon="0.6076">
        <ele>201</ele>
        <time>2022-04-03T09:52:38Z</time>
      </trkpt>
      <trkpt lat="45.09696" lon="0.6078">
        <ele>201.5</ele>
        <time>2022-04-03T09:52:43Z</time>
      </trkpt>
      <trkpt lat="45.09698" lon="0.60811">
        <ele>202.2</ele>
        <time>2022-04-03T09:52:50Z</time>
      </trkpt>
      <trkpt lat="45.097" lon="0.60829">
        <ele>202.6</ele>
        <time>2022-04-03T09:52:54Z</time>
      </trkpt>
      <trkpt lat="45.09701" lon="0.60833">
        <ele>202.8</ele>
        <time>2022-04-03T09:52:55Z</time>
      </trkpt>
      <trkpt lat="45.09705" lon="0.60856">
        <ele>203.2</ele>
        <time>2022-04-03T09:53:00Z</time>
      </trkpt>
      <trkpt lat="45.09709" lon="0.60879">
        <ele>203.5</ele>
        <time>2022-04-03T09:53:05Z</time>
      </trkpt>
      <trkpt lat="45.09716" lon="0.60914">
        <ele>203.7</ele>
        <time>2022-04-03T09:53:12Z</time>
      </trkpt>
      <trkpt lat="45.09724" lon="0.60942">
        <ele>203.8</ele>
        <time>2022-04-03T09:53:18Z</time>
      </trkpt>
      <trkpt lat="45.09731" lon="0.60959">
        <ele>203.8</ele>
        <time>2022-04-03T09:53:22Z</time>
      </trkpt>
      <trkpt lat="45.09736" lon="0.6097">
        <ele>203.7</ele>
        <time>2022-04-03T09:53:24Z</time>
      </trkpt>
      <trkpt lat="45.09742" lon="0.60986">
        <ele>203.6</ele>
        <time>2022-04-03T09:53:27Z</time>
      </trkpt>
      <trkpt lat="45.09747" lon="0.60998">
        <ele>203.3</ele>
        <time>2022-04-03T09:53:28Z</time>
      </trkpt>
      <trkpt lat="45.0976" lon="0.61029">
        <ele>202.6</ele>
        <time>2022-04-03T09:53:33Z</time>
      </trkpt>
      <trkpt lat="45.09763" lon="0.61036">
        <ele>202.4</ele>
        <time>2022-04-03T09:53:35Z</time>
      </trkpt>
      <trkpt lat="45.09768" lon="0.6105">
        <ele>202.1</ele>
        <time>2022-04-03T09:53:37Z</time>
      </trkpt>
      <trkpt lat="45.09772" lon="0.61066">
        <ele>201.7</ele>
        <time>2022-04-03T09:53:38Z</time>
      </trkpt>
      <trkpt lat="45.09773" lon="0.61072">
        <ele>201.5</ele>
        <time>2022-04-03T09:53:39Z</time>
      </trkpt>
      <trkpt lat="45.09774" lon="0.61086">
        <ele>201.1</ele>
        <time>2022-04-03T09:53:41Z</time>
      </trkpt>
      <trkpt lat="45.09775" lon="0.61093">
        <ele>200.8</ele>
        <time>2022-04-03T09:53:42Z</time>
      </trkpt>
      <trkpt lat="45.09776" lon="0.61112">
        <ele>200.2</ele>
        <time>2022-04-03T09:53:44Z</time>
      </trkpt>
      <trkpt lat="45.09776" lon="0.61137">
        <ele>199.4</ele>
        <time>2022-04-03T09:53:46Z</time>
      </trkpt>
      <trkpt lat="45.09773" lon="0.61184">
        <ele>198.2</ele>
        <time>2022-04-03T09:53:50Z</time>
      </trkpt>
      <trkpt lat="45.09771" lon="0.61195">
        <ele>198</ele>
        <time>2022-04-03T09:53:51Z</time>
      </trkpt>
      <trkpt lat="45.09769" lon="0.61205">
        <ele>197.9</ele>
        <time>2022-04-03T09:53:52Z</time>
      </trkpt>
      <trkpt lat="45.09762" lon="0.61234">
        <ele>197.2</ele>
        <time>2022-04-03T09:53:55Z</time>
      </trkpt>
      <trkpt lat="45.09749" lon="0.61285">
        <ele>196</ele>
        <time>2022-04-03T09:54:00Z</time>
      </trkpt>
      <trkpt lat="45.09746" lon="0.61295">
        <ele>195.8</ele>
        <time>2022-04-03T09:54:01Z</time>
      </trkpt>
      <trkpt lat="45.09742" lon="0.61315">
        <ele>195.5</ele>
        <time>2022-04-03T09:54:03Z</time>
      </trkpt>
      <trkpt lat="45.0974" lon="0.61324">
        <ele>195.4</ele>
        <time>2022-04-03T09:54:04Z</time>
      </trkpt>
      <trkpt lat="45.09738" lon="0.61333">
        <ele>195.3</ele>
        <time>2022-04-03T09:54:05Z</time>
      </trkpt>
      <trkpt lat="45.09738" lon="0.61351">
        <ele>195.3</ele>
        <time>2022-04-03T09:54:07Z</time>
      </trkpt>
      <trkpt lat="45.09738" lon="0.6136">
        <ele>195.3</ele>
        <time>2022-04-03T09:54:08Z</time>
      </trkpt>
      <trkpt lat="45.09739" lon="0.61387">
        <ele>195.8</ele>
        <time>2022-04-03T09:54:11Z</time>
      </trkpt>
      <trkpt lat="45.09739" lon="0.61395">
        <ele>196</ele>
        <time>2022-04-03T09:54:13Z</time>
      </trkpt>
      <trkpt lat="45.0974" lon="0.61403">
        <ele>196.2</ele>
        <time>2022-04-03T09:54:14Z</time>
      </trkpt>
      <trkpt lat="45.09746" lon="0.61442">
        <ele>196.7</ele>
        <time>2022-04-03T09:54:18Z</time>
      </trkpt>
      <trkpt lat="45.09747" lon="0.61449">
        <ele>196.7</ele>
        <time>2022-04-03T09:54:19Z</time>
      </trkpt>
      <trkpt lat="45.09751" lon="0.6147">
        <ele>197.2</ele>
        <time>2022-04-03T09:54:22Z</time>
      </trkpt>
      <trkpt lat="45.09755" lon="0.61491">
        <ele>197.9</ele>
        <time>2022-04-03T09:54:25Z</time>
      </trkpt>
      <trkpt lat="45.09756" lon="0.61498">
        <ele>198.1</ele>
        <time>2022-04-03T09:54:26Z</time>
      </trkpt>
      <trkpt lat="45.09759" lon="0.61512">
        <ele>198.5</ele>
        <time>2022-04-03T09:54:28Z</time>
      </trkpt>
      <trkpt lat="45.09762" lon="0.61531">
        <ele>199.2</ele>
        <time>2022-04-03T09:54:31Z</time>
      </trkpt>
      <trkpt lat="45.09767" lon="0.61559">
        <ele>200.3</ele>
        <time>2022-04-03T09:54:36Z</time>
      </trkpt>
      <trkpt lat="45.09772" lon="0.61586">
        <ele>201.7</ele>
        <time>2022-04-03T09:54:41Z</time>
      </trkpt>
      <trkpt lat="45.09778" lon="0.61611">
        <ele>202.7</ele>
        <time>2022-04-03T09:54:46Z</time>
      </trkpt>
      <trkpt lat="45.09779" lon="0.61615">
        <ele>202.8</ele>
        <time>2022-04-03T09:54:47Z</time>
      </trkpt>
      <trkpt lat="45.09788" lon="0.61635">
        <ele>203.4</ele>
        <time>2022-04-03T09:54:51Z</time>
      </trkpt>
      <trkpt lat="45.09794" lon="0.61649">
        <ele>203.4</ele>
        <time>2022-04-03T09:54:54Z</time>
      </trkpt>
      <trkpt lat="45.09808" lon="0.61674">
        <ele>202.5</ele>
        <time>2022-04-03T09:54:59Z</time>
      </trkpt>
      <trkpt lat="45.09812" lon="0.6168">
        <ele>202.2</ele>
        <time>2022-04-03T09:55:00Z</time>
      </trkpt>
      <trkpt lat="45.09825" lon="0.617">
        <ele>201.2</ele>
        <time>2022-04-03T09:55:03Z</time>
      </trkpt>
      <trkpt lat="45.09853" lon="0.61739">
        <ele>199.8</ele>
        <time>2022-04-03T09:55:09Z</time>
      </trkpt>
      <trkpt lat="45.09857" lon="0.61746">
        <ele>199.6</ele>
        <time>2022-04-03T09:55:10Z</time>
      </trkpt>
      <trkpt lat="45.09865" lon="0.61758">
        <ele>199.3</ele>
        <time>2022-04-03T09:55:12Z</time>
      </trkpt>
      <trkpt lat="45.09875" lon="0.61777">
        <ele>198.9</ele>
        <time>2022-04-03T09:55:15Z</time>
      </trkpt>
      <trkpt lat="45.09878" lon="0.61784">
        <ele>198.8</ele>
        <time>2022-04-03T09:55:16Z</time>
      </trkpt>
      <trkpt lat="45.09881" lon="0.6179">
        <ele>198.7</ele>
        <time>2022-04-03T09:55:17Z</time>
      </trkpt>
      <trkpt lat="45.09892" lon="0.61809">
        <ele>198.5</ele>
        <time>2022-04-03T09:55:20Z</time>
      </trkpt>
      <trkpt lat="45.09907" lon="0.61835">
        <ele>198.4</ele>
        <time>2022-04-03T09:55:24Z</time>
      </trkpt>
      <trkpt lat="45.0991" lon="0.61841">
        <ele>198.3</ele>
        <time>2022-04-03T09:55:25Z</time>
      </trkpt>
      <trkpt lat="45.09927" lon="0.61871">
        <ele>198.4</ele>
        <time>2022-04-03T09:55:30Z</time>
      </trkpt>
      <trkpt lat="45.0993" lon="0.61876">
        <ele>198.5</ele>
        <time>2022-04-03T09:55:31Z</time>
      </trkpt>
      <trkpt lat="45.09936" lon="0.61886">
        <ele>198.6</ele>
        <time>2022-04-03T09:55:33Z</time>
      </trkpt>
      <trkpt lat="45.09948" lon="0.61906">
        <ele>198.7</ele>
        <time>2022-04-03T09:55:37Z</time>
      </trkpt>
      <trkpt lat="45.09951" lon="0.61911">
        <ele>198.7</ele>
        <time>2022-04-03T09:55:38Z</time>
      </trkpt>
      <trkpt lat="45.09968" lon="0.61934">
        <ele>199.2</ele>
        <time>2022-04-03T09:55:43Z</time>
      </trkpt>
      <trkpt lat="45.0998" lon="0.61959">
        <ele>199</ele>
        <time>2022-04-03T09:55:48Z</time>
      </trkpt>
      <trkpt lat="45.09983" lon="0.6198">
        <ele>199.1</ele>
        <time>2022-04-03T09:55:52Z</time>
      </trkpt>
      <trkpt lat="45.0999" lon="0.62005">
        <ele>199.1</ele>
        <time>2022-04-03T09:55:57Z</time>
      </trkpt>
      <trkpt lat="45.09997" lon="0.62035">
        <ele>198.6</ele>
        <time>2022-04-03T09:56:02Z</time>
      </trkpt>
      <trkpt lat="45.09999" lon="0.62041">
        <ele>198.5</ele>
        <time>2022-04-03T09:56:03Z</time>
      </trkpt>
      <trkpt lat="45.10012" lon="0.62074">
        <ele>197.5</ele>
        <time>2022-04-03T09:56:09Z</time>
      </trkpt>
      <trkpt lat="45.10014" lon="0.62079">
        <ele>197.3</ele>
        <time>2022-04-03T09:56:10Z</time>
      </trkpt>
      <trkpt lat="45.10024" lon="0.62102">
        <ele>196.5</ele>
        <time>2022-04-03T09:56:14Z</time>
      </trkpt>
      <trkpt lat="45.10026" lon="0.62108">
        <ele>196.2</ele>
        <time>2022-04-03T09:56:15Z</time>
      </trkpt>
      <trkpt lat="45.10031" lon="0.62119">
        <ele>195.8</ele>
        <time>2022-04-03T09:56:17Z</time>
      </trkpt>
      <trkpt lat="45.10037" lon="0.62122">
        <ele>195.9</ele>
        <time>2022-04-03T09:56:18Z</time>
      </trkpt>
      <trkpt lat="45.10052" lon="0.62126">
        <ele>196.6</ele>
        <time>2022-04-03T09:56:22Z</time>
      </trkpt>
      <trkpt lat="45.10066" lon="0.62135">
        <ele>197.3</ele>
        <time>2022-04-03T09:56:27Z</time>
      </trkpt>
      <trkpt lat="45.1008" lon="0.62145">
        <ele>197.9</ele>
        <time>2022-04-03T09:56:31Z</time>
      </trkpt>
      <trkpt lat="45.10095" lon="0.62156">
        <ele>198.6</ele>
        <time>2022-04-03T09:56:36Z</time>
      </trkpt>
      <trkpt lat="45.10114" lon="0.62169">
        <ele>199.4</ele>
        <time>2022-04-03T09:56:42Z</time>
      </trkpt>
      <trkpt lat="45.10132" lon="0.62182">
        <ele>200.3</ele>
        <time>2022-04-03T09:56:47Z</time>
      </trkpt>
      <trkpt lat="45.10141" lon="0.62202">
        <ele>200.3</ele>
        <time>2022-04-03T09:56:51Z</time>
      </trkpt>
      <trkpt lat="45.10145" lon="0.62234">
        <ele>199.2</ele>
        <time>2022-04-03T09:56:56Z</time>
      </trkpt>
      <trkpt lat="45.10145" lon="0.62241">
        <ele>198.9</ele>
        <time>2022-04-03T09:56:57Z</time>
      </trkpt>
      <trkpt lat="45.10144" lon="0.62289">
        <ele>197</ele>
        <time>2022-04-03T09:57:03Z</time>
      </trkpt>
      <trkpt lat="45.10133" lon="0.62342">
        <ele>195.3</ele>
        <time>2022-04-03T09:57:09Z</time>
      </trkpt>
      <trkpt lat="45.1013" lon="0.6235">
        <ele>195</ele>
        <time>2022-04-03T09:57:10Z</time>
      </trkpt>
      <trkpt lat="45.10124" lon="0.62366">
        <ele>194.5</ele>
        <time>2022-04-03T09:57:12Z</time>
      </trkpt>
      <trkpt lat="45.10095" lon="0.6241">
        <ele>191.8</ele>
        <time>2022-04-03T09:57:18Z</time>
      </trkpt>
      <trkpt lat="45.10062" lon="0.62453">
        <ele>189.4</ele>
        <time>2022-04-03T09:57:24Z</time>
      </trkpt>
      <trkpt lat="45.10033" lon="0.62489">
        <ele>187.9</ele>
        <time>2022-04-03T09:57:29Z</time>
      </trkpt>
      <trkpt lat="45.10021" lon="0.625">
        <ele>187.1</ele>
        <time>2022-04-03T09:57:31Z</time>
      </trkpt>
      <trkpt lat="45.10006" lon="0.62522">
        <ele>185.9</ele>
        <time>2022-04-03T09:57:34Z</time>
      </trkpt>
      <trkpt lat="45.0999" lon="0.62546">
        <ele>184.3</ele>
        <time>2022-04-03T09:57:37Z</time>
      </trkpt>
      <trkpt lat="45.09981" lon="0.62562">
        <ele>183</ele>
        <time>2022-04-03T09:57:39Z</time>
      </trkpt>
      <trkpt lat="45.09971" lon="0.62583">
        <ele>181.5</ele>
        <time>2022-04-03T09:57:41Z</time>
      </trkpt>
      <trkpt lat="45.09961" lon="0.62604">
        <ele>179.9</ele>
        <time>2022-04-03T09:57:43Z</time>
      </trkpt>
      <trkpt lat="45.09929" lon="0.62674">
        <ele>174.8</ele>
        <time>2022-04-03T09:57:49Z</time>
      </trkpt>
      <trkpt lat="45.09917" lon="0.627">
        <ele>173.3</ele>
        <time>2022-04-03T09:57:52Z</time>
      </trkpt>
      <trkpt lat="45.09915" lon="0.62706">
        <ele>173</ele>
        <time>2022-04-03T09:57:53Z</time>
      </trkpt>
      <trkpt lat="45.09913" lon="0.62723">
        <ele>172</ele>
        <time>2022-04-03T09:57:55Z</time>
      </trkpt>
      <trkpt lat="45.09926" lon="0.62754">
        <ele>170</ele>
        <time>2022-04-03T09:57:59Z</time>
      </trkpt>
      <trkpt lat="45.09933" lon="0.62773">
        <ele>168.6</ele>
        <time>2022-04-03T09:58:01Z</time>
      </trkpt>
      <trkpt lat="45.09943" lon="0.62788">
        <ele>167.2</ele>
        <time>2022-04-03T09:58:03Z</time>
      </trkpt>
      <trkpt lat="45.09947" lon="0.62792">
        <ele>166.8</ele>
        <time>2022-04-03T09:58:04Z</time>
      </trkpt>
      <trkpt lat="45.09952" lon="0.62796">
        <ele>166.2</ele>
        <time>2022-04-03T09:58:06Z</time>
      </trkpt>
      <trkpt lat="45.09957" lon="0.62802">
        <ele>166.2</ele>
        <time>2022-04-03T09:58:07Z</time>
      </trkpt>
      <trkpt lat="45.09975" lon="0.62806">
        <ele>165.3</ele>
        <time>2022-04-03T09:58:09Z</time>
      </trkpt>
      <trkpt lat="45.09991" lon="0.62807">
        <ele>164.6</ele>
        <time>2022-04-03T09:58:11Z</time>
      </trkpt>
      <trkpt lat="45.1001" lon="0.62813">
        <ele>161.2</ele>
        <time>2022-04-03T09:58:14Z</time>
      </trkpt>
      <trkpt lat="45.10041" lon="0.62827">
        <ele>159</ele>
        <time>2022-04-03T09:58:18Z</time>
      </trkpt>
      <trkpt lat="45.10051" lon="0.62843">
        <ele>156.5</ele>
        <time>2022-04-03T09:58:20Z</time>
      </trkpt>
      <trkpt lat="45.10055" lon="0.62853">
        <ele>154.3</ele>
        <time>2022-04-03T09:58:21Z</time>
      </trkpt>
      <trkpt lat="45.10065" lon="0.62884">
        <ele>152.1</ele>
        <time>2022-04-03T09:58:24Z</time>
      </trkpt>
      <trkpt lat="45.1007" lon="0.62895">
        <ele>151.2</ele>
        <time>2022-04-03T09:58:25Z</time>
      </trkpt>
      <trkpt lat="45.10076" lon="0.62914">
        <ele>148.3</ele>
        <time>2022-04-03T09:58:27Z</time>
      </trkpt>
      <trkpt lat="45.10078" lon="0.62921">
        <ele>148.3</ele>
        <time>2022-04-03T09:58:28Z</time>
      </trkpt>
      <trkpt lat="45.1008" lon="0.62926">
        <ele>147.7</ele>
        <time>2022-04-03T09:58:29Z</time>
      </trkpt>
      <trkpt lat="45.10088" lon="0.62937">
        <ele>146.2</ele>
        <time>2022-04-03T09:58:32Z</time>
      </trkpt>
      <trkpt lat="45.1009" lon="0.62941">
        <ele>146.2</ele>
        <time>2022-04-03T09:58:34Z</time>
      </trkpt>
      <trkpt lat="45.10092" lon="0.62945">
        <ele>145.6</ele>
        <time>2022-04-03T09:58:36Z</time>
      </trkpt>
      <trkpt lat="45.10094" lon="0.62952">
        <ele>144.1</ele>
        <time>2022-04-03T09:58:39Z</time>
      </trkpt>
      <trkpt lat="45.10096" lon="0.62953">
        <ele>144.1</ele>
        <time>2022-04-03T09:58:40Z</time>
      </trkpt>
      <trkpt lat="45.10098" lon="0.62956">
        <ele>144.1</ele>
        <time>2022-04-03T09:58:43Z</time>
      </trkpt>
      <trkpt lat="45.101" lon="0.62959">
        <ele>144.1</ele>
        <time>2022-04-03T09:58:44Z</time>
      </trkpt>
      <trkpt lat="45.10108" lon="0.62975">
        <ele>142.5</ele>
        <time>2022-04-03T09:58:47Z</time>
      </trkpt>
      <trkpt lat="45.1011" lon="0.62981">
        <ele>142.5</ele>
        <time>2022-04-03T09:58:48Z</time>
      </trkpt>
      <trkpt lat="45.10112" lon="0.62994">
        <ele>141.4</ele>
        <time>2022-04-03T09:58:50Z</time>
      </trkpt>
      <trkpt lat="45.10116" lon="0.63007">
        <ele>140</ele>
        <time>2022-04-03T09:58:52Z</time>
      </trkpt>
      <trkpt lat="45.10123" lon="0.63015">
        <ele>140</ele>
        <time>2022-04-03T09:58:54Z</time>
      </trkpt>
      <trkpt lat="45.10137" lon="0.63023">
        <ele>138.8</ele>
        <time>2022-04-03T09:58:58Z</time>
      </trkpt>
      <trkpt lat="45.1015" lon="0.63025">
        <ele>138.8</ele>
        <time>2022-04-03T09:59:03Z</time>
      </trkpt>
      <trkpt lat="45.10155" lon="0.63026">
        <ele>138.8</ele>
        <time>2022-04-03T09:59:05Z</time>
      </trkpt>
      <trkpt lat="45.1016" lon="0.63031">
        <ele>138.8</ele>
        <time>2022-04-03T09:59:07Z</time>
      </trkpt>
      <trkpt lat="45.10166" lon="0.63047">
        <ele>137.8</ele>
        <time>2022-04-03T09:59:12Z</time>
      </trkpt>
      <trkpt lat="45.10174" lon="0.6306">
        <ele>137.8</ele>
        <time>2022-04-03T09:59:16Z</time>
      </trkpt>
      <trkpt lat="45.10184" lon="0.63062">
        <ele>138.5</ele>
        <time>2022-04-03T09:59:20Z</time>
      </trkpt>
      <trkpt lat="45.10194" lon="0.63055">
        <ele>138.7</ele>
        <time>2022-04-03T09:59:25Z</time>
      </trkpt>
      <trkpt lat="45.10208" lon="0.63047">
        <ele>138.2</ele>
        <time>2022-04-03T09:59:31Z</time>
      </trkpt>
      <trkpt lat="45.10219" lon="0.6304">
        <ele>138.4</ele>
        <time>2022-04-03T09:59:36Z</time>
      </trkpt>
      <trkpt lat="45.10233" lon="0.63035">
        <ele>138.7</ele>
        <time>2022-04-03T09:59:41Z</time>
      </trkpt>
      <trkpt lat="45.1025" lon="0.63028">
        <ele>138.5</ele>
        <time>2022-04-03T09:59:48Z</time>
      </trkpt>
      <trkpt lat="45.10263" lon="0.63023">
        <ele>138.5</ele>
        <time>2022-04-03T09:59:53Z</time>
      </trkpt>
      <trkpt lat="45.1028" lon="0.63015">
        <ele>138.6</ele>
        <time>2022-04-03T10:00:00Z</time>
      </trkpt>
      <trkpt lat="45.10291" lon="0.63012">
        <ele>138.6</ele>
        <time>2022-04-03T10:00:05Z</time>
      </trkpt>
      <trkpt lat="45.103" lon="0.63006">
        <ele>138.9</ele>
        <time>2022-04-03T10:00:10Z</time>
      </trkpt>
      <trkpt lat="45.10311" lon="0.62998">
        <ele>139.6</ele>
        <time>2022-04-03T10:00:15Z</time>
      </trkpt>
      <trkpt lat="45.10325" lon="0.62988">
        <ele>140.4</ele>
        <time>2022-04-03T10:00:22Z</time>
      </trkpt>
      <trkpt lat="45.10337" lon="0.62983">
        <ele>141.6</ele>
        <time>2022-04-03T10:00:27Z</time>
      </trkpt>
      <trkpt lat="45.10348" lon="0.62976">
        <ele>142.4</ele>
        <time>2022-04-03T10:00:32Z</time>
      </trkpt>
      <trkpt lat="45.10364" lon="0.62962">
        <ele>143.2</ele>
        <time>2022-04-03T10:00:39Z</time>
      </trkpt>
      <trkpt lat="45.10373" lon="0.62952">
        <ele>143.6</ele>
        <time>2022-04-03T10:00:44Z</time>
      </trkpt>
      <trkpt lat="45.10383" lon="0.62943">
        <ele>143.1</ele>
        <time>2022-04-03T10:00:49Z</time>
      </trkpt>
      <trkpt lat="45.10398" lon="0.6293">
        <ele>142.7</ele>
        <time>2022-04-03T10:00:56Z</time>
      </trkpt>
      <trkpt lat="45.10412" lon="0.62918">
        <ele>142.3</ele>
        <time>2022-04-03T10:01:03Z</time>
      </trkpt>
      <trkpt lat="45.10423" lon="0.62908">
        <ele>142.2</ele>
        <time>2022-04-03T10:01:09Z</time>
      </trkpt>
      <trkpt lat="45.10431" lon="0.629">
        <ele>141.8</ele>
        <time>2022-04-03T10:01:14Z</time>
      </trkpt>
      <trkpt lat="45.10439" lon="0.62892">
        <ele>142.5</ele>
        <time>2022-04-03T10:01:19Z</time>
      </trkpt>
      <trkpt lat="45.10453" lon="0.62884">
        <ele>142.6</ele>
        <time>2022-04-03T10:01:25Z</time>
      </trkpt>
      <trkpt lat="45.10459" lon="0.62875">
        <ele>144.8</ele>
        <time>2022-04-03T10:01:30Z</time>
      </trkpt>
      <trkpt lat="45.10462" lon="0.62871">
        <ele>144.8</ele>
        <time>2022-04-03T10:01:32Z</time>
      </trkpt>
      <trkpt lat="45.10464" lon="0.62867">
        <ele>144.8</ele>
        <time>2022-04-03T10:01:34Z</time>
      </trkpt>
      <trkpt lat="45.10466" lon="0.62866">
        <ele>144.8</ele>
        <time>2022-04-03T10:01:35Z</time>
      </trkpt>
      <trkpt lat="45.10475" lon="0.62856">
        <ele>148.7</ele>
        <time>2022-04-03T10:01:41Z</time>
      </trkpt>
      <trkpt lat="45.10484" lon="0.62849">
        <ele>150.6</ele>
        <time>2022-04-03T10:01:46Z</time>
      </trkpt>
      <trkpt lat="45.10497" lon="0.62849">
        <ele>152.9</ele>
        <time>2022-04-03T10:01:52Z</time>
      </trkpt>
      <trkpt lat="45.10503" lon="0.6285">
        <ele>152.9</ele>
        <time>2022-04-03T10:01:54Z</time>
      </trkpt>
      <trkpt lat="45.10506" lon="0.6285">
        <ele>155.7</ele>
        <time>2022-04-03T10:01:56Z</time>
      </trkpt>
      <trkpt lat="45.10507" lon="0.6285">
        <ele>155.7</ele>
        <time>2022-04-03T10:01:57Z</time>
      </trkpt>
      <trkpt lat="45.10516" lon="0.62853">
        <ele>158.2</ele>
        <time>2022-04-03T10:02:02Z</time>
      </trkpt>
      <trkpt lat="45.10523" lon="0.62856">
        <ele>158.1</ele>
        <time>2022-04-03T10:02:05Z</time>
      </trkpt>
      <trkpt lat="45.10531" lon="0.62861">
        <ele>161</ele>
        <time>2022-04-03T10:02:09Z</time>
      </trkpt>
      <trkpt lat="45.10541" lon="0.62865">
        <ele>161.2</ele>
        <time>2022-04-03T10:02:14Z</time>
      </trkpt>
      <trkpt lat="45.10549" lon="0.62871">
        <ele>161.2</ele>
        <time>2022-04-03T10:02:19Z</time>
      </trkpt>
      <trkpt lat="45.1056" lon="0.62878">
        <ele>164.2</ele>
        <time>2022-04-03T10:02:24Z</time>
      </trkpt>
      <trkpt lat="45.10561" lon="0.6288">
        <ele>162.5</ele>
        <time>2022-04-03T10:02:25Z</time>
      </trkpt>
      <trkpt lat="45.10567" lon="0.62888">
        <ele>165.1</ele>
        <time>2022-04-03T10:02:29Z</time>
      </trkpt>
      <trkpt lat="45.10569" lon="0.62891">
        <ele>165.1</ele>
        <time>2022-04-03T10:02:33Z</time>
      </trkpt>
      <trkpt lat="45.10574" lon="0.62893">
        <ele>165.1</ele>
        <time>2022-04-03T10:03:07Z</time>
      </trkpt>
      <trkpt lat="45.10577" lon="0.62894">
        <ele>167.9</ele>
        <time>2022-04-03T10:03:08Z</time>
      </trkpt>
      <trkpt lat="45.10588" lon="0.62897">
        <ele>171.1</ele>
        <time>2022-04-03T10:03:13Z</time>
      </trkpt>
      <trkpt lat="45.10598" lon="0.62898">
        <ele>169.5</ele>
        <time>2022-04-03T10:03:18Z</time>
      </trkpt>
      <trkpt lat="45.106" lon="0.62899">
        <ele>169.5</ele>
        <time>2022-04-03T10:03:19Z</time>
      </trkpt>
      <trkpt lat="45.10609" lon="0.62901">
        <ele>172.2</ele>
        <time>2022-04-03T10:03:24Z</time>
      </trkpt>
      <trkpt lat="45.10612" lon="0.62903">
        <ele>172.2</ele>
        <time>2022-04-03T10:03:26Z</time>
      </trkpt>
      <trkpt lat="45.10615" lon="0.62905">
        <ele>175.3</ele>
        <time>2022-04-03T10:03:28Z</time>
      </trkpt>
      <trkpt lat="45.10617" lon="0.62905">
        <ele>175.3</ele>
        <time>2022-04-03T10:03:29Z</time>
      </trkpt>
      <trkpt lat="45.10629" lon="0.6291">
        <ele>177.9</ele>
        <time>2022-04-03T10:03:36Z</time>
      </trkpt>
      <trkpt lat="45.10635" lon="0.62913">
        <ele>177.9</ele>
        <time>2022-04-03T10:03:41Z</time>
      </trkpt>
      <trkpt lat="45.1064" lon="0.62917">
        <ele>177.8</ele>
        <time>2022-04-03T10:03:45Z</time>
      </trkpt>
      <trkpt lat="45.10647" lon="0.62922">
        <ele>177.8</ele>
        <time>2022-04-03T10:03:50Z</time>
      </trkpt>
      <trkpt lat="45.10648" lon="0.62923">
        <ele>177.8</ele>
        <time>2022-04-03T10:03:52Z</time>
      </trkpt>
      <trkpt lat="45.10655" lon="0.62931">
        <ele>180.4</ele>
        <time>2022-04-03T10:03:58Z</time>
      </trkpt>
      <trkpt lat="45.10657" lon="0.62934">
        <ele>178.1</ele>
        <time>2022-04-03T10:04:00Z</time>
      </trkpt>
      <trkpt lat="45.1066" lon="0.62939">
        <ele>178.1</ele>
        <time>2022-04-03T10:04:05Z</time>
      </trkpt>
      <trkpt lat="45.10667" lon="0.62946">
        <ele>181.1</ele>
        <time>2022-04-03T10:04:10Z</time>
      </trkpt>
      <trkpt lat="45.10673" lon="0.62953">
        <ele>178.8</ele>
        <time>2022-04-03T10:04:15Z</time>
      </trkpt>
      <trkpt lat="45.10685" lon="0.62964">
        <ele>182</ele>
        <time>2022-04-03T10:04:20Z</time>
      </trkpt>
      <trkpt lat="45.10687" lon="0.62965">
        <ele>185.3</ele>
        <time>2022-04-03T10:04:21Z</time>
      </trkpt>
      <trkpt lat="45.1069" lon="0.62976">
        <ele>183</ele>
        <time>2022-04-03T10:04:27Z</time>
      </trkpt>
      <trkpt lat="45.10695" lon="0.62987">
        <ele>181.2</ele>
        <time>2022-04-03T10:04:32Z</time>
      </trkpt>
      <trkpt lat="45.10701" lon="0.62999">
        <ele>184.7</ele>
        <time>2022-04-03T10:04:38Z</time>
      </trkpt>
      <trkpt lat="45.10704" lon="0.6301">
        <ele>183.2</ele>
        <time>2022-04-03T10:04:43Z</time>
      </trkpt>
      <trkpt lat="45.10704" lon="0.6302">
        <ele>181.9</ele>
        <time>2022-04-03T10:04:48Z</time>
      </trkpt>
      <trkpt lat="45.10705" lon="0.63031">
        <ele>181.9</ele>
        <time>2022-04-03T10:04:53Z</time>
      </trkpt>
      <trkpt lat="45.10706" lon="0.63039">
        <ele>181</ele>
        <time>2022-04-03T10:04:57Z</time>
      </trkpt>
      <trkpt lat="45.10709" lon="0.63046">
        <ele>181</ele>
        <time>2022-04-03T10:05:01Z</time>
      </trkpt>
      <trkpt lat="45.10719" lon="0.63066">
        <ele>183</ele>
        <time>2022-04-03T10:05:12Z</time>
      </trkpt>
      <trkpt lat="45.10723" lon="0.63074">
        <ele>184.7</ele>
        <time>2022-04-03T10:05:17Z</time>
      </trkpt>
      <trkpt lat="45.10725" lon="0.63078">
        <ele>184.7</ele>
        <time>2022-04-03T10:05:21Z</time>
      </trkpt>
      <trkpt lat="45.10727" lon="0.63084">
        <ele>184.7</ele>
        <time>2022-04-03T10:05:26Z</time>
      </trkpt>
      <trkpt lat="45.10733" lon="0.63094">
        <ele>184.6</ele>
        <time>2022-04-03T10:05:33Z</time>
      </trkpt>
      <trkpt lat="45.10737" lon="0.63102">
        <ele>186.5</ele>
        <time>2022-04-03T10:05:38Z</time>
      </trkpt>
      <trkpt lat="45.10744" lon="0.63107">
        <ele>187</ele>
        <time>2022-04-03T10:05:43Z</time>
      </trkpt>
      <trkpt lat="45.10744" lon="0.63107">
        <ele>187</ele>
        <time>2022-04-03T10:05:45Z</time>
      </trkpt>
      <trkpt lat="45.10754" lon="0.63122">
        <ele>188.8</ele>
        <time>2022-04-03T10:05:57Z</time>
      </trkpt>
      <trkpt lat="45.10756" lon="0.63125">
        <ele>188.8</ele>
        <time>2022-04-03T10:05:58Z</time>
      </trkpt>
      <trkpt lat="45.10761" lon="0.63133">
        <ele>189.5</ele>
        <time>2022-04-03T10:06:02Z</time>
      </trkpt>
      <trkpt lat="45.10764" lon="0.63136">
        <ele>189.5</ele>
        <time>2022-04-03T10:06:04Z</time>
      </trkpt>
      <trkpt lat="45.10768" lon="0.63139">
        <ele>190.2</ele>
        <time>2022-04-03T10:06:06Z</time>
      </trkpt>
      <trkpt lat="45.1077" lon="0.63142">
        <ele>190.2</ele>
        <time>2022-04-03T10:06:07Z</time>
      </trkpt>
      <trkpt lat="45.10775" lon="0.63145">
        <ele>190.2</ele>
        <time>2022-04-03T10:06:10Z</time>
      </trkpt>
      <trkpt lat="45.10784" lon="0.63155">
        <ele>190.1</ele>
        <time>2022-04-03T10:06:16Z</time>
      </trkpt>
      <trkpt lat="45.10798" lon="0.63166">
        <ele>189.7</ele>
        <time>2022-04-03T10:06:26Z</time>
      </trkpt>
      <trkpt lat="45.10799" lon="0.63168">
        <ele>189.7</ele>
        <time>2022-04-03T10:06:28Z</time>
      </trkpt>
      <trkpt lat="45.10801" lon="0.6317">
        <ele>189.7</ele>
        <time>2022-04-03T10:06:29Z</time>
      </trkpt>
      <trkpt lat="45.10805" lon="0.63173">
        <ele>190.5</ele>
        <time>2022-04-03T10:06:31Z</time>
      </trkpt>
      <trkpt lat="45.10808" lon="0.63174">
        <ele>190.5</ele>
        <time>2022-04-03T10:06:32Z</time>
      </trkpt>
      <trkpt lat="45.10814" lon="0.6318">
        <ele>190.5</ele>
        <time>2022-04-03T10:06:36Z</time>
      </trkpt>
      <trkpt lat="45.1082" lon="0.63183">
        <ele>190.6</ele>
        <time>2022-04-03T10:06:38Z</time>
      </trkpt>
      <trkpt lat="45.10925" lon="0.63277">
        <ele>196.1</ele>
        <time>2022-04-03T10:08:21Z</time>
      </trkpt>
      <trkpt lat="45.10926" lon="0.63278">
        <ele>196.1</ele>
        <time>2022-04-03T10:08:22Z</time>
      </trkpt>
      <trkpt lat="45.1093" lon="0.63286">
        <ele>196.4</ele>
        <time>2022-04-03T10:08:27Z</time>
      </trkpt>
      <trkpt lat="45.10935" lon="0.63299">
        <ele>197.1</ele>
        <time>2022-04-03T10:08:33Z</time>
      </trkpt>
      <trkpt lat="45.10936" lon="0.63301">
        <ele>197.1</ele>
        <time>2022-04-03T10:08:34Z</time>
      </trkpt>
      <trkpt lat="45.1094" lon="0.63311">
        <ele>198.1</ele>
        <time>2022-04-03T10:08:39Z</time>
      </trkpt>
      <trkpt lat="45.10944" lon="0.63314">
        <ele>198.1</ele>
        <time>2022-04-03T10:08:42Z</time>
      </trkpt>
      <trkpt lat="45.10948" lon="0.63314">
        <ele>198.1</ele>
        <time>2022-04-03T10:08:44Z</time>
      </trkpt>
      <trkpt lat="45.10955" lon="0.63307">
        <ele>197.8</ele>
        <time>2022-04-03T10:08:49Z</time>
      </trkpt>
      <trkpt lat="45.10957" lon="0.63306">
        <ele>197.7</ele>
        <time>2022-04-03T10:08:50Z</time>
      </trkpt>
      <trkpt lat="45.10963" lon="0.633">
        <ele>197.7</ele>
        <time>2022-04-03T10:08:54Z</time>
      </trkpt>
      <trkpt lat="45.10973" lon="0.63291">
        <ele>197.7</ele>
        <time>2022-04-03T10:08:59Z</time>
      </trkpt>
      <trkpt lat="45.10983" lon="0.63284">
        <ele>198.4</ele>
        <time>2022-04-03T10:09:04Z</time>
      </trkpt>
      <trkpt lat="45.10985" lon="0.63282">
        <ele>198.4</ele>
        <time>2022-04-03T10:09:05Z</time>
      </trkpt>
      <trkpt lat="45.10986" lon="0.63279">
        <ele>198.4</ele>
        <time>2022-04-03T10:09:07Z</time>
      </trkpt>
      <trkpt lat="45.10989" lon="0.63277">
        <ele>199.3</ele>
        <time>2022-04-03T10:09:08Z</time>
      </trkpt>
      <trkpt lat="45.11001" lon="0.63269">
        <ele>200.5</ele>
        <time>2022-04-03T10:09:14Z</time>
      </trkpt>
      <trkpt lat="45.11013" lon="0.63277">
        <ele>201.9</ele>
        <time>2022-04-03T10:09:22Z</time>
      </trkpt>
      <trkpt lat="45.1102" lon="0.63289">
        <ele>201.9</ele>
        <time>2022-04-03T10:09:29Z</time>
      </trkpt>
      <trkpt lat="45.11027" lon="0.63297">
        <ele>203.2</ele>
        <time>2022-04-03T10:09:34Z</time>
      </trkpt>
      <trkpt lat="45.11034" lon="0.63307">
        <ele>203.2</ele>
        <time>2022-04-03T10:09:40Z</time>
      </trkpt>
      <trkpt lat="45.11038" lon="0.63325">
        <ele>204.5</ele>
        <time>2022-04-03T10:09:48Z</time>
      </trkpt>
      <trkpt lat="45.11041" lon="0.63339">
        <ele>204.6</ele>
        <time>2022-04-03T10:09:54Z</time>
      </trkpt>
      <trkpt lat="45.11045" lon="0.6336">
        <ele>204.8</ele>
        <time>2022-04-03T10:10:03Z</time>
      </trkpt>
      <trkpt lat="45.11046" lon="0.63379">
        <ele>205.1</ele>
        <time>2022-04-03T10:10:10Z</time>
      </trkpt>
      <trkpt lat="45.11047" lon="0.63394">
        <ele>205.1</ele>
        <time>2022-04-03T10:10:17Z</time>
      </trkpt>
      <trkpt lat="45.11047" lon="0.63402">
        <ele>205</ele>
        <time>2022-04-03T10:10:24Z</time>
      </trkpt>
      <trkpt lat="45.11049" lon="0.63411">
        <ele>205.9</ele>
        <time>2022-04-03T10:12:55Z</time>
      </trkpt>
      <trkpt lat="45.11054" lon="0.6341">
        <ele>205.9</ele>
        <time>2022-04-03T10:12:57Z</time>
      </trkpt>
      <trkpt lat="45.11066" lon="0.6341">
        <ele>206.9</ele>
        <time>2022-04-03T10:13:02Z</time>
      </trkpt>
      <trkpt lat="45.11079" lon="0.63409">
        <ele>207.8</ele>
        <time>2022-04-03T10:13:07Z</time>
      </trkpt>
      <trkpt lat="45.11098" lon="0.63412">
        <ele>209.1</ele>
        <time>2022-04-03T10:13:14Z</time>
      </trkpt>
      <trkpt lat="45.11114" lon="0.63416">
        <ele>209.6</ele>
        <time>2022-04-03T10:13:19Z</time>
      </trkpt>
      <trkpt lat="45.11132" lon="0.63416">
        <ele>209.8</ele>
        <time>2022-04-03T10:13:24Z</time>
      </trkpt>
      <trkpt lat="45.11148" lon="0.63425">
        <ele>210.1</ele>
        <time>2022-04-03T10:13:28Z</time>
      </trkpt>
      <trkpt lat="45.11145" lon="0.63424">
        <ele>210</ele>
        <time>2022-04-03T10:13:29Z</time>
      </trkpt>
      <trkpt lat="45.11145" lon="0.63427">
        <ele>210</ele>
        <time>2022-04-03T10:13:30Z</time>
      </trkpt>
      <trkpt lat="45.11168" lon="0.63445">
        <ele>209.7</ele>
        <time>2022-04-03T10:13:33Z</time>
      </trkpt>
      <trkpt lat="45.11197" lon="0.63471">
        <ele>208.7</ele>
        <time>2022-04-03T10:13:38Z</time>
      </trkpt>
      <trkpt lat="45.11202" lon="0.63478">
        <ele>208.7</ele>
        <time>2022-04-03T10:13:39Z</time>
      </trkpt>
      <trkpt lat="45.11219" lon="0.63497">
        <ele>208.5</ele>
        <time>2022-04-03T10:13:42Z</time>
      </trkpt>
      <trkpt lat="45.11226" lon="0.63502">
        <ele>208.1</ele>
        <time>2022-04-03T10:13:43Z</time>
      </trkpt>
      <trkpt lat="45.11243" lon="0.63516">
        <ele>207.5</ele>
        <time>2022-04-03T10:13:46Z</time>
      </trkpt>
      <trkpt lat="45.11247" lon="0.6352">
        <ele>207.5</ele>
        <time>2022-04-03T10:13:47Z</time>
      </trkpt>
      <trkpt lat="45.11253" lon="0.63525">
        <ele>207.4</ele>
        <time>2022-04-03T10:13:48Z</time>
      </trkpt>
      <trkpt lat="45.11275" lon="0.63546">
        <ele>206.3</ele>
        <time>2022-04-03T10:13:53Z</time>
      </trkpt>
      <trkpt lat="45.11284" lon="0.63554">
        <ele>205.5</ele>
        <time>2022-04-03T10:13:55Z</time>
      </trkpt>
      <trkpt lat="45.11294" lon="0.63561">
        <ele>204.7</ele>
        <time>2022-04-03T10:13:57Z</time>
      </trkpt>
      <trkpt lat="45.11303" lon="0.63569">
        <ele>205.3</ele>
        <time>2022-04-03T10:13:59Z</time>
      </trkpt>
      <trkpt lat="45.11306" lon="0.63572">
        <ele>204.9</ele>
        <time>2022-04-03T10:14:00Z</time>
      </trkpt>
      <trkpt lat="45.11317" lon="0.63584">
        <ele>205.4</ele>
        <time>2022-04-03T10:14:03Z</time>
      </trkpt>
      <trkpt lat="45.11321" lon="0.63587">
        <ele>205.4</ele>
        <time>2022-04-03T10:14:04Z</time>
      </trkpt>
      <trkpt lat="45.11324" lon="0.63591">
        <ele>205.4</ele>
        <time>2022-04-03T10:14:05Z</time>
      </trkpt>
      <trkpt lat="45.1133" lon="0.63599">
        <ele>205.2</ele>
        <time>2022-04-03T10:14:07Z</time>
      </trkpt>
      <trkpt lat="45.11333" lon="0.63603">
        <ele>206.1</ele>
        <time>2022-04-03T10:14:08Z</time>
      </trkpt>
      <trkpt lat="45.11339" lon="0.63611">
        <ele>205.8</ele>
        <time>2022-04-03T10:14:10Z</time>
      </trkpt>
      <trkpt lat="45.11349" lon="0.63618">
        <ele>206.6</ele>
        <time>2022-04-03T10:14:13Z</time>
      </trkpt>
      <trkpt lat="45.11363" lon="0.63627">
        <ele>206.3</ele>
        <time>2022-04-03T10:14:17Z</time>
      </trkpt>
      <trkpt lat="45.11378" lon="0.6362">
        <ele>205.7</ele>
        <time>2022-04-03T10:14:21Z</time>
      </trkpt>
      <trkpt lat="45.11389" lon="0.63616">
        <ele>205.1</ele>
        <time>2022-04-03T10:14:23Z</time>
      </trkpt>
      <trkpt lat="45.11398" lon="0.63611">
        <ele>205.1</ele>
        <time>2022-04-03T10:14:25Z</time>
      </trkpt>
      <trkpt lat="45.11418" lon="0.63598">
        <ele>206.5</ele>
        <time>2022-04-03T10:14:30Z</time>
      </trkpt>
      <trkpt lat="45.11431" lon="0.6359">
        <ele>207.8</ele>
        <time>2022-04-03T10:14:35Z</time>
      </trkpt>
      <trkpt lat="45.11452" lon="0.63569">
        <ele>208.3</ele>
        <time>2022-04-03T10:14:42Z</time>
      </trkpt>
      <trkpt lat="45.11473" lon="0.6355">
        <ele>209</ele>
        <time>2022-04-03T10:14:49Z</time>
      </trkpt>
      <trkpt lat="45.11488" lon="0.63536">
        <ele>209.7</ele>
        <time>2022-04-03T10:14:55Z</time>
      </trkpt>
      <trkpt lat="45.11503" lon="0.63522">
        <ele>210.5</ele>
        <time>2022-04-03T10:15:01Z</time>
      </trkpt>
      <trkpt lat="45.11518" lon="0.63507">
        <ele>211.4</ele>
        <time>2022-04-03T10:15:08Z</time>
      </trkpt>
      <trkpt lat="45.11531" lon="0.63496">
        <ele>212.1</ele>
        <time>2022-04-03T10:15:13Z</time>
      </trkpt>
      <trkpt lat="45.11542" lon="0.6348">
        <ele>212.8</ele>
        <time>2022-04-03T10:15:20Z</time>
      </trkpt>
      <trkpt lat="45.11568" lon="0.63486">
        <ele>213.2</ele>
        <time>2022-04-03T10:15:25Z</time>
      </trkpt>
      <trkpt lat="45.11582" lon="0.63481">
        <ele>214.1</ele>
        <time>2022-04-03T10:15:31Z</time>
      </trkpt>
      <trkpt lat="45.11584" lon="0.6348">
        <ele>214.8</ele>
        <time>2022-04-03T10:15:32Z</time>
      </trkpt>
      <trkpt lat="45.11593" lon="0.63476">
        <ele>215.1</ele>
        <time>2022-04-03T10:15:35Z</time>
      </trkpt>
      <trkpt lat="45.11609" lon="0.63468">
        <ele>216.3</ele>
        <time>2022-04-03T10:15:41Z</time>
      </trkpt>
      <trkpt lat="45.11617" lon="0.63465">
        <ele>216.6</ele>
        <time>2022-04-03T10:15:45Z</time>
      </trkpt>
      <trkpt lat="45.11629" lon="0.63462">
        <ele>217.7</ele>
        <time>2022-04-03T10:15:50Z</time>
      </trkpt>
      <trkpt lat="45.11641" lon="0.63457">
        <ele>218.5</ele>
        <time>2022-04-03T10:15:54Z</time>
      </trkpt>
      <trkpt lat="45.11643" lon="0.63456">
        <ele>219.3</ele>
        <time>2022-04-03T10:15:55Z</time>
      </trkpt>
      <trkpt lat="45.11656" lon="0.6345">
        <ele>220</ele>
        <time>2022-04-03T10:16:00Z</time>
      </trkpt>
      <trkpt lat="45.11671" lon="0.63443">
        <ele>220.7</ele>
        <time>2022-04-03T10:16:06Z</time>
      </trkpt>
      <trkpt lat="45.11674" lon="0.63441">
        <ele>221.1</ele>
        <time>2022-04-03T10:16:08Z</time>
      </trkpt>
      <trkpt lat="45.11679" lon="0.63442">
        <ele>221.4</ele>
        <time>2022-04-03T10:16:10Z</time>
      </trkpt>
      <trkpt lat="45.11689" lon="0.63441">
        <ele>221.8</ele>
        <time>2022-04-03T10:16:14Z</time>
      </trkpt>
      <trkpt lat="45.1169" lon="0.63443">
        <ele>221.8</ele>
        <time>2022-04-03T10:16:15Z</time>
      </trkpt>
      <trkpt lat="45.11697" lon="0.63461">
        <ele>221.9</ele>
        <time>2022-04-03T10:16:20Z</time>
      </trkpt>
      <trkpt lat="45.11703" lon="0.63473">
        <ele>222</ele>
        <time>2022-04-03T10:16:25Z</time>
      </trkpt>
      <trkpt lat="45.11706" lon="0.63482">
        <ele>221.9</ele>
        <time>2022-04-03T10:16:27Z</time>
      </trkpt>
      <trkpt lat="45.11707" lon="0.63488">
        <ele>221.9</ele>
        <time>2022-04-03T10:16:29Z</time>
      </trkpt>
      <trkpt lat="45.11711" lon="0.63513">
        <ele>221.7</ele>
        <time>2022-04-03T10:16:34Z</time>
      </trkpt>
      <trkpt lat="45.11715" lon="0.63541">
        <ele>221.4</ele>
        <time>2022-04-03T10:16:39Z</time>
      </trkpt>
      <trkpt lat="45.11717" lon="0.63552">
        <ele>221.2</ele>
        <time>2022-04-03T10:16:41Z</time>
      </trkpt>
      <trkpt lat="45.11719" lon="0.63564">
        <ele>221.1</ele>
        <time>2022-04-03T10:16:43Z</time>
      </trkpt>
      <trkpt lat="45.11723" lon="0.63588">
        <ele>220.7</ele>
        <time>2022-04-03T10:16:47Z</time>
      </trkpt>
      <trkpt lat="45.11724" lon="0.63594">
        <ele>220.6</ele>
        <time>2022-04-03T10:16:48Z</time>
      </trkpt>
      <trkpt lat="45.11725" lon="0.636">
        <ele>220.5</ele>
        <time>2022-04-03T10:16:49Z</time>
      </trkpt>
      <trkpt lat="45.11728" lon="0.63619">
        <ele>220.1</ele>
        <time>2022-04-03T10:16:52Z</time>
      </trkpt>
      <trkpt lat="45.11729" lon="0.63643">
        <ele>219.8</ele>
        <time>2022-04-03T10:16:56Z</time>
      </trkpt>
      <trkpt lat="45.11723" lon="0.6367">
        <ele>220</ele>
        <time>2022-04-03T10:17:01Z</time>
      </trkpt>
      <trkpt lat="45.1172" lon="0.63683">
        <ele>220.3</ele>
        <time>2022-04-03T10:17:03Z</time>
      </trkpt>
      <trkpt lat="45.11719" lon="0.63702">
        <ele>220.3</ele>
        <time>2022-04-03T10:17:06Z</time>
      </trkpt>
      <trkpt lat="45.11719" lon="0.63707">
        <ele>220.3</ele>
        <time>2022-04-03T10:17:07Z</time>
      </trkpt>
      <trkpt lat="45.11719" lon="0.63719">
        <ele>220.3</ele>
        <time>2022-04-03T10:17:09Z</time>
      </trkpt>
      <trkpt lat="45.11718" lon="0.6373">
        <ele>220.2</ele>
        <time>2022-04-03T10:17:11Z</time>
      </trkpt>
      <trkpt lat="45.1171" lon="0.63773">
        <ele>219.5</ele>
        <time>2022-04-03T10:17:19Z</time>
      </trkpt>
      <trkpt lat="45.11703" lon="0.63801">
        <ele>218.9</ele>
        <time>2022-04-03T10:17:24Z</time>
      </trkpt>
      <trkpt lat="45.11703" lon="0.63821">
        <ele>219</ele>
        <time>2022-04-03T10:17:29Z</time>
      </trkpt>
      <trkpt lat="45.11705" lon="0.63822">
        <ele>219.1</ele>
        <time>2022-04-03T10:17:30Z</time>
      </trkpt>
      <trkpt lat="45.11711" lon="0.63825">
        <ele>219.5</ele>
        <time>2022-04-03T10:17:33Z</time>
      </trkpt>
      <trkpt lat="45.11724" lon="0.63832">
        <ele>220.2</ele>
        <time>2022-04-03T10:17:38Z</time>
      </trkpt>
      <trkpt lat="45.11753" lon="0.63845">
        <ele>221.1</ele>
        <time>2022-04-03T10:17:46Z</time>
      </trkpt>
      <trkpt lat="45.11756" lon="0.63847">
        <ele>221.2</ele>
        <time>2022-04-03T10:17:47Z</time>
      </trkpt>
      <trkpt lat="45.11759" lon="0.63848">
        <ele>221.2</ele>
        <time>2022-04-03T10:17:49Z</time>
      </trkpt>
      <trkpt lat="45.11748" lon="0.63865">
        <ele>221.4</ele>
        <time>2022-04-03T10:17:52Z</time>
      </trkpt>
      <trkpt lat="45.11727" lon="0.63883">
        <ele>221.3</ele>
        <time>2022-04-03T10:17:57Z</time>
      </trkpt>
      <trkpt lat="45.11725" lon="0.63888">
        <ele>221</ele>
        <time>2022-04-03T10:17:58Z</time>
      </trkpt>
      <trkpt lat="45.11719" lon="0.63897">
        <ele>221.1</ele>
        <time>2022-04-03T10:18:00Z</time>
      </trkpt>
      <trkpt lat="45.11717" lon="0.63901">
        <ele>221.1</ele>
        <time>2022-04-03T10:18:01Z</time>
      </trkpt>
      <trkpt lat="45.11699" lon="0.63931">
        <ele>220.4</ele>
        <time>2022-04-03T10:18:08Z</time>
      </trkpt>
      <trkpt lat="45.11697" lon="0.6394">
        <ele>220.4</ele>
        <time>2022-04-03T10:18:10Z</time>
      </trkpt>
      <trkpt lat="45.11695" lon="0.63942">
        <ele>220.4</ele>
        <time>2022-04-03T10:18:11Z</time>
      </trkpt>
      <trkpt lat="45.11697" lon="0.63944">
        <ele>220.4</ele>
        <time>2022-04-03T10:18:12Z</time>
      </trkpt>
      <trkpt lat="45.11701" lon="0.63951">
        <ele>220.4</ele>
        <time>2022-04-03T10:18:14Z</time>
      </trkpt>
      <trkpt lat="45.11707" lon="0.63958">
        <ele>220.4</ele>
        <time>2022-04-03T10:18:16Z</time>
      </trkpt>
      <trkpt lat="45.1171" lon="0.63961">
        <ele>220.4</ele>
        <time>2022-04-03T10:18:17Z</time>
      </trkpt>
      <trkpt lat="45.11706" lon="0.6398">
        <ele>220</ele>
        <time>2022-04-03T10:18:19Z</time>
      </trkpt>
      <trkpt lat="45.11706" lon="0.63993">
        <ele>219.6</ele>
        <time>2022-04-03T10:18:21Z</time>
      </trkpt>
      <trkpt lat="45.11707" lon="0.64001">
        <ele>219.4</ele>
        <time>2022-04-03T10:18:22Z</time>
      </trkpt>
      <trkpt lat="45.11708" lon="0.64024">
        <ele>218.8</ele>
        <time>2022-04-03T10:18:25Z</time>
      </trkpt>
      <trkpt lat="45.1171" lon="0.64078">
        <ele>218</ele>
        <time>2022-04-03T10:18:31Z</time>
      </trkpt>
      <trkpt lat="45.11711" lon="0.64094">
        <ele>218</ele>
        <time>2022-04-03T10:18:33Z</time>
      </trkpt>
      <trkpt lat="45.11713" lon="0.64115">
        <ele>218.1</ele>
        <time>2022-04-03T10:18:36Z</time>
      </trkpt>
      <trkpt lat="45.11707" lon="0.64149">
        <ele>218.2</ele>
        <time>2022-04-03T10:18:41Z</time>
      </trkpt>
      <trkpt lat="45.11706" lon="0.64155">
        <ele>218.2</ele>
        <time>2022-04-03T10:18:42Z</time>
      </trkpt>
      <trkpt lat="45.11699" lon="0.6418">
        <ele>218.3</ele>
        <time>2022-04-03T10:18:46Z</time>
      </trkpt>
      <trkpt lat="45.11694" lon="0.64218">
        <ele>218.4</ele>
        <time>2022-04-03T10:18:52Z</time>
      </trkpt>
      <trkpt lat="45.11701" lon="0.64233">
        <ele>218.5</ele>
        <time>2022-04-03T10:18:55Z</time>
      </trkpt>
      <trkpt lat="45.11718" lon="0.6423">
        <ele>218.6</ele>
        <time>2022-04-03T10:19:01Z</time>
      </trkpt>
      <trkpt lat="45.11737" lon="0.64225">
        <ele>218.5</ele>
        <time>2022-04-03T10:19:07Z</time>
      </trkpt>
      <trkpt lat="45.11769" lon="0.64217">
        <ele>218.3</ele>
        <time>2022-04-03T10:19:15Z</time>
      </trkpt>
      <trkpt lat="45.118" lon="0.64215">
        <ele>217.8</ele>
        <time>2022-04-03T10:19:22Z</time>
      </trkpt>
      <trkpt lat="45.11816" lon="0.64217">
        <ele>217.7</ele>
        <time>2022-04-03T10:19:26Z</time>
      </trkpt>
      <trkpt lat="45.11836" lon="0.6422">
        <ele>217.7</ele>
        <time>2022-04-03T10:19:31Z</time>
      </trkpt>
      <trkpt lat="45.11853" lon="0.64223">
        <ele>217.9</ele>
        <time>2022-04-03T10:19:35Z</time>
      </trkpt>
      <trkpt lat="45.11868" lon="0.64225">
        <ele>218.1</ele>
        <time>2022-04-03T10:19:38Z</time>
      </trkpt>
      <trkpt lat="45.11904" lon="0.6423">
        <ele>218.1</ele>
        <time>2022-04-03T10:19:46Z</time>
      </trkpt>
      <trkpt lat="45.11909" lon="0.64225">
        <ele>218.1</ele>
        <time>2022-04-03T10:19:47Z</time>
      </trkpt>
      <trkpt lat="45.11922" lon="0.64218">
        <ele>218.2</ele>
        <time>2022-04-03T10:19:51Z</time>
      </trkpt>
      <trkpt lat="45.11942" lon="0.64206">
        <ele>218.1</ele>
        <time>2022-04-03T10:19:56Z</time>
      </trkpt>
      <trkpt lat="45.11954" lon="0.642">
        <ele>218.2</ele>
        <time>2022-04-03T10:19:59Z</time>
      </trkpt>
      <trkpt lat="45.11984" lon="0.64183">
        <ele>218.3</ele>
        <time>2022-04-03T10:20:06Z</time>
      </trkpt>
      <trkpt lat="45.12025" lon="0.6416">
        <ele>218.3</ele>
        <time>2022-04-03T10:20:16Z</time>
      </trkpt>
      <trkpt lat="45.12048" lon="0.64147">
        <ele>218.3</ele>
        <time>2022-04-03T10:20:22Z</time>
      </trkpt>
      <trkpt lat="45.12053" lon="0.6415">
        <ele>218.2</ele>
        <time>2022-04-03T10:20:24Z</time>
      </trkpt>
      <trkpt lat="45.12057" lon="0.64153">
        <ele>218.1</ele>
        <time>2022-04-03T10:20:26Z</time>
      </trkpt>
      <trkpt lat="45.1207" lon="0.64143">
        <ele>217.7</ele>
        <time>2022-04-03T10:20:30Z</time>
      </trkpt>
      <trkpt lat="45.12103" lon="0.64121">
        <ele>217</ele>
        <time>2022-04-03T10:20:37Z</time>
      </trkpt>
      <trkpt lat="45.12123" lon="0.6411">
        <ele>216.3</ele>
        <time>2022-04-03T10:20:42Z</time>
      </trkpt>
      <trkpt lat="45.12137" lon="0.64102">
        <ele>215.7</ele>
        <time>2022-04-03T10:20:46Z</time>
      </trkpt>
      <trkpt lat="45.12145" lon="0.64098">
        <ele>215.4</ele>
        <time>2022-04-03T10:20:48Z</time>
      </trkpt>
      <trkpt lat="45.12153" lon="0.64094">
        <ele>215.1</ele>
        <time>2022-04-03T10:20:50Z</time>
      </trkpt>
      <trkpt lat="45.12178" lon="0.64084">
        <ele>214</ele>
        <time>2022-04-03T10:20:55Z</time>
      </trkpt>
      <trkpt lat="45.12183" lon="0.64083">
        <ele>213.8</ele>
        <time>2022-04-03T10:20:56Z</time>
      </trkpt>
      <trkpt lat="45.12188" lon="0.6408">
        <ele>213.6</ele>
        <time>2022-04-03T10:20:58Z</time>
      </trkpt>
      <trkpt lat="45.122" lon="0.6405">
        <ele>214.4</ele>
        <time>2022-04-03T10:21:04Z</time>
      </trkpt>
      <trkpt lat="45.12209" lon="0.64025">
        <ele>215.1</ele>
        <time>2022-04-03T10:21:09Z</time>
      </trkpt>
      <trkpt lat="45.1221" lon="0.64021">
        <ele>215.2</ele>
        <time>2022-04-03T10:21:10Z</time>
      </trkpt>
      <trkpt lat="45.12216" lon="0.64017">
        <ele>215</ele>
        <time>2022-04-03T10:21:12Z</time>
      </trkpt>
      <trkpt lat="45.12241" lon="0.64021">
        <ele>212.8</ele>
        <time>2022-04-03T10:21:18Z</time>
      </trkpt>
      <trkpt lat="45.12246" lon="0.64023">
        <ele>212.3</ele>
        <time>2022-04-03T10:21:19Z</time>
      </trkpt>
      <trkpt lat="45.12261" lon="0.64027">
        <ele>210.8</ele>
        <time>2022-04-03T10:21:22Z</time>
      </trkpt>
      <trkpt lat="45.12288" lon="0.64026">
        <ele>208.6</ele>
        <time>2022-04-03T10:21:27Z</time>
      </trkpt>
      <trkpt lat="45.12303" lon="0.64023">
        <ele>207.6</ele>
        <time>2022-04-03T10:21:30Z</time>
      </trkpt>
      <trkpt lat="45.12336" lon="0.64021">
        <ele>205.4</ele>
        <time>2022-04-03T10:21:34Z</time>
      </trkpt>
      <trkpt lat="45.12378" lon="0.64036">
        <ele>202.7</ele>
        <time>2022-04-03T10:21:39Z</time>
      </trkpt>
      <trkpt lat="45.12418" lon="0.64055">
        <ele>200.6</ele>
        <time>2022-04-03T10:21:44Z</time>
      </trkpt>
      <trkpt lat="45.12458" lon="0.64064">
        <ele>198.5</ele>
        <time>2022-04-03T10:21:49Z</time>
      </trkpt>
      <trkpt lat="45.12491" lon="0.6407">
        <ele>196.3</ele>
        <time>2022-04-03T10:21:53Z</time>
      </trkpt>
      <trkpt lat="45.12499" lon="0.64073">
        <ele>195.7</ele>
        <time>2022-04-03T10:21:54Z</time>
      </trkpt>
      <trkpt lat="45.1251" lon="0.64078">
        <ele>194.8</ele>
        <time>2022-04-03T10:21:56Z</time>
      </trkpt>
      <trkpt lat="45.12523" lon="0.64083">
        <ele>193.8</ele>
        <time>2022-04-03T10:21:58Z</time>
      </trkpt>
      <trkpt lat="45.12533" lon="0.64072">
        <ele>194</ele>
        <time>2022-04-03T10:22:00Z</time>
      </trkpt>
      <trkpt lat="45.12536" lon="0.64053">
        <ele>195</ele>
        <time>2022-04-03T10:22:03Z</time>
      </trkpt>
      <trkpt lat="45.12538" lon="0.6404">
        <ele>195.6</ele>
        <time>2022-04-03T10:22:05Z</time>
      </trkpt>
      <trkpt lat="45.12542" lon="0.64005">
        <ele>196.7</ele>
        <time>2022-04-03T10:22:10Z</time>
      </trkpt>
      <trkpt lat="45.12543" lon="0.6399">
        <ele>197</ele>
        <time>2022-04-03T10:22:12Z</time>
      </trkpt>
      <trkpt lat="45.12544" lon="0.63984">
        <ele>197.8</ele>
        <time>2022-04-03T10:22:13Z</time>
      </trkpt>
      <trkpt lat="45.12555" lon="0.63977">
        <ele>196.9</ele>
        <time>2022-04-03T10:22:14Z</time>
      </trkpt>
      <trkpt lat="45.12565" lon="0.63973">
        <ele>195.7</ele>
        <time>2022-04-03T10:22:16Z</time>
      </trkpt>
      <trkpt lat="45.12569" lon="0.63975">
        <ele>195.2</ele>
        <time>2022-04-03T10:22:17Z</time>
      </trkpt>
      <trkpt lat="45.12584" lon="0.63982">
        <ele>192.9</ele>
        <time>2022-04-03T10:22:20Z</time>
      </trkpt>
      <trkpt lat="45.12624" lon="0.64002">
        <ele>185.2</ele>
        <time>2022-04-03T10:22:26Z</time>
      </trkpt>
      <trkpt lat="45.12653" lon="0.64014">
        <ele>181.1</ele>
        <time>2022-04-03T10:22:30Z</time>
      </trkpt>
      <trkpt lat="45.12661" lon="0.64019">
        <ele>180</ele>
        <time>2022-04-03T10:22:32Z</time>
      </trkpt>
      <trkpt lat="45.12664" lon="0.64021">
        <ele>179.6</ele>
        <time>2022-04-03T10:22:33Z</time>
      </trkpt>
      <trkpt lat="45.12667" lon="0.64023">
        <ele>179.2</ele>
        <time>2022-04-03T10:22:34Z</time>
      </trkpt>
      <trkpt lat="45.12682" lon="0.64021">
        <ele>177.4</ele>
        <time>2022-04-03T10:22:36Z</time>
      </trkpt>
      <trkpt lat="45.12691" lon="0.64014">
        <ele>176.2</ele>
        <time>2022-04-03T10:22:38Z</time>
      </trkpt>
      <trkpt lat="45.12696" lon="0.64011">
        <ele>175.7</ele>
        <time>2022-04-03T10:22:39Z</time>
      </trkpt>
      <trkpt lat="45.12701" lon="0.64008">
        <ele>175.1</ele>
        <time>2022-04-03T10:22:40Z</time>
      </trkpt>
      <trkpt lat="45.12708" lon="0.64006">
        <ele>172</ele>
        <time>2022-04-03T10:22:42Z</time>
      </trkpt>
      <trkpt lat="45.12709" lon="0.63985">
        <ele>170.7</ele>
        <time>2022-04-03T10:22:43Z</time>
      </trkpt>
      <trkpt lat="45.12711" lon="0.63964">
        <ele>169.4</ele>
        <time>2022-04-03T10:22:44Z</time>
      </trkpt>
      <trkpt lat="45.1271" lon="0.63939">
        <ele>168.2</ele>
        <time>2022-04-03T10:22:47Z</time>
      </trkpt>
      <trkpt lat="45.12711" lon="0.63929">
        <ele>166.9</ele>
        <time>2022-04-03T10:22:48Z</time>
      </trkpt>
      <trkpt lat="45.12715" lon="0.63914">
        <ele>166.1</ele>
        <time>2022-04-03T10:22:50Z</time>
      </trkpt>
      <trkpt lat="45.12716" lon="0.63905">
        <ele>165.5</ele>
        <time>2022-04-03T10:22:52Z</time>
      </trkpt>
      <trkpt lat="45.12721" lon="0.63903">
        <ele>165</ele>
        <time>2022-04-03T10:22:53Z</time>
      </trkpt>
      <trkpt lat="45.12759" lon="0.63883">
        <ele>161.5</ele>
        <time>2022-04-03T10:22:59Z</time>
      </trkpt>
      <trkpt lat="45.12776" lon="0.63871">
        <ele>160.1</ele>
        <time>2022-04-03T10:23:03Z</time>
      </trkpt>
      <trkpt lat="45.1278" lon="0.63868">
        <ele>159.8</ele>
        <time>2022-04-03T10:23:07Z</time>
      </trkpt>
      <trkpt lat="45.12782" lon="0.63867">
        <ele>159.6</ele>
        <time>2022-04-03T10:23:14Z</time>
      </trkpt>
      <trkpt lat="45.12786" lon="0.63863">
        <ele>159.3</ele>
        <time>2022-04-03T10:23:16Z</time>
      </trkpt>
      <trkpt lat="45.12803" lon="0.63851">
        <ele>158.2</ele>
        <time>2022-04-03T10:23:21Z</time>
      </trkpt>
      <trkpt lat="45.12814" lon="0.63861">
        <ele>158</ele>
        <time>2022-04-03T10:23:24Z</time>
      </trkpt>
      <trkpt lat="45.12825" lon="0.63896">
        <ele>158.7</ele>
        <time>2022-04-03T10:23:32Z</time>
      </trkpt>
      <trkpt lat="45.12827" lon="0.639">
        <ele>158.9</ele>
        <time>2022-04-03T10:23:33Z</time>
      </trkpt>
      <trkpt lat="45.12829" lon="0.63906">
        <ele>159.1</ele>
        <time>2022-04-03T10:23:35Z</time>
      </trkpt>
      <trkpt lat="45.12849" lon="0.63897">
        <ele>160.4</ele>
        <time>2022-04-03T10:23:40Z</time>
      </trkpt>
      <trkpt lat="45.1286" lon="0.63895">
        <ele>161.2</ele>
        <time>2022-04-03T10:23:45Z</time>
      </trkpt>
      <trkpt lat="45.12862" lon="0.63896">
        <ele>161.4</ele>
        <time>2022-04-03T10:23:48Z</time>
      </trkpt>
    </trkseg>
  </trk>
</gpx>